<?xml version="1.0" encoding="UTF-8" standalone="no" ?>
<gpx xmlns="http://www.topografix.com/GPX/1/1" xmlns:xsi="http://www.w3.org/2001/XMLSchema-instance" xsi:schemaLocation="http://www.topografix.com/GPX/1/1 http://www.topografix.com/GPX/1/1/gpx.xsd" version="1.1" creator="VisuGPX - https://www.visugpx.com">
  <metadata>
    <name>Trail des alpes maritimes 53km</name>
    <desc><![CDATA[La course de 53 km (2700  4300-) Départ col de Turini 8h00, Moulinet, Baisse de linière, Sospel, Col du Razet, Castellar, Menton \"Plage des Sablettes\"]]></desc>
  </metadata>
  <trk>
    <name><![CDATA[Trail des alpes maritimes 53km_1]]></name>
    <trkseg>
      <trkpt lat="43.97745" lon="7.39162">
        <ele>1606.0484619</ele>
        <time>2008-10-05T05:51:04Z</time>
      </trkpt>
      <trkpt lat="43.97744" lon="7.39162">
        <ele>1606.1119385</ele>
        <time>2008-10-05T05:51:05Z</time>
      </trkpt>
      <trkpt lat="43.97736" lon="7.39166">
        <ele>1606.8052979</ele>
        <time>2008-10-05T05:51:09Z</time>
      </trkpt>
      <trkpt lat="43.97715" lon="7.39177">
        <ele>1606.9060059</ele>
        <time>2008-10-05T05:51:16Z</time>
      </trkpt>
      <trkpt lat="43.97698" lon="7.39189">
        <ele>1606.7490234</ele>
        <time>2008-10-05T05:51:22Z</time>
      </trkpt>
      <trkpt lat="43.97691" lon="7.39203">
        <ele>1606.0892334</ele>
        <time>2008-10-05T05:51:27Z</time>
      </trkpt>
      <trkpt lat="43.97681" lon="7.39232">
        <ele>1604.4960938</ele>
        <time>2008-10-05T05:51:36Z</time>
      </trkpt>
      <trkpt lat="43.97676" lon="7.39242">
        <ele>1604.2374268</ele>
        <time>2008-10-05T05:51:39Z</time>
      </trkpt>
      <trkpt lat="43.97662" lon="7.39265">
        <ele>1603.2702637</ele>
        <time>2008-10-05T05:51:48Z</time>
      </trkpt>
      <trkpt lat="43.97646" lon="7.39285">
        <ele>1604.4459229</ele>
        <time>2008-10-05T05:51:57Z</time>
      </trkpt>
      <trkpt lat="43.97632" lon="7.39303">
        <ele>1606.152832</ele>
        <time>2008-10-05T05:52:04Z</time>
      </trkpt>
      <trkpt lat="43.97619" lon="7.39323">
        <ele>1608.21875</ele>
        <time>2008-10-05T05:52:12Z</time>
      </trkpt>
      <trkpt lat="43.97603" lon="7.39339">
        <ele>1612.118042</ele>
        <time>2008-10-05T05:52:21Z</time>
      </trkpt>
      <trkpt lat="43.97596" lon="7.39342">
        <ele>1614.4477539</ele>
        <time>2008-10-05T05:52:24Z</time>
      </trkpt>
      <trkpt lat="43.97577" lon="7.39332">
        <ele>1621.6575928</ele>
        <time>2008-10-05T05:52:33Z</time>
      </trkpt>
      <trkpt lat="43.9758" lon="7.39318">
        <ele>1622.3151855</ele>
        <time>2008-10-05T05:52:38Z</time>
      </trkpt>
      <trkpt lat="43.97589" lon="7.39292">
        <ele>1621.711792</ele>
        <time>2008-10-05T05:52:47Z</time>
      </trkpt>
      <trkpt lat="43.97596" lon="7.39267">
        <ele>1621.4208984</ele>
        <time>2008-10-05T05:52:55Z</time>
      </trkpt>
      <trkpt lat="43.97596" lon="7.39248">
        <ele>1622.668457</ele>
        <time>2008-10-05T05:53:01Z</time>
      </trkpt>
      <trkpt lat="43.97578" lon="7.3923">
        <ele>1625.7818604</ele>
        <time>2008-10-05T05:53:09Z</time>
      </trkpt>
      <trkpt lat="43.97576" lon="7.39228">
        <ele>1626.0030518</ele>
        <time>2008-10-05T05:53:10Z</time>
      </trkpt>
      <trkpt lat="43.9756" lon="7.3921">
        <ele>1627.4539795</ele>
        <time>2008-10-05T05:53:18Z</time>
      </trkpt>
      <trkpt lat="43.97542" lon="7.39199">
        <ele>1629.6523438</ele>
        <time>2008-10-05T05:53:25Z</time>
      </trkpt>
      <trkpt lat="43.97526" lon="7.39184">
        <ele>1631.4718018</ele>
        <time>2008-10-05T05:53:33Z</time>
      </trkpt>
      <trkpt lat="43.97514" lon="7.39163">
        <ele>1632.8395996</ele>
        <time>2008-10-05T05:53:42Z</time>
      </trkpt>
      <trkpt lat="43.97507" lon="7.39141">
        <ele>1634.585083</ele>
        <time>2008-10-05T05:53:49Z</time>
      </trkpt>
      <trkpt lat="43.97512" lon="7.39117">
        <ele>1634.3901367</ele>
        <time>2008-10-05T05:53:57Z</time>
      </trkpt>
      <trkpt lat="43.97512" lon="7.39091">
        <ele>1635.1518555</ele>
        <time>2008-10-05T05:54:04Z</time>
      </trkpt>
      <trkpt lat="43.97511" lon="7.39063">
        <ele>1635.1656494</ele>
        <time>2008-10-05T05:54:10Z</time>
      </trkpt>
      <trkpt lat="43.97515" lon="7.39036">
        <ele>1633.831543</ele>
        <time>2008-10-05T05:54:16Z</time>
      </trkpt>
      <trkpt lat="43.97517" lon="7.3901">
        <ele>1632.7937012</ele>
        <time>2008-10-05T05:54:23Z</time>
      </trkpt>
      <trkpt lat="43.97512" lon="7.38982">
        <ele>1633.4190674</ele>
        <time>2008-10-05T05:54:30Z</time>
      </trkpt>
      <trkpt lat="43.97509" lon="7.38955">
        <ele>1633.9107666</ele>
        <time>2008-10-05T05:54:38Z</time>
      </trkpt>
      <trkpt lat="43.97506" lon="7.38928">
        <ele>1633.9559326</ele>
        <time>2008-10-05T05:54:44Z</time>
      </trkpt>
      <trkpt lat="43.97504" lon="7.38901">
        <ele>1633.7436523</ele>
        <time>2008-10-05T05:54:51Z</time>
      </trkpt>
      <trkpt lat="43.97494" lon="7.38879">
        <ele>1636.3051758</ele>
        <time>2008-10-05T05:54:59Z</time>
      </trkpt>
      <trkpt lat="43.97492" lon="7.38865">
        <ele>1636.4608154</ele>
        <time>2008-10-05T05:55:03Z</time>
      </trkpt>
      <trkpt lat="43.97487" lon="7.38837">
        <ele>1636.7652588</ele>
        <time>2008-10-05T05:55:10Z</time>
      </trkpt>
      <trkpt lat="43.97482" lon="7.3881">
        <ele>1637.0133057</ele>
        <time>2008-10-05T05:55:18Z</time>
      </trkpt>
      <trkpt lat="43.97474" lon="7.38787">
        <ele>1638.3929443</ele>
        <time>2008-10-05T05:55:24Z</time>
      </trkpt>
      <trkpt lat="43.97463" lon="7.38764">
        <ele>1640.7261963</ele>
        <time>2008-10-05T05:55:31Z</time>
      </trkpt>
      <trkpt lat="43.97452" lon="7.38742">
        <ele>1643.2745361</ele>
        <time>2008-10-05T05:55:39Z</time>
      </trkpt>
      <trkpt lat="43.9744" lon="7.38723">
        <ele>1645.9014893</ele>
        <time>2008-10-05T05:55:46Z</time>
      </trkpt>
      <trkpt lat="43.97429" lon="7.38702">
        <ele>1648.4243164</ele>
        <time>2008-10-05T05:55:53Z</time>
      </trkpt>
      <trkpt lat="43.97422" lon="7.38689">
        <ele>1649.7313232</ele>
        <time>2008-10-05T05:55:58Z</time>
      </trkpt>
      <trkpt lat="43.97412" lon="7.38665">
        <ele>1651.2799072</ele>
        <time>2008-10-05T05:56:08Z</time>
      </trkpt>
      <trkpt lat="43.9741" lon="7.3866">
        <ele>1651.1251221</ele>
        <time>2008-10-05T05:56:10Z</time>
      </trkpt>
      <trkpt lat="43.97398" lon="7.38633">
        <ele>1651.0125732</ele>
        <time>2008-10-05T05:56:18Z</time>
      </trkpt>
      <trkpt lat="43.97389" lon="7.38612">
        <ele>1651.177124</ele>
        <time>2008-10-05T05:56:25Z</time>
      </trkpt>
      <trkpt lat="43.97383" lon="7.3859">
        <ele>1650.0969238</ele>
        <time>2008-10-05T05:56:32Z</time>
      </trkpt>
      <trkpt lat="43.97372" lon="7.38565">
        <ele>1650.5269775</ele>
        <time>2008-10-05T05:56:40Z</time>
      </trkpt>
      <trkpt lat="43.97363" lon="7.38541">
        <ele>1651.2318115</ele>
        <time>2008-10-05T05:56:47Z</time>
      </trkpt>
      <trkpt lat="43.97356" lon="7.38518">
        <ele>1651.4060059</ele>
        <time>2008-10-05T05:56:53Z</time>
      </trkpt>
      <trkpt lat="43.97347" lon="7.38492">
        <ele>1652.4345703</ele>
        <time>2008-10-05T05:57:00Z</time>
      </trkpt>
      <trkpt lat="43.97335" lon="7.38469">
        <ele>1655.732666</ele>
        <time>2008-10-05T05:57:08Z</time>
      </trkpt>
      <trkpt lat="43.97326" lon="7.38453">
        <ele>1659.8355713</ele>
        <time>2008-10-05T05:57:14Z</time>
      </trkpt>
      <trkpt lat="43.97318" lon="7.38456">
        <ele>1664.6787109</ele>
        <time>2008-10-05T05:57:18Z</time>
      </trkpt>
      <trkpt lat="43.97314" lon="7.38477">
        <ele>1668.4696045</ele>
        <time>2008-10-05T05:57:26Z</time>
      </trkpt>
      <trkpt lat="43.97313" lon="7.38503">
        <ele>1671.6945801</ele>
        <time>2008-10-05T05:57:37Z</time>
      </trkpt>
      <trkpt lat="43.97314" lon="7.38523">
        <ele>1672.6925049</ele>
        <time>2008-10-05T05:57:47Z</time>
      </trkpt>
      <trkpt lat="43.97314" lon="7.3855">
        <ele>1674.8939209</ele>
        <time>2008-10-05T05:57:58Z</time>
      </trkpt>
      <trkpt lat="43.97315" lon="7.38566">
        <ele>1675.3389893</ele>
        <time>2008-10-05T05:58:03Z</time>
      </trkpt>
      <trkpt lat="43.97319" lon="7.38595">
        <ele>1675.6796875</ele>
        <time>2008-10-05T05:58:13Z</time>
      </trkpt>
      <trkpt lat="43.97321" lon="7.38622">
        <ele>1677.4299316</ele>
        <time>2008-10-05T05:58:21Z</time>
      </trkpt>
      <trkpt lat="43.97322" lon="7.3865">
        <ele>1680.0760498</ele>
        <time>2008-10-05T05:58:31Z</time>
      </trkpt>
      <trkpt lat="43.97322" lon="7.38662">
        <ele>1681.0993652</ele>
        <time>2008-10-05T05:58:35Z</time>
      </trkpt>
      <trkpt lat="43.97326" lon="7.38688">
        <ele>1682.4019775</ele>
        <time>2008-10-05T05:58:46Z</time>
      </trkpt>
      <trkpt lat="43.97326" lon="7.38693">
        <ele>1682.5737305</ele>
        <time>2008-10-05T05:58:49Z</time>
      </trkpt>
      <trkpt lat="43.97314" lon="7.3867">
        <ele>1685.3062744</ele>
        <time>2008-10-05T05:59:00Z</time>
      </trkpt>
      <trkpt lat="43.97302" lon="7.38651">
        <ele>1688.7393799</ele>
        <time>2008-10-05T05:59:09Z</time>
      </trkpt>
      <trkpt lat="43.9729" lon="7.38633">
        <ele>1693.0998535</ele>
        <time>2008-10-05T05:59:17Z</time>
      </trkpt>
      <trkpt lat="43.97285" lon="7.38621">
        <ele>1694.7185059</ele>
        <time>2008-10-05T05:59:21Z</time>
      </trkpt>
      <trkpt lat="43.97284" lon="7.38612">
        <ele>1695.0559082</ele>
        <time>2008-10-05T05:59:25Z</time>
      </trkpt>
      <trkpt lat="43.9728" lon="7.38582">
        <ele>1695.6463623</ele>
        <time>2008-10-05T05:59:37Z</time>
      </trkpt>
      <trkpt lat="43.9728" lon="7.38568">
        <ele>1694.8513184</ele>
        <time>2008-10-05T05:59:43Z</time>
      </trkpt>
      <trkpt lat="43.97274" lon="7.3854">
        <ele>1696.9356689</ele>
        <time>2008-10-05T05:59:52Z</time>
      </trkpt>
      <trkpt lat="43.97269" lon="7.38514">
        <ele>1698.0477295</ele>
        <time>2008-10-05T06:00:01Z</time>
      </trkpt>
      <trkpt lat="43.97266" lon="7.38486">
        <ele>1698.144165</ele>
        <time>2008-10-05T06:00:10Z</time>
      </trkpt>
      <trkpt lat="43.97263" lon="7.3846">
        <ele>1698.4837646</ele>
        <time>2008-10-05T06:00:18Z</time>
      </trkpt>
      <trkpt lat="43.97262" lon="7.38445">
        <ele>1697.6351318</ele>
        <time>2008-10-05T06:00:23Z</time>
      </trkpt>
      <trkpt lat="43.97258" lon="7.38415">
        <ele>1697.8669434</ele>
        <time>2008-10-05T06:00:31Z</time>
      </trkpt>
      <trkpt lat="43.97256" lon="7.38408">
        <ele>1697.9597168</ele>
        <time>2008-10-05T06:00:33Z</time>
      </trkpt>
      <trkpt lat="43.97249" lon="7.38378">
        <ele>1699.0380859</ele>
        <time>2008-10-05T06:00:42Z</time>
      </trkpt>
      <trkpt lat="43.97241" lon="7.38353">
        <ele>1700.286377</ele>
        <time>2008-10-05T06:00:50Z</time>
      </trkpt>
      <trkpt lat="43.9724" lon="7.38351">
        <ele>1700.4193115</ele>
        <time>2008-10-05T06:00:51Z</time>
      </trkpt>
      <trkpt lat="43.97226" lon="7.3833">
        <ele>1705.5780029</ele>
        <time>2008-10-05T06:01:05Z</time>
      </trkpt>
      <trkpt lat="43.97211" lon="7.38313">
        <ele>1709.0870361</ele>
        <time>2008-10-05T06:01:15Z</time>
      </trkpt>
      <trkpt lat="43.97195" lon="7.38301">
        <ele>1715.7613525</ele>
        <time>2008-10-05T06:01:24Z</time>
      </trkpt>
      <trkpt lat="43.97181" lon="7.38282">
        <ele>1719.3929443</ele>
        <time>2008-10-05T06:01:32Z</time>
      </trkpt>
      <trkpt lat="43.97176" lon="7.38257">
        <ele>1716.9134521</ele>
        <time>2008-10-05T06:01:40Z</time>
      </trkpt>
      <trkpt lat="43.97172" lon="7.38232">
        <ele>1714.5827637</ele>
        <time>2008-10-05T06:01:47Z</time>
      </trkpt>
      <trkpt lat="43.97167" lon="7.38207">
        <ele>1713.6845703</ele>
        <time>2008-10-05T06:01:54Z</time>
      </trkpt>
      <trkpt lat="43.97157" lon="7.38185">
        <ele>1710.9876709</ele>
        <time>2008-10-05T06:02:01Z</time>
      </trkpt>
      <trkpt lat="43.97144" lon="7.38164">
        <ele>1707.133667</ele>
        <time>2008-10-05T06:02:07Z</time>
      </trkpt>
      <trkpt lat="43.97127" lon="7.38155">
        <ele>1705.2698975</ele>
        <time>2008-10-05T06:02:13Z</time>
      </trkpt>
      <trkpt lat="43.97107" lon="7.38155">
        <ele>1705.7717285</ele>
        <time>2008-10-05T06:02:19Z</time>
      </trkpt>
      <trkpt lat="43.97089" lon="7.38154">
        <ele>1705.7258301</ele>
        <time>2008-10-05T06:02:24Z</time>
      </trkpt>
      <trkpt lat="43.97069" lon="7.38149">
        <ele>1702.7216797</ele>
        <time>2008-10-05T06:02:30Z</time>
      </trkpt>
      <trkpt lat="43.9705" lon="7.38146">
        <ele>1700.1420898</ele>
        <time>2008-10-05T06:02:36Z</time>
      </trkpt>
      <trkpt lat="43.97029" lon="7.38149">
        <ele>1699.6934814</ele>
        <time>2008-10-05T06:02:42Z</time>
      </trkpt>
      <trkpt lat="43.9701" lon="7.38156">
        <ele>1700.1741943</ele>
        <time>2008-10-05T06:02:48Z</time>
      </trkpt>
      <trkpt lat="43.96991" lon="7.38158">
        <ele>1700.7758789</ele>
        <time>2008-10-05T06:02:55Z</time>
      </trkpt>
      <trkpt lat="43.9697" lon="7.38162">
        <ele>1703.6920166</ele>
        <time>2008-10-05T06:03:02Z</time>
      </trkpt>
      <trkpt lat="43.96952" lon="7.3816">
        <ele>1704.3624268</ele>
        <time>2008-10-05T06:03:09Z</time>
      </trkpt>
      <trkpt lat="43.96933" lon="7.3816">
        <ele>1706.1275635</ele>
        <time>2008-10-05T06:03:17Z</time>
      </trkpt>
      <trkpt lat="43.96925" lon="7.3816">
        <ele>1706.6818848</ele>
        <time>2008-10-05T06:03:22Z</time>
      </trkpt>
      <trkpt lat="43.96915" lon="7.38162">
        <ele>1708.2163086</ele>
        <time>2008-10-05T06:03:26Z</time>
      </trkpt>
      <trkpt lat="43.96909" lon="7.38162">
        <ele>1708.4711914</ele>
        <time>2008-10-05T06:03:28Z</time>
      </trkpt>
      <trkpt lat="43.96886" lon="7.38169">
        <ele>1711.4348145</ele>
        <time>2008-10-05T06:03:35Z</time>
      </trkpt>
      <trkpt lat="43.96867" lon="7.38164">
        <ele>1711.0731201</ele>
        <time>2008-10-05T06:03:42Z</time>
      </trkpt>
      <trkpt lat="43.96853" lon="7.38159">
        <ele>1710.3416748</ele>
        <time>2008-10-05T06:03:47Z</time>
      </trkpt>
      <trkpt lat="43.96835" lon="7.38139">
        <ele>1707.5424805</ele>
        <time>2008-10-05T06:03:54Z</time>
      </trkpt>
      <trkpt lat="43.96823" lon="7.38119">
        <ele>1703.5449219</ele>
        <time>2008-10-05T06:04:01Z</time>
      </trkpt>
      <trkpt lat="43.96814" lon="7.38095">
        <ele>1701.5834961</ele>
        <time>2008-10-05T06:04:08Z</time>
      </trkpt>
      <trkpt lat="43.96804" lon="7.3807">
        <ele>1700.8726807</ele>
        <time>2008-10-05T06:04:16Z</time>
      </trkpt>
      <trkpt lat="43.96792" lon="7.38047">
        <ele>1701.4293213</ele>
        <time>2008-10-05T06:04:23Z</time>
      </trkpt>
      <trkpt lat="43.96784" lon="7.38023">
        <ele>1702.2242432</ele>
        <time>2008-10-05T06:04:30Z</time>
      </trkpt>
      <trkpt lat="43.96776" lon="7.38">
        <ele>1704.0004883</ele>
        <time>2008-10-05T06:04:37Z</time>
      </trkpt>
      <trkpt lat="43.96772" lon="7.37989">
        <ele>1703.9205322</ele>
        <time>2008-10-05T06:04:40Z</time>
      </trkpt>
      <trkpt lat="43.96758" lon="7.3797">
        <ele>1706.355835</ele>
        <time>2008-10-05T06:04:48Z</time>
      </trkpt>
      <trkpt lat="43.96754" lon="7.37971">
        <ele>1708.3417969</ele>
        <time>2008-10-05T06:04:50Z</time>
      </trkpt>
      <trkpt lat="43.96735" lon="7.37986">
        <ele>1710.9804688</ele>
        <time>2008-10-05T06:04:59Z</time>
      </trkpt>
      <trkpt lat="43.96721" lon="7.37993">
        <ele>1710.2001953</ele>
        <time>2008-10-05T06:05:05Z</time>
      </trkpt>
      <trkpt lat="43.967" lon="7.38003">
        <ele>1708.4334717</ele>
        <time>2008-10-05T06:05:13Z</time>
      </trkpt>
      <trkpt lat="43.96682" lon="7.38004">
        <ele>1705.3824463</ele>
        <time>2008-10-05T06:05:19Z</time>
      </trkpt>
      <trkpt lat="43.96664" lon="7.38004">
        <ele>1702.940918</ele>
        <time>2008-10-05T06:05:25Z</time>
      </trkpt>
      <trkpt lat="43.96643" lon="7.37998">
        <ele>1702.5565186</ele>
        <time>2008-10-05T06:05:32Z</time>
      </trkpt>
      <trkpt lat="43.96626" lon="7.37988">
        <ele>1700.1151123</ele>
        <time>2008-10-05T06:05:38Z</time>
      </trkpt>
      <trkpt lat="43.96608" lon="7.37978">
        <ele>1698.2164307</ele>
        <time>2008-10-05T06:05:44Z</time>
      </trkpt>
      <trkpt lat="43.96589" lon="7.3797">
        <ele>1696.8422852</ele>
        <time>2008-10-05T06:05:50Z</time>
      </trkpt>
      <trkpt lat="43.96571" lon="7.37962">
        <ele>1694.7374268</ele>
        <time>2008-10-05T06:05:56Z</time>
      </trkpt>
      <trkpt lat="43.96553" lon="7.37954">
        <ele>1692.8768311</ele>
        <time>2008-10-05T06:06:02Z</time>
      </trkpt>
      <trkpt lat="43.96534" lon="7.37943">
        <ele>1692.0960693</ele>
        <time>2008-10-05T06:06:09Z</time>
      </trkpt>
      <trkpt lat="43.96517" lon="7.37935">
        <ele>1692.3270264</ele>
        <time>2008-10-05T06:06:15Z</time>
      </trkpt>
      <trkpt lat="43.96498" lon="7.37926">
        <ele>1693.5349121</ele>
        <time>2008-10-05T06:06:21Z</time>
      </trkpt>
      <trkpt lat="43.96479" lon="7.3792">
        <ele>1695.411499</ele>
        <time>2008-10-05T06:06:27Z</time>
      </trkpt>
      <trkpt lat="43.9646" lon="7.37915">
        <ele>1696.3334961</ele>
        <time>2008-10-05T06:06:32Z</time>
      </trkpt>
      <trkpt lat="43.96441" lon="7.37902">
        <ele>1693.1864014</ele>
        <time>2008-10-05T06:06:38Z</time>
      </trkpt>
      <trkpt lat="43.96424" lon="7.37892">
        <ele>1690.8178711</ele>
        <time>2008-10-05T06:06:44Z</time>
      </trkpt>
      <trkpt lat="43.96406" lon="7.37881">
        <ele>1688.2489014</ele>
        <time>2008-10-05T06:06:50Z</time>
      </trkpt>
      <trkpt lat="43.9639" lon="7.37869">
        <ele>1685.5516357</ele>
        <time>2008-10-05T06:06:56Z</time>
      </trkpt>
      <trkpt lat="43.96372" lon="7.37855">
        <ele>1682.5583496</ele>
        <time>2008-10-05T06:07:02Z</time>
      </trkpt>
      <trkpt lat="43.96354" lon="7.37842">
        <ele>1680.5592041</ele>
        <time>2008-10-05T06:07:08Z</time>
      </trkpt>
      <trkpt lat="43.96335" lon="7.37837">
        <ele>1680.6386719</ele>
        <time>2008-10-05T06:07:14Z</time>
      </trkpt>
      <trkpt lat="43.96316" lon="7.37833">
        <ele>1678.4737549</ele>
        <time>2008-10-05T06:07:19Z</time>
      </trkpt>
      <trkpt lat="43.96297" lon="7.37832">
        <ele>1676.6794434</ele>
        <time>2008-10-05T06:07:25Z</time>
      </trkpt>
      <trkpt lat="43.96278" lon="7.37827">
        <ele>1673.373291</ele>
        <time>2008-10-05T06:07:31Z</time>
      </trkpt>
      <trkpt lat="43.9626" lon="7.37834">
        <ele>1674.769043</ele>
        <time>2008-10-05T06:07:37Z</time>
      </trkpt>
      <trkpt lat="43.96241" lon="7.37835">
        <ele>1672.8745117</ele>
        <time>2008-10-05T06:07:45Z</time>
      </trkpt>
      <trkpt lat="43.96224" lon="7.37834">
        <ele>1670.5493164</ele>
        <time>2008-10-05T06:07:50Z</time>
      </trkpt>
      <trkpt lat="43.96204" lon="7.37834">
        <ele>1667.9656982</ele>
        <time>2008-10-05T06:07:58Z</time>
      </trkpt>
      <trkpt lat="43.96185" lon="7.37819">
        <ele>1660.0748291</ele>
        <time>2008-10-05T06:08:05Z</time>
      </trkpt>
      <trkpt lat="43.96166" lon="7.37813">
        <ele>1655.2468262</ele>
        <time>2008-10-05T06:08:11Z</time>
      </trkpt>
      <trkpt lat="43.96145" lon="7.37811">
        <ele>1652.7145996</ele>
        <time>2008-10-05T06:08:17Z</time>
      </trkpt>
      <trkpt lat="43.96132" lon="7.37807">
        <ele>1650.0021973</ele>
        <time>2008-10-05T06:08:21Z</time>
      </trkpt>
      <trkpt lat="43.96121" lon="7.37806">
        <ele>1648.7501221</ele>
        <time>2008-10-05T06:08:25Z</time>
      </trkpt>
      <trkpt lat="43.96101" lon="7.37813">
        <ele>1648.8361816</ele>
        <time>2008-10-05T06:08:35Z</time>
      </trkpt>
      <trkpt lat="43.96098" lon="7.37812">
        <ele>1648.3225098</ele>
        <time>2008-10-05T06:08:38Z</time>
      </trkpt>
      <trkpt lat="43.96096" lon="7.37807">
        <ele>1646.7215576</ele>
        <time>2008-10-05T06:08:42Z</time>
      </trkpt>
      <trkpt lat="43.96075" lon="7.37801">
        <ele>1641.9613037</ele>
        <time>2008-10-05T06:08:49Z</time>
      </trkpt>
      <trkpt lat="43.96058" lon="7.37796">
        <ele>1636.692749</ele>
        <time>2008-10-05T06:08:55Z</time>
      </trkpt>
      <trkpt lat="43.96041" lon="7.37787">
        <ele>1631.5380859</ele>
        <time>2008-10-05T06:09:00Z</time>
      </trkpt>
      <trkpt lat="43.96039" lon="7.37785">
        <ele>1630.9173584</ele>
        <time>2008-10-05T06:09:01Z</time>
      </trkpt>
      <trkpt lat="43.96051" lon="7.37778">
        <ele>1631.7905273</ele>
        <time>2008-10-05T06:09:08Z</time>
      </trkpt>
      <trkpt lat="43.96028" lon="7.37767">
        <ele>1626.6162109</ele>
        <time>2008-10-05T06:09:16Z</time>
      </trkpt>
      <trkpt lat="43.96021" lon="7.37764">
        <ele>1625.1730957</ele>
        <time>2008-10-05T06:09:18Z</time>
      </trkpt>
      <trkpt lat="43.95998" lon="7.37749">
        <ele>1621.7241211</ele>
        <time>2008-10-05T06:09:27Z</time>
      </trkpt>
      <trkpt lat="43.9598" lon="7.37742">
        <ele>1618.0645752</ele>
        <time>2008-10-05T06:09:33Z</time>
      </trkpt>
      <trkpt lat="43.95964" lon="7.3773">
        <ele>1613.3010254</ele>
        <time>2008-10-05T06:09:38Z</time>
      </trkpt>
      <trkpt lat="43.95948" lon="7.37719">
        <ele>1609.4871826</ele>
        <time>2008-10-05T06:09:43Z</time>
      </trkpt>
      <trkpt lat="43.9593" lon="7.37708">
        <ele>1606.0423584</ele>
        <time>2008-10-05T06:09:49Z</time>
      </trkpt>
      <trkpt lat="43.95908" lon="7.37703">
        <ele>1604.3728027</ele>
        <time>2008-10-05T06:09:55Z</time>
      </trkpt>
      <trkpt lat="43.95885" lon="7.377">
        <ele>1603.5598145</ele>
        <time>2008-10-05T06:10:02Z</time>
      </trkpt>
      <trkpt lat="43.95867" lon="7.37705">
        <ele>1604.7366943</ele>
        <time>2008-10-05T06:10:08Z</time>
      </trkpt>
      <trkpt lat="43.95845" lon="7.37703">
        <ele>1604.2561035</ele>
        <time>2008-10-05T06:10:15Z</time>
      </trkpt>
      <trkpt lat="43.95824" lon="7.37706">
        <ele>1604.3092041</ele>
        <time>2008-10-05T06:10:21Z</time>
      </trkpt>
      <trkpt lat="43.95806" lon="7.37715">
        <ele>1604.1665039</ele>
        <time>2008-10-05T06:10:27Z</time>
      </trkpt>
      <trkpt lat="43.95795" lon="7.37714">
        <ele>1603.4020996</ele>
        <time>2008-10-05T06:10:30Z</time>
      </trkpt>
      <trkpt lat="43.95774" lon="7.377">
        <ele>1603.095459</ele>
        <time>2008-10-05T06:10:37Z</time>
      </trkpt>
      <trkpt lat="43.95753" lon="7.37695">
        <ele>1603.4970703</ele>
        <time>2008-10-05T06:10:43Z</time>
      </trkpt>
      <trkpt lat="43.95731" lon="7.37684">
        <ele>1607.2741699</ele>
        <time>2008-10-05T06:10:50Z</time>
      </trkpt>
      <trkpt lat="43.95712" lon="7.37679">
        <ele>1610.265625</ele>
        <time>2008-10-05T06:10:56Z</time>
      </trkpt>
      <trkpt lat="43.95694" lon="7.37676">
        <ele>1613.0551758</ele>
        <time>2008-10-05T06:11:02Z</time>
      </trkpt>
      <trkpt lat="43.95676" lon="7.3768">
        <ele>1614.1971436</ele>
        <time>2008-10-05T06:11:08Z</time>
      </trkpt>
      <trkpt lat="43.95657" lon="7.37684">
        <ele>1615.1274414</ele>
        <time>2008-10-05T06:11:14Z</time>
      </trkpt>
      <trkpt lat="43.9564" lon="7.3769">
        <ele>1615.6916504</ele>
        <time>2008-10-05T06:11:20Z</time>
      </trkpt>
      <trkpt lat="43.95621" lon="7.37701">
        <ele>1615.3217773</ele>
        <time>2008-10-05T06:11:27Z</time>
      </trkpt>
      <trkpt lat="43.95602" lon="7.37712">
        <ele>1615.0488281</ele>
        <time>2008-10-05T06:11:33Z</time>
      </trkpt>
      <trkpt lat="43.95584" lon="7.37723">
        <ele>1615.006958</ele>
        <time>2008-10-05T06:11:40Z</time>
      </trkpt>
      <trkpt lat="43.95567" lon="7.37732">
        <ele>1617.8624268</ele>
        <time>2008-10-05T06:11:46Z</time>
      </trkpt>
      <trkpt lat="43.95549" lon="7.37746">
        <ele>1619.9364014</ele>
        <time>2008-10-05T06:11:52Z</time>
      </trkpt>
      <trkpt lat="43.95538" lon="7.37768">
        <ele>1617.2617188</ele>
        <time>2008-10-05T06:11:58Z</time>
      </trkpt>
      <trkpt lat="43.95531" lon="7.37791">
        <ele>1613.6000977</ele>
        <time>2008-10-05T06:12:04Z</time>
      </trkpt>
      <trkpt lat="43.95521" lon="7.37813">
        <ele>1612.1099854</ele>
        <time>2008-10-05T06:12:10Z</time>
      </trkpt>
      <trkpt lat="43.95515" lon="7.3784">
        <ele>1608.5673828</ele>
        <time>2008-10-05T06:12:18Z</time>
      </trkpt>
      <trkpt lat="43.95506" lon="7.37861">
        <ele>1609.7564697</ele>
        <time>2008-10-05T06:12:24Z</time>
      </trkpt>
      <trkpt lat="43.95489" lon="7.37873">
        <ele>1609.5916748</ele>
        <time>2008-10-05T06:12:32Z</time>
      </trkpt>
      <trkpt lat="43.95473" lon="7.37888">
        <ele>1604.3254395</ele>
        <time>2008-10-05T06:12:40Z</time>
      </trkpt>
      <trkpt lat="43.95481" lon="7.37914">
        <ele>1600.7125244</ele>
        <time>2008-10-05T06:12:48Z</time>
      </trkpt>
      <trkpt lat="43.95482" lon="7.37919">
        <ele>1600.1269531</ele>
        <time>2008-10-05T06:12:49Z</time>
      </trkpt>
      <trkpt lat="43.9548" lon="7.37951">
        <ele>1594.1109619</ele>
        <time>2008-10-05T06:12:56Z</time>
      </trkpt>
      <trkpt lat="43.95474" lon="7.37979">
        <ele>1586.947876</ele>
        <time>2008-10-05T06:13:02Z</time>
      </trkpt>
      <trkpt lat="43.95469" lon="7.38005">
        <ele>1580.0653076</ele>
        <time>2008-10-05T06:13:09Z</time>
      </trkpt>
      <trkpt lat="43.95466" lon="7.38033">
        <ele>1574.5028076</ele>
        <time>2008-10-05T06:13:15Z</time>
      </trkpt>
      <trkpt lat="43.95464" lon="7.38048">
        <ele>1571.4360352</ele>
        <time>2008-10-05T06:13:19Z</time>
      </trkpt>
      <trkpt lat="43.95457" lon="7.38076">
        <ele>1565.2650146</ele>
        <time>2008-10-05T06:13:27Z</time>
      </trkpt>
      <trkpt lat="43.9545" lon="7.38099">
        <ele>1562.3566895</ele>
        <time>2008-10-05T06:13:32Z</time>
      </trkpt>
      <trkpt lat="43.95451" lon="7.38125">
        <ele>1561.7271729</ele>
        <time>2008-10-05T06:13:37Z</time>
      </trkpt>
      <trkpt lat="43.95446" lon="7.38151">
        <ele>1561.097168</ele>
        <time>2008-10-05T06:13:42Z</time>
      </trkpt>
      <trkpt lat="43.95438" lon="7.38174">
        <ele>1561.1033936</ele>
        <time>2008-10-05T06:13:47Z</time>
      </trkpt>
      <trkpt lat="43.95436" lon="7.382">
        <ele>1560.1922607</ele>
        <time>2008-10-05T06:13:53Z</time>
      </trkpt>
      <trkpt lat="43.95432" lon="7.38229">
        <ele>1559.7897949</ele>
        <time>2008-10-05T06:13:59Z</time>
      </trkpt>
      <trkpt lat="43.95427" lon="7.38257">
        <ele>1560.0174561</ele>
        <time>2008-10-05T06:14:05Z</time>
      </trkpt>
      <trkpt lat="43.9542" lon="7.38269">
        <ele>1561.3220215</ele>
        <time>2008-10-05T06:14:10Z</time>
      </trkpt>
      <trkpt lat="43.95439" lon="7.38251">
        <ele>1557.3815918</ele>
        <time>2008-10-05T06:14:17Z</time>
      </trkpt>
      <trkpt lat="43.95451" lon="7.38221">
        <ele>1556.5635986</ele>
        <time>2008-10-05T06:14:24Z</time>
      </trkpt>
      <trkpt lat="43.95465" lon="7.38201">
        <ele>1555.9489746</ele>
        <time>2008-10-05T06:14:31Z</time>
      </trkpt>
      <trkpt lat="43.95482" lon="7.38179">
        <ele>1556.5957031</ele>
        <time>2008-10-05T06:14:38Z</time>
      </trkpt>
      <trkpt lat="43.95489" lon="7.38168">
        <ele>1557.5073242</ele>
        <time>2008-10-05T06:14:42Z</time>
      </trkpt>
      <trkpt lat="43.95502" lon="7.38147">
        <ele>1559.1130371</ele>
        <time>2008-10-05T06:14:48Z</time>
      </trkpt>
      <trkpt lat="43.95505" lon="7.38143">
        <ele>1558.180542</ele>
        <time>2008-10-05T06:14:49Z</time>
      </trkpt>
      <trkpt lat="43.95521" lon="7.38119">
        <ele>1552.5771484</ele>
        <time>2008-10-05T06:14:56Z</time>
      </trkpt>
      <trkpt lat="43.95526" lon="7.38112">
        <ele>1551.0794678</ele>
        <time>2008-10-05T06:14:58Z</time>
      </trkpt>
      <trkpt lat="43.9554" lon="7.38089">
        <ele>1546.3374023</ele>
        <time>2008-10-05T06:15:04Z</time>
      </trkpt>
      <trkpt lat="43.95555" lon="7.38065">
        <ele>1542.8276367</ele>
        <time>2008-10-05T06:15:11Z</time>
      </trkpt>
      <trkpt lat="43.9557" lon="7.3805">
        <ele>1537.0180664</ele>
        <time>2008-10-05T06:15:16Z</time>
      </trkpt>
      <trkpt lat="43.95575" lon="7.38045">
        <ele>1535.2388916</ele>
        <time>2008-10-05T06:15:18Z</time>
      </trkpt>
      <trkpt lat="43.95588" lon="7.38025">
        <ele>1531.9838867</ele>
        <time>2008-10-05T06:15:23Z</time>
      </trkpt>
      <trkpt lat="43.95601" lon="7.37999">
        <ele>1530.5578613</ele>
        <time>2008-10-05T06:15:30Z</time>
      </trkpt>
      <trkpt lat="43.95615" lon="7.37971">
        <ele>1529.404541</ele>
        <time>2008-10-05T06:15:37Z</time>
      </trkpt>
      <trkpt lat="43.95633" lon="7.37958">
        <ele>1524.0806885</ele>
        <time>2008-10-05T06:15:41Z</time>
      </trkpt>
      <trkpt lat="43.95648" lon="7.37938">
        <ele>1523.8601074</ele>
        <time>2008-10-05T06:15:47Z</time>
      </trkpt>
      <trkpt lat="43.95642" lon="7.37933">
        <ele>1527.842041</ele>
        <time>2008-10-05T06:15:50Z</time>
      </trkpt>
      <trkpt lat="43.95642" lon="7.37962">
        <ele>1518.5306396</ele>
        <time>2008-10-05T06:15:58Z</time>
      </trkpt>
      <trkpt lat="43.95641" lon="7.37974">
        <ele>1514.9560547</ele>
        <time>2008-10-05T06:16:01Z</time>
      </trkpt>
      <trkpt lat="43.95639" lon="7.38">
        <ele>1507.743042</ele>
        <time>2008-10-05T06:16:08Z</time>
      </trkpt>
      <trkpt lat="43.95633" lon="7.3802">
        <ele>1506.0814209</ele>
        <time>2008-10-05T06:16:14Z</time>
      </trkpt>
      <trkpt lat="43.95626" lon="7.38051">
        <ele>1502.7637939</ele>
        <time>2008-10-05T06:16:20Z</time>
      </trkpt>
      <trkpt lat="43.95625" lon="7.38079">
        <ele>1496.1799316</ele>
        <time>2008-10-05T06:16:27Z</time>
      </trkpt>
      <trkpt lat="43.95622" lon="7.38106">
        <ele>1492.2053223</ele>
        <time>2008-10-05T06:16:33Z</time>
      </trkpt>
      <trkpt lat="43.95616" lon="7.38134">
        <ele>1490.4486084</ele>
        <time>2008-10-05T06:16:39Z</time>
      </trkpt>
      <trkpt lat="43.95615" lon="7.3816">
        <ele>1485.6512451</ele>
        <time>2008-10-05T06:16:44Z</time>
      </trkpt>
      <trkpt lat="43.95611" lon="7.38189">
        <ele>1482.3724365</ele>
        <time>2008-10-05T06:16:51Z</time>
      </trkpt>
      <trkpt lat="43.95596" lon="7.38209">
        <ele>1487.5383301</ele>
        <time>2008-10-05T06:16:58Z</time>
      </trkpt>
      <trkpt lat="43.95583" lon="7.38227">
        <ele>1491.8764648</ele>
        <time>2008-10-05T06:17:04Z</time>
      </trkpt>
      <trkpt lat="43.95581" lon="7.38254">
        <ele>1487.6989746</ele>
        <time>2008-10-05T06:17:09Z</time>
      </trkpt>
      <trkpt lat="43.95579" lon="7.3828">
        <ele>1483.2637939</ele>
        <time>2008-10-05T06:17:14Z</time>
      </trkpt>
      <trkpt lat="43.95566" lon="7.38302">
        <ele>1487.0932617</ele>
        <time>2008-10-05T06:17:20Z</time>
      </trkpt>
      <trkpt lat="43.95558" lon="7.38327">
        <ele>1487.2431641</ele>
        <time>2008-10-05T06:17:26Z</time>
      </trkpt>
      <trkpt lat="43.95558" lon="7.38331">
        <ele>1486.1982422</ele>
        <time>2008-10-05T06:17:27Z</time>
      </trkpt>
      <trkpt lat="43.95567" lon="7.38363">
        <ele>1474.4855957</ele>
        <time>2008-10-05T06:17:34Z</time>
      </trkpt>
      <trkpt lat="43.95568" lon="7.38392">
        <ele>1468.4602051</ele>
        <time>2008-10-05T06:17:40Z</time>
      </trkpt>
      <trkpt lat="43.95569" lon="7.38421">
        <ele>1462.7224121</ele>
        <time>2008-10-05T06:17:46Z</time>
      </trkpt>
      <trkpt lat="43.95562" lon="7.38449">
        <ele>1462.5064697</ele>
        <time>2008-10-05T06:17:52Z</time>
      </trkpt>
      <trkpt lat="43.95546" lon="7.38466">
        <ele>1468.6064453</ele>
        <time>2008-10-05T06:17:58Z</time>
      </trkpt>
      <trkpt lat="43.95531" lon="7.38484">
        <ele>1472.9144287</ele>
        <time>2008-10-05T06:18:04Z</time>
      </trkpt>
      <trkpt lat="43.95517" lon="7.38498">
        <ele>1477.6018066</ele>
        <time>2008-10-05T06:18:09Z</time>
      </trkpt>
      <trkpt lat="43.95506" lon="7.38521">
        <ele>1477.2663574</ele>
        <time>2008-10-05T06:18:15Z</time>
      </trkpt>
      <trkpt lat="43.95492" lon="7.38539">
        <ele>1479.0029297</ele>
        <time>2008-10-05T06:18:20Z</time>
      </trkpt>
      <trkpt lat="43.95482" lon="7.38563">
        <ele>1476.9287109</ele>
        <time>2008-10-05T06:18:26Z</time>
      </trkpt>
      <trkpt lat="43.95473" lon="7.38586">
        <ele>1474.078125</ele>
        <time>2008-10-05T06:18:31Z</time>
      </trkpt>
      <trkpt lat="43.95461" lon="7.3861">
        <ele>1469.9193115</ele>
        <time>2008-10-05T06:18:37Z</time>
      </trkpt>
      <trkpt lat="43.95447" lon="7.38632">
        <ele>1466.8654785</ele>
        <time>2008-10-05T06:18:43Z</time>
      </trkpt>
      <trkpt lat="43.95439" lon="7.38638">
        <ele>1467.1234131</ele>
        <time>2008-10-05T06:18:46Z</time>
      </trkpt>
      <trkpt lat="43.95416" lon="7.38654">
        <ele>1468.2174072</ele>
        <time>2008-10-05T06:18:54Z</time>
      </trkpt>
      <trkpt lat="43.95401" lon="7.38673">
        <ele>1463.9216309</ele>
        <time>2008-10-05T06:18:59Z</time>
      </trkpt>
      <trkpt lat="43.95396" lon="7.38698">
        <ele>1457.2070313</ele>
        <time>2008-10-05T06:19:04Z</time>
      </trkpt>
      <trkpt lat="43.95395" lon="7.38728">
        <ele>1447.9934082</ele>
        <time>2008-10-05T06:19:10Z</time>
      </trkpt>
      <trkpt lat="43.95391" lon="7.38756">
        <ele>1440.1629639</ele>
        <time>2008-10-05T06:19:16Z</time>
      </trkpt>
      <trkpt lat="43.95387" lon="7.38781">
        <ele>1434.199707</ele>
        <time>2008-10-05T06:19:21Z</time>
      </trkpt>
      <trkpt lat="43.95373" lon="7.38798">
        <ele>1430.8023682</ele>
        <time>2008-10-05T06:19:27Z</time>
      </trkpt>
      <trkpt lat="43.95355" lon="7.38813">
        <ele>1427.543335</ele>
        <time>2008-10-05T06:19:33Z</time>
      </trkpt>
      <trkpt lat="43.95337" lon="7.38818">
        <ele>1426.4527588</ele>
        <time>2008-10-05T06:19:38Z</time>
      </trkpt>
      <trkpt lat="43.95316" lon="7.3882">
        <ele>1427.3690186</ele>
        <time>2008-10-05T06:19:44Z</time>
      </trkpt>
      <trkpt lat="43.95298" lon="7.38822">
        <ele>1427.8419189</ele>
        <time>2008-10-05T06:19:50Z</time>
      </trkpt>
      <trkpt lat="43.95275" lon="7.38819">
        <ele>1430.7637939</ele>
        <time>2008-10-05T06:19:58Z</time>
      </trkpt>
      <trkpt lat="43.9527" lon="7.38821">
        <ele>1430.1474609</ele>
        <time>2008-10-05T06:20:00Z</time>
      </trkpt>
      <trkpt lat="43.95248" lon="7.38835">
        <ele>1425.5319824</ele>
        <time>2008-10-05T06:20:06Z</time>
      </trkpt>
      <trkpt lat="43.95234" lon="7.38855">
        <ele>1418.9866943</ele>
        <time>2008-10-05T06:20:12Z</time>
      </trkpt>
      <trkpt lat="43.9522" lon="7.38876">
        <ele>1412.1416016</ele>
        <time>2008-10-05T06:20:20Z</time>
      </trkpt>
      <trkpt lat="43.95205" lon="7.38893">
        <ele>1409.1834717</ele>
        <time>2008-10-05T06:20:26Z</time>
      </trkpt>
      <trkpt lat="43.95192" lon="7.38913">
        <ele>1404.6938477</ele>
        <time>2008-10-05T06:20:33Z</time>
      </trkpt>
      <trkpt lat="43.95179" lon="7.38935">
        <ele>1400.4128418</ele>
        <time>2008-10-05T06:20:40Z</time>
      </trkpt>
      <trkpt lat="43.95172" lon="7.3896">
        <ele>1393.8675537</ele>
        <time>2008-10-05T06:20:46Z</time>
      </trkpt>
      <trkpt lat="43.95159" lon="7.38981">
        <ele>1388.3167725</ele>
        <time>2008-10-05T06:20:51Z</time>
      </trkpt>
      <trkpt lat="43.95147" lon="7.39001">
        <ele>1382.9663086</ele>
        <time>2008-10-05T06:20:56Z</time>
      </trkpt>
      <trkpt lat="43.9514" lon="7.39027">
        <ele>1376.4071045</ele>
        <time>2008-10-05T06:21:03Z</time>
      </trkpt>
      <trkpt lat="43.95134" lon="7.39053">
        <ele>1370.4202881</ele>
        <time>2008-10-05T06:21:10Z</time>
      </trkpt>
      <trkpt lat="43.95126" lon="7.3908">
        <ele>1365.5314941</ele>
        <time>2008-10-05T06:21:17Z</time>
      </trkpt>
      <trkpt lat="43.95118" lon="7.39103">
        <ele>1363.2501221</ele>
        <time>2008-10-05T06:21:23Z</time>
      </trkpt>
      <trkpt lat="43.95113" lon="7.39121">
        <ele>1362.0740967</ele>
        <time>2008-10-05T06:21:29Z</time>
      </trkpt>
      <trkpt lat="43.95113" lon="7.39133">
        <ele>1359.7857666</ele>
        <time>2008-10-05T06:21:33Z</time>
      </trkpt>
      <trkpt lat="43.95108" lon="7.39164">
        <ele>1356.2877197</ele>
        <time>2008-10-05T06:21:41Z</time>
      </trkpt>
      <trkpt lat="43.95108" lon="7.3919">
        <ele>1347.184082</ele>
        <time>2008-10-05T06:21:49Z</time>
      </trkpt>
      <trkpt lat="43.95107" lon="7.39223">
        <ele>1335.0219727</ele>
        <time>2008-10-05T06:21:58Z</time>
      </trkpt>
      <trkpt lat="43.95102" lon="7.39226">
        <ele>1335.9709473</ele>
        <time>2008-10-05T06:22:00Z</time>
      </trkpt>
      <trkpt lat="43.95092" lon="7.39229">
        <ele>1339.3900146</ele>
        <time>2008-10-05T06:22:05Z</time>
      </trkpt>
      <trkpt lat="43.95072" lon="7.39245">
        <ele>1334.0966797</ele>
        <time>2008-10-05T06:22:14Z</time>
      </trkpt>
      <trkpt lat="43.95053" lon="7.39256">
        <ele>1325.9334717</ele>
        <time>2008-10-05T06:22:22Z</time>
      </trkpt>
      <trkpt lat="43.95063" lon="7.39263">
        <ele>1323.067627</ele>
        <time>2008-10-05T06:22:28Z</time>
      </trkpt>
      <trkpt lat="43.9506" lon="7.39266">
        <ele>1321.6000977</ele>
        <time>2008-10-05T06:22:31Z</time>
      </trkpt>
      <trkpt lat="43.9505" lon="7.39274">
        <ele>1316.6633301</ele>
        <time>2008-10-05T06:22:37Z</time>
      </trkpt>
      <trkpt lat="43.9503" lon="7.39287">
        <ele>1311.5172119</ele>
        <time>2008-10-05T06:22:45Z</time>
      </trkpt>
      <trkpt lat="43.95016" lon="7.39303">
        <ele>1307.6617432</ele>
        <time>2008-10-05T06:22:52Z</time>
      </trkpt>
      <trkpt lat="43.95015" lon="7.39306">
        <ele>1307.0557861</ele>
        <time>2008-10-05T06:22:53Z</time>
      </trkpt>
      <trkpt lat="43.95003" lon="7.3933">
        <ele>1303.782959</ele>
        <time>2008-10-05T06:23:01Z</time>
      </trkpt>
      <trkpt lat="43.94993" lon="7.39358">
        <ele>1293.1206055</ele>
        <time>2008-10-05T06:23:13Z</time>
      </trkpt>
      <trkpt lat="43.94992" lon="7.39366">
        <ele>1289.9415283</ele>
        <time>2008-10-05T06:23:16Z</time>
      </trkpt>
      <trkpt lat="43.9499" lon="7.39378">
        <ele>1285.8681641</ele>
        <time>2008-10-05T06:23:19Z</time>
      </trkpt>
      <trkpt lat="43.94976" lon="7.39404">
        <ele>1277.6105957</ele>
        <time>2008-10-05T06:23:26Z</time>
      </trkpt>
      <trkpt lat="43.94978" lon="7.39413">
        <ele>1275.4764404</ele>
        <time>2008-10-05T06:23:29Z</time>
      </trkpt>
      <trkpt lat="43.94963" lon="7.39434">
        <ele>1270.2088623</ele>
        <time>2008-10-05T06:23:36Z</time>
      </trkpt>
      <trkpt lat="43.94949" lon="7.39451">
        <ele>1267.6669922</ele>
        <time>2008-10-05T06:23:43Z</time>
      </trkpt>
      <trkpt lat="43.94937" lon="7.39471">
        <ele>1265.1948242</ele>
        <time>2008-10-05T06:23:48Z</time>
      </trkpt>
      <trkpt lat="43.94931" lon="7.39494">
        <ele>1262.1359863</ele>
        <time>2008-10-05T06:23:53Z</time>
      </trkpt>
      <trkpt lat="43.94929" lon="7.39525">
        <ele>1257.746582</ele>
        <time>2008-10-05T06:23:59Z</time>
      </trkpt>
      <trkpt lat="43.94932" lon="7.39554">
        <ele>1252.2032471</ele>
        <time>2008-10-05T06:24:05Z</time>
      </trkpt>
      <trkpt lat="43.94928" lon="7.39579">
        <ele>1249.8833008</ele>
        <time>2008-10-05T06:24:11Z</time>
      </trkpt>
      <trkpt lat="43.94923" lon="7.39606">
        <ele>1247.8833008</ele>
        <time>2008-10-05T06:24:18Z</time>
      </trkpt>
      <trkpt lat="43.94916" lon="7.39631">
        <ele>1247.0212402</ele>
        <time>2008-10-05T06:24:24Z</time>
      </trkpt>
      <trkpt lat="43.94908" lon="7.39656">
        <ele>1243.8685303</ele>
        <time>2008-10-05T06:24:31Z</time>
      </trkpt>
      <trkpt lat="43.94905" lon="7.39682">
        <ele>1242.7436523</ele>
        <time>2008-10-05T06:24:37Z</time>
      </trkpt>
      <trkpt lat="43.94908" lon="7.3971">
        <ele>1240.8504639</ele>
        <time>2008-10-05T06:24:44Z</time>
      </trkpt>
      <trkpt lat="43.94915" lon="7.39736">
        <ele>1236.2097168</ele>
        <time>2008-10-05T06:24:52Z</time>
      </trkpt>
      <trkpt lat="43.94925" lon="7.39756">
        <ele>1230.9667969</ele>
        <time>2008-10-05T06:24:59Z</time>
      </trkpt>
      <trkpt lat="43.94934" lon="7.39759">
        <ele>1226.5854492</ele>
        <time>2008-10-05T06:25:04Z</time>
      </trkpt>
      <trkpt lat="43.9494" lon="7.39761">
        <ele>1224.3392334</ele>
        <time>2008-10-05T06:25:08Z</time>
      </trkpt>
      <trkpt lat="43.94942" lon="7.39765">
        <ele>1223.6947021</ele>
        <time>2008-10-05T06:25:11Z</time>
      </trkpt>
      <trkpt lat="43.94958" lon="7.39773">
        <ele>1217.791626</ele>
        <time>2008-10-05T06:25:15Z</time>
      </trkpt>
      <trkpt lat="43.94983" lon="7.3979">
        <ele>1209.5687256</ele>
        <time>2008-10-05T06:25:24Z</time>
      </trkpt>
      <trkpt lat="43.94986" lon="7.39791">
        <ele>1208.6601563</ele>
        <time>2008-10-05T06:25:25Z</time>
      </trkpt>
      <trkpt lat="43.95004" lon="7.39806">
        <ele>1203.2824707</ele>
        <time>2008-10-05T06:25:34Z</time>
      </trkpt>
      <trkpt lat="43.95009" lon="7.39806">
        <ele>1200.9783936</ele>
        <time>2008-10-05T06:25:36Z</time>
      </trkpt>
      <trkpt lat="43.95026" lon="7.39825">
        <ele>1196.3634033</ele>
        <time>2008-10-05T06:25:44Z</time>
      </trkpt>
      <trkpt lat="43.95032" lon="7.39853">
        <ele>1194.9626465</ele>
        <time>2008-10-05T06:25:51Z</time>
      </trkpt>
      <trkpt lat="43.95033" lon="7.39865">
        <ele>1194.3691406</ele>
        <time>2008-10-05T06:25:54Z</time>
      </trkpt>
      <trkpt lat="43.95033" lon="7.39897">
        <ele>1193.6949463</ele>
        <time>2008-10-05T06:26:02Z</time>
      </trkpt>
      <trkpt lat="43.95026" lon="7.39924">
        <ele>1192.6455078</ele>
        <time>2008-10-05T06:26:08Z</time>
      </trkpt>
      <trkpt lat="43.95024" lon="7.39964">
        <ele>1179.0177002</ele>
        <time>2008-10-05T06:26:18Z</time>
      </trkpt>
      <trkpt lat="43.95023" lon="7.39965">
        <ele>1179.0223389</ele>
        <time>2008-10-05T06:26:19Z</time>
      </trkpt>
      <trkpt lat="43.95013" lon="7.39979">
        <ele>1177.0849609</ele>
        <time>2008-10-05T06:26:28Z</time>
      </trkpt>
      <trkpt lat="43.94993" lon="7.39993">
        <ele>1177.4189453</ele>
        <time>2008-10-05T06:26:34Z</time>
      </trkpt>
      <trkpt lat="43.94976" lon="7.4">
        <ele>1179.4116211</ele>
        <time>2008-10-05T06:26:40Z</time>
      </trkpt>
      <trkpt lat="43.9496" lon="7.40006">
        <ele>1181.4886475</ele>
        <time>2008-10-05T06:26:45Z</time>
      </trkpt>
      <trkpt lat="43.94949" lon="7.40013">
        <ele>1182.012085</ele>
        <time>2008-10-05T06:26:52Z</time>
      </trkpt>
      <trkpt lat="43.94942" lon="7.40043">
        <ele>1174.1530762</ele>
        <time>2008-10-05T06:26:59Z</time>
      </trkpt>
      <trkpt lat="43.94933" lon="7.40066">
        <ele>1170.3037109</ele>
        <time>2008-10-05T06:27:04Z</time>
      </trkpt>
      <trkpt lat="43.94925" lon="7.4009">
        <ele>1166.7664795</ele>
        <time>2008-10-05T06:27:09Z</time>
      </trkpt>
      <trkpt lat="43.94918" lon="7.40117">
        <ele>1162.7907715</ele>
        <time>2008-10-05T06:27:16Z</time>
      </trkpt>
      <trkpt lat="43.94909" lon="7.40141">
        <ele>1159.2108154</ele>
        <time>2008-10-05T06:27:22Z</time>
      </trkpt>
      <trkpt lat="43.94902" lon="7.40164">
        <ele>1154.9376221</ele>
        <time>2008-10-05T06:27:28Z</time>
      </trkpt>
      <trkpt lat="43.94894" lon="7.40189">
        <ele>1151.2872314</ele>
        <time>2008-10-05T06:27:34Z</time>
      </trkpt>
      <trkpt lat="43.94879" lon="7.40205">
        <ele>1151.1259766</ele>
        <time>2008-10-05T06:27:40Z</time>
      </trkpt>
      <trkpt lat="43.9486" lon="7.40205">
        <ele>1154.9294434</ele>
        <time>2008-10-05T06:27:46Z</time>
      </trkpt>
      <trkpt lat="43.9485" lon="7.40204">
        <ele>1157.3807373</ele>
        <time>2008-10-05T06:27:51Z</time>
      </trkpt>
      <trkpt lat="43.94845" lon="7.40202">
        <ele>1159.0075684</ele>
        <time>2008-10-05T06:27:53Z</time>
      </trkpt>
      <trkpt lat="43.94833" lon="7.40219">
        <ele>1157.6829834</ele>
        <time>2008-10-05T06:27:59Z</time>
      </trkpt>
      <trkpt lat="43.9483" lon="7.40236">
        <ele>1155.887085</ele>
        <time>2008-10-05T06:28:03Z</time>
      </trkpt>
      <trkpt lat="43.94833" lon="7.40267">
        <ele>1148.6973877</ele>
        <time>2008-10-05T06:28:10Z</time>
      </trkpt>
      <trkpt lat="43.94835" lon="7.40275">
        <ele>1146.4414063</ele>
        <time>2008-10-05T06:28:12Z</time>
      </trkpt>
      <trkpt lat="43.94844" lon="7.40308">
        <ele>1137.4949951</ele>
        <time>2008-10-05T06:28:19Z</time>
      </trkpt>
      <trkpt lat="43.94844" lon="7.40322">
        <ele>1134.3615723</ele>
        <time>2008-10-05T06:28:22Z</time>
      </trkpt>
      <trkpt lat="43.94836" lon="7.40344">
        <ele>1132.5352783</ele>
        <time>2008-10-05T06:28:29Z</time>
      </trkpt>
      <trkpt lat="43.9483" lon="7.4037">
        <ele>1129.2314453</ele>
        <time>2008-10-05T06:28:36Z</time>
      </trkpt>
      <trkpt lat="43.9483" lon="7.40396">
        <ele>1121.196167</ele>
        <time>2008-10-05T06:28:42Z</time>
      </trkpt>
      <trkpt lat="43.94827" lon="7.40402">
        <ele>1121.494873</ele>
        <time>2008-10-05T06:28:45Z</time>
      </trkpt>
      <trkpt lat="43.94823" lon="7.4043">
        <ele>1111.0905762</ele>
        <time>2008-10-05T06:28:53Z</time>
      </trkpt>
      <trkpt lat="43.94821" lon="7.40433">
        <ele>1110.4915771</ele>
        <time>2008-10-05T06:28:54Z</time>
      </trkpt>
      <trkpt lat="43.9479" lon="7.40439">
        <ele>1127.0760498</ele>
        <time>2008-10-05T06:28:59Z</time>
      </trkpt>
      <trkpt lat="43.9478" lon="7.40439">
        <ele>1134.4283447</ele>
        <time>2008-10-05T06:29:00Z</time>
      </trkpt>
      <trkpt lat="43.9476" lon="7.40439">
        <ele>1147.7755127</ele>
        <time>2008-10-05T06:29:08Z</time>
      </trkpt>
      <trkpt lat="43.94759" lon="7.40443">
        <ele>1145.59375</ele>
        <time>2008-10-05T06:29:12Z</time>
      </trkpt>
      <trkpt lat="43.94756" lon="7.40454">
        <ele>1140.0601807</ele>
        <time>2008-10-05T06:29:16Z</time>
      </trkpt>
      <trkpt lat="43.94752" lon="7.40465">
        <ele>1134.6862793</ele>
        <time>2008-10-05T06:29:20Z</time>
      </trkpt>
      <trkpt lat="43.94745" lon="7.40491">
        <ele>1121.0510254</ele>
        <time>2008-10-05T06:29:28Z</time>
      </trkpt>
      <trkpt lat="43.94741" lon="7.40516">
        <ele>1111.2520752</ele>
        <time>2008-10-05T06:29:35Z</time>
      </trkpt>
      <trkpt lat="43.94741" lon="7.4053">
        <ele>1105.1861572</ele>
        <time>2008-10-05T06:29:38Z</time>
      </trkpt>
      <trkpt lat="43.94745" lon="7.40562">
        <ele>1087.7652588</ele>
        <time>2008-10-05T06:29:46Z</time>
      </trkpt>
      <trkpt lat="43.94747" lon="7.4058">
        <ele>1078.4144287</ele>
        <time>2008-10-05T06:29:51Z</time>
      </trkpt>
      <trkpt lat="43.94745" lon="7.40598">
        <ele>1072.7128906</ele>
        <time>2008-10-05T06:29:57Z</time>
      </trkpt>
      <trkpt lat="43.94738" lon="7.40632">
        <ele>1065.3123779</ele>
        <time>2008-10-05T06:30:06Z</time>
      </trkpt>
      <trkpt lat="43.9473" lon="7.40657">
        <ele>1061.8618164</ele>
        <time>2008-10-05T06:30:14Z</time>
      </trkpt>
      <trkpt lat="43.94738" lon="7.40681">
        <ele>1048.2825928</ele>
        <time>2008-10-05T06:30:21Z</time>
      </trkpt>
      <trkpt lat="43.94745" lon="7.40705">
        <ele>1035.7438965</ele>
        <time>2008-10-05T06:30:28Z</time>
      </trkpt>
      <trkpt lat="43.94752" lon="7.40729">
        <ele>1023.7070313</ele>
        <time>2008-10-05T06:30:36Z</time>
      </trkpt>
      <trkpt lat="43.94755" lon="7.40757">
        <ele>1015.6797485</ele>
        <time>2008-10-05T06:30:43Z</time>
      </trkpt>
      <trkpt lat="43.94761" lon="7.40784">
        <ele>1009.4005737</ele>
        <time>2008-10-05T06:30:51Z</time>
      </trkpt>
      <trkpt lat="43.94777" lon="7.40799">
        <ele>992.1318359</ele>
        <time>2008-10-05T06:30:57Z</time>
      </trkpt>
      <trkpt lat="43.94791" lon="7.40815">
        <ele>976.9080811</ele>
        <time>2008-10-05T06:31:05Z</time>
      </trkpt>
      <trkpt lat="43.94805" lon="7.40834">
        <ele>962.1150513</ele>
        <time>2008-10-05T06:31:13Z</time>
      </trkpt>
      <trkpt lat="43.94811" lon="7.40858">
        <ele>954.4412231</ele>
        <time>2008-10-05T06:31:21Z</time>
      </trkpt>
      <trkpt lat="43.94801" lon="7.40881">
        <ele>963.0548096</ele>
        <time>2008-10-05T06:31:28Z</time>
      </trkpt>
      <trkpt lat="43.94756" lon="7.40891">
        <ele>1004.453186</ele>
        <time>2008-10-05T06:31:35Z</time>
      </trkpt>
      <trkpt lat="43.94751" lon="7.40893">
        <ele>1008.7119751</ele>
        <time>2008-10-05T06:31:36Z</time>
      </trkpt>
      <trkpt lat="43.9474" lon="7.40899">
        <ele>1014.2756348</ele>
        <time>2008-10-05T06:31:39Z</time>
      </trkpt>
      <trkpt lat="43.94709" lon="7.40909">
        <ele>1026.9400635</ele>
        <time>2008-10-05T06:31:44Z</time>
      </trkpt>
      <trkpt lat="43.94691" lon="7.40913">
        <ele>1034.439209</ele>
        <time>2008-10-05T06:31:46Z</time>
      </trkpt>
      <trkpt lat="43.94683" lon="7.40922">
        <ele>1034.7589111</ele>
        <time>2008-10-05T06:31:49Z</time>
      </trkpt>
      <trkpt lat="43.94673" lon="7.40949">
        <ele>1030.21521</ele>
        <time>2008-10-05T06:31:57Z</time>
      </trkpt>
      <trkpt lat="43.94664" lon="7.40973">
        <ele>1026.2607422</ele>
        <time>2008-10-05T06:32:03Z</time>
      </trkpt>
      <trkpt lat="43.94656" lon="7.40997">
        <ele>1019.864563</ele>
        <time>2008-10-05T06:32:09Z</time>
      </trkpt>
      <trkpt lat="43.94648" lon="7.41022">
        <ele>1013.5531006</ele>
        <time>2008-10-05T06:32:16Z</time>
      </trkpt>
      <trkpt lat="43.94643" lon="7.41048">
        <ele>1006.4755249</ele>
        <time>2008-10-05T06:32:23Z</time>
      </trkpt>
      <trkpt lat="43.94638" lon="7.41074">
        <ele>999.6780396</ele>
        <time>2008-10-05T06:32:30Z</time>
      </trkpt>
      <trkpt lat="43.94631" lon="7.41099">
        <ele>993.6880493</ele>
        <time>2008-10-05T06:32:37Z</time>
      </trkpt>
      <trkpt lat="43.9463" lon="7.41102">
        <ele>993.2518921</ele>
        <time>2008-10-05T06:32:38Z</time>
      </trkpt>
      <trkpt lat="43.94628" lon="7.4113">
        <ele>985.8102417</ele>
        <time>2008-10-05T06:32:49Z</time>
      </trkpt>
      <trkpt lat="43.94627" lon="7.4114">
        <ele>983.168396</ele>
        <time>2008-10-05T06:32:52Z</time>
      </trkpt>
      <trkpt lat="43.9462" lon="7.41163">
        <ele>978.2678223</ele>
        <time>2008-10-05T06:33:00Z</time>
      </trkpt>
      <trkpt lat="43.94614" lon="7.41184">
        <ele>974.416748</ele>
        <time>2008-10-05T06:33:06Z</time>
      </trkpt>
      <trkpt lat="43.94613" lon="7.41197">
        <ele>971.5786133</ele>
        <time>2008-10-05T06:33:09Z</time>
      </trkpt>
      <trkpt lat="43.94603" lon="7.41201">
        <ele>972.9633789</ele>
        <time>2008-10-05T06:33:14Z</time>
      </trkpt>
      <trkpt lat="43.94597" lon="7.41196">
        <ele>975.65271</ele>
        <time>2008-10-05T06:33:18Z</time>
      </trkpt>
      <trkpt lat="43.94598" lon="7.4121">
        <ele>972.1279297</ele>
        <time>2008-10-05T06:33:22Z</time>
      </trkpt>
      <trkpt lat="43.94592" lon="7.41239">
        <ele>966.5775757</ele>
        <time>2008-10-05T06:33:29Z</time>
      </trkpt>
      <trkpt lat="43.9458" lon="7.41259">
        <ele>963.1044312</ele>
        <time>2008-10-05T06:33:40Z</time>
      </trkpt>
      <trkpt lat="43.94581" lon="7.41271">
        <ele>961.199646</ele>
        <time>2008-10-05T06:33:43Z</time>
      </trkpt>
      <trkpt lat="43.94587" lon="7.41286">
        <ele>958.0233154</ele>
        <time>2008-10-05T06:33:49Z</time>
      </trkpt>
      <trkpt lat="43.94585" lon="7.41308">
        <ele>954.3135376</ele>
        <time>2008-10-05T06:33:58Z</time>
      </trkpt>
      <trkpt lat="43.94577" lon="7.41337">
        <ele>946.4437866</ele>
        <time>2008-10-05T06:34:06Z</time>
      </trkpt>
      <trkpt lat="43.94571" lon="7.41365">
        <ele>937.1923218</ele>
        <time>2008-10-05T06:34:14Z</time>
      </trkpt>
      <trkpt lat="43.94569" lon="7.41375">
        <ele>933.8285522</ele>
        <time>2008-10-05T06:34:17Z</time>
      </trkpt>
      <trkpt lat="43.94572" lon="7.41392">
        <ele>930.9854126</ele>
        <time>2008-10-05T06:34:28Z</time>
      </trkpt>
      <trkpt lat="43.94565" lon="7.4141">
        <ele>924.1039429</ele>
        <time>2008-10-05T06:34:33Z</time>
      </trkpt>
      <trkpt lat="43.94563" lon="7.41437">
        <ele>916.9287109</ele>
        <time>2008-10-05T06:34:44Z</time>
      </trkpt>
      <trkpt lat="43.94566" lon="7.41443">
        <ele>916.4847412</ele>
        <time>2008-10-05T06:34:47Z</time>
      </trkpt>
      <trkpt lat="43.94572" lon="7.41455">
        <ele>915.0762329</ele>
        <time>2008-10-05T06:34:50Z</time>
      </trkpt>
      <trkpt lat="43.94572" lon="7.41465">
        <ele>912.3688354</ele>
        <time>2008-10-05T06:34:53Z</time>
      </trkpt>
      <trkpt lat="43.94556" lon="7.41478">
        <ele>904.9797974</ele>
        <time>2008-10-05T06:35:03Z</time>
      </trkpt>
      <trkpt lat="43.94553" lon="7.41475">
        <ele>904.9877319</ele>
        <time>2008-10-05T06:35:05Z</time>
      </trkpt>
      <trkpt lat="43.94547" lon="7.41469">
        <ele>904.4094238</ele>
        <time>2008-10-05T06:35:08Z</time>
      </trkpt>
      <trkpt lat="43.9454" lon="7.41455">
        <ele>905.864563</ele>
        <time>2008-10-05T06:35:13Z</time>
      </trkpt>
      <trkpt lat="43.94536" lon="7.4145">
        <ele>905.5829468</ele>
        <time>2008-10-05T06:35:16Z</time>
      </trkpt>
      <trkpt lat="43.94523" lon="7.41437">
        <ele>904.2697754</ele>
        <time>2008-10-05T06:35:24Z</time>
      </trkpt>
      <trkpt lat="43.94505" lon="7.41427">
        <ele>899.9921875</ele>
        <time>2008-10-05T06:35:34Z</time>
      </trkpt>
      <trkpt lat="43.94502" lon="7.41423">
        <ele>899.8552856</ele>
        <time>2008-10-05T06:35:36Z</time>
      </trkpt>
      <trkpt lat="43.94486" lon="7.41408">
        <ele>896.0106201</ele>
        <time>2008-10-05T06:35:44Z</time>
      </trkpt>
      <trkpt lat="43.94471" lon="7.41391">
        <ele>892.7633667</ele>
        <time>2008-10-05T06:35:53Z</time>
      </trkpt>
      <trkpt lat="43.94462" lon="7.41377">
        <ele>891.6555786</ele>
        <time>2008-10-05T06:35:59Z</time>
      </trkpt>
      <trkpt lat="43.9445" lon="7.41371">
        <ele>888.0065918</ele>
        <time>2008-10-05T06:36:06Z</time>
      </trkpt>
      <trkpt lat="43.94442" lon="7.41366">
        <ele>885.4151001</ele>
        <time>2008-10-05T06:36:11Z</time>
      </trkpt>
      <trkpt lat="43.94436" lon="7.41362">
        <ele>883.9130859</ele>
        <time>2008-10-05T06:36:16Z</time>
      </trkpt>
      <trkpt lat="43.94435" lon="7.41363">
        <ele>883.2659302</ele>
        <time>2008-10-05T06:36:18Z</time>
      </trkpt>
      <trkpt lat="43.94427" lon="7.41358">
        <ele>881.0285645</ele>
        <time>2008-10-05T06:36:25Z</time>
      </trkpt>
      <trkpt lat="43.94423" lon="7.41368">
        <ele>877.5227051</ele>
        <time>2008-10-05T06:36:31Z</time>
      </trkpt>
      <trkpt lat="43.94419" lon="7.41367">
        <ele>875.9822998</ele>
        <time>2008-10-05T06:36:39Z</time>
      </trkpt>
      <trkpt lat="43.944" lon="7.41378">
        <ele>867.3808594</ele>
        <time>2008-10-05T06:36:50Z</time>
      </trkpt>
      <trkpt lat="43.94392" lon="7.41384">
        <ele>863.5297241</ele>
        <time>2008-10-05T06:36:55Z</time>
      </trkpt>
      <trkpt lat="43.94373" lon="7.41393">
        <ele>856.0198975</ele>
        <time>2008-10-05T06:37:04Z</time>
      </trkpt>
      <trkpt lat="43.94356" lon="7.41399">
        <ele>849.4066162</ele>
        <time>2008-10-05T06:37:11Z</time>
      </trkpt>
      <trkpt lat="43.94337" lon="7.41399">
        <ele>843.3604126</ele>
        <time>2008-10-05T06:37:18Z</time>
      </trkpt>
      <trkpt lat="43.94318" lon="7.41393">
        <ele>838.2247314</ele>
        <time>2008-10-05T06:37:24Z</time>
      </trkpt>
      <trkpt lat="43.94299" lon="7.41388">
        <ele>833.0575562</ele>
        <time>2008-10-05T06:37:30Z</time>
      </trkpt>
      <trkpt lat="43.94281" lon="7.41383">
        <ele>828.1385498</ele>
        <time>2008-10-05T06:37:36Z</time>
      </trkpt>
      <trkpt lat="43.9427" lon="7.41375">
        <ele>825.7438965</ele>
        <time>2008-10-05T06:37:40Z</time>
      </trkpt>
      <trkpt lat="43.94267" lon="7.41379">
        <ele>824.065979</ele>
        <time>2008-10-05T06:37:44Z</time>
      </trkpt>
      <trkpt lat="43.94259" lon="7.414">
        <ele>819.364563</ele>
        <time>2008-10-05T06:37:55Z</time>
      </trkpt>
      <trkpt lat="43.94252" lon="7.41396">
        <ele>817.9735107</ele>
        <time>2008-10-05T06:37:57Z</time>
      </trkpt>
      <trkpt lat="43.9424" lon="7.41387">
        <ele>815.9750977</ele>
        <time>2008-10-05T06:38:01Z</time>
      </trkpt>
      <trkpt lat="43.94236" lon="7.41399">
        <ele>813.9000854</ele>
        <time>2008-10-05T06:38:10Z</time>
      </trkpt>
      <trkpt lat="43.94236" lon="7.41402">
        <ele>813.5379639</ele>
        <time>2008-10-05T06:38:12Z</time>
      </trkpt>
      <trkpt lat="43.94218" lon="7.41378">
        <ele>811.6734619</ele>
        <time>2008-10-05T06:38:19Z</time>
      </trkpt>
      <trkpt lat="43.94214" lon="7.41371">
        <ele>811.4348145</ele>
        <time>2008-10-05T06:38:21Z</time>
      </trkpt>
      <trkpt lat="43.942" lon="7.41348">
        <ele>809.8138428</ele>
        <time>2008-10-05T06:38:28Z</time>
      </trkpt>
      <trkpt lat="43.94188" lon="7.41329">
        <ele>807.8151245</ele>
        <time>2008-10-05T06:38:34Z</time>
      </trkpt>
      <trkpt lat="43.94175" lon="7.41308">
        <ele>805.6469116</ele>
        <time>2008-10-05T06:38:39Z</time>
      </trkpt>
      <trkpt lat="43.94172" lon="7.41306">
        <ele>804.8880005</ele>
        <time>2008-10-05T06:38:41Z</time>
      </trkpt>
      <trkpt lat="43.94155" lon="7.41316">
        <ele>800.0537109</ele>
        <time>2008-10-05T06:38:48Z</time>
      </trkpt>
      <trkpt lat="43.94148" lon="7.41319">
        <ele>798.3360596</ele>
        <time>2008-10-05T06:38:51Z</time>
      </trkpt>
      <trkpt lat="43.94143" lon="7.41315">
        <ele>797.4207153</ele>
        <time>2008-10-05T06:38:56Z</time>
      </trkpt>
      <trkpt lat="43.94127" lon="7.41305">
        <ele>793.9592285</ele>
        <time>2008-10-05T06:39:04Z</time>
      </trkpt>
      <trkpt lat="43.94125" lon="7.41276">
        <ele>794.6594849</ele>
        <time>2008-10-05T06:39:12Z</time>
      </trkpt>
      <trkpt lat="43.94115" lon="7.41252">
        <ele>793.0202637</ele>
        <time>2008-10-05T06:39:18Z</time>
      </trkpt>
      <trkpt lat="43.94094" lon="7.41261">
        <ele>787.322876</ele>
        <time>2008-10-05T06:39:23Z</time>
      </trkpt>
      <trkpt lat="43.94074" lon="7.41273">
        <ele>785.0029297</ele>
        <time>2008-10-05T06:39:29Z</time>
      </trkpt>
      <trkpt lat="43.94072" lon="7.41272">
        <ele>785.1485596</ele>
        <time>2008-10-05T06:39:30Z</time>
      </trkpt>
      <trkpt lat="43.9407" lon="7.41241">
        <ele>787.201416</ele>
        <time>2008-10-05T06:39:37Z</time>
      </trkpt>
      <trkpt lat="43.94065" lon="7.41222">
        <ele>789.9993896</ele>
        <time>2008-10-05T06:39:44Z</time>
      </trkpt>
      <trkpt lat="43.94048" lon="7.41218">
        <ele>792.7572632</ele>
        <time>2008-10-05T06:39:55Z</time>
      </trkpt>
      <trkpt lat="43.94029" lon="7.41223">
        <ele>794.4602051</ele>
        <time>2008-10-05T06:40:00Z</time>
      </trkpt>
      <trkpt lat="43.94011" lon="7.41227">
        <ele>796.0041504</ele>
        <time>2008-10-05T06:40:06Z</time>
      </trkpt>
      <trkpt lat="43.93994" lon="7.4124">
        <ele>796.6347656</ele>
        <time>2008-10-05T06:40:12Z</time>
      </trkpt>
      <trkpt lat="43.93979" lon="7.41259">
        <ele>796.7350464</ele>
        <time>2008-10-05T06:40:18Z</time>
      </trkpt>
      <trkpt lat="43.9397" lon="7.41268">
        <ele>796.755188</ele>
        <time>2008-10-05T06:40:22Z</time>
      </trkpt>
      <trkpt lat="43.93967" lon="7.41277">
        <ele>795.3464355</ele>
        <time>2008-10-05T06:40:26Z</time>
      </trkpt>
      <trkpt lat="43.93963" lon="7.41278">
        <ele>795.8565674</ele>
        <time>2008-10-05T06:40:28Z</time>
      </trkpt>
      <trkpt lat="43.93962" lon="7.41277">
        <ele>796.4173584</ele>
        <time>2008-10-05T06:40:30Z</time>
      </trkpt>
      <trkpt lat="43.93946" lon="7.41294">
        <ele>794.5905151</ele>
        <time>2008-10-05T06:40:39Z</time>
      </trkpt>
      <trkpt lat="43.93929" lon="7.41303">
        <ele>794.1260986</ele>
        <time>2008-10-05T06:40:44Z</time>
      </trkpt>
      <trkpt lat="43.93911" lon="7.41311">
        <ele>792.5016479</ele>
        <time>2008-10-05T06:40:50Z</time>
      </trkpt>
      <trkpt lat="43.9389" lon="7.41314">
        <ele>789.0147095</ele>
        <time>2008-10-05T06:40:57Z</time>
      </trkpt>
      <trkpt lat="43.93884" lon="7.41314">
        <ele>788.2042236</ele>
        <time>2008-10-05T06:40:59Z</time>
      </trkpt>
      <trkpt lat="43.93863" lon="7.41313">
        <ele>786.2193604</ele>
        <time>2008-10-05T06:41:06Z</time>
      </trkpt>
      <trkpt lat="43.93843" lon="7.41308">
        <ele>786.7028809</ele>
        <time>2008-10-05T06:41:12Z</time>
      </trkpt>
      <trkpt lat="43.93826" lon="7.413">
        <ele>787.7913818</ele>
        <time>2008-10-05T06:41:18Z</time>
      </trkpt>
      <trkpt lat="43.93806" lon="7.4129">
        <ele>786.6239014</ele>
        <time>2008-10-05T06:41:24Z</time>
      </trkpt>
      <trkpt lat="43.93792" lon="7.41272">
        <ele>790.5346069</ele>
        <time>2008-10-05T06:41:30Z</time>
      </trkpt>
      <trkpt lat="43.93774" lon="7.41259">
        <ele>789.7109985</ele>
        <time>2008-10-05T06:41:36Z</time>
      </trkpt>
      <trkpt lat="43.93756" lon="7.41248">
        <ele>787.8353882</ele>
        <time>2008-10-05T06:41:42Z</time>
      </trkpt>
      <trkpt lat="43.93739" lon="7.41237">
        <ele>786.5689087</ele>
        <time>2008-10-05T06:41:48Z</time>
      </trkpt>
      <trkpt lat="43.9372" lon="7.41232">
        <ele>782.4529419</ele>
        <time>2008-10-05T06:41:54Z</time>
      </trkpt>
      <trkpt lat="43.93701" lon="7.41229">
        <ele>777.1051636</ele>
        <time>2008-10-05T06:42:01Z</time>
      </trkpt>
      <trkpt lat="43.93684" lon="7.4124">
        <ele>767.4016113</ele>
        <time>2008-10-05T06:42:06Z</time>
      </trkpt>
      <trkpt lat="43.93664" lon="7.41232">
        <ele>763.5980225</ele>
        <time>2008-10-05T06:42:12Z</time>
      </trkpt>
      <trkpt lat="43.93645" lon="7.41222">
        <ele>762.3832397</ele>
        <time>2008-10-05T06:42:18Z</time>
      </trkpt>
      <trkpt lat="43.93626" lon="7.41215">
        <ele>759.7069092</ele>
        <time>2008-10-05T06:42:24Z</time>
      </trkpt>
      <trkpt lat="43.93618" lon="7.41215">
        <ele>757.8565674</ele>
        <time>2008-10-05T06:42:27Z</time>
      </trkpt>
      <trkpt lat="43.93601" lon="7.41234">
        <ele>750.1851807</ele>
        <time>2008-10-05T06:42:34Z</time>
      </trkpt>
      <trkpt lat="43.936" lon="7.41241">
        <ele>748.692749</ele>
        <time>2008-10-05T06:42:36Z</time>
      </trkpt>
      <trkpt lat="43.9362" lon="7.4126">
        <ele>748.8443604</ele>
        <time>2008-10-05T06:42:43Z</time>
      </trkpt>
      <trkpt lat="43.9364" lon="7.41275">
        <ele>749.7191162</ele>
        <time>2008-10-05T06:42:50Z</time>
      </trkpt>
      <trkpt lat="43.93658" lon="7.41291">
        <ele>749.3189697</ele>
        <time>2008-10-05T06:42:55Z</time>
      </trkpt>
      <trkpt lat="43.93661" lon="7.41303">
        <ele>747.468811</ele>
        <time>2008-10-05T06:42:58Z</time>
      </trkpt>
      <trkpt lat="43.93656" lon="7.41316">
        <ele>744.1255493</ele>
        <time>2008-10-05T06:43:02Z</time>
      </trkpt>
      <trkpt lat="43.93654" lon="7.41318">
        <ele>743.5421143</ele>
        <time>2008-10-05T06:43:04Z</time>
      </trkpt>
      <trkpt lat="43.93654" lon="7.41324">
        <ele>742.519165</ele>
        <time>2008-10-05T06:43:07Z</time>
      </trkpt>
      <trkpt lat="43.93668" lon="7.41343">
        <ele>742.5679932</ele>
        <time>2008-10-05T06:43:20Z</time>
      </trkpt>
      <trkpt lat="43.93676" lon="7.41357">
        <ele>743.7107544</ele>
        <time>2008-10-05T06:43:33Z</time>
      </trkpt>
      <trkpt lat="43.93679" lon="7.4136">
        <ele>744.0370483</ele>
        <time>2008-10-05T06:43:36Z</time>
      </trkpt>
      <trkpt lat="43.93677" lon="7.41365">
        <ele>743.9788208</ele>
        <time>2008-10-05T06:43:42Z</time>
      </trkpt>
      <trkpt lat="43.93675" lon="7.41367">
        <ele>743.8623657</ele>
        <time>2008-10-05T06:43:44Z</time>
      </trkpt>
      <trkpt lat="43.93673" lon="7.4138">
        <ele>743.9816284</ele>
        <time>2008-10-05T06:43:49Z</time>
      </trkpt>
      <trkpt lat="43.93673" lon="7.41386">
        <ele>744.1330566</ele>
        <time>2008-10-05T06:43:51Z</time>
      </trkpt>
      <trkpt lat="43.93678" lon="7.41396">
        <ele>744.4525146</ele>
        <time>2008-10-05T06:43:56Z</time>
      </trkpt>
      <trkpt lat="43.93695" lon="7.41412">
        <ele>744.4246826</ele>
        <time>2008-10-05T06:44:06Z</time>
      </trkpt>
      <trkpt lat="43.93713" lon="7.41424">
        <ele>746.1535034</ele>
        <time>2008-10-05T06:44:15Z</time>
      </trkpt>
      <trkpt lat="43.93731" lon="7.41431">
        <ele>746.487793</ele>
        <time>2008-10-05T06:44:24Z</time>
      </trkpt>
      <trkpt lat="43.93741" lon="7.41453">
        <ele>749.7116699</ele>
        <time>2008-10-05T06:44:32Z</time>
      </trkpt>
      <trkpt lat="43.9375" lon="7.41477">
        <ele>751.7172852</ele>
        <time>2008-10-05T06:44:41Z</time>
      </trkpt>
      <trkpt lat="43.93756" lon="7.41502">
        <ele>756.3258667</ele>
        <time>2008-10-05T06:44:49Z</time>
      </trkpt>
      <trkpt lat="43.93761" lon="7.41528">
        <ele>762.802063</ele>
        <time>2008-10-05T06:44:59Z</time>
      </trkpt>
      <trkpt lat="43.93752" lon="7.41551">
        <ele>767.9547119</ele>
        <time>2008-10-05T06:45:11Z</time>
      </trkpt>
      <trkpt lat="43.93751" lon="7.41572">
        <ele>773.0647583</ele>
        <time>2008-10-05T06:45:26Z</time>
      </trkpt>
      <trkpt lat="43.9376" lon="7.41586">
        <ele>776.4869385</ele>
        <time>2008-10-05T06:45:36Z</time>
      </trkpt>
      <trkpt lat="43.93757" lon="7.4159">
        <ele>777.9442749</ele>
        <time>2008-10-05T06:45:43Z</time>
      </trkpt>
      <trkpt lat="43.93756" lon="7.41591">
        <ele>778.4300537</ele>
        <time>2008-10-05T06:45:45Z</time>
      </trkpt>
      <trkpt lat="43.93756" lon="7.41599">
        <ele>781.0490112</ele>
        <time>2008-10-05T06:45:50Z</time>
      </trkpt>
      <trkpt lat="43.93756" lon="7.41602">
        <ele>781.9763184</ele>
        <time>2008-10-05T06:45:52Z</time>
      </trkpt>
      <trkpt lat="43.93756" lon="7.41606">
        <ele>783.5872192</ele>
        <time>2008-10-05T06:45:56Z</time>
      </trkpt>
      <trkpt lat="43.93757" lon="7.4162">
        <ele>787.8140869</ele>
        <time>2008-10-05T06:46:07Z</time>
      </trkpt>
      <trkpt lat="43.93757" lon="7.41626">
        <ele>790.2027588</ele>
        <time>2008-10-05T06:46:12Z</time>
      </trkpt>
      <trkpt lat="43.93758" lon="7.41632">
        <ele>791.8772583</ele>
        <time>2008-10-05T06:46:25Z</time>
      </trkpt>
      <trkpt lat="43.93756" lon="7.41635">
        <ele>793.4187622</ele>
        <time>2008-10-05T06:46:28Z</time>
      </trkpt>
      <trkpt lat="43.9374" lon="7.41617">
        <ele>795.8447266</ele>
        <time>2008-10-05T06:46:43Z</time>
      </trkpt>
      <trkpt lat="43.93729" lon="7.41599">
        <ele>795.5474854</ele>
        <time>2008-10-05T06:46:58Z</time>
      </trkpt>
      <trkpt lat="43.93725" lon="7.41592">
        <ele>795.7967529</ele>
        <time>2008-10-05T06:47:02Z</time>
      </trkpt>
      <trkpt lat="43.93718" lon="7.41586">
        <ele>797.4689941</ele>
        <time>2008-10-05T06:47:07Z</time>
      </trkpt>
      <trkpt lat="43.93717" lon="7.41578">
        <ele>795.3951416</ele>
        <time>2008-10-05T06:47:15Z</time>
      </trkpt>
      <trkpt lat="43.93713" lon="7.41571">
        <ele>794.8980103</ele>
        <time>2008-10-05T06:47:21Z</time>
      </trkpt>
      <trkpt lat="43.9371" lon="7.41555">
        <ele>790.5623779</ele>
        <time>2008-10-05T06:47:36Z</time>
      </trkpt>
      <trkpt lat="43.93707" lon="7.41552">
        <ele>790.9990845</ele>
        <time>2008-10-05T06:47:44Z</time>
      </trkpt>
      <trkpt lat="43.93707" lon="7.41548">
        <ele>789.836792</ele>
        <time>2008-10-05T06:47:48Z</time>
      </trkpt>
      <trkpt lat="43.93705" lon="7.41544">
        <ele>789.1799927</ele>
        <time>2008-10-05T06:47:52Z</time>
      </trkpt>
      <trkpt lat="43.93696" lon="7.41538">
        <ele>791.086731</ele>
        <time>2008-10-05T06:48:00Z</time>
      </trkpt>
      <trkpt lat="43.93694" lon="7.41536">
        <ele>791.5050659</ele>
        <time>2008-10-05T06:48:03Z</time>
      </trkpt>
      <trkpt lat="43.93686" lon="7.41534">
        <ele>794.1682739</ele>
        <time>2008-10-05T06:48:09Z</time>
      </trkpt>
      <trkpt lat="43.93681" lon="7.41531">
        <ele>795.1314697</ele>
        <time>2008-10-05T06:48:13Z</time>
      </trkpt>
      <trkpt lat="43.93674" lon="7.41525">
        <ele>795.0802002</ele>
        <time>2008-10-05T06:48:20Z</time>
      </trkpt>
      <trkpt lat="43.93654" lon="7.41516">
        <ele>798.3009644</ele>
        <time>2008-10-05T06:48:38Z</time>
      </trkpt>
      <trkpt lat="43.93645" lon="7.41514">
        <ele>800.7455444</ele>
        <time>2008-10-05T06:48:47Z</time>
      </trkpt>
      <trkpt lat="43.93643" lon="7.41513">
        <ele>801.2185059</ele>
        <time>2008-10-05T06:48:50Z</time>
      </trkpt>
      <trkpt lat="43.93639" lon="7.41513">
        <ele>802.7424927</ele>
        <time>2008-10-05T06:48:55Z</time>
      </trkpt>
      <trkpt lat="43.93636" lon="7.41513">
        <ele>803.8998413</ele>
        <time>2008-10-05T06:48:59Z</time>
      </trkpt>
      <trkpt lat="43.93633" lon="7.41512">
        <ele>804.6395874</ele>
        <time>2008-10-05T06:49:04Z</time>
      </trkpt>
      <trkpt lat="43.93628" lon="7.41509">
        <ele>805.0615234</ele>
        <time>2008-10-05T06:49:11Z</time>
      </trkpt>
      <trkpt lat="43.93626" lon="7.41514">
        <ele>808.1016235</ele>
        <time>2008-10-05T06:49:22Z</time>
      </trkpt>
      <trkpt lat="43.93626" lon="7.41516">
        <ele>809.4605103</ele>
        <time>2008-10-05T06:49:24Z</time>
      </trkpt>
      <trkpt lat="43.93623" lon="7.41517">
        <ele>810.8748779</ele>
        <time>2008-10-05T06:49:27Z</time>
      </trkpt>
      <trkpt lat="43.93615" lon="7.41515">
        <ele>813.03479</ele>
        <time>2008-10-05T06:49:35Z</time>
      </trkpt>
      <trkpt lat="43.93608" lon="7.41515">
        <ele>815.5311279</ele>
        <time>2008-10-05T06:49:39Z</time>
      </trkpt>
      <trkpt lat="43.93602" lon="7.41517">
        <ele>819.1053467</ele>
        <time>2008-10-05T06:49:47Z</time>
      </trkpt>
      <trkpt lat="43.93607" lon="7.41526">
        <ele>821.078186</ele>
        <time>2008-10-05T06:49:54Z</time>
      </trkpt>
      <trkpt lat="43.93611" lon="7.41533">
        <ele>822.5460205</ele>
        <time>2008-10-05T06:50:00Z</time>
      </trkpt>
      <trkpt lat="43.93618" lon="7.41537">
        <ele>821.8467407</ele>
        <time>2008-10-05T06:50:06Z</time>
      </trkpt>
      <trkpt lat="43.9362" lon="7.41536">
        <ele>821.0687866</ele>
        <time>2008-10-05T06:50:08Z</time>
      </trkpt>
      <trkpt lat="43.9363" lon="7.41545">
        <ele>821.7384644</ele>
        <time>2008-10-05T06:50:23Z</time>
      </trkpt>
      <trkpt lat="43.93632" lon="7.41552">
        <ele>824.1517334</ele>
        <time>2008-10-05T06:50:27Z</time>
      </trkpt>
      <trkpt lat="43.93632" lon="7.41554">
        <ele>825.4013062</ele>
        <time>2008-10-05T06:50:30Z</time>
      </trkpt>
      <trkpt lat="43.9362" lon="7.41558">
        <ele>830.812439</ele>
        <time>2008-10-05T06:50:37Z</time>
      </trkpt>
      <trkpt lat="43.93615" lon="7.41558">
        <ele>832.8751221</ele>
        <time>2008-10-05T06:50:40Z</time>
      </trkpt>
      <trkpt lat="43.9361" lon="7.41555">
        <ele>832.6635742</ele>
        <time>2008-10-05T06:50:44Z</time>
      </trkpt>
      <trkpt lat="43.93599" lon="7.41549">
        <ele>834.0514526</ele>
        <time>2008-10-05T06:50:53Z</time>
      </trkpt>
      <trkpt lat="43.93592" lon="7.41547">
        <ele>835.3737183</ele>
        <time>2008-10-05T06:50:58Z</time>
      </trkpt>
      <trkpt lat="43.93577" lon="7.4154">
        <ele>836.3250122</ele>
        <time>2008-10-05T06:51:05Z</time>
      </trkpt>
      <trkpt lat="43.93563" lon="7.41533">
        <ele>834.7357788</ele>
        <time>2008-10-05T06:51:11Z</time>
      </trkpt>
      <trkpt lat="43.93551" lon="7.4153">
        <ele>834.5091553</ele>
        <time>2008-10-05T06:51:18Z</time>
      </trkpt>
      <trkpt lat="43.93534" lon="7.41534">
        <ele>838.5921631</ele>
        <time>2008-10-05T06:51:27Z</time>
      </trkpt>
      <trkpt lat="43.93526" lon="7.41539">
        <ele>841.6935425</ele>
        <time>2008-10-05T06:51:33Z</time>
      </trkpt>
      <trkpt lat="43.93521" lon="7.41537">
        <ele>841.6919556</ele>
        <time>2008-10-05T06:51:37Z</time>
      </trkpt>
      <trkpt lat="43.93508" lon="7.41537">
        <ele>843.1888428</ele>
        <time>2008-10-05T06:51:47Z</time>
      </trkpt>
      <trkpt lat="43.93506" lon="7.41538">
        <ele>843.6941528</ele>
        <time>2008-10-05T06:51:49Z</time>
      </trkpt>
      <trkpt lat="43.93498" lon="7.41537">
        <ele>844.9248657</ele>
        <time>2008-10-05T06:51:55Z</time>
      </trkpt>
      <trkpt lat="43.93478" lon="7.41537">
        <ele>850.7419434</ele>
        <time>2008-10-05T06:52:08Z</time>
      </trkpt>
      <trkpt lat="43.9347" lon="7.41542">
        <ele>856.2729492</ele>
        <time>2008-10-05T06:52:14Z</time>
      </trkpt>
      <trkpt lat="43.93459" lon="7.41549">
        <ele>863.5198364</ele>
        <time>2008-10-05T06:52:41Z</time>
      </trkpt>
      <trkpt lat="43.93454" lon="7.41546">
        <ele>863.2948608</ele>
        <time>2008-10-05T06:52:46Z</time>
      </trkpt>
      <trkpt lat="43.93452" lon="7.41545">
        <ele>863.3284912</ele>
        <time>2008-10-05T06:52:52Z</time>
      </trkpt>
      <trkpt lat="43.93448" lon="7.41539">
        <ele>861.6946411</ele>
        <time>2008-10-05T06:52:56Z</time>
      </trkpt>
      <trkpt lat="43.93445" lon="7.41536">
        <ele>861.2435913</ele>
        <time>2008-10-05T06:52:58Z</time>
      </trkpt>
      <trkpt lat="43.93436" lon="7.41533">
        <ele>862.5141602</ele>
        <time>2008-10-05T06:53:02Z</time>
      </trkpt>
      <trkpt lat="43.93427" lon="7.41528">
        <ele>862.9884033</ele>
        <time>2008-10-05T06:53:07Z</time>
      </trkpt>
      <trkpt lat="43.9342" lon="7.41524">
        <ele>863.3086548</ele>
        <time>2008-10-05T06:53:11Z</time>
      </trkpt>
      <trkpt lat="43.93407" lon="7.41518">
        <ele>864.9842529</ele>
        <time>2008-10-05T06:53:17Z</time>
      </trkpt>
      <trkpt lat="43.934" lon="7.41514">
        <ele>865.8734131</ele>
        <time>2008-10-05T06:53:21Z</time>
      </trkpt>
      <trkpt lat="43.93394" lon="7.41513">
        <ele>867.3964844</ele>
        <time>2008-10-05T06:53:24Z</time>
      </trkpt>
      <trkpt lat="43.93379" lon="7.41509">
        <ele>871.5623779</ele>
        <time>2008-10-05T06:53:33Z</time>
      </trkpt>
      <trkpt lat="43.93372" lon="7.41508">
        <ele>873.6295776</ele>
        <time>2008-10-05T06:53:38Z</time>
      </trkpt>
      <trkpt lat="43.93356" lon="7.41506">
        <ele>879.1207886</ele>
        <time>2008-10-05T06:53:49Z</time>
      </trkpt>
      <trkpt lat="43.93349" lon="7.41506">
        <ele>881.5717773</ele>
        <time>2008-10-05T06:53:55Z</time>
      </trkpt>
      <trkpt lat="43.9333" lon="7.41503">
        <ele>887.1766357</ele>
        <time>2008-10-05T06:54:13Z</time>
      </trkpt>
      <trkpt lat="43.93326" lon="7.41502">
        <ele>887.3083496</ele>
        <time>2008-10-05T06:54:16Z</time>
      </trkpt>
      <trkpt lat="43.93311" lon="7.41498">
        <ele>888.4630127</ele>
        <time>2008-10-05T06:54:29Z</time>
      </trkpt>
      <trkpt lat="43.93292" lon="7.41492">
        <ele>889.0425415</ele>
        <time>2008-10-05T06:54:44Z</time>
      </trkpt>
      <trkpt lat="43.93274" lon="7.41489">
        <ele>891.3275146</ele>
        <time>2008-10-05T06:55:02Z</time>
      </trkpt>
      <trkpt lat="43.93259" lon="7.41491">
        <ele>895.4161987</ele>
        <time>2008-10-05T06:55:17Z</time>
      </trkpt>
      <trkpt lat="43.93255" lon="7.41509">
        <ele>901.1993408</ele>
        <time>2008-10-05T06:55:25Z</time>
      </trkpt>
      <trkpt lat="43.93257" lon="7.41519">
        <ele>902.3447266</ele>
        <time>2008-10-05T06:55:31Z</time>
      </trkpt>
      <trkpt lat="43.9326" lon="7.41523">
        <ele>902.6091309</ele>
        <time>2008-10-05T06:55:37Z</time>
      </trkpt>
      <trkpt lat="43.93263" lon="7.41535">
        <ele>904.2941284</ele>
        <time>2008-10-05T06:55:45Z</time>
      </trkpt>
      <trkpt lat="43.93273" lon="7.41532">
        <ele>903.2296143</ele>
        <time>2008-10-05T06:55:55Z</time>
      </trkpt>
      <trkpt lat="43.93275" lon="7.41542">
        <ele>905.1749268</ele>
        <time>2008-10-05T06:56:04Z</time>
      </trkpt>
      <trkpt lat="43.93277" lon="7.41549">
        <ele>906.920105</ele>
        <time>2008-10-05T06:56:12Z</time>
      </trkpt>
      <trkpt lat="43.93279" lon="7.4155">
        <ele>907.1509399</ele>
        <time>2008-10-05T06:56:14Z</time>
      </trkpt>
      <trkpt lat="43.93283" lon="7.41556">
        <ele>908.7414551</ele>
        <time>2008-10-05T06:56:25Z</time>
      </trkpt>
      <trkpt lat="43.93291" lon="7.41562">
        <ele>910.8081055</ele>
        <time>2008-10-05T06:56:30Z</time>
      </trkpt>
      <trkpt lat="43.93287" lon="7.41565">
        <ele>911.3914185</ele>
        <time>2008-10-05T06:56:35Z</time>
      </trkpt>
      <trkpt lat="43.93293" lon="7.41571">
        <ele>913.6956177</ele>
        <time>2008-10-05T06:56:44Z</time>
      </trkpt>
      <trkpt lat="43.9329" lon="7.41583">
        <ele>916.5545654</ele>
        <time>2008-10-05T06:56:54Z</time>
      </trkpt>
      <trkpt lat="43.93288" lon="7.41591">
        <ele>918.2175293</ele>
        <time>2008-10-05T06:57:00Z</time>
      </trkpt>
      <trkpt lat="43.93288" lon="7.416">
        <ele>920.7683105</ele>
        <time>2008-10-05T06:57:04Z</time>
      </trkpt>
      <trkpt lat="43.93287" lon="7.41608">
        <ele>922.6640625</ele>
        <time>2008-10-05T06:57:10Z</time>
      </trkpt>
      <trkpt lat="43.9329" lon="7.41609">
        <ele>923.5664673</ele>
        <time>2008-10-05T06:57:15Z</time>
      </trkpt>
      <trkpt lat="43.93293" lon="7.41605">
        <ele>923.3190918</ele>
        <time>2008-10-05T06:57:20Z</time>
      </trkpt>
      <trkpt lat="43.93303" lon="7.41605">
        <ele>926.0216064</ele>
        <time>2008-10-05T06:57:31Z</time>
      </trkpt>
      <trkpt lat="43.93298" lon="7.41613">
        <ele>927.0841675</ele>
        <time>2008-10-05T06:57:40Z</time>
      </trkpt>
      <trkpt lat="43.93296" lon="7.41623">
        <ele>929.4102173</ele>
        <time>2008-10-05T06:57:48Z</time>
      </trkpt>
      <trkpt lat="43.93295" lon="7.41629">
        <ele>930.7821045</ele>
        <time>2008-10-05T06:57:52Z</time>
      </trkpt>
      <trkpt lat="43.93295" lon="7.41636">
        <ele>932.6763306</ele>
        <time>2008-10-05T06:57:57Z</time>
      </trkpt>
      <trkpt lat="43.93303" lon="7.41633">
        <ele>934.8924561</ele>
        <time>2008-10-05T06:58:06Z</time>
      </trkpt>
      <trkpt lat="43.93305" lon="7.41632">
        <ele>935.2609863</ele>
        <time>2008-10-05T06:58:08Z</time>
      </trkpt>
      <trkpt lat="43.93309" lon="7.41633">
        <ele>937.0963135</ele>
        <time>2008-10-05T06:58:12Z</time>
      </trkpt>
      <trkpt lat="43.93318" lon="7.41635">
        <ele>941.5881958</ele>
        <time>2008-10-05T06:58:23Z</time>
      </trkpt>
      <trkpt lat="43.93314" lon="7.41642">
        <ele>942.7371826</ele>
        <time>2008-10-05T06:58:38Z</time>
      </trkpt>
      <trkpt lat="43.93322" lon="7.41651">
        <ele>949.6568604</ele>
        <time>2008-10-05T06:58:53Z</time>
      </trkpt>
      <trkpt lat="43.93331" lon="7.41657">
        <ele>956.30896</ele>
        <time>2008-10-05T06:59:01Z</time>
      </trkpt>
      <trkpt lat="43.93336" lon="7.41664">
        <ele>959.8186646</ele>
        <time>2008-10-05T06:59:06Z</time>
      </trkpt>
      <trkpt lat="43.93345" lon="7.41677">
        <ele>962.4239502</ele>
        <time>2008-10-05T06:59:18Z</time>
      </trkpt>
      <trkpt lat="43.93328" lon="7.41678">
        <ele>963.5603027</ele>
        <time>2008-10-05T06:59:33Z</time>
      </trkpt>
      <trkpt lat="43.93328" lon="7.4168">
        <ele>964.1951294</ele>
        <time>2008-10-05T06:59:35Z</time>
      </trkpt>
      <trkpt lat="43.93336" lon="7.41685">
        <ele>968.7270508</ele>
        <time>2008-10-05T06:59:43Z</time>
      </trkpt>
      <trkpt lat="43.93346" lon="7.41695">
        <ele>969.831604</ele>
        <time>2008-10-05T06:59:54Z</time>
      </trkpt>
      <trkpt lat="43.93341" lon="7.41698">
        <ele>972.4058838</ele>
        <time>2008-10-05T07:00:03Z</time>
      </trkpt>
      <trkpt lat="43.93341" lon="7.41701">
        <ele>973.6160889</ele>
        <time>2008-10-05T07:00:08Z</time>
      </trkpt>
      <trkpt lat="43.93342" lon="7.41704">
        <ele>974.5198975</ele>
        <time>2008-10-05T07:00:10Z</time>
      </trkpt>
      <trkpt lat="43.93346" lon="7.41716">
        <ele>978.4536133</ele>
        <time>2008-10-05T07:00:21Z</time>
      </trkpt>
      <trkpt lat="43.93349" lon="7.41719">
        <ele>979.4006958</ele>
        <time>2008-10-05T07:00:25Z</time>
      </trkpt>
      <trkpt lat="43.93347" lon="7.41725">
        <ele>982.2852173</ele>
        <time>2008-10-05T07:00:34Z</time>
      </trkpt>
      <trkpt lat="43.93345" lon="7.41725">
        <ele>982.6680298</ele>
        <time>2008-10-05T07:00:36Z</time>
      </trkpt>
      <trkpt lat="43.93338" lon="7.41724">
        <ele>983.9869995</ele>
        <time>2008-10-05T07:00:44Z</time>
      </trkpt>
      <trkpt lat="43.93341" lon="7.41735">
        <ele>987.6747437</ele>
        <time>2008-10-05T07:00:57Z</time>
      </trkpt>
      <trkpt lat="43.93343" lon="7.41739">
        <ele>988.8041992</ele>
        <time>2008-10-05T07:01:00Z</time>
      </trkpt>
      <trkpt lat="43.93341" lon="7.41741">
        <ele>990.0322266</ele>
        <time>2008-10-05T07:01:04Z</time>
      </trkpt>
      <trkpt lat="43.93341" lon="7.41745">
        <ele>991.6133423</ele>
        <time>2008-10-05T07:01:08Z</time>
      </trkpt>
      <trkpt lat="43.93345" lon="7.41754">
        <ele>994.7753906</ele>
        <time>2008-10-05T07:01:21Z</time>
      </trkpt>
      <trkpt lat="43.93341" lon="7.41754">
        <ele>995.3125</ele>
        <time>2008-10-05T07:01:26Z</time>
      </trkpt>
      <trkpt lat="43.93348" lon="7.41765">
        <ele>998.6323853</ele>
        <time>2008-10-05T07:01:44Z</time>
      </trkpt>
      <trkpt lat="43.93351" lon="7.41771">
        <ele>1000.9797974</ele>
        <time>2008-10-05T07:01:58Z</time>
      </trkpt>
      <trkpt lat="43.93359" lon="7.41781">
        <ele>1003.9893188</ele>
        <time>2008-10-05T07:02:07Z</time>
      </trkpt>
      <trkpt lat="43.93357" lon="7.41787">
        <ele>1006.8191528</ele>
        <time>2008-10-05T07:02:16Z</time>
      </trkpt>
      <trkpt lat="43.93353" lon="7.41787">
        <ele>1007.2542114</ele>
        <time>2008-10-05T07:02:20Z</time>
      </trkpt>
      <trkpt lat="43.93349" lon="7.41788">
        <ele>1007.9245605</ele>
        <time>2008-10-05T07:02:24Z</time>
      </trkpt>
      <trkpt lat="43.93346" lon="7.41788">
        <ele>1008.2763672</ele>
        <time>2008-10-05T07:02:26Z</time>
      </trkpt>
      <trkpt lat="43.93347" lon="7.41792">
        <ele>1009.8099976</ele>
        <time>2008-10-05T07:02:31Z</time>
      </trkpt>
      <trkpt lat="43.93353" lon="7.41801">
        <ele>1012.892334</ele>
        <time>2008-10-05T07:02:40Z</time>
      </trkpt>
      <trkpt lat="43.93362" lon="7.41809">
        <ele>1015.8203735</ele>
        <time>2008-10-05T07:02:55Z</time>
      </trkpt>
      <trkpt lat="43.93365" lon="7.41812">
        <ele>1016.7267456</ele>
        <time>2008-10-05T07:02:59Z</time>
      </trkpt>
      <trkpt lat="43.93374" lon="7.41817">
        <ele>1018.5232544</ele>
        <time>2008-10-05T07:03:10Z</time>
      </trkpt>
      <trkpt lat="43.93378" lon="7.41822">
        <ele>1020.5955811</ele>
        <time>2008-10-05T07:03:16Z</time>
      </trkpt>
      <trkpt lat="43.93381" lon="7.41825">
        <ele>1022.1246948</ele>
        <time>2008-10-05T07:03:21Z</time>
      </trkpt>
      <trkpt lat="43.93383" lon="7.41828">
        <ele>1023.1599731</ele>
        <time>2008-10-05T07:03:24Z</time>
      </trkpt>
      <trkpt lat="43.93383" lon="7.41831">
        <ele>1024.7860107</ele>
        <time>2008-10-05T07:03:29Z</time>
      </trkpt>
      <trkpt lat="43.93374" lon="7.41832">
        <ele>1025.2246094</ele>
        <time>2008-10-05T07:03:36Z</time>
      </trkpt>
      <trkpt lat="43.9337" lon="7.41837">
        <ele>1027.7786865</ele>
        <time>2008-10-05T07:03:51Z</time>
      </trkpt>
      <trkpt lat="43.93366" lon="7.41838">
        <ele>1027.9914551</ele>
        <time>2008-10-05T07:03:56Z</time>
      </trkpt>
      <trkpt lat="43.93367" lon="7.41841">
        <ele>1029.2270508</ele>
        <time>2008-10-05T07:04:00Z</time>
      </trkpt>
      <trkpt lat="43.93372" lon="7.41844">
        <ele>1030.4766846</ele>
        <time>2008-10-05T07:04:05Z</time>
      </trkpt>
      <trkpt lat="43.93385" lon="7.4186">
        <ele>1037.1280518</ele>
        <time>2008-10-05T07:04:22Z</time>
      </trkpt>
      <trkpt lat="43.93387" lon="7.41863">
        <ele>1038.4788818</ele>
        <time>2008-10-05T07:04:25Z</time>
      </trkpt>
      <trkpt lat="43.93389" lon="7.41868">
        <ele>1040.7097168</ele>
        <time>2008-10-05T07:04:29Z</time>
      </trkpt>
      <trkpt lat="43.93392" lon="7.41875">
        <ele>1043.9327393</ele>
        <time>2008-10-05T07:04:35Z</time>
      </trkpt>
      <trkpt lat="43.9339" lon="7.41877">
        <ele>1044.5356445</ele>
        <time>2008-10-05T07:04:39Z</time>
      </trkpt>
      <trkpt lat="43.93387" lon="7.41875">
        <ele>1043.6789551</ele>
        <time>2008-10-05T07:04:43Z</time>
      </trkpt>
      <trkpt lat="43.93377" lon="7.41873">
        <ele>1042.6550293</ele>
        <time>2008-10-05T07:04:52Z</time>
      </trkpt>
      <trkpt lat="43.93371" lon="7.41874">
        <ele>1042.7076416</ele>
        <time>2008-10-05T07:04:59Z</time>
      </trkpt>
      <trkpt lat="43.93373" lon="7.4188">
        <ele>1045.3887939</ele>
        <time>2008-10-05T07:05:07Z</time>
      </trkpt>
      <trkpt lat="43.93377" lon="7.41888">
        <ele>1048.5427246</ele>
        <time>2008-10-05T07:05:13Z</time>
      </trkpt>
      <trkpt lat="43.93378" lon="7.41895">
        <ele>1051.7062988</ele>
        <time>2008-10-05T07:05:17Z</time>
      </trkpt>
      <trkpt lat="43.93379" lon="7.41899">
        <ele>1053.3657227</ele>
        <time>2008-10-05T07:05:20Z</time>
      </trkpt>
      <trkpt lat="43.93375" lon="7.41902">
        <ele>1054.5744629</ele>
        <time>2008-10-05T07:05:28Z</time>
      </trkpt>
      <trkpt lat="43.93378" lon="7.4191">
        <ele>1058.1713867</ele>
        <time>2008-10-05T07:05:34Z</time>
      </trkpt>
      <trkpt lat="43.93387" lon="7.41936">
        <ele>1069.4404297</ele>
        <time>2008-10-05T07:05:58Z</time>
      </trkpt>
      <trkpt lat="43.9339" lon="7.41941">
        <ele>1071.6137695</ele>
        <time>2008-10-05T07:06:03Z</time>
      </trkpt>
      <trkpt lat="43.93396" lon="7.41958">
        <ele>1079.4003906</ele>
        <time>2008-10-05T07:06:16Z</time>
      </trkpt>
      <trkpt lat="43.93399" lon="7.41967">
        <ele>1084.1072998</ele>
        <time>2008-10-05T07:06:25Z</time>
      </trkpt>
      <trkpt lat="43.93401" lon="7.41971">
        <ele>1085.9291992</ele>
        <time>2008-10-05T07:06:28Z</time>
      </trkpt>
      <trkpt lat="43.93403" lon="7.41976">
        <ele>1088.3087158</ele>
        <time>2008-10-05T07:06:32Z</time>
      </trkpt>
      <trkpt lat="43.93405" lon="7.41987">
        <ele>1093.4671631</ele>
        <time>2008-10-05T07:06:41Z</time>
      </trkpt>
      <trkpt lat="43.93405" lon="7.41997">
        <ele>1097.4871826</ele>
        <time>2008-10-05T07:06:46Z</time>
      </trkpt>
      <trkpt lat="43.93401" lon="7.41996">
        <ele>1096.5505371</ele>
        <time>2008-10-05T07:06:51Z</time>
      </trkpt>
      <trkpt lat="43.93399" lon="7.41994">
        <ele>1095.5341797</ele>
        <time>2008-10-05T07:06:53Z</time>
      </trkpt>
      <trkpt lat="43.93391" lon="7.41989">
        <ele>1092.0465088</ele>
        <time>2008-10-05T07:07:02Z</time>
      </trkpt>
      <trkpt lat="43.93391" lon="7.42009">
        <ele>1097.8328857</ele>
        <time>2008-10-05T07:07:25Z</time>
      </trkpt>
      <trkpt lat="43.93388" lon="7.42013">
        <ele>1098.1444092</ele>
        <time>2008-10-05T07:07:29Z</time>
      </trkpt>
      <trkpt lat="43.93386" lon="7.42022">
        <ele>1099.2993164</ele>
        <time>2008-10-05T07:07:37Z</time>
      </trkpt>
      <trkpt lat="43.93385" lon="7.42026">
        <ele>1099.739502</ele>
        <time>2008-10-05T07:07:41Z</time>
      </trkpt>
      <trkpt lat="43.93379" lon="7.42049">
        <ele>1102.5378418</ele>
        <time>2008-10-05T07:07:54Z</time>
      </trkpt>
      <trkpt lat="43.93379" lon="7.42051">
        <ele>1102.7944336</ele>
        <time>2008-10-05T07:07:55Z</time>
      </trkpt>
      <trkpt lat="43.93371" lon="7.42075">
        <ele>1105.2753906</ele>
        <time>2008-10-05T07:08:05Z</time>
      </trkpt>
      <trkpt lat="43.93369" lon="7.4208">
        <ele>1105.6694336</ele>
        <time>2008-10-05T07:08:09Z</time>
      </trkpt>
      <trkpt lat="43.93359" lon="7.42107">
        <ele>1106.8057861</ele>
        <time>2008-10-05T07:08:19Z</time>
      </trkpt>
      <trkpt lat="43.93353" lon="7.42131">
        <ele>1108.6933594</ele>
        <time>2008-10-05T07:08:27Z</time>
      </trkpt>
      <trkpt lat="43.93349" lon="7.42158">
        <ele>1111.5778809</ele>
        <time>2008-10-05T07:08:35Z</time>
      </trkpt>
      <trkpt lat="43.93341" lon="7.42183">
        <ele>1113.2456055</ele>
        <time>2008-10-05T07:08:44Z</time>
      </trkpt>
      <trkpt lat="43.93333" lon="7.42206">
        <ele>1115.7773438</ele>
        <time>2008-10-05T07:08:52Z</time>
      </trkpt>
      <trkpt lat="43.93331" lon="7.42212">
        <ele>1115.057373</ele>
        <time>2008-10-05T07:08:55Z</time>
      </trkpt>
      <trkpt lat="43.93319" lon="7.42236">
        <ele>1112.0913086</ele>
        <time>2008-10-05T07:09:05Z</time>
      </trkpt>
      <trkpt lat="43.93307" lon="7.42255">
        <ele>1109.989502</ele>
        <time>2008-10-05T07:09:16Z</time>
      </trkpt>
      <trkpt lat="43.93293" lon="7.42273">
        <ele>1106.0461426</ele>
        <time>2008-10-05T07:09:25Z</time>
      </trkpt>
      <trkpt lat="43.93294" lon="7.423">
        <ele>1108.8179932</ele>
        <time>2008-10-05T07:09:33Z</time>
      </trkpt>
      <trkpt lat="43.9329" lon="7.42327">
        <ele>1110.6184082</ele>
        <time>2008-10-05T07:09:41Z</time>
      </trkpt>
      <trkpt lat="43.93285" lon="7.42348">
        <ele>1111.8721924</ele>
        <time>2008-10-05T07:09:50Z</time>
      </trkpt>
      <trkpt lat="43.93276" lon="7.42368">
        <ele>1112.9810791</ele>
        <time>2008-10-05T07:09:58Z</time>
      </trkpt>
      <trkpt lat="43.93273" lon="7.42377">
        <ele>1113.8612061</ele>
        <time>2008-10-05T07:10:02Z</time>
      </trkpt>
      <trkpt lat="43.93266" lon="7.42405">
        <ele>1116.9337158</ele>
        <time>2008-10-05T07:10:15Z</time>
      </trkpt>
      <trkpt lat="43.93258" lon="7.42427">
        <ele>1121.5725098</ele>
        <time>2008-10-05T07:10:25Z</time>
      </trkpt>
      <trkpt lat="43.9325" lon="7.4245">
        <ele>1128.9063721</ele>
        <time>2008-10-05T07:10:36Z</time>
      </trkpt>
      <trkpt lat="43.93246" lon="7.42462">
        <ele>1130.5107422</ele>
        <time>2008-10-05T07:10:42Z</time>
      </trkpt>
      <trkpt lat="43.93245" lon="7.42468">
        <ele>1131.7854004</ele>
        <time>2008-10-05T07:10:46Z</time>
      </trkpt>
      <trkpt lat="43.93244" lon="7.42472">
        <ele>1132.4716797</ele>
        <time>2008-10-05T07:10:50Z</time>
      </trkpt>
      <trkpt lat="43.9324" lon="7.42481">
        <ele>1133.1053467</ele>
        <time>2008-10-05T07:10:55Z</time>
      </trkpt>
      <trkpt lat="43.93228" lon="7.42501">
        <ele>1134.4299316</ele>
        <time>2008-10-05T07:11:08Z</time>
      </trkpt>
      <trkpt lat="43.93222" lon="7.4251">
        <ele>1134.717041</ele>
        <time>2008-10-05T07:11:16Z</time>
      </trkpt>
      <trkpt lat="43.93215" lon="7.42522">
        <ele>1136.3304443</ele>
        <time>2008-10-05T07:11:26Z</time>
      </trkpt>
      <trkpt lat="43.93227" lon="7.42519">
        <ele>1140.588501</ele>
        <time>2008-10-05T07:11:36Z</time>
      </trkpt>
      <trkpt lat="43.93238" lon="7.42517">
        <ele>1144.1907959</ele>
        <time>2008-10-05T07:11:43Z</time>
      </trkpt>
      <trkpt lat="43.93238" lon="7.42522">
        <ele>1145.9306641</ele>
        <time>2008-10-05T07:11:47Z</time>
      </trkpt>
      <trkpt lat="43.93233" lon="7.42528">
        <ele>1145.807373</ele>
        <time>2008-10-05T07:11:53Z</time>
      </trkpt>
      <trkpt lat="43.93228" lon="7.42532">
        <ele>1145.3006592</ele>
        <time>2008-10-05T07:11:58Z</time>
      </trkpt>
      <trkpt lat="43.93211" lon="7.42546">
        <ele>1143.6633301</ele>
        <time>2008-10-05T07:12:12Z</time>
      </trkpt>
      <trkpt lat="43.93198" lon="7.42564">
        <ele>1146.7789307</ele>
        <time>2008-10-05T07:12:27Z</time>
      </trkpt>
      <trkpt lat="43.93187" lon="7.42584">
        <ele>1151.1397705</ele>
        <time>2008-10-05T07:12:37Z</time>
      </trkpt>
      <trkpt lat="43.93183" lon="7.42589">
        <ele>1152.3848877</ele>
        <time>2008-10-05T07:12:41Z</time>
      </trkpt>
      <trkpt lat="43.93198" lon="7.4258">
        <ele>1152.8969727</ele>
        <time>2008-10-05T07:12:53Z</time>
      </trkpt>
      <trkpt lat="43.93196" lon="7.42584">
        <ele>1154.0843506</ele>
        <time>2008-10-05T07:12:58Z</time>
      </trkpt>
      <trkpt lat="43.93188" lon="7.42597">
        <ele>1157.0621338</ele>
        <time>2008-10-05T07:13:09Z</time>
      </trkpt>
      <trkpt lat="43.93184" lon="7.42606">
        <ele>1159.4345703</ele>
        <time>2008-10-05T07:13:15Z</time>
      </trkpt>
      <trkpt lat="43.93183" lon="7.42608">
        <ele>1159.9655762</ele>
        <time>2008-10-05T07:13:18Z</time>
      </trkpt>
      <trkpt lat="43.93179" lon="7.42616">
        <ele>1162.3425293</ele>
        <time>2008-10-05T07:13:25Z</time>
      </trkpt>
      <trkpt lat="43.93166" lon="7.42635">
        <ele>1167.5626221</ele>
        <time>2008-10-05T07:13:38Z</time>
      </trkpt>
      <trkpt lat="43.93163" lon="7.42662">
        <ele>1177.8010254</ele>
        <time>2008-10-05T07:13:50Z</time>
      </trkpt>
      <trkpt lat="43.93163" lon="7.42665">
        <ele>1178.7598877</ele>
        <time>2008-10-05T07:13:51Z</time>
      </trkpt>
      <trkpt lat="43.93158" lon="7.42693">
        <ele>1183.6757813</ele>
        <time>2008-10-05T07:14:02Z</time>
      </trkpt>
      <trkpt lat="43.93148" lon="7.42716">
        <ele>1182.9962158</ele>
        <time>2008-10-05T07:14:18Z</time>
      </trkpt>
      <trkpt lat="43.93141" lon="7.42731">
        <ele>1181.9615479</ele>
        <time>2008-10-05T07:14:24Z</time>
      </trkpt>
      <trkpt lat="43.93139" lon="7.4276">
        <ele>1188.7183838</ele>
        <time>2008-10-05T07:14:40Z</time>
      </trkpt>
      <trkpt lat="43.93129" lon="7.42781">
        <ele>1188.5853271</ele>
        <time>2008-10-05T07:14:50Z</time>
      </trkpt>
      <trkpt lat="43.93121" lon="7.42806">
        <ele>1191.5588379</ele>
        <time>2008-10-05T07:15:00Z</time>
      </trkpt>
      <trkpt lat="43.9311" lon="7.42827">
        <ele>1191.9036865</ele>
        <time>2008-10-05T07:15:09Z</time>
      </trkpt>
      <trkpt lat="43.93105" lon="7.42833">
        <ele>1191.0783691</ele>
        <time>2008-10-05T07:15:13Z</time>
      </trkpt>
      <trkpt lat="43.93093" lon="7.42856">
        <ele>1193.390625</ele>
        <time>2008-10-05T07:15:23Z</time>
      </trkpt>
      <trkpt lat="43.93081" lon="7.42876">
        <ele>1196.8797607</ele>
        <time>2008-10-05T07:15:32Z</time>
      </trkpt>
      <trkpt lat="43.9308" lon="7.42877">
        <ele>1197.3273926</ele>
        <time>2008-10-05T07:15:33Z</time>
      </trkpt>
      <trkpt lat="43.93072" lon="7.4289">
        <ele>1202.4393311</ele>
        <time>2008-10-05T07:15:43Z</time>
      </trkpt>
      <trkpt lat="43.93069" lon="7.42894">
        <ele>1204.0330811</ele>
        <time>2008-10-05T07:15:47Z</time>
      </trkpt>
      <trkpt lat="43.93066" lon="7.42898">
        <ele>1206.0692139</ele>
        <time>2008-10-05T07:15:50Z</time>
      </trkpt>
      <trkpt lat="43.93057" lon="7.42894">
        <ele>1202.8293457</ele>
        <time>2008-10-05T07:15:54Z</time>
      </trkpt>
      <trkpt lat="43.93042" lon="7.42885">
        <ele>1196.8083496</ele>
        <time>2008-10-05T07:16:03Z</time>
      </trkpt>
      <trkpt lat="43.93035" lon="7.42883">
        <ele>1194.9389648</ele>
        <time>2008-10-05T07:16:08Z</time>
      </trkpt>
      <trkpt lat="43.93025" lon="7.42886">
        <ele>1195.0067139</ele>
        <time>2008-10-05T07:16:16Z</time>
      </trkpt>
      <trkpt lat="43.9301" lon="7.42904">
        <ele>1203.458374</ele>
        <time>2008-10-05T07:16:27Z</time>
      </trkpt>
      <trkpt lat="43.92996" lon="7.4292">
        <ele>1210.479126</ele>
        <time>2008-10-05T07:16:36Z</time>
      </trkpt>
      <trkpt lat="43.92979" lon="7.4293">
        <ele>1211.4610596</ele>
        <time>2008-10-05T07:16:45Z</time>
      </trkpt>
      <trkpt lat="43.92969" lon="7.42946">
        <ele>1217.3676758</ele>
        <time>2008-10-05T07:16:51Z</time>
      </trkpt>
      <trkpt lat="43.92944" lon="7.42953">
        <ele>1214.8602295</ele>
        <time>2008-10-05T07:17:02Z</time>
      </trkpt>
      <trkpt lat="43.92941" lon="7.42957">
        <ele>1216.2780762</ele>
        <time>2008-10-05T07:17:04Z</time>
      </trkpt>
      <trkpt lat="43.92934" lon="7.42962">
        <ele>1217.602417</ele>
        <time>2008-10-05T07:17:09Z</time>
      </trkpt>
      <trkpt lat="43.92929" lon="7.42963">
        <ele>1216.9199219</ele>
        <time>2008-10-05T07:17:13Z</time>
      </trkpt>
      <trkpt lat="43.92912" lon="7.42956">
        <ele>1211.8601074</ele>
        <time>2008-10-05T07:17:20Z</time>
      </trkpt>
      <trkpt lat="43.92907" lon="7.42953">
        <ele>1211.9639893</ele>
        <time>2008-10-05T07:17:24Z</time>
      </trkpt>
      <trkpt lat="43.92905" lon="7.42949">
        <ele>1211.2349854</ele>
        <time>2008-10-05T07:17:27Z</time>
      </trkpt>
      <trkpt lat="43.92886" lon="7.42939">
        <ele>1213.7595215</ele>
        <time>2008-10-05T07:17:36Z</time>
      </trkpt>
      <trkpt lat="43.92869" lon="7.4292">
        <ele>1209.7839355</ele>
        <time>2008-10-05T07:17:44Z</time>
      </trkpt>
      <trkpt lat="43.92849" lon="7.42907">
        <ele>1211.0570068</ele>
        <time>2008-10-05T07:17:54Z</time>
      </trkpt>
      <trkpt lat="43.92846" lon="7.42906">
        <ele>1210.9830322</ele>
        <time>2008-10-05T07:17:55Z</time>
      </trkpt>
      <trkpt lat="43.92839" lon="7.42901">
        <ele>1210.583252</ele>
        <time>2008-10-05T07:17:58Z</time>
      </trkpt>
      <trkpt lat="43.92833" lon="7.42897">
        <ele>1211.0955811</ele>
        <time>2008-10-05T07:18:01Z</time>
      </trkpt>
      <trkpt lat="43.92813" lon="7.42891">
        <ele>1215.4915771</ele>
        <time>2008-10-05T07:18:11Z</time>
      </trkpt>
      <trkpt lat="43.92803" lon="7.42889">
        <ele>1218.2895508</ele>
        <time>2008-10-05T07:18:18Z</time>
      </trkpt>
      <trkpt lat="43.92799" lon="7.42891">
        <ele>1221.5228271</ele>
        <time>2008-10-05T07:18:20Z</time>
      </trkpt>
      <trkpt lat="43.92792" lon="7.42891">
        <ele>1224.1593018</ele>
        <time>2008-10-05T07:18:26Z</time>
      </trkpt>
      <trkpt lat="43.92783" lon="7.42887">
        <ele>1226.0246582</ele>
        <time>2008-10-05T07:18:31Z</time>
      </trkpt>
      <trkpt lat="43.92775" lon="7.42887">
        <ele>1229.3184814</ele>
        <time>2008-10-05T07:18:36Z</time>
      </trkpt>
      <trkpt lat="43.9276" lon="7.4288">
        <ele>1232.1452637</ele>
        <time>2008-10-05T07:18:44Z</time>
      </trkpt>
      <trkpt lat="43.92751" lon="7.42868">
        <ele>1230.270874</ele>
        <time>2008-10-05T07:18:49Z</time>
      </trkpt>
      <trkpt lat="43.92739" lon="7.4286">
        <ele>1227.7904053</ele>
        <time>2008-10-05T07:18:56Z</time>
      </trkpt>
      <trkpt lat="43.92732" lon="7.42855">
        <ele>1226.4057617</ele>
        <time>2008-10-05T07:19:01Z</time>
      </trkpt>
      <trkpt lat="43.92726" lon="7.42849">
        <ele>1224.7974854</ele>
        <time>2008-10-05T07:19:05Z</time>
      </trkpt>
      <trkpt lat="43.92719" lon="7.4285">
        <ele>1226.6782227</ele>
        <time>2008-10-05T07:19:10Z</time>
      </trkpt>
      <trkpt lat="43.92718" lon="7.42849">
        <ele>1226.4398193</ele>
        <time>2008-10-05T07:19:12Z</time>
      </trkpt>
      <trkpt lat="43.92697" lon="7.42844">
        <ele>1228.3493652</ele>
        <time>2008-10-05T07:19:28Z</time>
      </trkpt>
      <trkpt lat="43.92693" lon="7.42845">
        <ele>1229.4671631</ele>
        <time>2008-10-05T07:19:31Z</time>
      </trkpt>
      <trkpt lat="43.92683" lon="7.42846">
        <ele>1231.8292236</ele>
        <time>2008-10-05T07:19:37Z</time>
      </trkpt>
      <trkpt lat="43.92676" lon="7.42846">
        <ele>1233.5162354</ele>
        <time>2008-10-05T07:19:42Z</time>
      </trkpt>
      <trkpt lat="43.92666" lon="7.42853">
        <ele>1237.5736084</ele>
        <time>2008-10-05T07:19:49Z</time>
      </trkpt>
      <trkpt lat="43.92669" lon="7.42873">
        <ele>1243.8911133</ele>
        <time>2008-10-05T07:20:15Z</time>
      </trkpt>
      <trkpt lat="43.92673" lon="7.42879">
        <ele>1245.6862793</ele>
        <time>2008-10-05T07:20:23Z</time>
      </trkpt>
      <trkpt lat="43.92671" lon="7.42883">
        <ele>1247.227417</ele>
        <time>2008-10-05T07:20:27Z</time>
      </trkpt>
      <trkpt lat="43.92675" lon="7.42886">
        <ele>1247.8458252</ele>
        <time>2008-10-05T07:20:33Z</time>
      </trkpt>
      <trkpt lat="43.9268" lon="7.42888">
        <ele>1247.9260254</ele>
        <time>2008-10-05T07:20:39Z</time>
      </trkpt>
      <trkpt lat="43.92685" lon="7.42893">
        <ele>1249.5670166</ele>
        <time>2008-10-05T07:20:46Z</time>
      </trkpt>
      <trkpt lat="43.927" lon="7.42909">
        <ele>1254.546875</ele>
        <time>2008-10-05T07:21:02Z</time>
      </trkpt>
      <trkpt lat="43.92714" lon="7.42925">
        <ele>1259.4887695</ele>
        <time>2008-10-05T07:21:19Z</time>
      </trkpt>
      <trkpt lat="43.92715" lon="7.42926">
        <ele>1259.6933594</ele>
        <time>2008-10-05T07:21:20Z</time>
      </trkpt>
      <trkpt lat="43.92718" lon="7.42932">
        <ele>1261.324585</ele>
        <time>2008-10-05T07:21:25Z</time>
      </trkpt>
      <trkpt lat="43.92717" lon="7.42936">
        <ele>1262.4915771</ele>
        <time>2008-10-05T07:21:29Z</time>
      </trkpt>
      <trkpt lat="43.92725" lon="7.42941">
        <ele>1264.4000244</ele>
        <time>2008-10-05T07:21:40Z</time>
      </trkpt>
      <trkpt lat="43.92735" lon="7.42952">
        <ele>1269.2619629</ele>
        <time>2008-10-05T07:21:52Z</time>
      </trkpt>
      <trkpt lat="43.92736" lon="7.42955">
        <ele>1270.7062988</ele>
        <time>2008-10-05T07:21:55Z</time>
      </trkpt>
      <trkpt lat="43.92739" lon="7.42959">
        <ele>1272.3779297</ele>
        <time>2008-10-05T07:22:00Z</time>
      </trkpt>
      <trkpt lat="43.92739" lon="7.42965">
        <ele>1274.8178711</ele>
        <time>2008-10-05T07:22:11Z</time>
      </trkpt>
      <trkpt lat="43.92735" lon="7.42969">
        <ele>1275.4456787</ele>
        <time>2008-10-05T07:22:15Z</time>
      </trkpt>
      <trkpt lat="43.9273" lon="7.42997">
        <ele>1283.8319092</ele>
        <time>2008-10-05T07:22:33Z</time>
      </trkpt>
      <trkpt lat="43.92728" lon="7.43023">
        <ele>1287.9749756</ele>
        <time>2008-10-05T07:22:42Z</time>
      </trkpt>
      <trkpt lat="43.92725" lon="7.4305">
        <ele>1291.307373</ele>
        <time>2008-10-05T07:22:50Z</time>
      </trkpt>
      <trkpt lat="43.9272" lon="7.43074">
        <ele>1293.2858887</ele>
        <time>2008-10-05T07:22:57Z</time>
      </trkpt>
      <trkpt lat="43.92719" lon="7.431">
        <ele>1296.3378906</ele>
        <time>2008-10-05T07:23:06Z</time>
      </trkpt>
      <trkpt lat="43.92719" lon="7.4311">
        <ele>1298.2264404</ele>
        <time>2008-10-05T07:23:13Z</time>
      </trkpt>
      <trkpt lat="43.92713" lon="7.43134">
        <ele>1299.3129883</ele>
        <time>2008-10-05T07:23:22Z</time>
      </trkpt>
      <trkpt lat="43.92708" lon="7.43159">
        <ele>1301.1400146</ele>
        <time>2008-10-05T07:23:40Z</time>
      </trkpt>
      <trkpt lat="43.92696" lon="7.4318">
        <ele>1299.6132813</ele>
        <time>2008-10-05T07:23:49Z</time>
      </trkpt>
      <trkpt lat="43.92686" lon="7.43203">
        <ele>1299.6384277</ele>
        <time>2008-10-05T07:24:00Z</time>
      </trkpt>
      <trkpt lat="43.92683" lon="7.43216">
        <ele>1300.5916748</ele>
        <time>2008-10-05T07:24:07Z</time>
      </trkpt>
      <trkpt lat="43.92677" lon="7.43242">
        <ele>1302.967041</ele>
        <time>2008-10-05T07:24:19Z</time>
      </trkpt>
      <trkpt lat="43.92676" lon="7.4327">
        <ele>1305.4848633</ele>
        <time>2008-10-05T07:24:28Z</time>
      </trkpt>
      <trkpt lat="43.92677" lon="7.43298">
        <ele>1307.7751465</ele>
        <time>2008-10-05T07:24:36Z</time>
      </trkpt>
      <trkpt lat="43.92683" lon="7.43324">
        <ele>1312.9328613</ele>
        <time>2008-10-05T07:24:44Z</time>
      </trkpt>
      <trkpt lat="43.92689" lon="7.43351">
        <ele>1315.1940918</ele>
        <time>2008-10-05T07:24:51Z</time>
      </trkpt>
      <trkpt lat="43.92698" lon="7.43372">
        <ele>1318.4831543</ele>
        <time>2008-10-05T07:24:59Z</time>
      </trkpt>
      <trkpt lat="43.92707" lon="7.43395">
        <ele>1321.9379883</ele>
        <time>2008-10-05T07:25:08Z</time>
      </trkpt>
      <trkpt lat="43.92719" lon="7.43417">
        <ele>1326.5802002</ele>
        <time>2008-10-05T07:25:16Z</time>
      </trkpt>
      <trkpt lat="43.92732" lon="7.43436">
        <ele>1330.3220215</ele>
        <time>2008-10-05T07:25:25Z</time>
      </trkpt>
      <trkpt lat="43.92743" lon="7.43453">
        <ele>1332.8198242</ele>
        <time>2008-10-05T07:25:35Z</time>
      </trkpt>
      <trkpt lat="43.92747" lon="7.43459">
        <ele>1333.5270996</ele>
        <time>2008-10-05T07:25:45Z</time>
      </trkpt>
      <trkpt lat="43.92754" lon="7.43464">
        <ele>1336.1737061</ele>
        <time>2008-10-05T07:25:50Z</time>
      </trkpt>
      <trkpt lat="43.92756" lon="7.43465">
        <ele>1337.2132568</ele>
        <time>2008-10-05T07:25:52Z</time>
      </trkpt>
      <trkpt lat="43.92763" lon="7.43474">
        <ele>1339.5134277</ele>
        <time>2008-10-05T07:26:01Z</time>
      </trkpt>
      <trkpt lat="43.92763" lon="7.43487">
        <ele>1337.3608398</ele>
        <time>2008-10-05T07:26:10Z</time>
      </trkpt>
      <trkpt lat="43.9276" lon="7.43492">
        <ele>1334.8110352</ele>
        <time>2008-10-05T07:26:14Z</time>
      </trkpt>
      <trkpt lat="43.9275" lon="7.43516">
        <ele>1329.9047852</ele>
        <time>2008-10-05T07:26:25Z</time>
      </trkpt>
      <trkpt lat="43.92736" lon="7.43535">
        <ele>1328.6435547</ele>
        <time>2008-10-05T07:26:40Z</time>
      </trkpt>
      <trkpt lat="43.92721" lon="7.43552">
        <ele>1327.3354492</ele>
        <time>2008-10-05T07:26:48Z</time>
      </trkpt>
      <trkpt lat="43.9271" lon="7.43564">
        <ele>1326.6522217</ele>
        <time>2008-10-05T07:26:54Z</time>
      </trkpt>
      <trkpt lat="43.92693" lon="7.43582">
        <ele>1325.439209</ele>
        <time>2008-10-05T07:27:04Z</time>
      </trkpt>
      <trkpt lat="43.92688" lon="7.43586">
        <ele>1325.4360352</ele>
        <time>2008-10-05T07:27:06Z</time>
      </trkpt>
      <trkpt lat="43.92685" lon="7.4359">
        <ele>1325.8388672</ele>
        <time>2008-10-05T07:27:08Z</time>
      </trkpt>
      <trkpt lat="43.92667" lon="7.43604">
        <ele>1325.2960205</ele>
        <time>2008-10-05T07:27:18Z</time>
      </trkpt>
      <trkpt lat="43.92665" lon="7.43605">
        <ele>1325.1323242</ele>
        <time>2008-10-05T07:27:19Z</time>
      </trkpt>
      <trkpt lat="43.92645" lon="7.43616">
        <ele>1324.5167236</ele>
        <time>2008-10-05T07:27:28Z</time>
      </trkpt>
      <trkpt lat="43.92627" lon="7.43626">
        <ele>1323.7945557</ele>
        <time>2008-10-05T07:27:38Z</time>
      </trkpt>
      <trkpt lat="43.92613" lon="7.43631">
        <ele>1322.4361572</ele>
        <time>2008-10-05T07:27:44Z</time>
      </trkpt>
      <trkpt lat="43.92604" lon="7.43641">
        <ele>1324.0969238</ele>
        <time>2008-10-05T07:27:49Z</time>
      </trkpt>
      <trkpt lat="43.92594" lon="7.4365">
        <ele>1325.243042</ele>
        <time>2008-10-05T07:27:54Z</time>
      </trkpt>
      <trkpt lat="43.92575" lon="7.43661">
        <ele>1325.1854248</ele>
        <time>2008-10-05T07:28:03Z</time>
      </trkpt>
      <trkpt lat="43.92554" lon="7.43674">
        <ele>1326.7788086</ele>
        <time>2008-10-05T07:28:14Z</time>
      </trkpt>
      <trkpt lat="43.92551" lon="7.43674">
        <ele>1326.206665</ele>
        <time>2008-10-05T07:28:16Z</time>
      </trkpt>
      <trkpt lat="43.92537" lon="7.43679">
        <ele>1325.5096436</ele>
        <time>2008-10-05T07:28:22Z</time>
      </trkpt>
      <trkpt lat="43.92532" lon="7.4368">
        <ele>1324.8594971</ele>
        <time>2008-10-05T07:28:24Z</time>
      </trkpt>
      <trkpt lat="43.92521" lon="7.43686">
        <ele>1325.4892578</ele>
        <time>2008-10-05T07:28:29Z</time>
      </trkpt>
      <trkpt lat="43.92507" lon="7.43693">
        <ele>1325.8723145</ele>
        <time>2008-10-05T07:28:36Z</time>
      </trkpt>
      <trkpt lat="43.92487" lon="7.43702">
        <ele>1328.3551025</ele>
        <time>2008-10-05T07:28:48Z</time>
      </trkpt>
      <trkpt lat="43.92482" lon="7.437">
        <ele>1327.3256836</ele>
        <time>2008-10-05T07:28:52Z</time>
      </trkpt>
      <trkpt lat="43.92473" lon="7.43701">
        <ele>1327.4990234</ele>
        <time>2008-10-05T07:28:59Z</time>
      </trkpt>
      <trkpt lat="43.92469" lon="7.43703">
        <ele>1328.2424316</ele>
        <time>2008-10-05T07:29:02Z</time>
      </trkpt>
      <trkpt lat="43.92453" lon="7.43714">
        <ele>1332.9299316</ele>
        <time>2008-10-05T07:29:12Z</time>
      </trkpt>
      <trkpt lat="43.92449" lon="7.43717">
        <ele>1334.3203125</ele>
        <time>2008-10-05T07:29:14Z</time>
      </trkpt>
      <trkpt lat="43.92445" lon="7.43724">
        <ele>1336.9416504</ele>
        <time>2008-10-05T07:29:17Z</time>
      </trkpt>
      <trkpt lat="43.92435" lon="7.43731">
        <ele>1340.1425781</ele>
        <time>2008-10-05T07:29:24Z</time>
      </trkpt>
      <trkpt lat="43.92427" lon="7.43732">
        <ele>1340.4281006</ele>
        <time>2008-10-05T07:29:30Z</time>
      </trkpt>
      <trkpt lat="43.92423" lon="7.43737">
        <ele>1342.1572266</ele>
        <time>2008-10-05T07:29:38Z</time>
      </trkpt>
      <trkpt lat="43.92407" lon="7.43745">
        <ele>1347.3620605</ele>
        <time>2008-10-05T07:29:52Z</time>
      </trkpt>
      <trkpt lat="43.92398" lon="7.43751">
        <ele>1350.786499</ele>
        <time>2008-10-05T07:30:01Z</time>
      </trkpt>
      <trkpt lat="43.92392" lon="7.43756">
        <ele>1352.5402832</ele>
        <time>2008-10-05T07:30:08Z</time>
      </trkpt>
      <trkpt lat="43.92391" lon="7.43756">
        <ele>1352.770752</ele>
        <time>2008-10-05T07:30:10Z</time>
      </trkpt>
      <trkpt lat="43.9239" lon="7.43757">
        <ele>1353.1807861</ele>
        <time>2008-10-05T07:30:12Z</time>
      </trkpt>
      <trkpt lat="43.92386" lon="7.43757">
        <ele>1353.4902344</ele>
        <time>2008-10-05T07:30:16Z</time>
      </trkpt>
      <trkpt lat="43.92379" lon="7.43756">
        <ele>1354.088501</ele>
        <time>2008-10-05T07:30:23Z</time>
      </trkpt>
      <trkpt lat="43.92372" lon="7.4376">
        <ele>1355.3808594</ele>
        <time>2008-10-05T07:30:30Z</time>
      </trkpt>
      <trkpt lat="43.9237" lon="7.43761">
        <ele>1355.6810303</ele>
        <time>2008-10-05T07:30:32Z</time>
      </trkpt>
      <trkpt lat="43.92366" lon="7.43764">
        <ele>1356.3826904</ele>
        <time>2008-10-05T07:30:39Z</time>
      </trkpt>
      <trkpt lat="43.92362" lon="7.43771">
        <ele>1357.5130615</ele>
        <time>2008-10-05T07:30:47Z</time>
      </trkpt>
      <trkpt lat="43.92349" lon="7.43783">
        <ele>1358.722168</ele>
        <time>2008-10-05T07:30:54Z</time>
      </trkpt>
      <trkpt lat="43.92348" lon="7.43782">
        <ele>1358.6575928</ele>
        <time>2008-10-05T07:30:59Z</time>
      </trkpt>
      <trkpt lat="43.92343" lon="7.43777">
        <ele>1358.493042</ele>
        <time>2008-10-05T07:31:03Z</time>
      </trkpt>
      <trkpt lat="43.92324" lon="7.43762">
        <ele>1357.9611816</ele>
        <time>2008-10-05T07:31:11Z</time>
      </trkpt>
      <trkpt lat="43.92309" lon="7.43748">
        <ele>1357.1191406</ele>
        <time>2008-10-05T07:31:18Z</time>
      </trkpt>
      <trkpt lat="43.92307" lon="7.43747">
        <ele>1356.4890137</ele>
        <time>2008-10-05T07:31:19Z</time>
      </trkpt>
      <trkpt lat="43.92288" lon="7.43731">
        <ele>1351.6494141</ele>
        <time>2008-10-05T07:31:28Z</time>
      </trkpt>
      <trkpt lat="43.92278" lon="7.43721">
        <ele>1349.0679932</ele>
        <time>2008-10-05T07:31:33Z</time>
      </trkpt>
      <trkpt lat="43.92271" lon="7.43719">
        <ele>1348.4530029</ele>
        <time>2008-10-05T07:31:37Z</time>
      </trkpt>
      <trkpt lat="43.92262" lon="7.43716">
        <ele>1347.6518555</ele>
        <time>2008-10-05T07:31:42Z</time>
      </trkpt>
      <trkpt lat="43.9224" lon="7.43709">
        <ele>1344.6831055</ele>
        <time>2008-10-05T07:31:51Z</time>
      </trkpt>
      <trkpt lat="43.92221" lon="7.43697">
        <ele>1341.2642822</ele>
        <time>2008-10-05T07:31:58Z</time>
      </trkpt>
      <trkpt lat="43.92207" lon="7.43684">
        <ele>1339.8564453</ele>
        <time>2008-10-05T07:32:03Z</time>
      </trkpt>
      <trkpt lat="43.92197" lon="7.43682">
        <ele>1339.5784912</ele>
        <time>2008-10-05T07:32:07Z</time>
      </trkpt>
      <trkpt lat="43.92191" lon="7.43683">
        <ele>1339.3876953</ele>
        <time>2008-10-05T07:32:10Z</time>
      </trkpt>
      <trkpt lat="43.92189" lon="7.43683">
        <ele>1339.3409424</ele>
        <time>2008-10-05T07:32:12Z</time>
      </trkpt>
      <trkpt lat="43.92186" lon="7.43684">
        <ele>1339.1986084</ele>
        <time>2008-10-05T07:32:14Z</time>
      </trkpt>
      <trkpt lat="43.92183" lon="7.43687">
        <ele>1338.8546143</ele>
        <time>2008-10-05T07:32:18Z</time>
      </trkpt>
      <trkpt lat="43.92176" lon="7.43686">
        <ele>1338.6292725</ele>
        <time>2008-10-05T07:32:22Z</time>
      </trkpt>
      <trkpt lat="43.92154" lon="7.43673">
        <ele>1339.1274414</ele>
        <time>2008-10-05T07:32:29Z</time>
      </trkpt>
      <trkpt lat="43.92146" lon="7.43667">
        <ele>1339.7304688</ele>
        <time>2008-10-05T07:32:32Z</time>
      </trkpt>
      <trkpt lat="43.92139" lon="7.43668">
        <ele>1339.1419678</ele>
        <time>2008-10-05T07:32:36Z</time>
      </trkpt>
      <trkpt lat="43.92138" lon="7.43667">
        <ele>1339.2786865</ele>
        <time>2008-10-05T07:33:15Z</time>
      </trkpt>
      <trkpt lat="43.92134" lon="7.43665">
        <ele>1338.9772949</ele>
        <time>2008-10-05T07:33:19Z</time>
      </trkpt>
      <trkpt lat="43.92118" lon="7.43662">
        <ele>1337.9691162</ele>
        <time>2008-10-05T07:33:31Z</time>
      </trkpt>
      <trkpt lat="43.92097" lon="7.43657">
        <ele>1337.0545654</ele>
        <time>2008-10-05T07:33:39Z</time>
      </trkpt>
      <trkpt lat="43.92084" lon="7.43655">
        <ele>1336.7060547</ele>
        <time>2008-10-05T07:33:45Z</time>
      </trkpt>
      <trkpt lat="43.92073" lon="7.43658">
        <ele>1336.2808838</ele>
        <time>2008-10-05T07:33:52Z</time>
      </trkpt>
      <trkpt lat="43.92067" lon="7.43659">
        <ele>1335.9631348</ele>
        <time>2008-10-05T07:33:55Z</time>
      </trkpt>
      <trkpt lat="43.92047" lon="7.43667">
        <ele>1334.2718506</ele>
        <time>2008-10-05T07:34:05Z</time>
      </trkpt>
      <trkpt lat="43.92028" lon="7.43668">
        <ele>1332.6616211</ele>
        <time>2008-10-05T07:34:15Z</time>
      </trkpt>
      <trkpt lat="43.92022" lon="7.4367">
        <ele>1331.5117188</ele>
        <time>2008-10-05T07:34:18Z</time>
      </trkpt>
      <trkpt lat="43.92002" lon="7.43679">
        <ele>1325.6916504</ele>
        <time>2008-10-05T07:34:27Z</time>
      </trkpt>
      <trkpt lat="43.91999" lon="7.4368">
        <ele>1325.0881348</ele>
        <time>2008-10-05T07:34:28Z</time>
      </trkpt>
      <trkpt lat="43.91983" lon="7.43689">
        <ele>1319.609375</ele>
        <time>2008-10-05T07:34:36Z</time>
      </trkpt>
      <trkpt lat="43.91964" lon="7.43695">
        <ele>1315.428833</ele>
        <time>2008-10-05T07:34:43Z</time>
      </trkpt>
      <trkpt lat="43.91943" lon="7.43696">
        <ele>1314.0324707</ele>
        <time>2008-10-05T07:34:50Z</time>
      </trkpt>
      <trkpt lat="43.9194" lon="7.43695">
        <ele>1314.1643066</ele>
        <time>2008-10-05T07:34:51Z</time>
      </trkpt>
      <trkpt lat="43.91935" lon="7.43693">
        <ele>1314.8009033</ele>
        <time>2008-10-05T07:34:53Z</time>
      </trkpt>
      <trkpt lat="43.91914" lon="7.43694">
        <ele>1313.3149414</ele>
        <time>2008-10-05T07:35:01Z</time>
      </trkpt>
      <trkpt lat="43.91909" lon="7.43693">
        <ele>1312.8242188</ele>
        <time>2008-10-05T07:35:03Z</time>
      </trkpt>
      <trkpt lat="43.91905" lon="7.43692">
        <ele>1312.8037109</ele>
        <time>2008-10-05T07:35:05Z</time>
      </trkpt>
      <trkpt lat="43.91892" lon="7.43706">
        <ele>1303.7579346</ele>
        <time>2008-10-05T07:35:24Z</time>
      </trkpt>
      <trkpt lat="43.91872" lon="7.43702">
        <ele>1302.7075195</ele>
        <time>2008-10-05T07:35:35Z</time>
      </trkpt>
      <trkpt lat="43.91869" lon="7.43702">
        <ele>1301.9456787</ele>
        <time>2008-10-05T07:35:36Z</time>
      </trkpt>
      <trkpt lat="43.91844" lon="7.4371">
        <ele>1294.4095459</ele>
        <time>2008-10-05T07:35:44Z</time>
      </trkpt>
      <trkpt lat="43.91825" lon="7.43712">
        <ele>1289.9660645</ele>
        <time>2008-10-05T07:35:50Z</time>
      </trkpt>
      <trkpt lat="43.91815" lon="7.4371">
        <ele>1288.3468018</ele>
        <time>2008-10-05T07:35:53Z</time>
      </trkpt>
      <trkpt lat="43.91798" lon="7.4371">
        <ele>1284.0222168</ele>
        <time>2008-10-05T07:36:00Z</time>
      </trkpt>
      <trkpt lat="43.91777" lon="7.43708">
        <ele>1279.9344482</ele>
        <time>2008-10-05T07:36:08Z</time>
      </trkpt>
      <trkpt lat="43.91771" lon="7.43707">
        <ele>1278.9639893</ele>
        <time>2008-10-05T07:36:10Z</time>
      </trkpt>
      <trkpt lat="43.91755" lon="7.43708">
        <ele>1274.3719482</ele>
        <time>2008-10-05T07:36:17Z</time>
      </trkpt>
      <trkpt lat="43.91743" lon="7.43708">
        <ele>1271.1958008</ele>
        <time>2008-10-05T07:36:22Z</time>
      </trkpt>
      <trkpt lat="43.91722" lon="7.43716">
        <ele>1261.4553223</ele>
        <time>2008-10-05T07:36:31Z</time>
      </trkpt>
      <trkpt lat="43.91706" lon="7.43712">
        <ele>1258.3302002</ele>
        <time>2008-10-05T07:36:37Z</time>
      </trkpt>
      <trkpt lat="43.91687" lon="7.43697">
        <ele>1259.0706787</ele>
        <time>2008-10-05T07:36:44Z</time>
      </trkpt>
      <trkpt lat="43.91683" lon="7.43693">
        <ele>1259.1744385</ele>
        <time>2008-10-05T07:36:46Z</time>
      </trkpt>
      <trkpt lat="43.91672" lon="7.43691">
        <ele>1256.5842285</ele>
        <time>2008-10-05T07:36:51Z</time>
      </trkpt>
      <trkpt lat="43.91659" lon="7.43675">
        <ele>1258.7960205</ele>
        <time>2008-10-05T07:36:59Z</time>
      </trkpt>
      <trkpt lat="43.9165" lon="7.43667">
        <ele>1258.1787109</ele>
        <time>2008-10-05T07:37:05Z</time>
      </trkpt>
      <trkpt lat="43.91628" lon="7.43667">
        <ele>1249.2679443</ele>
        <time>2008-10-05T07:37:14Z</time>
      </trkpt>
      <trkpt lat="43.91609" lon="7.43664">
        <ele>1243.175415</ele>
        <time>2008-10-05T07:37:22Z</time>
      </trkpt>
      <trkpt lat="43.91589" lon="7.43658">
        <ele>1237.4276123</ele>
        <time>2008-10-05T07:37:32Z</time>
      </trkpt>
      <trkpt lat="43.91586" lon="7.43657">
        <ele>1236.2838135</ele>
        <time>2008-10-05T07:37:33Z</time>
      </trkpt>
      <trkpt lat="43.91569" lon="7.43654">
        <ele>1231.8563232</ele>
        <time>2008-10-05T07:37:40Z</time>
      </trkpt>
      <trkpt lat="43.91561" lon="7.43653">
        <ele>1229.7701416</ele>
        <time>2008-10-05T07:37:46Z</time>
      </trkpt>
      <trkpt lat="43.91547" lon="7.43657">
        <ele>1223.8687744</ele>
        <time>2008-10-05T07:37:51Z</time>
      </trkpt>
      <trkpt lat="43.91526" lon="7.43658">
        <ele>1216.7583008</ele>
        <time>2008-10-05T07:37:58Z</time>
      </trkpt>
      <trkpt lat="43.91515" lon="7.43654">
        <ele>1214.9786377</ele>
        <time>2008-10-05T07:38:04Z</time>
      </trkpt>
      <trkpt lat="43.91495" lon="7.43662">
        <ele>1205.7406006</ele>
        <time>2008-10-05T07:38:12Z</time>
      </trkpt>
      <trkpt lat="43.91476" lon="7.43658">
        <ele>1202.3713379</ele>
        <time>2008-10-05T07:38:24Z</time>
      </trkpt>
      <trkpt lat="43.91474" lon="7.43659">
        <ele>1200.9633789</ele>
        <time>2008-10-05T07:38:26Z</time>
      </trkpt>
      <trkpt lat="43.91453" lon="7.43652">
        <ele>1198.6049805</ele>
        <time>2008-10-05T07:38:35Z</time>
      </trkpt>
      <trkpt lat="43.9144" lon="7.43646">
        <ele>1197.8291016</ele>
        <time>2008-10-05T07:38:40Z</time>
      </trkpt>
      <trkpt lat="43.91417" lon="7.43636">
        <ele>1196.4797363</ele>
        <time>2008-10-05T07:38:48Z</time>
      </trkpt>
      <trkpt lat="43.91401" lon="7.43632">
        <ele>1195.1236572</ele>
        <time>2008-10-05T07:38:54Z</time>
      </trkpt>
      <trkpt lat="43.91382" lon="7.43628">
        <ele>1192.6870117</ele>
        <time>2008-10-05T07:39:02Z</time>
      </trkpt>
      <trkpt lat="43.91363" lon="7.43642">
        <ele>1183.5567627</ele>
        <time>2008-10-05T07:39:10Z</time>
      </trkpt>
      <trkpt lat="43.91361" lon="7.43643">
        <ele>1182.6866455</ele>
        <time>2008-10-05T07:39:11Z</time>
      </trkpt>
      <trkpt lat="43.9134" lon="7.43652">
        <ele>1175.9682617</ele>
        <time>2008-10-05T07:39:19Z</time>
      </trkpt>
      <trkpt lat="43.91337" lon="7.4365">
        <ele>1175.9403076</ele>
        <time>2008-10-05T07:39:20Z</time>
      </trkpt>
      <trkpt lat="43.91315" lon="7.43656">
        <ele>1169.2210693</ele>
        <time>2008-10-05T07:39:29Z</time>
      </trkpt>
      <trkpt lat="43.91295" lon="7.43659">
        <ele>1163.9645996</ele>
        <time>2008-10-05T07:39:35Z</time>
      </trkpt>
      <trkpt lat="43.91282" lon="7.4366">
        <ele>1160.9234619</ele>
        <time>2008-10-05T07:39:40Z</time>
      </trkpt>
      <trkpt lat="43.91264" lon="7.43671">
        <ele>1154.3099365</ele>
        <time>2008-10-05T07:39:48Z</time>
      </trkpt>
      <trkpt lat="43.91248" lon="7.43677">
        <ele>1147.5148926</ele>
        <time>2008-10-05T07:39:55Z</time>
      </trkpt>
      <trkpt lat="43.91226" lon="7.43679">
        <ele>1138.0579834</ele>
        <time>2008-10-05T07:40:04Z</time>
      </trkpt>
      <trkpt lat="43.91224" lon="7.43678">
        <ele>1137.4863281</ele>
        <time>2008-10-05T07:40:05Z</time>
      </trkpt>
      <trkpt lat="43.91207" lon="7.43677">
        <ele>1131.217041</ele>
        <time>2008-10-05T07:40:13Z</time>
      </trkpt>
      <trkpt lat="43.91199" lon="7.43675">
        <ele>1128.741333</ele>
        <time>2008-10-05T07:40:17Z</time>
      </trkpt>
      <trkpt lat="43.91179" lon="7.4367">
        <ele>1121.4919434</ele>
        <time>2008-10-05T07:40:26Z</time>
      </trkpt>
      <trkpt lat="43.91158" lon="7.43667">
        <ele>1112.0717773</ele>
        <time>2008-10-05T07:40:39Z</time>
      </trkpt>
      <trkpt lat="43.91156" lon="7.43665">
        <ele>1110.480835</ele>
        <time>2008-10-05T07:40:41Z</time>
      </trkpt>
      <trkpt lat="43.9114" lon="7.43663">
        <ele>1100.9672852</ele>
        <time>2008-10-05T07:40:55Z</time>
      </trkpt>
      <trkpt lat="43.91138" lon="7.43671">
        <ele>1099.9373779</ele>
        <time>2008-10-05T07:40:58Z</time>
      </trkpt>
      <trkpt lat="43.91138" lon="7.43676">
        <ele>1099.6273193</ele>
        <time>2008-10-05T07:41:00Z</time>
      </trkpt>
      <trkpt lat="43.91129" lon="7.43676">
        <ele>1094.6904297</ele>
        <time>2008-10-05T07:41:09Z</time>
      </trkpt>
      <trkpt lat="43.91119" lon="7.43676">
        <ele>1089.5125732</ele>
        <time>2008-10-05T07:41:14Z</time>
      </trkpt>
      <trkpt lat="43.91117" lon="7.43678">
        <ele>1088.2039795</ele>
        <time>2008-10-05T07:41:16Z</time>
      </trkpt>
      <trkpt lat="43.91111" lon="7.43682">
        <ele>1084.9379883</ele>
        <time>2008-10-05T07:41:22Z</time>
      </trkpt>
      <trkpt lat="43.91117" lon="7.43693">
        <ele>1087.7255859</ele>
        <time>2008-10-05T07:41:28Z</time>
      </trkpt>
      <trkpt lat="43.91126" lon="7.43706">
        <ele>1091.6806641</ele>
        <time>2008-10-05T07:41:36Z</time>
      </trkpt>
      <trkpt lat="43.91133" lon="7.43711">
        <ele>1094.3044434</ele>
        <time>2008-10-05T07:41:40Z</time>
      </trkpt>
      <trkpt lat="43.91133" lon="7.43729">
        <ele>1092.9262695</ele>
        <time>2008-10-05T07:41:47Z</time>
      </trkpt>
      <trkpt lat="43.91136" lon="7.43746">
        <ele>1092.444458</ele>
        <time>2008-10-05T07:42:00Z</time>
      </trkpt>
      <trkpt lat="43.91117" lon="7.4375">
        <ele>1086.7198486</ele>
        <time>2008-10-05T07:42:10Z</time>
      </trkpt>
      <trkpt lat="43.91111" lon="7.4375">
        <ele>1085.0760498</ele>
        <time>2008-10-05T07:42:12Z</time>
      </trkpt>
      <trkpt lat="43.91098" lon="7.43746">
        <ele>1081.0708008</ele>
        <time>2008-10-05T07:42:18Z</time>
      </trkpt>
      <trkpt lat="43.91086" lon="7.4375">
        <ele>1077.7148438</ele>
        <time>2008-10-05T07:42:23Z</time>
      </trkpt>
      <trkpt lat="43.91066" lon="7.43749">
        <ele>1068.3636475</ele>
        <time>2008-10-05T07:42:30Z</time>
      </trkpt>
      <trkpt lat="43.91045" lon="7.43745">
        <ele>1057.6046143</ele>
        <time>2008-10-05T07:42:39Z</time>
      </trkpt>
      <trkpt lat="43.91025" lon="7.43745">
        <ele>1048.0419922</ele>
        <time>2008-10-05T07:42:48Z</time>
      </trkpt>
      <trkpt lat="43.91008" lon="7.43744">
        <ele>1039.5786133</ele>
        <time>2008-10-05T07:42:55Z</time>
      </trkpt>
      <trkpt lat="43.90998" lon="7.4374">
        <ele>1033.572876</ele>
        <time>2008-10-05T07:43:00Z</time>
      </trkpt>
      <trkpt lat="43.90995" lon="7.43745">
        <ele>1032.5463867</ele>
        <time>2008-10-05T07:43:03Z</time>
      </trkpt>
      <trkpt lat="43.9099" lon="7.43747">
        <ele>1030.3266602</ele>
        <time>2008-10-05T07:43:06Z</time>
      </trkpt>
      <trkpt lat="43.90971" lon="7.43757">
        <ele>1019.1952515</ele>
        <time>2008-10-05T07:43:18Z</time>
      </trkpt>
      <trkpt lat="43.90954" lon="7.43769">
        <ele>1010.2182617</ele>
        <time>2008-10-05T07:43:27Z</time>
      </trkpt>
      <trkpt lat="43.90952" lon="7.4377">
        <ele>1009.3215942</ele>
        <time>2008-10-05T07:43:28Z</time>
      </trkpt>
      <trkpt lat="43.90933" lon="7.43784">
        <ele>1001.6588135</ele>
        <time>2008-10-05T07:43:36Z</time>
      </trkpt>
      <trkpt lat="43.90919" lon="7.43799">
        <ele>998.1779785</ele>
        <time>2008-10-05T07:43:42Z</time>
      </trkpt>
      <trkpt lat="43.90915" lon="7.43805">
        <ele>997.800293</ele>
        <time>2008-10-05T07:43:44Z</time>
      </trkpt>
      <trkpt lat="43.90907" lon="7.43815">
        <ele>996.4147949</ele>
        <time>2008-10-05T07:43:48Z</time>
      </trkpt>
      <trkpt lat="43.90903" lon="7.4382">
        <ele>995.1641846</ele>
        <time>2008-10-05T07:43:51Z</time>
      </trkpt>
      <trkpt lat="43.90898" lon="7.43825">
        <ele>994.3323975</ele>
        <time>2008-10-05T07:43:54Z</time>
      </trkpt>
      <trkpt lat="43.90901" lon="7.43845">
        <ele>996.9986572</ele>
        <time>2008-10-05T07:44:06Z</time>
      </trkpt>
      <trkpt lat="43.90885" lon="7.43854">
        <ele>989.6421509</ele>
        <time>2008-10-05T07:44:13Z</time>
      </trkpt>
      <trkpt lat="43.9087" lon="7.43869">
        <ele>984.0406494</ele>
        <time>2008-10-05T07:44:19Z</time>
      </trkpt>
      <trkpt lat="43.90852" lon="7.43867">
        <ele>976.9830322</ele>
        <time>2008-10-05T07:44:27Z</time>
      </trkpt>
      <trkpt lat="43.90831" lon="7.43877">
        <ele>971.4780884</ele>
        <time>2008-10-05T07:44:38Z</time>
      </trkpt>
      <trkpt lat="43.90825" lon="7.43879">
        <ele>970.2640381</ele>
        <time>2008-10-05T07:44:41Z</time>
      </trkpt>
      <trkpt lat="43.90804" lon="7.4388">
        <ele>965.645752</ele>
        <time>2008-10-05T07:44:50Z</time>
      </trkpt>
      <trkpt lat="43.90796" lon="7.43875">
        <ele>962.5015259</ele>
        <time>2008-10-05T07:44:54Z</time>
      </trkpt>
      <trkpt lat="43.90791" lon="7.43871">
        <ele>960.2230225</ele>
        <time>2008-10-05T07:44:57Z</time>
      </trkpt>
      <trkpt lat="43.90788" lon="7.43867">
        <ele>958.4144287</ele>
        <time>2008-10-05T07:45:00Z</time>
      </trkpt>
      <trkpt lat="43.90787" lon="7.43851">
        <ele>954.0835571</ele>
        <time>2008-10-05T07:45:11Z</time>
      </trkpt>
      <trkpt lat="43.90776" lon="7.43845">
        <ele>949.6630859</ele>
        <time>2008-10-05T07:45:18Z</time>
      </trkpt>
      <trkpt lat="43.90754" lon="7.43842">
        <ele>942.8655396</ele>
        <time>2008-10-05T07:45:27Z</time>
      </trkpt>
      <trkpt lat="43.9075" lon="7.43841">
        <ele>941.3652954</ele>
        <time>2008-10-05T07:45:29Z</time>
      </trkpt>
      <trkpt lat="43.9073" lon="7.4385">
        <ele>939.6195679</ele>
        <time>2008-10-05T07:45:36Z</time>
      </trkpt>
      <trkpt lat="43.90725" lon="7.43852">
        <ele>939.0802002</ele>
        <time>2008-10-05T07:45:39Z</time>
      </trkpt>
      <trkpt lat="43.90731" lon="7.43836">
        <ele>935.4473877</ele>
        <time>2008-10-05T07:45:48Z</time>
      </trkpt>
      <trkpt lat="43.90739" lon="7.43831">
        <ele>935.010498</ele>
        <time>2008-10-05T07:45:51Z</time>
      </trkpt>
      <trkpt lat="43.90739" lon="7.43832">
        <ele>935.6561279</ele>
        <time>2008-10-05T07:45:53Z</time>
      </trkpt>
      <trkpt lat="43.90718" lon="7.43835">
        <ele>932.3035278</ele>
        <time>2008-10-05T07:46:01Z</time>
      </trkpt>
      <trkpt lat="43.90715" lon="7.43835">
        <ele>931.6521606</ele>
        <time>2008-10-05T07:46:02Z</time>
      </trkpt>
      <trkpt lat="43.90692" lon="7.43846">
        <ele>929.9822388</ele>
        <time>2008-10-05T07:46:09Z</time>
      </trkpt>
      <trkpt lat="43.90672" lon="7.43851">
        <ele>927.3531494</ele>
        <time>2008-10-05T07:46:16Z</time>
      </trkpt>
      <trkpt lat="43.90668" lon="7.43852">
        <ele>926.9625244</ele>
        <time>2008-10-05T07:46:18Z</time>
      </trkpt>
      <trkpt lat="43.90646" lon="7.43855">
        <ele>923.7034302</ele>
        <time>2008-10-05T07:46:26Z</time>
      </trkpt>
      <trkpt lat="43.90628" lon="7.43857">
        <ele>920.8790283</ele>
        <time>2008-10-05T07:46:32Z</time>
      </trkpt>
      <trkpt lat="43.90608" lon="7.43864">
        <ele>919.6671143</ele>
        <time>2008-10-05T07:46:38Z</time>
      </trkpt>
      <trkpt lat="43.90605" lon="7.43865">
        <ele>919.5274658</ele>
        <time>2008-10-05T07:46:39Z</time>
      </trkpt>
      <trkpt lat="43.90582" lon="7.43863">
        <ele>914.3600464</ele>
        <time>2008-10-05T07:46:47Z</time>
      </trkpt>
      <trkpt lat="43.90575" lon="7.43862">
        <ele>911.8881226</ele>
        <time>2008-10-05T07:46:50Z</time>
      </trkpt>
      <trkpt lat="43.90569" lon="7.43857">
        <ele>908.173584</ele>
        <time>2008-10-05T07:46:57Z</time>
      </trkpt>
      <trkpt lat="43.90588" lon="7.43844">
        <ele>908.7814941</ele>
        <time>2008-10-05T07:47:05Z</time>
      </trkpt>
      <trkpt lat="43.90587" lon="7.43843">
        <ele>908.1199951</ele>
        <time>2008-10-05T07:47:07Z</time>
      </trkpt>
      <trkpt lat="43.90565" lon="7.43838">
        <ele>900.473877</ele>
        <time>2008-10-05T07:47:18Z</time>
      </trkpt>
      <trkpt lat="43.90545" lon="7.43834">
        <ele>893.9612427</ele>
        <time>2008-10-05T07:47:26Z</time>
      </trkpt>
      <trkpt lat="43.90534" lon="7.43837">
        <ele>892.0332031</ele>
        <time>2008-10-05T07:47:30Z</time>
      </trkpt>
      <trkpt lat="43.90541" lon="7.43821">
        <ele>886.1795044</ele>
        <time>2008-10-05T07:47:38Z</time>
      </trkpt>
      <trkpt lat="43.90551" lon="7.43812">
        <ele>884.4755249</ele>
        <time>2008-10-05T07:47:42Z</time>
      </trkpt>
      <trkpt lat="43.90569" lon="7.43805">
        <ele>885.9559937</ele>
        <time>2008-10-05T07:47:50Z</time>
      </trkpt>
      <trkpt lat="43.90589" lon="7.43796">
        <ele>886.2972412</ele>
        <time>2008-10-05T07:47:58Z</time>
      </trkpt>
      <trkpt lat="43.90573" lon="7.43789">
        <ele>878.4404907</ele>
        <time>2008-10-05T07:48:08Z</time>
      </trkpt>
      <trkpt lat="43.90568" lon="7.43789">
        <ele>877.4007568</ele>
        <time>2008-10-05T07:48:10Z</time>
      </trkpt>
      <trkpt lat="43.90554" lon="7.43787">
        <ele>872.6121826</ele>
        <time>2008-10-05T07:48:15Z</time>
      </trkpt>
      <trkpt lat="43.90537" lon="7.43789">
        <ele>868.7884521</ele>
        <time>2008-10-05T07:48:24Z</time>
      </trkpt>
      <trkpt lat="43.90554" lon="7.43783">
        <ele>869.9312134</ele>
        <time>2008-10-05T07:48:35Z</time>
      </trkpt>
      <trkpt lat="43.90534" lon="7.43777">
        <ele>861.413208</ele>
        <time>2008-10-05T07:48:43Z</time>
      </trkpt>
      <trkpt lat="43.90528" lon="7.43776">
        <ele>858.9735718</ele>
        <time>2008-10-05T07:48:45Z</time>
      </trkpt>
      <trkpt lat="43.90505" lon="7.43776">
        <ele>852.6866455</ele>
        <time>2008-10-05T07:48:53Z</time>
      </trkpt>
      <trkpt lat="43.90493" lon="7.43781">
        <ele>851.0388184</ele>
        <time>2008-10-05T07:48:58Z</time>
      </trkpt>
      <trkpt lat="43.905" lon="7.43764">
        <ele>844.4500732</ele>
        <time>2008-10-05T07:49:07Z</time>
      </trkpt>
      <trkpt lat="43.90497" lon="7.43762">
        <ele>842.6438599</ele>
        <time>2008-10-05T07:49:11Z</time>
      </trkpt>
      <trkpt lat="43.90477" lon="7.43774">
        <ele>841.7145386</ele>
        <time>2008-10-05T07:49:18Z</time>
      </trkpt>
      <trkpt lat="43.90463" lon="7.43792">
        <ele>844.3129272</ele>
        <time>2008-10-05T07:49:25Z</time>
      </trkpt>
      <trkpt lat="43.90446" lon="7.43808">
        <ele>844.230835</ele>
        <time>2008-10-05T07:49:32Z</time>
      </trkpt>
      <trkpt lat="43.90429" lon="7.43825">
        <ele>843.7382202</ele>
        <time>2008-10-05T07:49:39Z</time>
      </trkpt>
      <trkpt lat="43.90424" lon="7.43848">
        <ele>845.6231689</ele>
        <time>2008-10-05T07:49:45Z</time>
      </trkpt>
      <trkpt lat="43.90421" lon="7.43876">
        <ele>846.4094849</ele>
        <time>2008-10-05T07:49:52Z</time>
      </trkpt>
      <trkpt lat="43.90423" lon="7.43896">
        <ele>849.3848877</ele>
        <time>2008-10-05T07:49:57Z</time>
      </trkpt>
      <trkpt lat="43.90425" lon="7.43926">
        <ele>850.5455933</ele>
        <time>2008-10-05T07:50:05Z</time>
      </trkpt>
      <trkpt lat="43.90431" lon="7.43953">
        <ele>850.4620361</ele>
        <time>2008-10-05T07:50:12Z</time>
      </trkpt>
      <trkpt lat="43.90434" lon="7.43978">
        <ele>849.0734863</ele>
        <time>2008-10-05T07:50:18Z</time>
      </trkpt>
      <trkpt lat="43.90424" lon="7.43998">
        <ele>838.9230347</ele>
        <time>2008-10-05T07:50:24Z</time>
      </trkpt>
      <trkpt lat="43.90413" lon="7.44022">
        <ele>834.5159912</ele>
        <time>2008-10-05T07:50:31Z</time>
      </trkpt>
      <trkpt lat="43.90404" lon="7.44045">
        <ele>833.803894</ele>
        <time>2008-10-05T07:50:38Z</time>
      </trkpt>
      <trkpt lat="43.90399" lon="7.44071">
        <ele>836.8216553</ele>
        <time>2008-10-05T07:50:45Z</time>
      </trkpt>
      <trkpt lat="43.90396" lon="7.44078">
        <ele>837.5042114</ele>
        <time>2008-10-05T07:50:47Z</time>
      </trkpt>
      <trkpt lat="43.90377" lon="7.4407">
        <ele>831.4647217</ele>
        <time>2008-10-05T07:50:57Z</time>
      </trkpt>
      <trkpt lat="43.90374" lon="7.44067">
        <ele>829.9960938</ele>
        <time>2008-10-05T07:50:58Z</time>
      </trkpt>
      <trkpt lat="43.90355" lon="7.44054">
        <ele>819.6263428</ele>
        <time>2008-10-05T07:51:05Z</time>
      </trkpt>
      <trkpt lat="43.90336" lon="7.44048">
        <ele>811.0968018</ele>
        <time>2008-10-05T07:51:12Z</time>
      </trkpt>
      <trkpt lat="43.90317" lon="7.44035">
        <ele>804.1893311</ele>
        <time>2008-10-05T07:51:20Z</time>
      </trkpt>
      <trkpt lat="43.90298" lon="7.44029">
        <ele>801.3471069</ele>
        <time>2008-10-05T07:51:26Z</time>
      </trkpt>
      <trkpt lat="43.9028" lon="7.44022">
        <ele>797.9388428</ele>
        <time>2008-10-05T07:51:32Z</time>
      </trkpt>
      <trkpt lat="43.9026" lon="7.44019">
        <ele>796.2922974</ele>
        <time>2008-10-05T07:51:38Z</time>
      </trkpt>
      <trkpt lat="43.90241" lon="7.44015">
        <ele>792.9849243</ele>
        <time>2008-10-05T07:51:44Z</time>
      </trkpt>
      <trkpt lat="43.90223" lon="7.44016">
        <ele>790.4370728</ele>
        <time>2008-10-05T07:51:51Z</time>
      </trkpt>
      <trkpt lat="43.90205" lon="7.44024">
        <ele>791.3587036</ele>
        <time>2008-10-05T07:51:57Z</time>
      </trkpt>
      <trkpt lat="43.90187" lon="7.44031">
        <ele>791.9631958</ele>
        <time>2008-10-05T07:52:04Z</time>
      </trkpt>
      <trkpt lat="43.90169" lon="7.44043">
        <ele>794.1605835</ele>
        <time>2008-10-05T07:52:10Z</time>
      </trkpt>
      <trkpt lat="43.90155" lon="7.44058">
        <ele>798.2772217</ele>
        <time>2008-10-05T07:52:16Z</time>
      </trkpt>
      <trkpt lat="43.90136" lon="7.44063">
        <ele>796.5037231</ele>
        <time>2008-10-05T07:52:25Z</time>
      </trkpt>
      <trkpt lat="43.90117" lon="7.4406">
        <ele>791.3441162</ele>
        <time>2008-10-05T07:52:32Z</time>
      </trkpt>
      <trkpt lat="43.90097" lon="7.4406">
        <ele>787.2473145</ele>
        <time>2008-10-05T07:52:39Z</time>
      </trkpt>
      <trkpt lat="43.90086" lon="7.44059">
        <ele>784.6452637</ele>
        <time>2008-10-05T07:52:43Z</time>
      </trkpt>
      <trkpt lat="43.90065" lon="7.44057">
        <ele>777.3867798</ele>
        <time>2008-10-05T07:52:51Z</time>
      </trkpt>
      <trkpt lat="43.90045" lon="7.44064">
        <ele>773.6233521</ele>
        <time>2008-10-05T07:52:58Z</time>
      </trkpt>
      <trkpt lat="43.9003" lon="7.44083">
        <ele>774.2092285</ele>
        <time>2008-10-05T07:53:07Z</time>
      </trkpt>
      <trkpt lat="43.90017" lon="7.44103">
        <ele>775.3439941</ele>
        <time>2008-10-05T07:53:15Z</time>
      </trkpt>
      <trkpt lat="43.90004" lon="7.44124">
        <ele>776.2451172</ele>
        <time>2008-10-05T07:53:22Z</time>
      </trkpt>
      <trkpt lat="43.9" lon="7.4413">
        <ele>776.475708</ele>
        <time>2008-10-05T07:53:25Z</time>
      </trkpt>
      <trkpt lat="43.89986" lon="7.44154">
        <ele>777.4574585</ele>
        <time>2008-10-05T07:53:33Z</time>
      </trkpt>
      <trkpt lat="43.8998" lon="7.44161">
        <ele>777.210083</ele>
        <time>2008-10-05T07:53:37Z</time>
      </trkpt>
      <trkpt lat="43.89975" lon="7.44163">
        <ele>775.6049194</ele>
        <time>2008-10-05T07:53:40Z</time>
      </trkpt>
      <trkpt lat="43.89958" lon="7.44181">
        <ele>774.2324219</ele>
        <time>2008-10-05T07:53:47Z</time>
      </trkpt>
      <trkpt lat="43.89938" lon="7.44199">
        <ele>772.3630981</ele>
        <time>2008-10-05T07:53:55Z</time>
      </trkpt>
      <trkpt lat="43.89921" lon="7.44208">
        <ele>769.2936401</ele>
        <time>2008-10-05T07:54:03Z</time>
      </trkpt>
      <trkpt lat="43.89908" lon="7.44221">
        <ele>769.7979126</ele>
        <time>2008-10-05T07:54:10Z</time>
      </trkpt>
      <trkpt lat="43.89895" lon="7.44225">
        <ele>767.4046631</ele>
        <time>2008-10-05T07:54:15Z</time>
      </trkpt>
      <trkpt lat="43.89874" lon="7.44235">
        <ele>764.2459717</ele>
        <time>2008-10-05T07:54:22Z</time>
      </trkpt>
      <trkpt lat="43.89856" lon="7.44243">
        <ele>761.4554443</ele>
        <time>2008-10-05T07:54:29Z</time>
      </trkpt>
      <trkpt lat="43.89843" lon="7.44252">
        <ele>760.2182617</ele>
        <time>2008-10-05T07:54:34Z</time>
      </trkpt>
      <trkpt lat="43.89826" lon="7.44263">
        <ele>757.0374146</ele>
        <time>2008-10-05T07:54:41Z</time>
      </trkpt>
      <trkpt lat="43.89822" lon="7.44265">
        <ele>755.791626</ele>
        <time>2008-10-05T07:54:44Z</time>
      </trkpt>
      <trkpt lat="43.89817" lon="7.44269">
        <ele>754.890686</ele>
        <time>2008-10-05T07:54:48Z</time>
      </trkpt>
      <trkpt lat="43.89801" lon="7.44287">
        <ele>752.2367554</ele>
        <time>2008-10-05T07:54:57Z</time>
      </trkpt>
      <trkpt lat="43.89791" lon="7.44309">
        <ele>753.0319214</ele>
        <time>2008-10-05T07:55:04Z</time>
      </trkpt>
      <trkpt lat="43.89785" lon="7.44319">
        <ele>752.6529541</ele>
        <time>2008-10-05T07:55:09Z</time>
      </trkpt>
      <trkpt lat="43.89785" lon="7.44349">
        <ele>755.986084</ele>
        <time>2008-10-05T07:55:18Z</time>
      </trkpt>
      <trkpt lat="43.89784" lon="7.44375">
        <ele>755.5039673</ele>
        <time>2008-10-05T07:55:27Z</time>
      </trkpt>
      <trkpt lat="43.89783" lon="7.44381">
        <ele>755.2199707</ele>
        <time>2008-10-05T07:55:29Z</time>
      </trkpt>
      <trkpt lat="43.8978" lon="7.44389">
        <ele>754.2501831</ele>
        <time>2008-10-05T07:55:32Z</time>
      </trkpt>
      <trkpt lat="43.8978" lon="7.44399">
        <ele>754.1610107</ele>
        <time>2008-10-05T07:55:35Z</time>
      </trkpt>
      <trkpt lat="43.89775" lon="7.44419">
        <ele>752.7393188</ele>
        <time>2008-10-05T07:55:40Z</time>
      </trkpt>
      <trkpt lat="43.89762" lon="7.44445">
        <ele>748.0285645</ele>
        <time>2008-10-05T07:55:48Z</time>
      </trkpt>
      <trkpt lat="43.89756" lon="7.44455">
        <ele>746.9639893</ele>
        <time>2008-10-05T07:55:51Z</time>
      </trkpt>
      <trkpt lat="43.89756" lon="7.4447">
        <ele>746.4109497</ele>
        <time>2008-10-05T07:55:57Z</time>
      </trkpt>
      <trkpt lat="43.89754" lon="7.44501">
        <ele>745.5244751</ele>
        <time>2008-10-05T07:56:05Z</time>
      </trkpt>
      <trkpt lat="43.89753" lon="7.44505">
        <ele>745.3522339</ele>
        <time>2008-10-05T07:56:06Z</time>
      </trkpt>
      <trkpt lat="43.89748" lon="7.44537">
        <ele>743.8607788</ele>
        <time>2008-10-05T07:56:13Z</time>
      </trkpt>
      <trkpt lat="43.89748" lon="7.44544">
        <ele>743.5654907</ele>
        <time>2008-10-05T07:56:15Z</time>
      </trkpt>
      <trkpt lat="43.89746" lon="7.44557">
        <ele>742.6289063</ele>
        <time>2008-10-05T07:56:19Z</time>
      </trkpt>
      <trkpt lat="43.89746" lon="7.44569">
        <ele>742.2817383</ele>
        <time>2008-10-05T07:56:23Z</time>
      </trkpt>
      <trkpt lat="43.89752" lon="7.44578">
        <ele>741.5167847</ele>
        <time>2008-10-05T07:56:33Z</time>
      </trkpt>
      <trkpt lat="43.89758" lon="7.44562">
        <ele>740.7199097</ele>
        <time>2008-10-05T07:56:38Z</time>
      </trkpt>
      <trkpt lat="43.89766" lon="7.44554">
        <ele>739.019043</ele>
        <time>2008-10-05T07:56:42Z</time>
      </trkpt>
      <trkpt lat="43.89777" lon="7.4456">
        <ele>735.4667358</ele>
        <time>2008-10-05T07:56:50Z</time>
      </trkpt>
      <trkpt lat="43.89774" lon="7.44587">
        <ele>732.8413086</ele>
        <time>2008-10-05T07:57:03Z</time>
      </trkpt>
      <trkpt lat="43.89769" lon="7.44606">
        <ele>730.8336792</ele>
        <time>2008-10-05T07:57:09Z</time>
      </trkpt>
      <trkpt lat="43.89769" lon="7.44612">
        <ele>729.5125122</ele>
        <time>2008-10-05T07:57:11Z</time>
      </trkpt>
      <trkpt lat="43.89766" lon="7.44632">
        <ele>726.6165161</ele>
        <time>2008-10-05T07:57:16Z</time>
      </trkpt>
      <trkpt lat="43.8977" lon="7.44662">
        <ele>719.2944336</ele>
        <time>2008-10-05T07:57:24Z</time>
      </trkpt>
      <trkpt lat="43.89776" lon="7.44685">
        <ele>712.4367065</ele>
        <time>2008-10-05T07:57:30Z</time>
      </trkpt>
      <trkpt lat="43.89787" lon="7.44691">
        <ele>707.2111206</ele>
        <time>2008-10-05T07:57:42Z</time>
      </trkpt>
      <trkpt lat="43.89796" lon="7.44709">
        <ele>700.3569946</ele>
        <time>2008-10-05T07:57:53Z</time>
      </trkpt>
      <trkpt lat="43.89799" lon="7.44717">
        <ele>697.6824951</ele>
        <time>2008-10-05T07:57:58Z</time>
      </trkpt>
      <trkpt lat="43.898" lon="7.44717">
        <ele>697.3501587</ele>
        <time>2008-10-05T07:58:01Z</time>
      </trkpt>
      <trkpt lat="43.89804" lon="7.44723">
        <ele>694.798584</ele>
        <time>2008-10-05T07:58:06Z</time>
      </trkpt>
      <trkpt lat="43.89807" lon="7.44728">
        <ele>692.5430298</ele>
        <time>2008-10-05T07:58:09Z</time>
      </trkpt>
      <trkpt lat="43.89811" lon="7.44731">
        <ele>690.8050537</ele>
        <time>2008-10-05T07:58:12Z</time>
      </trkpt>
      <trkpt lat="43.89824" lon="7.44743">
        <ele>683.5817871</ele>
        <time>2008-10-05T07:58:22Z</time>
      </trkpt>
      <trkpt lat="43.89827" lon="7.44743">
        <ele>682.6575928</ele>
        <time>2008-10-05T07:58:24Z</time>
      </trkpt>
      <trkpt lat="43.89832" lon="7.44771">
        <ele>674.817627</ele>
        <time>2008-10-05T07:58:33Z</time>
      </trkpt>
      <trkpt lat="43.89841" lon="7.44787">
        <ele>669.4779663</ele>
        <time>2008-10-05T07:58:40Z</time>
      </trkpt>
      <trkpt lat="43.89843" lon="7.44785">
        <ele>669.5698242</ele>
        <time>2008-10-05T07:58:44Z</time>
      </trkpt>
      <trkpt lat="43.8986" lon="7.44779">
        <ele>668.2663574</ele>
        <time>2008-10-05T07:58:53Z</time>
      </trkpt>
      <trkpt lat="43.89864" lon="7.44775">
        <ele>668.5540771</ele>
        <time>2008-10-05T07:58:55Z</time>
      </trkpt>
      <trkpt lat="43.89874" lon="7.44778">
        <ele>666.5422974</ele>
        <time>2008-10-05T07:58:59Z</time>
      </trkpt>
      <trkpt lat="43.89883" lon="7.44787">
        <ele>663.3233032</ele>
        <time>2008-10-05T07:59:03Z</time>
      </trkpt>
      <trkpt lat="43.89887" lon="7.44801">
        <ele>659.9154663</ele>
        <time>2008-10-05T07:59:07Z</time>
      </trkpt>
      <trkpt lat="43.89881" lon="7.44815">
        <ele>658.0220337</ele>
        <time>2008-10-05T07:59:13Z</time>
      </trkpt>
      <trkpt lat="43.89861" lon="7.44822">
        <ele>659.1514893</ele>
        <time>2008-10-05T07:59:22Z</time>
      </trkpt>
      <trkpt lat="43.89842" lon="7.44825">
        <ele>660.9059448</ele>
        <time>2008-10-05T07:59:31Z</time>
      </trkpt>
      <trkpt lat="43.8983" lon="7.44832">
        <ele>661.2948608</ele>
        <time>2008-10-05T07:59:37Z</time>
      </trkpt>
      <trkpt lat="43.89812" lon="7.4483">
        <ele>667.8914795</ele>
        <time>2008-10-05T07:59:45Z</time>
      </trkpt>
      <trkpt lat="43.89797" lon="7.44826">
        <ele>673.6539917</ele>
        <time>2008-10-05T07:59:52Z</time>
      </trkpt>
      <trkpt lat="43.89787" lon="7.44831">
        <ele>675.5690918</ele>
        <time>2008-10-05T07:59:58Z</time>
      </trkpt>
      <trkpt lat="43.89766" lon="7.44841">
        <ele>678.4818115</ele>
        <time>2008-10-05T08:00:07Z</time>
      </trkpt>
      <trkpt lat="43.89749" lon="7.44856">
        <ele>676.9934082</ele>
        <time>2008-10-05T08:00:15Z</time>
      </trkpt>
      <trkpt lat="43.8974" lon="7.44873">
        <ele>673.0443115</ele>
        <time>2008-10-05T08:00:22Z</time>
      </trkpt>
      <trkpt lat="43.89735" lon="7.44885">
        <ele>669.4265747</ele>
        <time>2008-10-05T08:00:27Z</time>
      </trkpt>
      <trkpt lat="43.89729" lon="7.44896">
        <ele>666.7818604</ele>
        <time>2008-10-05T08:00:31Z</time>
      </trkpt>
      <trkpt lat="43.89716" lon="7.44908">
        <ele>665.7073975</ele>
        <time>2008-10-05T08:00:37Z</time>
      </trkpt>
      <trkpt lat="43.89697" lon="7.44919">
        <ele>667.6199341</ele>
        <time>2008-10-05T08:00:45Z</time>
      </trkpt>
      <trkpt lat="43.89694" lon="7.44919">
        <ele>668.7994995</ele>
        <time>2008-10-05T08:00:46Z</time>
      </trkpt>
      <trkpt lat="43.89677" lon="7.44928">
        <ele>670.5613403</ele>
        <time>2008-10-05T08:00:55Z</time>
      </trkpt>
      <trkpt lat="43.89672" lon="7.44932">
        <ele>670.4331055</ele>
        <time>2008-10-05T08:00:59Z</time>
      </trkpt>
      <trkpt lat="43.89669" lon="7.44933">
        <ele>671.1270142</ele>
        <time>2008-10-05T08:01:02Z</time>
      </trkpt>
      <trkpt lat="43.89651" lon="7.44947">
        <ele>671.1800537</ele>
        <time>2008-10-05T08:01:18Z</time>
      </trkpt>
      <trkpt lat="43.8965" lon="7.44948">
        <ele>671.4730225</ele>
        <time>2008-10-05T08:01:19Z</time>
      </trkpt>
      <trkpt lat="43.8963" lon="7.44952">
        <ele>676.7922363</ele>
        <time>2008-10-05T08:01:30Z</time>
      </trkpt>
      <trkpt lat="43.89627" lon="7.44952">
        <ele>677.5979004</ele>
        <time>2008-10-05T08:01:32Z</time>
      </trkpt>
      <trkpt lat="43.89611" lon="7.44962">
        <ele>678.9345703</ele>
        <time>2008-10-05T08:01:43Z</time>
      </trkpt>
      <trkpt lat="43.89606" lon="7.44964">
        <ele>679.9141846</ele>
        <time>2008-10-05T08:01:45Z</time>
      </trkpt>
      <trkpt lat="43.89593" lon="7.44966">
        <ele>683.713623</ele>
        <time>2008-10-05T08:01:52Z</time>
      </trkpt>
      <trkpt lat="43.89588" lon="7.44969">
        <ele>684.1347656</ele>
        <time>2008-10-05T08:01:56Z</time>
      </trkpt>
      <trkpt lat="43.89569" lon="7.44975">
        <ele>689.350647</ele>
        <time>2008-10-05T08:02:06Z</time>
      </trkpt>
      <trkpt lat="43.89565" lon="7.44978">
        <ele>689.2141113</ele>
        <time>2008-10-05T08:02:08Z</time>
      </trkpt>
      <trkpt lat="43.89552" lon="7.44998">
        <ele>686.0006104</ele>
        <time>2008-10-05T08:02:17Z</time>
      </trkpt>
      <trkpt lat="43.89541" lon="7.45015">
        <ele>684.7765503</ele>
        <time>2008-10-05T08:02:25Z</time>
      </trkpt>
      <trkpt lat="43.89538" lon="7.45019">
        <ele>684.5344849</ele>
        <time>2008-10-05T08:02:27Z</time>
      </trkpt>
      <trkpt lat="43.89532" lon="7.45031">
        <ele>683.2685547</ele>
        <time>2008-10-05T08:02:31Z</time>
      </trkpt>
      <trkpt lat="43.89516" lon="7.45053">
        <ele>682.9610596</ele>
        <time>2008-10-05T08:02:39Z</time>
      </trkpt>
      <trkpt lat="43.89515" lon="7.45055">
        <ele>682.5992432</ele>
        <time>2008-10-05T08:02:40Z</time>
      </trkpt>
      <trkpt lat="43.89502" lon="7.45073">
        <ele>682.4827881</ele>
        <time>2008-10-05T08:02:50Z</time>
      </trkpt>
      <trkpt lat="43.89499" lon="7.45076">
        <ele>682.5489502</ele>
        <time>2008-10-05T08:02:52Z</time>
      </trkpt>
      <trkpt lat="43.89492" lon="7.45085">
        <ele>680.4580078</ele>
        <time>2008-10-05T08:02:57Z</time>
      </trkpt>
      <trkpt lat="43.89476" lon="7.45107">
        <ele>676.0884399</ele>
        <time>2008-10-05T08:03:05Z</time>
      </trkpt>
      <trkpt lat="43.89458" lon="7.45115">
        <ele>674.5490723</ele>
        <time>2008-10-05T08:03:11Z</time>
      </trkpt>
      <trkpt lat="43.89449" lon="7.45117">
        <ele>674.3010864</ele>
        <time>2008-10-05T08:03:14Z</time>
      </trkpt>
      <trkpt lat="43.89445" lon="7.45112">
        <ele>676.1574707</ele>
        <time>2008-10-05T08:03:18Z</time>
      </trkpt>
      <trkpt lat="43.89435" lon="7.45106">
        <ele>679.1432495</ele>
        <time>2008-10-05T08:03:23Z</time>
      </trkpt>
      <trkpt lat="43.89425" lon="7.45094">
        <ele>684.5807495</ele>
        <time>2008-10-05T08:03:28Z</time>
      </trkpt>
      <trkpt lat="43.89416" lon="7.45082">
        <ele>690.4539795</ele>
        <time>2008-10-05T08:03:33Z</time>
      </trkpt>
      <trkpt lat="43.89393" lon="7.45076">
        <ele>688.9858398</ele>
        <time>2008-10-05T08:03:41Z</time>
      </trkpt>
      <trkpt lat="43.89375" lon="7.45064">
        <ele>690.9573364</ele>
        <time>2008-10-05T08:03:49Z</time>
      </trkpt>
      <trkpt lat="43.89363" lon="7.45054">
        <ele>693.8579102</ele>
        <time>2008-10-05T08:03:56Z</time>
      </trkpt>
      <trkpt lat="43.89348" lon="7.45032">
        <ele>701.8881836</ele>
        <time>2008-10-05T08:04:05Z</time>
      </trkpt>
      <trkpt lat="43.89343" lon="7.45025">
        <ele>704.2680664</ele>
        <time>2008-10-05T08:04:09Z</time>
      </trkpt>
      <trkpt lat="43.8933" lon="7.45039">
        <ele>695.2548218</ele>
        <time>2008-10-05T08:04:17Z</time>
      </trkpt>
      <trkpt lat="43.89322" lon="7.45048">
        <ele>690.6234741</ele>
        <time>2008-10-05T08:04:22Z</time>
      </trkpt>
      <trkpt lat="43.89302" lon="7.45052">
        <ele>688.1997681</ele>
        <time>2008-10-05T08:04:31Z</time>
      </trkpt>
      <trkpt lat="43.89282" lon="7.45042">
        <ele>690.2503052</ele>
        <time>2008-10-05T08:04:38Z</time>
      </trkpt>
      <trkpt lat="43.89264" lon="7.45033">
        <ele>690.9622803</ele>
        <time>2008-10-05T08:04:46Z</time>
      </trkpt>
      <trkpt lat="43.89257" lon="7.45022">
        <ele>692.4685059</ele>
        <time>2008-10-05T08:04:51Z</time>
      </trkpt>
      <trkpt lat="43.89249" lon="7.45024">
        <ele>690.8861084</ele>
        <time>2008-10-05T08:04:57Z</time>
      </trkpt>
      <trkpt lat="43.89231" lon="7.45041">
        <ele>688.3151245</ele>
        <time>2008-10-05T08:05:06Z</time>
      </trkpt>
      <trkpt lat="43.89217" lon="7.4506">
        <ele>688.0638428</ele>
        <time>2008-10-05T08:05:16Z</time>
      </trkpt>
      <trkpt lat="43.89218" lon="7.45073">
        <ele>687.7086792</ele>
        <time>2008-10-05T08:05:20Z</time>
      </trkpt>
      <trkpt lat="43.89206" lon="7.45098">
        <ele>686.5960693</ele>
        <time>2008-10-05T08:05:28Z</time>
      </trkpt>
      <trkpt lat="43.89205" lon="7.45101">
        <ele>686.3048706</ele>
        <time>2008-10-05T08:05:29Z</time>
      </trkpt>
      <trkpt lat="43.892" lon="7.45111">
        <ele>685.4505005</ele>
        <time>2008-10-05T08:05:33Z</time>
      </trkpt>
      <trkpt lat="43.89184" lon="7.45134">
        <ele>684.8045654</ele>
        <time>2008-10-05T08:05:42Z</time>
      </trkpt>
      <trkpt lat="43.89165" lon="7.45145">
        <ele>687.5734863</ele>
        <time>2008-10-05T08:05:50Z</time>
      </trkpt>
      <trkpt lat="43.89143" lon="7.45141">
        <ele>686.6219482</ele>
        <time>2008-10-05T08:05:57Z</time>
      </trkpt>
      <trkpt lat="43.89129" lon="7.45142">
        <ele>685.4830322</ele>
        <time>2008-10-05T08:06:01Z</time>
      </trkpt>
      <trkpt lat="43.89119" lon="7.45151">
        <ele>684.0618896</ele>
        <time>2008-10-05T08:06:06Z</time>
      </trkpt>
      <trkpt lat="43.89106" lon="7.45156">
        <ele>683.1564941</ele>
        <time>2008-10-05T08:06:11Z</time>
      </trkpt>
      <trkpt lat="43.89102" lon="7.45166">
        <ele>682.4987183</ele>
        <time>2008-10-05T08:06:15Z</time>
      </trkpt>
      <trkpt lat="43.89101" lon="7.45172">
        <ele>681.2749023</ele>
        <time>2008-10-05T08:06:17Z</time>
      </trkpt>
      <trkpt lat="43.89088" lon="7.45196">
        <ele>676.6569214</ele>
        <time>2008-10-05T08:06:27Z</time>
      </trkpt>
      <trkpt lat="43.89075" lon="7.45206">
        <ele>674.8154297</ele>
        <time>2008-10-05T08:06:33Z</time>
      </trkpt>
      <trkpt lat="43.89056" lon="7.45213">
        <ele>673.2476196</ele>
        <time>2008-10-05T08:06:41Z</time>
      </trkpt>
      <trkpt lat="43.89036" lon="7.4521">
        <ele>673.2475586</ele>
        <time>2008-10-05T08:06:47Z</time>
      </trkpt>
      <trkpt lat="43.89017" lon="7.4521">
        <ele>673.0611572</ele>
        <time>2008-10-05T08:06:52Z</time>
      </trkpt>
      <trkpt lat="43.88999" lon="7.45201">
        <ele>674.3634033</ele>
        <time>2008-10-05T08:06:59Z</time>
      </trkpt>
      <trkpt lat="43.88976" lon="7.45196">
        <ele>672.0667725</ele>
        <time>2008-10-05T08:07:09Z</time>
      </trkpt>
      <trkpt lat="43.88964" lon="7.45202">
        <ele>669.7527466</ele>
        <time>2008-10-05T08:07:14Z</time>
      </trkpt>
      <trkpt lat="43.8896" lon="7.45201">
        <ele>669.1893311</ele>
        <time>2008-10-05T08:07:16Z</time>
      </trkpt>
      <trkpt lat="43.88939" lon="7.45199">
        <ele>666.7363892</ele>
        <time>2008-10-05T08:07:26Z</time>
      </trkpt>
      <trkpt lat="43.88934" lon="7.45196">
        <ele>666.2794189</ele>
        <time>2008-10-05T08:07:28Z</time>
      </trkpt>
      <trkpt lat="43.88916" lon="7.45181">
        <ele>664.4279175</ele>
        <time>2008-10-05T08:07:38Z</time>
      </trkpt>
      <trkpt lat="43.88905" lon="7.4518">
        <ele>663.6777344</ele>
        <time>2008-10-05T08:07:53Z</time>
      </trkpt>
      <trkpt lat="43.889" lon="7.45194">
        <ele>663.5390625</ele>
        <time>2008-10-05T08:08:01Z</time>
      </trkpt>
      <trkpt lat="43.88905" lon="7.45222">
        <ele>663.5894165</ele>
        <time>2008-10-05T08:08:10Z</time>
      </trkpt>
      <trkpt lat="43.88901" lon="7.45249">
        <ele>664.0854492</ele>
        <time>2008-10-05T08:08:18Z</time>
      </trkpt>
      <trkpt lat="43.88896" lon="7.45258">
        <ele>664.6503296</ele>
        <time>2008-10-05T08:08:21Z</time>
      </trkpt>
      <trkpt lat="43.88893" lon="7.45285">
        <ele>665.288208</ele>
        <time>2008-10-05T08:08:28Z</time>
      </trkpt>
      <trkpt lat="43.88894" lon="7.453">
        <ele>664.9032593</ele>
        <time>2008-10-05T08:08:32Z</time>
      </trkpt>
      <trkpt lat="43.88897" lon="7.45308">
        <ele>664.050354</ele>
        <time>2008-10-05T08:08:34Z</time>
      </trkpt>
      <trkpt lat="43.88903" lon="7.45338">
        <ele>661.0665894</ele>
        <time>2008-10-05T08:08:42Z</time>
      </trkpt>
      <trkpt lat="43.88908" lon="7.45363">
        <ele>657.8689575</ele>
        <time>2008-10-05T08:08:49Z</time>
      </trkpt>
      <trkpt lat="43.88909" lon="7.45367">
        <ele>657.3037109</ele>
        <time>2008-10-05T08:08:50Z</time>
      </trkpt>
      <trkpt lat="43.88909" lon="7.45388">
        <ele>655.9834595</ele>
        <time>2008-10-05T08:08:56Z</time>
      </trkpt>
      <trkpt lat="43.889" lon="7.45415">
        <ele>660.0770874</ele>
        <time>2008-10-05T08:09:04Z</time>
      </trkpt>
      <trkpt lat="43.88896" lon="7.45442">
        <ele>660.2119141</ele>
        <time>2008-10-05T08:09:11Z</time>
      </trkpt>
      <trkpt lat="43.88895" lon="7.45455">
        <ele>659.7756348</ele>
        <time>2008-10-05T08:09:14Z</time>
      </trkpt>
      <trkpt lat="43.8889" lon="7.45484">
        <ele>661.2546997</ele>
        <time>2008-10-05T08:09:22Z</time>
      </trkpt>
      <trkpt lat="43.88889" lon="7.45487">
        <ele>661.5469971</ele>
        <time>2008-10-05T08:09:23Z</time>
      </trkpt>
      <trkpt lat="43.88888" lon="7.45494">
        <ele>662.1012573</ele>
        <time>2008-10-05T08:09:25Z</time>
      </trkpt>
      <trkpt lat="43.88888" lon="7.45525">
        <ele>659.1698608</ele>
        <time>2008-10-05T08:09:34Z</time>
      </trkpt>
      <trkpt lat="43.88883" lon="7.45555">
        <ele>659.2619629</ele>
        <time>2008-10-05T08:09:42Z</time>
      </trkpt>
      <trkpt lat="43.88882" lon="7.4556">
        <ele>659.1951294</ele>
        <time>2008-10-05T08:09:44Z</time>
      </trkpt>
      <trkpt lat="43.88879" lon="7.45589">
        <ele>658.5379639</ele>
        <time>2008-10-05T08:09:52Z</time>
      </trkpt>
      <trkpt lat="43.88878" lon="7.45596">
        <ele>658.5350952</ele>
        <time>2008-10-05T08:09:54Z</time>
      </trkpt>
      <trkpt lat="43.88877" lon="7.45624">
        <ele>656.137085</ele>
        <time>2008-10-05T08:10:01Z</time>
      </trkpt>
      <trkpt lat="43.88873" lon="7.45653">
        <ele>655.5424194</ele>
        <time>2008-10-05T08:10:09Z</time>
      </trkpt>
      <trkpt lat="43.88865" lon="7.45678">
        <ele>659.2541504</ele>
        <time>2008-10-05T08:10:16Z</time>
      </trkpt>
      <trkpt lat="43.88863" lon="7.4568">
        <ele>660.4464111</ele>
        <time>2008-10-05T08:10:17Z</time>
      </trkpt>
      <trkpt lat="43.88859" lon="7.45709">
        <ele>660.4962158</ele>
        <time>2008-10-05T08:10:26Z</time>
      </trkpt>
      <trkpt lat="43.88858" lon="7.45716">
        <ele>660.460022</ele>
        <time>2008-10-05T08:10:28Z</time>
      </trkpt>
      <trkpt lat="43.88859" lon="7.45746">
        <ele>657.5786743</ele>
        <time>2008-10-05T08:10:36Z</time>
      </trkpt>
      <trkpt lat="43.88862" lon="7.45771">
        <ele>654.1473389</ele>
        <time>2008-10-05T08:10:42Z</time>
      </trkpt>
      <trkpt lat="43.88861" lon="7.45775">
        <ele>654.532959</ele>
        <time>2008-10-05T08:10:43Z</time>
      </trkpt>
      <trkpt lat="43.88863" lon="7.45792">
        <ele>653.1266479</ele>
        <time>2008-10-05T08:10:47Z</time>
      </trkpt>
      <trkpt lat="43.8887" lon="7.45815">
        <ele>647.2193604</ele>
        <time>2008-10-05T08:10:54Z</time>
      </trkpt>
      <trkpt lat="43.88873" lon="7.45845">
        <ele>645.4434204</ele>
        <time>2008-10-05T08:11:03Z</time>
      </trkpt>
      <trkpt lat="43.88873" lon="7.45852">
        <ele>646.4840698</ele>
        <time>2008-10-05T08:11:05Z</time>
      </trkpt>
      <trkpt lat="43.8888" lon="7.45883">
        <ele>643.5401611</ele>
        <time>2008-10-05T08:11:13Z</time>
      </trkpt>
      <trkpt lat="43.88883" lon="7.45897">
        <ele>642.6343384</ele>
        <time>2008-10-05T08:11:17Z</time>
      </trkpt>
      <trkpt lat="43.88886" lon="7.45918">
        <ele>641.6009521</ele>
        <time>2008-10-05T08:11:23Z</time>
      </trkpt>
      <trkpt lat="43.88892" lon="7.45945">
        <ele>639.2941895</ele>
        <time>2008-10-05T08:11:31Z</time>
      </trkpt>
      <trkpt lat="43.88894" lon="7.45967">
        <ele>638.484436</ele>
        <time>2008-10-05T08:11:37Z</time>
      </trkpt>
      <trkpt lat="43.88897" lon="7.45989">
        <ele>637.5908813</ele>
        <time>2008-10-05T08:11:43Z</time>
      </trkpt>
      <trkpt lat="43.889" lon="7.4602">
        <ele>637.1282959</ele>
        <time>2008-10-05T08:11:51Z</time>
      </trkpt>
      <trkpt lat="43.88905" lon="7.46045">
        <ele>635.0723877</ele>
        <time>2008-10-05T08:11:57Z</time>
      </trkpt>
      <trkpt lat="43.88906" lon="7.46051">
        <ele>634.6159668</ele>
        <time>2008-10-05T08:11:59Z</time>
      </trkpt>
      <trkpt lat="43.88906" lon="7.46082">
        <ele>636.4593506</ele>
        <time>2008-10-05T08:12:08Z</time>
      </trkpt>
      <trkpt lat="43.88909" lon="7.46109">
        <ele>635.5941772</ele>
        <time>2008-10-05T08:12:16Z</time>
      </trkpt>
      <trkpt lat="43.88908" lon="7.46135">
        <ele>637.3319702</ele>
        <time>2008-10-05T08:12:23Z</time>
      </trkpt>
      <trkpt lat="43.88906" lon="7.46162">
        <ele>639.0911865</ele>
        <time>2008-10-05T08:12:30Z</time>
      </trkpt>
      <trkpt lat="43.88905" lon="7.46171">
        <ele>639.4402466</ele>
        <time>2008-10-05T08:12:34Z</time>
      </trkpt>
      <trkpt lat="43.88898" lon="7.46178">
        <ele>642.3869019</ele>
        <time>2008-10-05T08:12:38Z</time>
      </trkpt>
      <trkpt lat="43.88883" lon="7.46196">
        <ele>646.5702515</ele>
        <time>2008-10-05T08:12:46Z</time>
      </trkpt>
      <trkpt lat="43.88866" lon="7.46211">
        <ele>650.5288086</ele>
        <time>2008-10-05T08:12:53Z</time>
      </trkpt>
      <trkpt lat="43.88863" lon="7.46212">
        <ele>651.4278564</ele>
        <time>2008-10-05T08:12:54Z</time>
      </trkpt>
      <trkpt lat="43.88858" lon="7.46216">
        <ele>652.4503784</ele>
        <time>2008-10-05T08:12:56Z</time>
      </trkpt>
      <trkpt lat="43.8884" lon="7.4622">
        <ele>657.3740845</ele>
        <time>2008-10-05T08:13:02Z</time>
      </trkpt>
      <trkpt lat="43.88828" lon="7.46227">
        <ele>657.4993896</ele>
        <time>2008-10-05T08:13:07Z</time>
      </trkpt>
      <trkpt lat="43.88811" lon="7.46246">
        <ele>651.8880615</ele>
        <time>2008-10-05T08:13:16Z</time>
      </trkpt>
      <trkpt lat="43.88794" lon="7.46258">
        <ele>647.9876709</ele>
        <time>2008-10-05T08:13:24Z</time>
      </trkpt>
      <trkpt lat="43.8879" lon="7.4626">
        <ele>647.2280884</ele>
        <time>2008-10-05T08:13:26Z</time>
      </trkpt>
      <trkpt lat="43.88771" lon="7.46271">
        <ele>644.1604004</ele>
        <time>2008-10-05T08:13:33Z</time>
      </trkpt>
      <trkpt lat="43.88766" lon="7.46272">
        <ele>643.7683716</ele>
        <time>2008-10-05T08:13:35Z</time>
      </trkpt>
      <trkpt lat="43.8876" lon="7.46275">
        <ele>643.0635376</ele>
        <time>2008-10-05T08:13:38Z</time>
      </trkpt>
      <trkpt lat="43.88749" lon="7.46286">
        <ele>639.8051147</ele>
        <time>2008-10-05T08:13:44Z</time>
      </trkpt>
      <trkpt lat="43.88735" lon="7.46294">
        <ele>634.265564</ele>
        <time>2008-10-05T08:13:50Z</time>
      </trkpt>
      <trkpt lat="43.88711" lon="7.46298">
        <ele>628.1505737</ele>
        <time>2008-10-05T08:13:59Z</time>
      </trkpt>
      <trkpt lat="43.88705" lon="7.46299">
        <ele>626.7346802</ele>
        <time>2008-10-05T08:14:01Z</time>
      </trkpt>
      <trkpt lat="43.88684" lon="7.46304">
        <ele>621.1279297</ele>
        <time>2008-10-05T08:14:10Z</time>
      </trkpt>
      <trkpt lat="43.88682" lon="7.46304">
        <ele>620.7910156</ele>
        <time>2008-10-05T08:14:11Z</time>
      </trkpt>
      <trkpt lat="43.8866" lon="7.46302">
        <ele>615.581665</ele>
        <time>2008-10-05T08:14:18Z</time>
      </trkpt>
      <trkpt lat="43.88649" lon="7.46282">
        <ele>615.3945923</ele>
        <time>2008-10-05T08:14:25Z</time>
      </trkpt>
      <trkpt lat="43.88642" lon="7.46268">
        <ele>615.9467773</ele>
        <time>2008-10-05T08:14:30Z</time>
      </trkpt>
      <trkpt lat="43.88631" lon="7.46246">
        <ele>615.7419434</ele>
        <time>2008-10-05T08:14:38Z</time>
      </trkpt>
      <trkpt lat="43.88623" lon="7.46221">
        <ele>616.3361206</ele>
        <time>2008-10-05T08:14:46Z</time>
      </trkpt>
      <trkpt lat="43.88613" lon="7.46199">
        <ele>615.762207</ele>
        <time>2008-10-05T08:14:53Z</time>
      </trkpt>
      <trkpt lat="43.88602" lon="7.46175">
        <ele>614.6831055</ele>
        <time>2008-10-05T08:15:00Z</time>
      </trkpt>
      <trkpt lat="43.8859" lon="7.46155">
        <ele>612.7456665</ele>
        <time>2008-10-05T08:15:07Z</time>
      </trkpt>
      <trkpt lat="43.88577" lon="7.46135">
        <ele>608.9376831</ele>
        <time>2008-10-05T08:15:14Z</time>
      </trkpt>
      <trkpt lat="43.88566" lon="7.46115">
        <ele>605.572937</ele>
        <time>2008-10-05T08:15:20Z</time>
      </trkpt>
      <trkpt lat="43.88556" lon="7.4609">
        <ele>603.2332153</ele>
        <time>2008-10-05T08:15:27Z</time>
      </trkpt>
      <trkpt lat="43.88546" lon="7.46065">
        <ele>600.3712769</ele>
        <time>2008-10-05T08:15:34Z</time>
      </trkpt>
      <trkpt lat="43.88537" lon="7.46042">
        <ele>598.1637573</ele>
        <time>2008-10-05T08:15:40Z</time>
      </trkpt>
      <trkpt lat="43.88522" lon="7.46023">
        <ele>591.5574341</ele>
        <time>2008-10-05T08:15:47Z</time>
      </trkpt>
      <trkpt lat="43.88509" lon="7.46002">
        <ele>586.2894897</ele>
        <time>2008-10-05T08:15:56Z</time>
      </trkpt>
      <trkpt lat="43.88496" lon="7.4598">
        <ele>580.602478</ele>
        <time>2008-10-05T08:16:05Z</time>
      </trkpt>
      <trkpt lat="43.88483" lon="7.4596">
        <ele>574.3803711</ele>
        <time>2008-10-05T08:16:13Z</time>
      </trkpt>
      <trkpt lat="43.88474" lon="7.45938">
        <ele>571.2487793</ele>
        <time>2008-10-05T08:16:20Z</time>
      </trkpt>
      <trkpt lat="43.88466" lon="7.45922">
        <ele>567.7810059</ele>
        <time>2008-10-05T08:16:27Z</time>
      </trkpt>
      <trkpt lat="43.88459" lon="7.45916">
        <ele>563.7404175</ele>
        <time>2008-10-05T08:16:31Z</time>
      </trkpt>
      <trkpt lat="43.88451" lon="7.45905">
        <ele>560.1395264</ele>
        <time>2008-10-05T08:16:36Z</time>
      </trkpt>
      <trkpt lat="43.8845" lon="7.45901">
        <ele>559.5081787</ele>
        <time>2008-10-05T08:16:40Z</time>
      </trkpt>
      <trkpt lat="43.88438" lon="7.45879">
        <ele>553.9403076</ele>
        <time>2008-10-05T08:16:49Z</time>
      </trkpt>
      <trkpt lat="43.88429" lon="7.45854">
        <ele>549.7694702</ele>
        <time>2008-10-05T08:16:57Z</time>
      </trkpt>
      <trkpt lat="43.88417" lon="7.45828">
        <ele>542.9364624</ele>
        <time>2008-10-05T08:17:05Z</time>
      </trkpt>
      <trkpt lat="43.88407" lon="7.45805">
        <ele>537.9280396</ele>
        <time>2008-10-05T08:17:12Z</time>
      </trkpt>
      <trkpt lat="43.88401" lon="7.45785">
        <ele>534.2911377</ele>
        <time>2008-10-05T08:17:19Z</time>
      </trkpt>
      <trkpt lat="43.88389" lon="7.45773">
        <ele>527.9570313</ele>
        <time>2008-10-05T08:17:30Z</time>
      </trkpt>
      <trkpt lat="43.88385" lon="7.45748">
        <ele>525.3225708</ele>
        <time>2008-10-05T08:17:39Z</time>
      </trkpt>
      <trkpt lat="43.88389" lon="7.45737">
        <ele>527.7073975</ele>
        <time>2008-10-05T08:17:43Z</time>
      </trkpt>
      <trkpt lat="43.88387" lon="7.45706">
        <ele>527.0423584</ele>
        <time>2008-10-05T08:17:51Z</time>
      </trkpt>
      <trkpt lat="43.88371" lon="7.45689">
        <ele>519.4331665</ele>
        <time>2008-10-05T08:17:59Z</time>
      </trkpt>
      <trkpt lat="43.88353" lon="7.45677">
        <ele>511.0518799</ele>
        <time>2008-10-05T08:18:05Z</time>
      </trkpt>
      <trkpt lat="43.88352" lon="7.45649">
        <ele>515.940979</ele>
        <time>2008-10-05T08:18:12Z</time>
      </trkpt>
      <trkpt lat="43.88356" lon="7.45622">
        <ele>525.7042236</ele>
        <time>2008-10-05T08:18:19Z</time>
      </trkpt>
      <trkpt lat="43.88355" lon="7.45619">
        <ele>526.0723267</ele>
        <time>2008-10-05T08:18:20Z</time>
      </trkpt>
      <trkpt lat="43.88336" lon="7.45609">
        <ele>519.2415161</ele>
        <time>2008-10-05T08:18:27Z</time>
      </trkpt>
      <trkpt lat="43.88318" lon="7.45601">
        <ele>512.6027832</ele>
        <time>2008-10-05T08:18:33Z</time>
      </trkpt>
      <trkpt lat="43.88305" lon="7.4558">
        <ele>510.5693359</ele>
        <time>2008-10-05T08:18:40Z</time>
      </trkpt>
      <trkpt lat="43.88297" lon="7.45557">
        <ele>509.6466675</ele>
        <time>2008-10-05T08:18:47Z</time>
      </trkpt>
      <trkpt lat="43.8829" lon="7.45563">
        <ele>505.2459717</ele>
        <time>2008-10-05T08:18:59Z</time>
      </trkpt>
      <trkpt lat="43.88272" lon="7.45548">
        <ele>497.3965454</ele>
        <time>2008-10-05T08:19:09Z</time>
      </trkpt>
      <trkpt lat="43.88264" lon="7.45533">
        <ele>494.5956116</ele>
        <time>2008-10-05T08:19:14Z</time>
      </trkpt>
      <trkpt lat="43.88258" lon="7.45527">
        <ele>491.8757019</ele>
        <time>2008-10-05T08:19:18Z</time>
      </trkpt>
      <trkpt lat="43.8824" lon="7.45513">
        <ele>484.5350342</ele>
        <time>2008-10-05T08:19:25Z</time>
      </trkpt>
      <trkpt lat="43.88238" lon="7.45512">
        <ele>483.6055603</ele>
        <time>2008-10-05T08:19:26Z</time>
      </trkpt>
      <trkpt lat="43.88237" lon="7.45521">
        <ele>482.4678345</ele>
        <time>2008-10-05T08:19:31Z</time>
      </trkpt>
      <trkpt lat="43.88227" lon="7.45517">
        <ele>478.3303528</ele>
        <time>2008-10-05T08:19:37Z</time>
      </trkpt>
      <trkpt lat="43.88212" lon="7.45512">
        <ele>472.1019897</ele>
        <time>2008-10-05T08:19:42Z</time>
      </trkpt>
      <trkpt lat="43.88197" lon="7.45488">
        <ele>466.9642334</ele>
        <time>2008-10-05T08:19:50Z</time>
      </trkpt>
      <trkpt lat="43.88185" lon="7.45464">
        <ele>462.8237</ele>
        <time>2008-10-05T08:19:57Z</time>
      </trkpt>
      <trkpt lat="43.88182" lon="7.45452">
        <ele>462.1948547</ele>
        <time>2008-10-05T08:20:00Z</time>
      </trkpt>
      <trkpt lat="43.88173" lon="7.45424">
        <ele>459.1996155</ele>
        <time>2008-10-05T08:20:09Z</time>
      </trkpt>
      <trkpt lat="43.88171" lon="7.45422">
        <ele>458.7988281</ele>
        <time>2008-10-05T08:20:10Z</time>
      </trkpt>
      <trkpt lat="43.88153" lon="7.45421">
        <ele>450.2625732</ele>
        <time>2008-10-05T08:20:21Z</time>
      </trkpt>
      <trkpt lat="43.8814" lon="7.45404">
        <ele>444.3698425</ele>
        <time>2008-10-05T08:20:28Z</time>
      </trkpt>
      <trkpt lat="43.88141" lon="7.454">
        <ele>444.5275269</ele>
        <time>2008-10-05T08:20:29Z</time>
      </trkpt>
      <trkpt lat="43.88141" lon="7.4537">
        <ele>444.5337524</ele>
        <time>2008-10-05T08:20:37Z</time>
      </trkpt>
      <trkpt lat="43.88141" lon="7.45364">
        <ele>444.5006104</ele>
        <time>2008-10-05T08:20:39Z</time>
      </trkpt>
      <trkpt lat="43.88124" lon="7.45349">
        <ele>436.8441467</ele>
        <time>2008-10-05T08:20:49Z</time>
      </trkpt>
      <trkpt lat="43.8812" lon="7.45344">
        <ele>435.2524109</ele>
        <time>2008-10-05T08:20:51Z</time>
      </trkpt>
      <trkpt lat="43.88109" lon="7.45317">
        <ele>430.7818298</ele>
        <time>2008-10-05T08:20:59Z</time>
      </trkpt>
      <trkpt lat="43.88111" lon="7.45289">
        <ele>431.8459778</ele>
        <time>2008-10-05T08:21:07Z</time>
      </trkpt>
      <trkpt lat="43.88115" lon="7.45261">
        <ele>433.4786682</ele>
        <time>2008-10-05T08:21:15Z</time>
      </trkpt>
      <trkpt lat="43.88115" lon="7.45259">
        <ele>433.4872437</ele>
        <time>2008-10-05T08:21:16Z</time>
      </trkpt>
      <trkpt lat="43.88114" lon="7.45257">
        <ele>433.0352478</ele>
        <time>2008-10-05T08:21:18Z</time>
      </trkpt>
      <trkpt lat="43.88099" lon="7.4525">
        <ele>427.0131226</ele>
        <time>2008-10-05T08:21:30Z</time>
      </trkpt>
      <trkpt lat="43.88094" lon="7.45247">
        <ele>425.2278442</ele>
        <time>2008-10-05T08:21:32Z</time>
      </trkpt>
      <trkpt lat="43.88086" lon="7.45221">
        <ele>420.6567078</ele>
        <time>2008-10-05T08:21:40Z</time>
      </trkpt>
      <trkpt lat="43.88079" lon="7.45198">
        <ele>416.6288452</ele>
        <time>2008-10-05T08:21:49Z</time>
      </trkpt>
      <trkpt lat="43.88067" lon="7.45179">
        <ele>411.0206604</ele>
        <time>2008-10-05T08:21:59Z</time>
      </trkpt>
      <trkpt lat="43.88057" lon="7.45168">
        <ele>406.765625</ele>
        <time>2008-10-05T08:22:05Z</time>
      </trkpt>
      <trkpt lat="43.88041" lon="7.45153">
        <ele>399.8546143</ele>
        <time>2008-10-05T08:22:15Z</time>
      </trkpt>
      <trkpt lat="43.88033" lon="7.45146">
        <ele>396.1312866</ele>
        <time>2008-10-05T08:22:21Z</time>
      </trkpt>
      <trkpt lat="43.88026" lon="7.45142">
        <ele>393.4155884</ele>
        <time>2008-10-05T08:22:25Z</time>
      </trkpt>
      <trkpt lat="43.88018" lon="7.45124">
        <ele>389.7420654</ele>
        <time>2008-10-05T08:22:34Z</time>
      </trkpt>
      <trkpt lat="43.88001" lon="7.45132">
        <ele>383.0935974</ele>
        <time>2008-10-05T08:22:46Z</time>
      </trkpt>
      <trkpt lat="43.87984" lon="7.45132">
        <ele>378.5995483</ele>
        <time>2008-10-05T08:22:57Z</time>
      </trkpt>
      <trkpt lat="43.8798" lon="7.45129">
        <ele>377.6555786</ele>
        <time>2008-10-05T08:22:59Z</time>
      </trkpt>
      <trkpt lat="43.87973" lon="7.45109">
        <ele>375.2509155</ele>
        <time>2008-10-05T08:23:08Z</time>
      </trkpt>
      <trkpt lat="43.87982" lon="7.45093">
        <ele>377.0096436</ele>
        <time>2008-10-05T08:23:15Z</time>
      </trkpt>
      <trkpt lat="43.87981" lon="7.45075">
        <ele>376.2704773</ele>
        <time>2008-10-05T08:23:20Z</time>
      </trkpt>
      <trkpt lat="43.8798" lon="7.45062">
        <ele>375.7134399</ele>
        <time>2008-10-05T08:23:24Z</time>
      </trkpt>
      <trkpt lat="43.87978" lon="7.45032">
        <ele>374.7246094</ele>
        <time>2008-10-05T08:23:31Z</time>
      </trkpt>
      <trkpt lat="43.87976" lon="7.45006">
        <ele>373.762207</ele>
        <time>2008-10-05T08:23:37Z</time>
      </trkpt>
      <trkpt lat="43.87971" lon="7.44981">
        <ele>372.1141052</ele>
        <time>2008-10-05T08:23:43Z</time>
      </trkpt>
      <trkpt lat="43.8797" lon="7.44952">
        <ele>371.4195557</ele>
        <time>2008-10-05T08:23:50Z</time>
      </trkpt>
      <trkpt lat="43.87966" lon="7.44926">
        <ele>370.1496582</ele>
        <time>2008-10-05T08:23:57Z</time>
      </trkpt>
      <trkpt lat="43.87959" lon="7.44901">
        <ele>368.6145935</ele>
        <time>2008-10-05T08:24:03Z</time>
      </trkpt>
      <trkpt lat="43.87955" lon="7.44873">
        <ele>367.8798523</ele>
        <time>2008-10-05T08:24:10Z</time>
      </trkpt>
      <trkpt lat="43.87954" lon="7.44863">
        <ele>367.745636</ele>
        <time>2008-10-05T08:24:13Z</time>
      </trkpt>
      <trkpt lat="43.87952" lon="7.44854">
        <ele>367.2584229</ele>
        <time>2008-10-05T08:24:17Z</time>
      </trkpt>
      <trkpt lat="43.87947" lon="7.44823">
        <ele>366.097229</ele>
        <time>2008-10-05T08:24:25Z</time>
      </trkpt>
      <trkpt lat="43.87939" lon="7.448">
        <ele>364.1931152</ele>
        <time>2008-10-05T08:24:31Z</time>
      </trkpt>
      <trkpt lat="43.87935" lon="7.4479">
        <ele>363.295166</ele>
        <time>2008-10-05T08:24:34Z</time>
      </trkpt>
      <trkpt lat="43.87928" lon="7.44784">
        <ele>362.1855469</ele>
        <time>2008-10-05T08:24:38Z</time>
      </trkpt>
      <trkpt lat="43.87925" lon="7.44781">
        <ele>361.5535583</ele>
        <time>2008-10-05T08:24:40Z</time>
      </trkpt>
      <trkpt lat="43.87918" lon="7.4478">
        <ele>360.6253967</ele>
        <time>2008-10-05T08:24:43Z</time>
      </trkpt>
      <trkpt lat="43.87913" lon="7.44775">
        <ele>359.9481201</ele>
        <time>2008-10-05T08:24:46Z</time>
      </trkpt>
      <trkpt lat="43.87909" lon="7.44789">
        <ele>359.7678833</ele>
        <time>2008-10-05T08:24:52Z</time>
      </trkpt>
      <trkpt lat="43.87912" lon="7.44821">
        <ele>360.4069519</ele>
        <time>2008-10-05T08:25:00Z</time>
      </trkpt>
      <trkpt lat="43.87912" lon="7.44831">
        <ele>360.4241943</ele>
        <time>2008-10-05T08:25:02Z</time>
      </trkpt>
      <trkpt lat="43.87899" lon="7.44842">
        <ele>358.9463196</ele>
        <time>2008-10-05T08:25:07Z</time>
      </trkpt>
      <trkpt lat="43.87875" lon="7.4484">
        <ele>356.379425</ele>
        <time>2008-10-05T08:25:15Z</time>
      </trkpt>
      <trkpt lat="43.87856" lon="7.44833">
        <ele>354.4785461</ele>
        <time>2008-10-05T08:25:20Z</time>
      </trkpt>
      <trkpt lat="43.87841" lon="7.44833">
        <ele>352.8392029</ele>
        <time>2008-10-05T08:25:25Z</time>
      </trkpt>
      <trkpt lat="43.87834" lon="7.44826">
        <ele>352.1782227</ele>
        <time>2008-10-05T08:25:30Z</time>
      </trkpt>
      <trkpt lat="43.87831" lon="7.44853">
        <ele>351.7092896</ele>
        <time>2008-10-05T08:25:38Z</time>
      </trkpt>
      <trkpt lat="43.87825" lon="7.44881">
        <ele>351.1221924</ele>
        <time>2008-10-05T08:25:45Z</time>
      </trkpt>
      <trkpt lat="43.87825" lon="7.44889">
        <ele>350.9992676</ele>
        <time>2008-10-05T08:25:47Z</time>
      </trkpt>
      <trkpt lat="43.87823" lon="7.44901">
        <ele>350.7397766</ele>
        <time>2008-10-05T08:25:51Z</time>
      </trkpt>
      <trkpt lat="43.87824" lon="7.44908">
        <ele>350.6683655</ele>
        <time>2008-10-05T08:25:53Z</time>
      </trkpt>
      <trkpt lat="43.87807" lon="7.44923">
        <ele>349.6584167</ele>
        <time>2008-10-05T08:26:02Z</time>
      </trkpt>
      <trkpt lat="43.87789" lon="7.44912">
        <ele>348.9887695</ele>
        <time>2008-10-05T08:26:11Z</time>
      </trkpt>
      <trkpt lat="43.87783" lon="7.44909">
        <ele>348.7694397</ele>
        <time>2008-10-05T08:26:14Z</time>
      </trkpt>
      <trkpt lat="43.8777" lon="7.44932">
        <ele>347.6375122</ele>
        <time>2008-10-05T08:26:22Z</time>
      </trkpt>
      <trkpt lat="43.87769" lon="7.44935">
        <ele>347.5293884</ele>
        <time>2008-10-05T08:26:23Z</time>
      </trkpt>
      <trkpt lat="43.8776" lon="7.44963">
        <ele>346.4253845</ele>
        <time>2008-10-05T08:26:31Z</time>
      </trkpt>
      <trkpt lat="43.87747" lon="7.44985">
        <ele>345.7704468</ele>
        <time>2008-10-05T08:26:38Z</time>
      </trkpt>
      <trkpt lat="43.87736" lon="7.45009">
        <ele>346.6786194</ele>
        <time>2008-10-05T08:26:45Z</time>
      </trkpt>
      <trkpt lat="43.87728" lon="7.45024">
        <ele>347.4462585</ele>
        <time>2008-10-05T08:26:52Z</time>
      </trkpt>
      <trkpt lat="43.87723" lon="7.45036">
        <ele>347.8630676</ele>
        <time>2008-10-05T08:27:05Z</time>
      </trkpt>
      <trkpt lat="43.87727" lon="7.45038">
        <ele>347.1933289</ele>
        <time>2008-10-05T08:28:24Z</time>
      </trkpt>
      <trkpt lat="43.8772" lon="7.45039">
        <ele>348.2229004</ele>
        <time>2008-10-05T08:29:19Z</time>
      </trkpt>
      <trkpt lat="43.87717" lon="7.4504">
        <ele>348.585907</ele>
        <time>2008-10-05T08:29:21Z</time>
      </trkpt>
      <trkpt lat="43.87701" lon="7.4505">
        <ele>350.6119385</ele>
        <time>2008-10-05T08:29:38Z</time>
      </trkpt>
      <trkpt lat="43.87684" lon="7.45058">
        <ele>352.8860779</ele>
        <time>2008-10-05T08:29:53Z</time>
      </trkpt>
      <trkpt lat="43.87676" lon="7.45064">
        <ele>353.9300232</ele>
        <time>2008-10-05T08:29:59Z</time>
      </trkpt>
      <trkpt lat="43.8767" lon="7.45071">
        <ele>354.7132874</ele>
        <time>2008-10-05T08:30:05Z</time>
      </trkpt>
      <trkpt lat="43.8766" lon="7.45073">
        <ele>355.5552979</ele>
        <time>2008-10-05T08:30:12Z</time>
      </trkpt>
      <trkpt lat="43.87646" lon="7.45077">
        <ele>356.5274963</ele>
        <time>2008-10-05T08:30:24Z</time>
      </trkpt>
      <trkpt lat="43.87645" lon="7.45082">
        <ele>356.5931396</ele>
        <time>2008-10-05T08:30:28Z</time>
      </trkpt>
      <trkpt lat="43.87643" lon="7.45111">
        <ele>356.9485168</ele>
        <time>2008-10-05T08:30:44Z</time>
      </trkpt>
      <trkpt lat="43.87644" lon="7.45138">
        <ele>357.1446838</ele>
        <time>2008-10-05T08:30:56Z</time>
      </trkpt>
      <trkpt lat="43.87637" lon="7.45159">
        <ele>358.14505</ele>
        <time>2008-10-05T08:31:07Z</time>
      </trkpt>
      <trkpt lat="43.87619" lon="7.45162">
        <ele>360.0589905</ele>
        <time>2008-10-05T08:31:20Z</time>
      </trkpt>
      <trkpt lat="43.87609" lon="7.45169">
        <ele>361.280426</ele>
        <time>2008-10-05T08:31:28Z</time>
      </trkpt>
      <trkpt lat="43.87591" lon="7.45181">
        <ele>363.6500854</ele>
        <time>2008-10-05T08:31:39Z</time>
      </trkpt>
      <trkpt lat="43.87573" lon="7.45188">
        <ele>366.8018799</ele>
        <time>2008-10-05T08:31:48Z</time>
      </trkpt>
      <trkpt lat="43.87554" lon="7.45191">
        <ele>370.6447754</ele>
        <time>2008-10-05T08:31:57Z</time>
      </trkpt>
      <trkpt lat="43.87535" lon="7.45195">
        <ele>374.4931946</ele>
        <time>2008-10-05T08:32:07Z</time>
      </trkpt>
      <trkpt lat="43.87516" lon="7.45199">
        <ele>378.3355103</ele>
        <time>2008-10-05T08:32:22Z</time>
      </trkpt>
      <trkpt lat="43.87511" lon="7.45202">
        <ele>379.4412842</ele>
        <time>2008-10-05T08:32:27Z</time>
      </trkpt>
      <trkpt lat="43.87511" lon="7.45207">
        <ele>379.7576599</ele>
        <time>2008-10-05T08:32:31Z</time>
      </trkpt>
      <trkpt lat="43.87509" lon="7.45237">
        <ele>381.5329285</ele>
        <time>2008-10-05T08:32:41Z</time>
      </trkpt>
      <trkpt lat="43.87511" lon="7.45262">
        <ele>382.3433228</ele>
        <time>2008-10-05T08:32:48Z</time>
      </trkpt>
      <trkpt lat="43.87516" lon="7.45288">
        <ele>382.9230042</ele>
        <time>2008-10-05T08:32:55Z</time>
      </trkpt>
      <trkpt lat="43.8752" lon="7.45314">
        <ele>383.3391418</ele>
        <time>2008-10-05T08:33:02Z</time>
      </trkpt>
      <trkpt lat="43.87526" lon="7.45341">
        <ele>383.1989441</ele>
        <time>2008-10-05T08:33:09Z</time>
      </trkpt>
      <trkpt lat="43.87527" lon="7.45368">
        <ele>383.7189941</ele>
        <time>2008-10-05T08:33:16Z</time>
      </trkpt>
      <trkpt lat="43.87522" lon="7.45396">
        <ele>385.7295532</ele>
        <time>2008-10-05T08:33:23Z</time>
      </trkpt>
      <trkpt lat="43.87518" lon="7.45424">
        <ele>386.9930725</ele>
        <time>2008-10-05T08:33:30Z</time>
      </trkpt>
      <trkpt lat="43.87515" lon="7.45449">
        <ele>387.2294006</ele>
        <time>2008-10-05T08:33:38Z</time>
      </trkpt>
      <trkpt lat="43.87512" lon="7.45475">
        <ele>387.1653137</ele>
        <time>2008-10-05T08:33:47Z</time>
      </trkpt>
      <trkpt lat="43.8751" lon="7.45501">
        <ele>387.0892334</ele>
        <time>2008-10-05T08:33:56Z</time>
      </trkpt>
      <trkpt lat="43.87505" lon="7.45526">
        <ele>387.8210449</ele>
        <time>2008-10-05T08:34:05Z</time>
      </trkpt>
      <trkpt lat="43.87496" lon="7.4555">
        <ele>390.0042419</ele>
        <time>2008-10-05T08:34:14Z</time>
      </trkpt>
      <trkpt lat="43.87487" lon="7.45573">
        <ele>392.9874878</ele>
        <time>2008-10-05T08:34:23Z</time>
      </trkpt>
      <trkpt lat="43.87478" lon="7.45598">
        <ele>395.4129028</ele>
        <time>2008-10-05T08:34:32Z</time>
      </trkpt>
      <trkpt lat="43.8747" lon="7.45621">
        <ele>397.2069397</ele>
        <time>2008-10-05T08:34:46Z</time>
      </trkpt>
      <trkpt lat="43.87465" lon="7.45641">
        <ele>397.9925232</ele>
        <time>2008-10-05T08:34:54Z</time>
      </trkpt>
      <trkpt lat="43.8745" lon="7.45661">
        <ele>401.9950562</ele>
        <time>2008-10-05T08:35:05Z</time>
      </trkpt>
      <trkpt lat="43.87436" lon="7.45678">
        <ele>406.0276184</ele>
        <time>2008-10-05T08:35:18Z</time>
      </trkpt>
      <trkpt lat="43.87427" lon="7.45702">
        <ele>408.3959656</ele>
        <time>2008-10-05T08:35:30Z</time>
      </trkpt>
      <trkpt lat="43.87426" lon="7.45705">
        <ele>408.675415</ele>
        <time>2008-10-05T08:35:31Z</time>
      </trkpt>
      <trkpt lat="43.87427" lon="7.45714">
        <ele>407.8355408</ele>
        <time>2008-10-05T08:35:35Z</time>
      </trkpt>
      <trkpt lat="43.87439" lon="7.45738">
        <ele>403.2874451</ele>
        <time>2008-10-05T08:35:46Z</time>
      </trkpt>
      <trkpt lat="43.87447" lon="7.45761">
        <ele>400.8905945</ele>
        <time>2008-10-05T08:35:58Z</time>
      </trkpt>
      <trkpt lat="43.87449" lon="7.45789">
        <ele>402.6396484</ele>
        <time>2008-10-05T08:36:12Z</time>
      </trkpt>
      <trkpt lat="43.87449" lon="7.45815">
        <ele>404.5610046</ele>
        <time>2008-10-05T08:36:21Z</time>
      </trkpt>
      <trkpt lat="43.87449" lon="7.45842">
        <ele>406.8535767</ele>
        <time>2008-10-05T08:36:30Z</time>
      </trkpt>
      <trkpt lat="43.87449" lon="7.45856">
        <ele>407.9756775</ele>
        <time>2008-10-05T08:36:36Z</time>
      </trkpt>
      <trkpt lat="43.87447" lon="7.45882">
        <ele>410.871521</ele>
        <time>2008-10-05T08:36:47Z</time>
      </trkpt>
      <trkpt lat="43.87444" lon="7.45908">
        <ele>414.4738464</ele>
        <time>2008-10-05T08:36:56Z</time>
      </trkpt>
      <trkpt lat="43.8744" lon="7.45933">
        <ele>417.4462891</ele>
        <time>2008-10-05T08:37:05Z</time>
      </trkpt>
      <trkpt lat="43.87436" lon="7.45958">
        <ele>420.4856873</ele>
        <time>2008-10-05T08:37:15Z</time>
      </trkpt>
      <trkpt lat="43.87428" lon="7.45983">
        <ele>424.4546204</ele>
        <time>2008-10-05T08:37:26Z</time>
      </trkpt>
      <trkpt lat="43.87415" lon="7.46">
        <ele>429.8093567</ele>
        <time>2008-10-05T08:37:35Z</time>
      </trkpt>
      <trkpt lat="43.874" lon="7.46014">
        <ele>434.697937</ele>
        <time>2008-10-05T08:37:47Z</time>
      </trkpt>
      <trkpt lat="43.87387" lon="7.46033">
        <ele>438.4376221</ele>
        <time>2008-10-05T08:37:58Z</time>
      </trkpt>
      <trkpt lat="43.87372" lon="7.46049">
        <ele>442.5210571</ele>
        <time>2008-10-05T08:38:13Z</time>
      </trkpt>
      <trkpt lat="43.87355" lon="7.46064">
        <ele>446.7511292</ele>
        <time>2008-10-05T08:38:23Z</time>
      </trkpt>
      <trkpt lat="43.87339" lon="7.46075">
        <ele>451.2803345</ele>
        <time>2008-10-05T08:38:32Z</time>
      </trkpt>
      <trkpt lat="43.87325" lon="7.46092">
        <ele>454.7030029</ele>
        <time>2008-10-05T08:38:42Z</time>
      </trkpt>
      <trkpt lat="43.87328" lon="7.46105">
        <ele>453.4208374</ele>
        <time>2008-10-05T08:38:48Z</time>
      </trkpt>
      <trkpt lat="43.87335" lon="7.46113">
        <ele>450.7228088</ele>
        <time>2008-10-05T08:38:53Z</time>
      </trkpt>
      <trkpt lat="43.87352" lon="7.46131">
        <ele>445.5771179</ele>
        <time>2008-10-05T08:39:06Z</time>
      </trkpt>
      <trkpt lat="43.8737" lon="7.46144">
        <ele>440.712677</ele>
        <time>2008-10-05T08:39:16Z</time>
      </trkpt>
      <trkpt lat="43.87389" lon="7.4615">
        <ele>435.5774536</ele>
        <time>2008-10-05T08:39:28Z</time>
      </trkpt>
      <trkpt lat="43.87405" lon="7.46163">
        <ele>431.6940613</ele>
        <time>2008-10-05T08:39:40Z</time>
      </trkpt>
      <trkpt lat="43.87413" lon="7.46186">
        <ele>435.0793762</ele>
        <time>2008-10-05T08:39:51Z</time>
      </trkpt>
      <trkpt lat="43.87411" lon="7.46213">
        <ele>442.9938354</ele>
        <time>2008-10-05T08:40:06Z</time>
      </trkpt>
      <trkpt lat="43.87409" lon="7.4624">
        <ele>451.0528259</ele>
        <time>2008-10-05T08:40:15Z</time>
      </trkpt>
      <trkpt lat="43.87411" lon="7.46267">
        <ele>455.2884521</ele>
        <time>2008-10-05T08:40:24Z</time>
      </trkpt>
      <trkpt lat="43.87415" lon="7.46292">
        <ele>456.8665771</ele>
        <time>2008-10-05T08:40:32Z</time>
      </trkpt>
      <trkpt lat="43.87418" lon="7.46317">
        <ele>458.62146</ele>
        <time>2008-10-05T08:40:40Z</time>
      </trkpt>
      <trkpt lat="43.87418" lon="7.46346">
        <ele>461.4357605</ele>
        <time>2008-10-05T08:40:49Z</time>
      </trkpt>
      <trkpt lat="43.87418" lon="7.46371">
        <ele>464.2080078</ele>
        <time>2008-10-05T08:40:58Z</time>
      </trkpt>
      <trkpt lat="43.87418" lon="7.46398">
        <ele>467.4616699</ele>
        <time>2008-10-05T08:41:07Z</time>
      </trkpt>
      <trkpt lat="43.87415" lon="7.46422">
        <ele>471.4447937</ele>
        <time>2008-10-05T08:41:16Z</time>
      </trkpt>
      <trkpt lat="43.87422" lon="7.46448">
        <ele>470.6870117</ele>
        <time>2008-10-05T08:41:26Z</time>
      </trkpt>
      <trkpt lat="43.87432" lon="7.4647">
        <ele>467.8500366</ele>
        <time>2008-10-05T08:41:35Z</time>
      </trkpt>
      <trkpt lat="43.87442" lon="7.46493">
        <ele>465.3952637</ele>
        <time>2008-10-05T08:41:44Z</time>
      </trkpt>
      <trkpt lat="43.87448" lon="7.46518">
        <ele>465.2137146</ele>
        <time>2008-10-05T08:41:52Z</time>
      </trkpt>
      <trkpt lat="43.87452" lon="7.46526">
        <ele>460.8320313</ele>
      </trkpt>
      <trkpt lat="43.87451" lon="7.46534">
        <ele>462.2539063</ele>
      </trkpt>
      <trkpt lat="43.87448" lon="7.46541">
        <ele>465.078125</ele>
      </trkpt>
      <trkpt lat="43.87448" lon="7.46544">
        <ele>465.9335938</ele>
      </trkpt>
      <trkpt lat="43.87448" lon="7.46563">
        <ele>466.8632813</ele>
      </trkpt>
      <trkpt lat="43.87446" lon="7.46584">
        <ele>467.5742188</ele>
      </trkpt>
      <trkpt lat="43.87446" lon="7.46584">
        <ele>467.7226563</ele>
      </trkpt>
      <trkpt lat="43.87439" lon="7.46598">
        <ele>470.4375</ele>
      </trkpt>
      <trkpt lat="43.87432" lon="7.46612">
        <ele>475.9296875</ele>
      </trkpt>
      <trkpt lat="43.87424" lon="7.46617">
        <ele>481.1289063</ele>
      </trkpt>
      <trkpt lat="43.87424" lon="7.46617">
        <ele>481.296875</ele>
      </trkpt>
      <trkpt lat="43.8742" lon="7.46614">
        <ele>483.9804688</ele>
      </trkpt>
      <trkpt lat="43.8742" lon="7.46615">
        <ele>484.0078125</ele>
      </trkpt>
      <trkpt lat="43.87422" lon="7.46632">
        <ele>484.15625</ele>
      </trkpt>
      <trkpt lat="43.87416" lon="7.46644">
        <ele>488.7070313</ele>
      </trkpt>
      <trkpt lat="43.87413" lon="7.46657">
        <ele>491.6601563</ele>
      </trkpt>
      <trkpt lat="43.87411" lon="7.46664">
        <ele>494.8789063</ele>
      </trkpt>
      <trkpt lat="43.87411" lon="7.46666">
        <ele>495.1289063</ele>
      </trkpt>
      <trkpt lat="43.87416" lon="7.46681">
        <ele>497.3476563</ele>
      </trkpt>
      <trkpt lat="43.87416" lon="7.46682">
        <ele>497.734375</ele>
      </trkpt>
      <trkpt lat="43.87408" lon="7.46705">
        <ele>510.296875</ele>
      </trkpt>
      <trkpt lat="43.87406" lon="7.4671">
        <ele>512.796875</ele>
      </trkpt>
      <trkpt lat="43.87385" lon="7.46731">
        <ele>528.28125</ele>
      </trkpt>
      <trkpt lat="43.87379" lon="7.4674">
        <ele>532.2890625</ele>
      </trkpt>
      <trkpt lat="43.87356" lon="7.46744">
        <ele>534.4023438</ele>
      </trkpt>
      <trkpt lat="43.87356" lon="7.46744">
        <ele>534.4765625</ele>
      </trkpt>
      <trkpt lat="43.8734" lon="7.46799">
        <ele>539.1640625</ele>
      </trkpt>
      <trkpt lat="43.8734" lon="7.46799">
        <ele>539.140625</ele>
      </trkpt>
      <trkpt lat="43.87324" lon="7.46816">
        <ele>548.0770874</ele>
        <time>2008-10-05T08:49:37Z</time>
      </trkpt>
      <trkpt lat="43.8732" lon="7.46823">
        <ele>549.4179688</ele>
        <time>2008-10-05T08:49:40Z</time>
      </trkpt>
      <trkpt lat="43.87315" lon="7.46829">
        <ele>550.7926636</ele>
        <time>2008-10-05T08:49:44Z</time>
      </trkpt>
      <trkpt lat="43.87299" lon="7.4685">
        <ele>554.6428223</ele>
        <time>2008-10-05T08:49:52Z</time>
      </trkpt>
      <trkpt lat="43.87286" lon="7.46869">
        <ele>556.6361694</ele>
        <time>2008-10-05T08:49:58Z</time>
      </trkpt>
      <trkpt lat="43.8727" lon="7.46887">
        <ele>559.1891479</ele>
        <time>2008-10-05T08:50:06Z</time>
      </trkpt>
      <trkpt lat="43.87259" lon="7.46903">
        <ele>559.968811</ele>
        <time>2008-10-05T08:50:14Z</time>
      </trkpt>
      <trkpt lat="43.87244" lon="7.46915">
        <ele>562.355835</ele>
        <time>2008-10-05T08:50:24Z</time>
      </trkpt>
      <trkpt lat="43.87249" lon="7.4691">
        <ele>561.9825439</ele>
        <time>2008-10-05T08:50:36Z</time>
      </trkpt>
      <trkpt lat="43.87259" lon="7.46897">
        <ele>561.3511963</ele>
        <time>2008-10-05T08:50:47Z</time>
      </trkpt>
      <trkpt lat="43.87271" lon="7.46885">
        <ele>559.4015503</ele>
        <time>2008-10-05T08:50:58Z</time>
      </trkpt>
      <trkpt lat="43.87276" lon="7.46878">
        <ele>558.8974609</ele>
        <time>2008-10-05T08:51:05Z</time>
      </trkpt>
      <trkpt lat="43.87277" lon="7.46877">
        <ele>558.71521</ele>
        <time>2008-10-05T08:51:29Z</time>
      </trkpt>
      <trkpt lat="43.87263" lon="7.46893">
        <ele>560.6091919</ele>
        <time>2008-10-05T08:51:41Z</time>
      </trkpt>
      <trkpt lat="43.87248" lon="7.46912">
        <ele>561.7835083</ele>
        <time>2008-10-05T08:51:52Z</time>
      </trkpt>
      <trkpt lat="43.87244" lon="7.46916">
        <ele>562.2727661</ele>
        <time>2008-10-05T08:51:54Z</time>
      </trkpt>
      <trkpt lat="43.87223" lon="7.46912">
        <ele>569.7752686</ele>
        <time>2008-10-05T08:52:04Z</time>
      </trkpt>
      <trkpt lat="43.87209" lon="7.46919">
        <ele>572.2515869</ele>
        <time>2008-10-05T08:52:10Z</time>
      </trkpt>
      <trkpt lat="43.872" lon="7.46925">
        <ele>573.2739258</ele>
        <time>2008-10-05T08:52:14Z</time>
      </trkpt>
      <trkpt lat="43.87181" lon="7.46936">
        <ele>575.0319214</ele>
        <time>2008-10-05T08:52:23Z</time>
      </trkpt>
      <trkpt lat="43.8718" lon="7.46936">
        <ele>575.4553833</ele>
        <time>2008-10-05T08:52:24Z</time>
      </trkpt>
      <trkpt lat="43.87172" lon="7.46942">
        <ele>575.7249756</ele>
        <time>2008-10-05T08:52:31Z</time>
      </trkpt>
      <trkpt lat="43.87167" lon="7.4694">
        <ele>577.9199219</ele>
        <time>2008-10-05T08:52:36Z</time>
      </trkpt>
      <trkpt lat="43.87148" lon="7.46948">
        <ele>581.4211426</ele>
        <time>2008-10-05T08:52:46Z</time>
      </trkpt>
      <trkpt lat="43.87135" lon="7.46959">
        <ele>582.2362671</ele>
        <time>2008-10-05T08:52:53Z</time>
      </trkpt>
      <trkpt lat="43.87128" lon="7.46979">
        <ele>578.6705322</ele>
        <time>2008-10-05T08:53:02Z</time>
      </trkpt>
      <trkpt lat="43.87128" lon="7.46992">
        <ele>574.4337769</ele>
        <time>2008-10-05T08:53:11Z</time>
      </trkpt>
      <trkpt lat="43.87131" lon="7.47003">
        <ele>570.6326294</ele>
        <time>2008-10-05T08:53:17Z</time>
      </trkpt>
      <trkpt lat="43.87132" lon="7.47031">
        <ele>568.5806885</ele>
        <time>2008-10-05T08:53:31Z</time>
      </trkpt>
      <trkpt lat="43.87127" lon="7.47057">
        <ele>569.4028931</ele>
        <time>2008-10-05T08:53:45Z</time>
      </trkpt>
      <trkpt lat="43.87129" lon="7.47084">
        <ele>567.2993164</ele>
        <time>2008-10-05T08:53:54Z</time>
      </trkpt>
      <trkpt lat="43.8713" lon="7.47086">
        <ele>567.1403198</ele>
        <time>2008-10-05T08:53:55Z</time>
      </trkpt>
      <trkpt lat="43.87132" lon="7.47116">
        <ele>568.1943359</ele>
        <time>2008-10-05T08:54:05Z</time>
      </trkpt>
      <trkpt lat="43.87132" lon="7.47119">
        <ele>568.3905029</ele>
        <time>2008-10-05T08:54:06Z</time>
      </trkpt>
      <trkpt lat="43.87135" lon="7.47133">
        <ele>568.1539307</ele>
        <time>2008-10-05T08:54:12Z</time>
      </trkpt>
      <trkpt lat="43.87138" lon="7.47162">
        <ele>569.4884644</ele>
        <time>2008-10-05T08:54:25Z</time>
      </trkpt>
      <trkpt lat="43.87137" lon="7.47187">
        <ele>571.5965576</ele>
        <time>2008-10-05T08:54:36Z</time>
      </trkpt>
      <trkpt lat="43.87138" lon="7.47212">
        <ele>572.9157104</ele>
        <time>2008-10-05T08:54:45Z</time>
      </trkpt>
      <trkpt lat="43.8714" lon="7.47238">
        <ele>574.1471558</ele>
        <time>2008-10-05T08:54:55Z</time>
      </trkpt>
      <trkpt lat="43.87137" lon="7.47264">
        <ele>576.7432251</ele>
        <time>2008-10-05T08:55:07Z</time>
      </trkpt>
      <trkpt lat="43.87135" lon="7.47289">
        <ele>579.0845947</ele>
        <time>2008-10-05T08:55:19Z</time>
      </trkpt>
      <trkpt lat="43.87128" lon="7.47315">
        <ele>582.5458984</ele>
        <time>2008-10-05T08:55:29Z</time>
      </trkpt>
      <trkpt lat="43.87118" lon="7.47335">
        <ele>586.7548218</ele>
        <time>2008-10-05T08:55:42Z</time>
      </trkpt>
      <trkpt lat="43.87102" lon="7.4735">
        <ele>592.1869507</ele>
        <time>2008-10-05T08:55:53Z</time>
      </trkpt>
      <trkpt lat="43.87084" lon="7.4736">
        <ele>597.8220215</ele>
        <time>2008-10-05T08:56:03Z</time>
      </trkpt>
      <trkpt lat="43.87069" lon="7.47377">
        <ele>603.4106445</ele>
        <time>2008-10-05T08:56:14Z</time>
      </trkpt>
      <trkpt lat="43.87059" lon="7.47398">
        <ele>607.6369629</ele>
        <time>2008-10-05T08:56:25Z</time>
      </trkpt>
      <trkpt lat="43.87054" lon="7.47416">
        <ele>609.9537964</ele>
        <time>2008-10-05T08:56:36Z</time>
      </trkpt>
      <trkpt lat="43.87053" lon="7.47417">
        <ele>610.3435059</ele>
        <time>2008-10-05T08:56:38Z</time>
      </trkpt>
      <trkpt lat="43.8706" lon="7.4739">
        <ele>606.8306885</ele>
        <time>2008-10-05T08:56:48Z</time>
      </trkpt>
      <trkpt lat="43.87072" lon="7.47371">
        <ele>602.2937012</ele>
        <time>2008-10-05T08:56:57Z</time>
      </trkpt>
      <trkpt lat="43.87073" lon="7.47369">
        <ele>601.8353882</ele>
        <time>2008-10-05T08:56:58Z</time>
      </trkpt>
      <trkpt lat="43.87072" lon="7.47366">
        <ele>601.9818726</ele>
        <time>2008-10-05T08:57:02Z</time>
      </trkpt>
      <trkpt lat="43.8707" lon="7.47366">
        <ele>602.7577515</ele>
        <time>2008-10-05T08:57:04Z</time>
      </trkpt>
      <trkpt lat="43.8706" lon="7.47381">
        <ele>606.6361694</ele>
        <time>2008-10-05T08:57:16Z</time>
      </trkpt>
      <trkpt lat="43.87047" lon="7.47404">
        <ele>611.6744385</ele>
        <time>2008-10-05T08:57:28Z</time>
      </trkpt>
      <trkpt lat="43.87039" lon="7.47426">
        <ele>614.8838501</ele>
        <time>2008-10-05T08:57:43Z</time>
      </trkpt>
      <trkpt lat="43.87035" lon="7.47451">
        <ele>616.5444336</ele>
        <time>2008-10-05T08:57:55Z</time>
      </trkpt>
      <trkpt lat="43.87034" lon="7.47479">
        <ele>616.8082275</ele>
        <time>2008-10-05T08:58:06Z</time>
      </trkpt>
      <trkpt lat="43.87032" lon="7.47496">
        <ele>617.6327515</ele>
        <time>2008-10-05T08:58:12Z</time>
      </trkpt>
      <trkpt lat="43.87033" lon="7.47508">
        <ele>616.7620239</ele>
        <time>2008-10-05T08:58:18Z</time>
      </trkpt>
      <trkpt lat="43.8703" lon="7.47519">
        <ele>616.717041</ele>
        <time>2008-10-05T08:58:22Z</time>
      </trkpt>
      <trkpt lat="43.87027" lon="7.47526">
        <ele>616.8991089</ele>
        <time>2008-10-05T08:58:25Z</time>
      </trkpt>
      <trkpt lat="43.87013" lon="7.4754">
        <ele>619.5563965</ele>
        <time>2008-10-05T08:58:32Z</time>
      </trkpt>
      <trkpt lat="43.86993" lon="7.47547">
        <ele>623.7346191</ele>
        <time>2008-10-05T08:58:41Z</time>
      </trkpt>
      <trkpt lat="43.86973" lon="7.47554">
        <ele>626.0525513</ele>
        <time>2008-10-05T08:58:53Z</time>
      </trkpt>
      <trkpt lat="43.86962" lon="7.47549">
        <ele>629.1356812</ele>
        <time>2008-10-05T08:58:59Z</time>
      </trkpt>
      <trkpt lat="43.86953" lon="7.47546">
        <ele>631.3638306</ele>
        <time>2008-10-05T08:59:03Z</time>
      </trkpt>
      <trkpt lat="43.86932" lon="7.47537">
        <ele>638.3800659</ele>
        <time>2008-10-05T08:59:13Z</time>
      </trkpt>
      <trkpt lat="43.8693" lon="7.47536">
        <ele>639.2474365</ele>
        <time>2008-10-05T08:59:14Z</time>
      </trkpt>
      <trkpt lat="43.86909" lon="7.47529">
        <ele>646.4329834</ele>
        <time>2008-10-05T08:59:24Z</time>
      </trkpt>
      <trkpt lat="43.86896" lon="7.47528">
        <ele>649.7893677</ele>
        <time>2008-10-05T08:59:30Z</time>
      </trkpt>
      <trkpt lat="43.86879" lon="7.47528">
        <ele>653.7467651</ele>
        <time>2008-10-05T08:59:38Z</time>
      </trkpt>
      <trkpt lat="43.86868" lon="7.47531">
        <ele>655.3588257</ele>
        <time>2008-10-05T08:59:45Z</time>
      </trkpt>
      <trkpt lat="43.86863" lon="7.47533">
        <ele>655.7116699</ele>
        <time>2008-10-05T08:59:51Z</time>
      </trkpt>
      <trkpt lat="43.86844" lon="7.47548">
        <ele>653.8759155</ele>
        <time>2008-10-05T09:00:04Z</time>
      </trkpt>
      <trkpt lat="43.86829" lon="7.47562">
        <ele>652.7566528</ele>
        <time>2008-10-05T09:00:13Z</time>
      </trkpt>
      <trkpt lat="43.86816" lon="7.47583">
        <ele>649.9761963</ele>
        <time>2008-10-05T09:00:21Z</time>
      </trkpt>
      <trkpt lat="43.86802" lon="7.476">
        <ele>650.6638184</ele>
        <time>2008-10-05T09:00:30Z</time>
      </trkpt>
      <trkpt lat="43.86798" lon="7.47606">
        <ele>650.7284546</ele>
        <time>2008-10-05T09:00:34Z</time>
      </trkpt>
      <trkpt lat="43.86782" lon="7.47624">
        <ele>652.6222534</ele>
        <time>2008-10-05T09:00:44Z</time>
      </trkpt>
      <trkpt lat="43.86769" lon="7.47643">
        <ele>653.1602173</ele>
        <time>2008-10-05T09:00:55Z</time>
      </trkpt>
      <trkpt lat="43.8676" lon="7.47655">
        <ele>654.1382446</ele>
        <time>2008-10-05T09:01:03Z</time>
      </trkpt>
      <trkpt lat="43.86757" lon="7.47663">
        <ele>653.0632935</ele>
        <time>2008-10-05T09:01:10Z</time>
      </trkpt>
      <trkpt lat="43.86745" lon="7.47677">
        <ele>655.1490479</ele>
        <time>2008-10-05T09:01:18Z</time>
      </trkpt>
      <trkpt lat="43.86738" lon="7.47686">
        <ele>656.1278687</ele>
        <time>2008-10-05T09:01:23Z</time>
      </trkpt>
      <trkpt lat="43.86727" lon="7.47709">
        <ele>654.1955566</ele>
        <time>2008-10-05T09:01:34Z</time>
      </trkpt>
      <trkpt lat="43.86724" lon="7.47727">
        <ele>650.7492065</ele>
        <time>2008-10-05T09:01:44Z</time>
      </trkpt>
      <trkpt lat="43.8672" lon="7.47732">
        <ele>651.3457031</ele>
        <time>2008-10-05T09:01:49Z</time>
      </trkpt>
      <trkpt lat="43.86713" lon="7.47737">
        <ele>652.8409424</ele>
        <time>2008-10-05T09:01:55Z</time>
      </trkpt>
      <trkpt lat="43.86711" lon="7.4774">
        <ele>652.7821045</ele>
        <time>2008-10-05T09:01:59Z</time>
      </trkpt>
      <trkpt lat="43.86715" lon="7.47744">
        <ele>649.6992798</ele>
        <time>2008-10-05T09:02:04Z</time>
      </trkpt>
      <trkpt lat="43.86731" lon="7.47758">
        <ele>642.0684204</ele>
        <time>2008-10-05T09:02:14Z</time>
      </trkpt>
      <trkpt lat="43.86734" lon="7.4776">
        <ele>640.867981</ele>
        <time>2008-10-05T09:02:18Z</time>
      </trkpt>
      <trkpt lat="43.86739" lon="7.47766">
        <ele>639.3862305</ele>
        <time>2008-10-05T09:02:23Z</time>
      </trkpt>
      <trkpt lat="43.86741" lon="7.47773">
        <ele>639.118042</ele>
        <time>2008-10-05T09:02:28Z</time>
      </trkpt>
      <trkpt lat="43.86745" lon="7.4778">
        <ele>638.0908203</ele>
        <time>2008-10-05T09:02:34Z</time>
      </trkpt>
      <trkpt lat="43.8676" lon="7.47796">
        <ele>632.5261841</ele>
        <time>2008-10-05T09:02:47Z</time>
      </trkpt>
      <trkpt lat="43.86765" lon="7.47801">
        <ele>630.6424561</ele>
        <time>2008-10-05T09:02:51Z</time>
      </trkpt>
      <trkpt lat="43.86776" lon="7.47823">
        <ele>628.1331787</ele>
        <time>2008-10-05T09:03:03Z</time>
      </trkpt>
      <trkpt lat="43.8679" lon="7.47841">
        <ele>627.0842896</ele>
        <time>2008-10-05T09:03:12Z</time>
      </trkpt>
      <trkpt lat="43.86791" lon="7.47843">
        <ele>627.3617554</ele>
        <time>2008-10-05T09:03:13Z</time>
      </trkpt>
      <trkpt lat="43.86802" lon="7.47866">
        <ele>631.2304077</ele>
        <time>2008-10-05T09:03:25Z</time>
      </trkpt>
      <trkpt lat="43.86805" lon="7.47893">
        <ele>639.4420776</ele>
        <time>2008-10-05T09:03:35Z</time>
      </trkpt>
      <trkpt lat="43.86807" lon="7.47904">
        <ele>642.7971802</ele>
        <time>2008-10-05T09:03:42Z</time>
      </trkpt>
      <trkpt lat="43.86808" lon="7.47914">
        <ele>645.4910278</ele>
        <time>2008-10-05T09:03:48Z</time>
      </trkpt>
      <trkpt lat="43.86808" lon="7.47919">
        <ele>647.338501</ele>
        <time>2008-10-05T09:03:51Z</time>
      </trkpt>
      <trkpt lat="43.86806" lon="7.47933">
        <ele>651.2848511</ele>
        <time>2008-10-05T09:03:57Z</time>
      </trkpt>
      <trkpt lat="43.86806" lon="7.47945">
        <ele>653.9748535</ele>
        <time>2008-10-05T09:04:01Z</time>
      </trkpt>
      <trkpt lat="43.86808" lon="7.47975">
        <ele>659.6708984</ele>
        <time>2008-10-05T09:04:10Z</time>
      </trkpt>
      <trkpt lat="43.86806" lon="7.48001">
        <ele>665.9555054</ele>
        <time>2008-10-05T09:04:18Z</time>
      </trkpt>
      <trkpt lat="43.86802" lon="7.4802">
        <ele>668.4154053</ele>
        <time>2008-10-05T09:04:25Z</time>
      </trkpt>
      <trkpt lat="43.86802" lon="7.48035">
        <ele>667.0257568</ele>
        <time>2008-10-05T09:04:31Z</time>
      </trkpt>
      <trkpt lat="43.86792" lon="7.4806">
        <ele>673.0273438</ele>
        <time>2008-10-05T09:04:41Z</time>
      </trkpt>
      <trkpt lat="43.86786" lon="7.48067">
        <ele>677.2948608</ele>
        <time>2008-10-05T09:04:46Z</time>
      </trkpt>
      <trkpt lat="43.86777" lon="7.48077">
        <ele>682.8054199</ele>
        <time>2008-10-05T09:04:51Z</time>
      </trkpt>
      <trkpt lat="43.86758" lon="7.48093">
        <ele>692.9672852</ele>
        <time>2008-10-05T09:05:01Z</time>
      </trkpt>
      <trkpt lat="43.86745" lon="7.48115">
        <ele>694.4397583</ele>
        <time>2008-10-05T09:05:09Z</time>
      </trkpt>
      <trkpt lat="43.86733" lon="7.48134">
        <ele>695.4067383</ele>
        <time>2008-10-05T09:05:19Z</time>
      </trkpt>
      <trkpt lat="43.86731" lon="7.48139">
        <ele>695.3546753</ele>
        <time>2008-10-05T09:05:22Z</time>
      </trkpt>
      <trkpt lat="43.86729" lon="7.48144">
        <ele>694.9003906</ele>
        <time>2008-10-05T09:05:26Z</time>
      </trkpt>
      <trkpt lat="43.86725" lon="7.48149">
        <ele>695.4285278</ele>
        <time>2008-10-05T09:05:30Z</time>
      </trkpt>
      <trkpt lat="43.86721" lon="7.48153">
        <ele>696.164917</ele>
        <time>2008-10-05T09:05:34Z</time>
      </trkpt>
      <trkpt lat="43.86719" lon="7.48155">
        <ele>697.0244141</ele>
        <time>2008-10-05T09:05:37Z</time>
      </trkpt>
      <trkpt lat="43.86708" lon="7.48175">
        <ele>695.1781006</ele>
        <time>2008-10-05T09:05:46Z</time>
      </trkpt>
      <trkpt lat="43.86703" lon="7.48183">
        <ele>693.6636353</ele>
        <time>2008-10-05T09:05:52Z</time>
      </trkpt>
      <trkpt lat="43.86699" lon="7.48188">
        <ele>693.2506714</ele>
        <time>2008-10-05T09:05:57Z</time>
      </trkpt>
      <trkpt lat="43.86683" lon="7.48202">
        <ele>694.3410645</ele>
        <time>2008-10-05T09:06:08Z</time>
      </trkpt>
      <trkpt lat="43.86669" lon="7.48204">
        <ele>700.6660156</ele>
        <time>2008-10-05T09:06:24Z</time>
      </trkpt>
      <trkpt lat="43.86663" lon="7.48206">
        <ele>701.2720947</ele>
        <time>2008-10-05T09:06:28Z</time>
      </trkpt>
      <trkpt lat="43.86642" lon="7.48201">
        <ele>705.4464111</ele>
        <time>2008-10-05T09:06:38Z</time>
      </trkpt>
      <trkpt lat="43.86623" lon="7.48194">
        <ele>711.4277954</ele>
        <time>2008-10-05T09:06:46Z</time>
      </trkpt>
      <trkpt lat="43.86617" lon="7.48194">
        <ele>711.7565308</ele>
        <time>2008-10-05T09:06:48Z</time>
      </trkpt>
      <trkpt lat="43.86609" lon="7.48202">
        <ele>706.9882813</ele>
        <time>2008-10-05T09:06:52Z</time>
      </trkpt>
      <trkpt lat="43.8659" lon="7.48207">
        <ele>704.9000244</ele>
        <time>2008-10-05T09:07:03Z</time>
      </trkpt>
      <trkpt lat="43.8658" lon="7.48204">
        <ele>706.5322876</ele>
        <time>2008-10-05T09:07:09Z</time>
      </trkpt>
      <trkpt lat="43.86571" lon="7.48204">
        <ele>705.3408203</ele>
        <time>2008-10-05T09:07:14Z</time>
      </trkpt>
      <trkpt lat="43.86551" lon="7.48198">
        <ele>705.3594971</ele>
        <time>2008-10-05T09:07:28Z</time>
      </trkpt>
      <trkpt lat="43.86532" lon="7.48196">
        <ele>702.7590942</ele>
        <time>2008-10-05T09:07:37Z</time>
      </trkpt>
      <trkpt lat="43.86531" lon="7.48197">
        <ele>702.2858276</ele>
        <time>2008-10-05T09:07:38Z</time>
      </trkpt>
      <trkpt lat="43.86514" lon="7.48191">
        <ele>702.7614746</ele>
        <time>2008-10-05T09:07:46Z</time>
      </trkpt>
      <trkpt lat="43.86506" lon="7.48188">
        <ele>702.8278809</ele>
        <time>2008-10-05T09:07:51Z</time>
      </trkpt>
      <trkpt lat="43.86496" lon="7.48183">
        <ele>703.3918457</ele>
        <time>2008-10-05T09:07:56Z</time>
      </trkpt>
      <trkpt lat="43.86487" lon="7.48178">
        <ele>704.0151367</ele>
        <time>2008-10-05T09:08:01Z</time>
      </trkpt>
      <trkpt lat="43.86479" lon="7.48173">
        <ele>705.0601807</ele>
        <time>2008-10-05T09:08:07Z</time>
      </trkpt>
      <trkpt lat="43.86459" lon="7.48167">
        <ele>702.9613037</ele>
        <time>2008-10-05T09:08:17Z</time>
      </trkpt>
      <trkpt lat="43.8644" lon="7.48159">
        <ele>702.1519165</ele>
        <time>2008-10-05T09:08:25Z</time>
      </trkpt>
      <trkpt lat="43.86422" lon="7.48154">
        <ele>699.6159058</ele>
        <time>2008-10-05T09:08:33Z</time>
      </trkpt>
      <trkpt lat="43.86406" lon="7.4814">
        <ele>701.5073853</ele>
        <time>2008-10-05T09:08:41Z</time>
      </trkpt>
      <trkpt lat="43.86389" lon="7.48129">
        <ele>701.9868774</ele>
        <time>2008-10-05T09:08:50Z</time>
      </trkpt>
      <trkpt lat="43.8638" lon="7.48126">
        <ele>700.9957886</ele>
        <time>2008-10-05T09:08:54Z</time>
      </trkpt>
      <trkpt lat="43.86364" lon="7.48116">
        <ele>700.6588135</ele>
        <time>2008-10-05T09:09:02Z</time>
      </trkpt>
      <trkpt lat="43.86354" lon="7.48114">
        <ele>699.2007446</ele>
        <time>2008-10-05T09:09:07Z</time>
      </trkpt>
      <trkpt lat="43.86333" lon="7.48105">
        <ele>697.2397461</ele>
        <time>2008-10-05T09:09:17Z</time>
      </trkpt>
      <trkpt lat="43.86315" lon="7.48097">
        <ele>695.6905518</ele>
        <time>2008-10-05T09:09:25Z</time>
      </trkpt>
      <trkpt lat="43.86296" lon="7.48088">
        <ele>693.8039551</ele>
        <time>2008-10-05T09:09:33Z</time>
      </trkpt>
      <trkpt lat="43.86283" lon="7.4808">
        <ele>693.5424194</ele>
        <time>2008-10-05T09:09:40Z</time>
      </trkpt>
      <trkpt lat="43.86276" lon="7.48075">
        <ele>693.1665649</ele>
        <time>2008-10-05T09:09:44Z</time>
      </trkpt>
      <trkpt lat="43.86257" lon="7.48063">
        <ele>692.4480591</ele>
        <time>2008-10-05T09:09:55Z</time>
      </trkpt>
      <trkpt lat="43.86239" lon="7.48056">
        <ele>690.5479126</ele>
        <time>2008-10-05T09:10:03Z</time>
      </trkpt>
      <trkpt lat="43.86224" lon="7.48044">
        <ele>691.703064</ele>
        <time>2008-10-05T09:10:12Z</time>
      </trkpt>
      <trkpt lat="43.86207" lon="7.48029">
        <ele>693.1773682</ele>
        <time>2008-10-05T09:10:21Z</time>
      </trkpt>
      <trkpt lat="43.862" lon="7.48027">
        <ele>692.2611084</ele>
        <time>2008-10-05T09:10:24Z</time>
      </trkpt>
      <trkpt lat="43.86183" lon="7.48016">
        <ele>691.9533081</ele>
        <time>2008-10-05T09:10:32Z</time>
      </trkpt>
      <trkpt lat="43.86163" lon="7.48006">
        <ele>690.9011841</ele>
        <time>2008-10-05T09:10:42Z</time>
      </trkpt>
      <trkpt lat="43.86161" lon="7.48004">
        <ele>691.2130737</ele>
        <time>2008-10-05T09:10:43Z</time>
      </trkpt>
      <trkpt lat="43.86158" lon="7.48004">
        <ele>690.5438232</ele>
        <time>2008-10-05T09:10:45Z</time>
      </trkpt>
      <trkpt lat="43.8614" lon="7.47994">
        <ele>690.6290894</ele>
        <time>2008-10-05T09:10:54Z</time>
      </trkpt>
      <trkpt lat="43.86136" lon="7.4799">
        <ele>691.4328003</ele>
        <time>2008-10-05T09:10:56Z</time>
      </trkpt>
      <trkpt lat="43.86125" lon="7.47982">
        <ele>692.151123</ele>
        <time>2008-10-05T09:11:02Z</time>
      </trkpt>
      <trkpt lat="43.86118" lon="7.47974">
        <ele>694.1325073</ele>
        <time>2008-10-05T09:11:06Z</time>
      </trkpt>
      <trkpt lat="43.86107" lon="7.47962">
        <ele>696.3913574</ele>
        <time>2008-10-05T09:11:13Z</time>
      </trkpt>
      <trkpt lat="43.86103" lon="7.47959">
        <ele>696.6366577</ele>
        <time>2008-10-05T09:11:16Z</time>
      </trkpt>
      <trkpt lat="43.86102" lon="7.47957">
        <ele>697.0944824</ele>
        <time>2008-10-05T09:11:18Z</time>
      </trkpt>
      <trkpt lat="43.86095" lon="7.47954">
        <ele>696.8737793</ele>
        <time>2008-10-05T09:11:23Z</time>
      </trkpt>
      <trkpt lat="43.86081" lon="7.47944">
        <ele>698.2404785</ele>
        <time>2008-10-05T09:11:31Z</time>
      </trkpt>
      <trkpt lat="43.86073" lon="7.47936">
        <ele>702.1329346</ele>
        <time>2008-10-05T09:11:37Z</time>
      </trkpt>
      <trkpt lat="43.86059" lon="7.47931">
        <ele>705.5166016</ele>
        <time>2008-10-05T09:11:45Z</time>
      </trkpt>
      <trkpt lat="43.86039" lon="7.47945">
        <ele>702.8114014</ele>
        <time>2008-10-05T09:11:56Z</time>
      </trkpt>
      <trkpt lat="43.86034" lon="7.47952">
        <ele>701.2925415</ele>
        <time>2008-10-05T09:11:58Z</time>
      </trkpt>
      <trkpt lat="43.86025" lon="7.47964">
        <ele>699.2209473</ele>
        <time>2008-10-05T09:12:06Z</time>
      </trkpt>
      <trkpt lat="43.86041" lon="7.47959">
        <ele>698.1015625</ele>
        <time>2008-10-05T09:12:13Z</time>
      </trkpt>
      <trkpt lat="43.86057" lon="7.47979">
        <ele>688.5549927</ele>
        <time>2008-10-05T09:12:23Z</time>
      </trkpt>
      <trkpt lat="43.86057" lon="7.47996">
        <ele>682.7780151</ele>
        <time>2008-10-05T09:12:27Z</time>
      </trkpt>
      <trkpt lat="43.86063" lon="7.48016">
        <ele>678.1392822</ele>
        <time>2008-10-05T09:12:33Z</time>
      </trkpt>
      <trkpt lat="43.86075" lon="7.48039">
        <ele>672.2625732</ele>
        <time>2008-10-05T09:12:43Z</time>
      </trkpt>
      <trkpt lat="43.86088" lon="7.48061">
        <ele>666.9911499</ele>
        <time>2008-10-05T09:12:51Z</time>
      </trkpt>
      <trkpt lat="43.8609" lon="7.48094">
        <ele>665.6682129</ele>
        <time>2008-10-05T09:12:59Z</time>
      </trkpt>
      <trkpt lat="43.86094" lon="7.48119">
        <ele>669.3650513</ele>
        <time>2008-10-05T09:13:05Z</time>
      </trkpt>
      <trkpt lat="43.8612" lon="7.48228">
        <ele>678.3330688</ele>
        <time>2008-10-05T09:13:36Z</time>
      </trkpt>
      <trkpt lat="43.86126" lon="7.48252">
        <ele>679.3619995</ele>
        <time>2008-10-05T09:13:45Z</time>
      </trkpt>
      <trkpt lat="43.86124" lon="7.48256">
        <ele>680.2034912</ele>
        <time>2008-10-05T09:13:47Z</time>
      </trkpt>
      <trkpt lat="43.8613" lon="7.48257">
        <ele>675.3901978</ele>
        <time>2008-10-05T09:13:50Z</time>
      </trkpt>
      <trkpt lat="43.86138" lon="7.48258">
        <ele>669.6831665</ele>
        <time>2008-10-05T09:13:53Z</time>
      </trkpt>
      <trkpt lat="43.86124" lon="7.48279">
        <ele>676.4048462</ele>
        <time>2008-10-05T09:14:03Z</time>
      </trkpt>
      <trkpt lat="43.86121" lon="7.48284">
        <ele>678.4796143</ele>
        <time>2008-10-05T09:14:05Z</time>
      </trkpt>
      <trkpt lat="43.86107" lon="7.48302">
        <ele>685.7944336</ele>
        <time>2008-10-05T09:14:12Z</time>
      </trkpt>
      <trkpt lat="43.86103" lon="7.48308">
        <ele>687.7202759</ele>
        <time>2008-10-05T09:14:14Z</time>
      </trkpt>
      <trkpt lat="43.86087" lon="7.48328">
        <ele>696.7087402</ele>
        <time>2008-10-05T09:14:20Z</time>
      </trkpt>
      <trkpt lat="43.86086" lon="7.48332">
        <ele>697.3258667</ele>
        <time>2008-10-05T09:14:21Z</time>
      </trkpt>
      <trkpt lat="43.86073" lon="7.48347">
        <ele>692.7947388</ele>
        <time>2008-10-05T09:14:26Z</time>
      </trkpt>
      <trkpt lat="43.86053" lon="7.48365">
        <ele>686.6749878</ele>
        <time>2008-10-05T09:14:36Z</time>
      </trkpt>
      <trkpt lat="43.86037" lon="7.48376">
        <ele>683.9398193</ele>
        <time>2008-10-05T09:14:44Z</time>
      </trkpt>
      <trkpt lat="43.86036" lon="7.48371">
        <ele>686.4302368</ele>
        <time>2008-10-05T09:14:46Z</time>
      </trkpt>
      <trkpt lat="43.86031" lon="7.48363">
        <ele>691.1332397</ele>
        <time>2008-10-05T09:14:52Z</time>
      </trkpt>
      <trkpt lat="43.86024" lon="7.48362">
        <ele>692.8858643</ele>
        <time>2008-10-05T09:14:57Z</time>
      </trkpt>
      <trkpt lat="43.8602" lon="7.48357">
        <ele>696.0475464</ele>
        <time>2008-10-05T09:15:01Z</time>
      </trkpt>
      <trkpt lat="43.86013" lon="7.48348">
        <ele>701.4574585</ele>
        <time>2008-10-05T09:15:08Z</time>
      </trkpt>
      <trkpt lat="43.86007" lon="7.48338">
        <ele>706.9622803</ele>
        <time>2008-10-05T09:15:15Z</time>
      </trkpt>
      <trkpt lat="43.85986" lon="7.48334">
        <ele>708.8493652</ele>
        <time>2008-10-05T09:15:32Z</time>
      </trkpt>
      <trkpt lat="43.85973" lon="7.48329">
        <ele>709.5917969</ele>
        <time>2008-10-05T09:15:41Z</time>
      </trkpt>
      <trkpt lat="43.85968" lon="7.48331">
        <ele>708.5072021</ele>
        <time>2008-10-05T09:15:46Z</time>
      </trkpt>
      <trkpt lat="43.85948" lon="7.48331">
        <ele>707.0974731</ele>
        <time>2008-10-05T09:15:57Z</time>
      </trkpt>
      <trkpt lat="43.8594" lon="7.48322">
        <ele>710.3157349</ele>
        <time>2008-10-05T09:16:05Z</time>
      </trkpt>
      <trkpt lat="43.85926" lon="7.483">
        <ele>718.9760132</ele>
        <time>2008-10-05T09:16:16Z</time>
      </trkpt>
      <trkpt lat="43.85921" lon="7.483">
        <ele>718.789978</ele>
        <time>2008-10-05T09:16:18Z</time>
      </trkpt>
      <trkpt lat="43.85911" lon="7.48308">
        <ele>715.8081055</ele>
        <time>2008-10-05T09:16:22Z</time>
      </trkpt>
      <trkpt lat="43.85904" lon="7.48312">
        <ele>715.1079102</ele>
        <time>2008-10-05T09:16:27Z</time>
      </trkpt>
      <trkpt lat="43.85886" lon="7.48325">
        <ele>711.1028442</ele>
        <time>2008-10-05T09:16:36Z</time>
      </trkpt>
      <trkpt lat="43.85881" lon="7.48326">
        <ele>711.385376</ele>
        <time>2008-10-05T09:16:41Z</time>
      </trkpt>
      <trkpt lat="43.85875" lon="7.48329">
        <ele>710.7258301</ele>
        <time>2008-10-05T09:16:45Z</time>
      </trkpt>
      <trkpt lat="43.85873" lon="7.48332">
        <ele>709.8512573</ele>
        <time>2008-10-05T09:16:47Z</time>
      </trkpt>
      <trkpt lat="43.85872" lon="7.48324">
        <ele>713.2883911</ele>
        <time>2008-10-05T09:17:03Z</time>
      </trkpt>
      <trkpt lat="43.85872" lon="7.48333">
        <ele>709.3222656</ele>
        <time>2008-10-05T09:17:08Z</time>
      </trkpt>
      <trkpt lat="43.85891" lon="7.48343">
        <ele>704.9380493</ele>
        <time>2008-10-05T09:17:17Z</time>
      </trkpt>
      <trkpt lat="43.85913" lon="7.48335">
        <ele>703.9937134</ele>
        <time>2008-10-05T09:17:21Z</time>
      </trkpt>
      <trkpt lat="43.85921" lon="7.48335">
        <ele>704.0011597</ele>
        <time>2008-10-05T09:17:23Z</time>
      </trkpt>
      <trkpt lat="43.85933" lon="7.48346">
        <ele>701.8530884</ele>
        <time>2008-10-05T09:17:30Z</time>
      </trkpt>
      <trkpt lat="43.85951" lon="7.4836">
        <ele>698.0140381</ele>
        <time>2008-10-05T09:17:42Z</time>
      </trkpt>
      <trkpt lat="43.8595" lon="7.48386">
        <ele>689.7753906</ele>
        <time>2008-10-05T09:17:53Z</time>
      </trkpt>
      <trkpt lat="43.8595" lon="7.48393">
        <ele>687.5532837</ele>
        <time>2008-10-05T09:18:00Z</time>
      </trkpt>
      <trkpt lat="43.85957" lon="7.48421">
        <ele>680.4968872</ele>
        <time>2008-10-05T09:18:10Z</time>
      </trkpt>
      <trkpt lat="43.85963" lon="7.48445">
        <ele>684.5065918</ele>
        <time>2008-10-05T09:18:18Z</time>
      </trkpt>
      <trkpt lat="43.85973" lon="7.48452">
        <ele>682.4666138</ele>
        <time>2008-10-05T09:18:23Z</time>
      </trkpt>
      <trkpt lat="43.85991" lon="7.48464">
        <ele>676.0184937</ele>
        <time>2008-10-05T09:18:31Z</time>
      </trkpt>
      <trkpt lat="43.86003" lon="7.48472">
        <ele>670.5985107</ele>
        <time>2008-10-05T09:18:38Z</time>
      </trkpt>
      <trkpt lat="43.86014" lon="7.48498">
        <ele>666.3296509</ele>
        <time>2008-10-05T09:18:49Z</time>
      </trkpt>
      <trkpt lat="43.8602" lon="7.48507">
        <ele>667.1643677</ele>
        <time>2008-10-05T09:18:54Z</time>
      </trkpt>
      <trkpt lat="43.86035" lon="7.4852">
        <ele>667.5927734</ele>
        <time>2008-10-05T09:19:04Z</time>
      </trkpt>
      <trkpt lat="43.86039" lon="7.48522">
        <ele>666.8910522</ele>
        <time>2008-10-05T09:19:07Z</time>
      </trkpt>
      <trkpt lat="43.86047" lon="7.48516">
        <ele>661.8492432</ele>
        <time>2008-10-05T09:19:13Z</time>
      </trkpt>
      <trkpt lat="43.86068" lon="7.48499">
        <ele>648.2382813</ele>
        <time>2008-10-05T09:19:23Z</time>
      </trkpt>
      <trkpt lat="43.86085" lon="7.48488">
        <ele>644.1407471</ele>
        <time>2008-10-05T09:19:27Z</time>
      </trkpt>
      <trkpt lat="43.86088" lon="7.48487">
        <ele>643.8331909</ele>
        <time>2008-10-05T09:19:28Z</time>
      </trkpt>
      <trkpt lat="43.86098" lon="7.48484">
        <ele>642.8432007</ele>
        <time>2008-10-05T09:19:31Z</time>
      </trkpt>
      <trkpt lat="43.8611" lon="7.48478">
        <ele>641.0650635</ele>
        <time>2008-10-05T09:19:36Z</time>
      </trkpt>
      <trkpt lat="43.86133" lon="7.48473">
        <ele>636.6828613</ele>
        <time>2008-10-05T09:19:44Z</time>
      </trkpt>
      <trkpt lat="43.86152" lon="7.48476">
        <ele>633.6968994</ele>
        <time>2008-10-05T09:19:52Z</time>
      </trkpt>
      <trkpt lat="43.86153" lon="7.48477">
        <ele>633.7357178</ele>
        <time>2008-10-05T09:19:53Z</time>
      </trkpt>
      <trkpt lat="43.86151" lon="7.48468">
        <ele>632.1345215</ele>
        <time>2008-10-05T09:20:03Z</time>
      </trkpt>
      <trkpt lat="43.86161" lon="7.48445">
        <ele>623.0513306</ele>
        <time>2008-10-05T09:20:13Z</time>
      </trkpt>
      <trkpt lat="43.86164" lon="7.48444">
        <ele>621.7922363</ele>
        <time>2008-10-05T09:20:14Z</time>
      </trkpt>
      <trkpt lat="43.86181" lon="7.48443">
        <ele>618.3327026</ele>
        <time>2008-10-05T09:20:19Z</time>
      </trkpt>
      <trkpt lat="43.86192" lon="7.48447">
        <ele>617.7103882</ele>
        <time>2008-10-05T09:20:28Z</time>
      </trkpt>
      <trkpt lat="43.86217" lon="7.48448">
        <ele>614.171875</ele>
        <time>2008-10-05T09:20:34Z</time>
      </trkpt>
      <trkpt lat="43.86235" lon="7.48445">
        <ele>610.2432861</ele>
        <time>2008-10-05T09:20:39Z</time>
      </trkpt>
      <trkpt lat="43.86241" lon="7.48454">
        <ele>611.9711914</ele>
        <time>2008-10-05T09:20:44Z</time>
      </trkpt>
      <trkpt lat="43.86262" lon="7.48454">
        <ele>607.9846802</ele>
        <time>2008-10-05T09:20:52Z</time>
      </trkpt>
      <trkpt lat="43.86275" lon="7.4845">
        <ele>604.0231323</ele>
        <time>2008-10-05T09:20:59Z</time>
      </trkpt>
      <trkpt lat="43.86289" lon="7.48455">
        <ele>602.1849365</ele>
        <time>2008-10-05T09:21:06Z</time>
      </trkpt>
      <trkpt lat="43.86301" lon="7.48463">
        <ele>601.50177</ele>
        <time>2008-10-05T09:21:14Z</time>
      </trkpt>
      <trkpt lat="43.86307" lon="7.48464">
        <ele>600.5251465</ele>
        <time>2008-10-05T09:21:17Z</time>
      </trkpt>
      <trkpt lat="43.8631" lon="7.48466">
        <ele>600.4488525</ele>
        <time>2008-10-05T09:21:19Z</time>
      </trkpt>
      <trkpt lat="43.86313" lon="7.4847">
        <ele>600.7640381</ele>
        <time>2008-10-05T09:21:22Z</time>
      </trkpt>
      <trkpt lat="43.86324" lon="7.48498">
        <ele>604.9536743</ele>
        <time>2008-10-05T09:21:32Z</time>
      </trkpt>
      <trkpt lat="43.86334" lon="7.48509">
        <ele>605.1801758</ele>
        <time>2008-10-05T09:21:39Z</time>
      </trkpt>
      <trkpt lat="43.86349" lon="7.48518">
        <ele>602.803894</ele>
        <time>2008-10-05T09:21:47Z</time>
      </trkpt>
      <trkpt lat="43.86354" lon="7.48523">
        <ele>602.3027954</ele>
        <time>2008-10-05T09:21:51Z</time>
      </trkpt>
      <trkpt lat="43.86358" lon="7.48528">
        <ele>602.694458</ele>
        <time>2008-10-05T09:21:55Z</time>
      </trkpt>
      <trkpt lat="43.86366" lon="7.48546">
        <ele>604.3537598</ele>
        <time>2008-10-05T09:22:03Z</time>
      </trkpt>
      <trkpt lat="43.86372" lon="7.48554">
        <ele>604.3821411</ele>
        <time>2008-10-05T09:22:07Z</time>
      </trkpt>
      <trkpt lat="43.86375" lon="7.48562">
        <ele>605.6079712</ele>
        <time>2008-10-05T09:22:10Z</time>
      </trkpt>
      <trkpt lat="43.86392" lon="7.48577">
        <ele>602.899231</ele>
        <time>2008-10-05T09:22:20Z</time>
      </trkpt>
      <trkpt lat="43.86409" lon="7.48574">
        <ele>595.9362793</ele>
        <time>2008-10-05T09:22:27Z</time>
      </trkpt>
      <trkpt lat="43.8643" lon="7.4858">
        <ele>592.2749634</ele>
        <time>2008-10-05T09:22:36Z</time>
      </trkpt>
      <trkpt lat="43.86431" lon="7.48584">
        <ele>593.0606689</ele>
        <time>2008-10-05T09:22:40Z</time>
      </trkpt>
      <trkpt lat="43.86435" lon="7.48586">
        <ele>592.8786621</ele>
        <time>2008-10-05T09:22:56Z</time>
      </trkpt>
      <trkpt lat="43.86444" lon="7.4858">
        <ele>590.255188</ele>
        <time>2008-10-05T09:23:04Z</time>
      </trkpt>
      <trkpt lat="43.86451" lon="7.48574">
        <ele>587.7805176</ele>
        <time>2008-10-05T09:23:13Z</time>
      </trkpt>
      <trkpt lat="43.86455" lon="7.48566">
        <ele>585.1479492</ele>
        <time>2008-10-05T09:23:18Z</time>
      </trkpt>
      <trkpt lat="43.86456" lon="7.48563">
        <ele>584.1755371</ele>
        <time>2008-10-05T09:23:20Z</time>
      </trkpt>
      <trkpt lat="43.86467" lon="7.48556">
        <ele>580.5684204</ele>
        <time>2008-10-05T09:23:26Z</time>
      </trkpt>
      <trkpt lat="43.86481" lon="7.48551">
        <ele>576.8880005</ele>
        <time>2008-10-05T09:23:32Z</time>
      </trkpt>
      <trkpt lat="43.86496" lon="7.48546">
        <ele>572.743103</ele>
        <time>2008-10-05T09:23:41Z</time>
      </trkpt>
      <trkpt lat="43.86517" lon="7.48538">
        <ele>569.4453735</ele>
        <time>2008-10-05T09:23:50Z</time>
      </trkpt>
      <trkpt lat="43.86536" lon="7.48536">
        <ele>568.4077148</ele>
        <time>2008-10-05T09:23:57Z</time>
      </trkpt>
      <trkpt lat="43.86538" lon="7.48536">
        <ele>568.2459717</ele>
        <time>2008-10-05T09:23:58Z</time>
      </trkpt>
      <trkpt lat="43.86557" lon="7.48539">
        <ele>568.680481</ele>
        <time>2008-10-05T09:24:07Z</time>
      </trkpt>
      <trkpt lat="43.86576" lon="7.48548">
        <ele>571.5602417</ele>
        <time>2008-10-05T09:24:18Z</time>
      </trkpt>
      <trkpt lat="43.86587" lon="7.48552">
        <ele>572.1928711</ele>
        <time>2008-10-05T09:24:23Z</time>
      </trkpt>
      <trkpt lat="43.86609" lon="7.4856">
        <ele>571.2384033</ele>
        <time>2008-10-05T09:24:31Z</time>
      </trkpt>
      <trkpt lat="43.86628" lon="7.48564">
        <ele>569.9261475</ele>
        <time>2008-10-05T09:24:38Z</time>
      </trkpt>
      <trkpt lat="43.86648" lon="7.48562">
        <ele>565.5794067</ele>
        <time>2008-10-05T09:24:46Z</time>
      </trkpt>
      <trkpt lat="43.86653" lon="7.48562">
        <ele>564.8378296</ele>
        <time>2008-10-05T09:24:48Z</time>
      </trkpt>
      <trkpt lat="43.86667" lon="7.48542">
        <ele>551.8353882</ele>
        <time>2008-10-05T09:25:10Z</time>
      </trkpt>
      <trkpt lat="43.86668" lon="7.48539">
        <ele>550.0114136</ele>
        <time>2008-10-05T09:25:12Z</time>
      </trkpt>
      <trkpt lat="43.8668" lon="7.48531">
        <ele>541.1896362</ele>
        <time>2008-10-05T09:25:25Z</time>
      </trkpt>
      <trkpt lat="43.86685" lon="7.4852">
        <ele>533.9385376</ele>
        <time>2008-10-05T09:25:33Z</time>
      </trkpt>
      <trkpt lat="43.86684" lon="7.48513">
        <ele>530.6680298</ele>
        <time>2008-10-05T09:25:37Z</time>
      </trkpt>
      <trkpt lat="43.86683" lon="7.48508">
        <ele>528.3670654</ele>
        <time>2008-10-05T09:25:39Z</time>
      </trkpt>
      <trkpt lat="43.86681" lon="7.485">
        <ele>524.90979</ele>
        <time>2008-10-05T09:25:54Z</time>
      </trkpt>
      <trkpt lat="43.86686" lon="7.48507">
        <ele>527.1546631</ele>
        <time>2008-10-05T09:26:00Z</time>
      </trkpt>
      <trkpt lat="43.86703" lon="7.4852">
        <ele>527.5914917</ele>
        <time>2008-10-05T09:26:10Z</time>
      </trkpt>
      <trkpt lat="43.86704" lon="7.48522">
        <ele>528.2984619</ele>
        <time>2008-10-05T09:26:13Z</time>
      </trkpt>
      <trkpt lat="43.86707" lon="7.48531">
        <ele>531.6000366</ele>
        <time>2008-10-05T09:26:17Z</time>
      </trkpt>
      <trkpt lat="43.86712" lon="7.48534">
        <ele>531.340271</ele>
        <time>2008-10-05T09:26:21Z</time>
      </trkpt>
      <trkpt lat="43.86714" lon="7.48531">
        <ele>528.9401245</ele>
        <time>2008-10-05T09:26:23Z</time>
      </trkpt>
      <trkpt lat="43.86715" lon="7.48524">
        <ele>525.1296387</ele>
        <time>2008-10-05T09:26:26Z</time>
      </trkpt>
      <trkpt lat="43.86718" lon="7.48521">
        <ele>522.9324341</ele>
        <time>2008-10-05T09:26:31Z</time>
      </trkpt>
      <trkpt lat="43.86728" lon="7.4853">
        <ele>523.6853638</ele>
        <time>2008-10-05T09:26:39Z</time>
      </trkpt>
      <trkpt lat="43.86731" lon="7.48514">
        <ele>514.5585327</ele>
        <time>2008-10-05T09:26:47Z</time>
      </trkpt>
      <trkpt lat="43.86731" lon="7.48508">
        <ele>511.4434814</ele>
        <time>2008-10-05T09:26:50Z</time>
      </trkpt>
      <trkpt lat="43.86723" lon="7.48493">
        <ele>512.2831421</ele>
        <time>2008-10-05T09:26:58Z</time>
      </trkpt>
      <trkpt lat="43.86723" lon="7.48491">
        <ele>512.4741211</ele>
        <time>2008-10-05T09:27:01Z</time>
      </trkpt>
      <trkpt lat="43.8672" lon="7.48497">
        <ele>511.9922485</ele>
        <time>2008-10-05T09:27:06Z</time>
      </trkpt>
      <trkpt lat="43.86724" lon="7.48504">
        <ele>511.9190063</ele>
        <time>2008-10-05T09:27:17Z</time>
      </trkpt>
      <trkpt lat="43.86731" lon="7.48505">
        <ele>510.1853333</ele>
        <time>2008-10-05T09:27:21Z</time>
      </trkpt>
      <trkpt lat="43.86743" lon="7.48504">
        <ele>505.0929871</ele>
        <time>2008-10-05T09:27:29Z</time>
      </trkpt>
      <trkpt lat="43.86744" lon="7.48493">
        <ele>505.1689148</ele>
        <time>2008-10-05T09:27:55Z</time>
      </trkpt>
      <trkpt lat="43.86735" lon="7.48472">
        <ele>513.8372803</ele>
        <time>2008-10-05T09:28:01Z</time>
      </trkpt>
      <trkpt lat="43.86735" lon="7.48465">
        <ele>515.579895</ele>
        <time>2008-10-05T09:28:04Z</time>
      </trkpt>
      <trkpt lat="43.86743" lon="7.48464">
        <ele>513.5407104</ele>
        <time>2008-10-05T09:28:10Z</time>
      </trkpt>
      <trkpt lat="43.86754" lon="7.48473">
        <ele>508.4268188</ele>
        <time>2008-10-05T09:28:18Z</time>
      </trkpt>
      <trkpt lat="43.86766" lon="7.4849">
        <ele>501.7434692</ele>
        <time>2008-10-05T09:28:29Z</time>
      </trkpt>
      <trkpt lat="43.8677" lon="7.48493">
        <ele>500.15448</ele>
        <time>2008-10-05T09:28:33Z</time>
      </trkpt>
      <trkpt lat="43.86777" lon="7.48485">
        <ele>501.6834106</ele>
        <time>2008-10-05T09:28:43Z</time>
      </trkpt>
      <trkpt lat="43.86779" lon="7.48481">
        <ele>502.3551636</ele>
        <time>2008-10-05T09:28:48Z</time>
      </trkpt>
      <trkpt lat="43.86788" lon="7.48474">
        <ele>503.2638245</ele>
        <time>2008-10-05T09:28:54Z</time>
      </trkpt>
      <trkpt lat="43.86788" lon="7.48471">
        <ele>504.0958252</ele>
        <time>2008-10-05T09:28:56Z</time>
      </trkpt>
      <trkpt lat="43.86787" lon="7.4846">
        <ele>507.5673828</ele>
        <time>2008-10-05T09:29:02Z</time>
      </trkpt>
      <trkpt lat="43.86789" lon="7.48457">
        <ele>508.2345581</ele>
        <time>2008-10-05T09:29:06Z</time>
      </trkpt>
      <trkpt lat="43.86793" lon="7.48459">
        <ele>507.1559448</ele>
        <time>2008-10-05T09:29:09Z</time>
      </trkpt>
      <trkpt lat="43.86811" lon="7.48438">
        <ele>510.8300781</ele>
        <time>2008-10-05T09:29:14Z</time>
      </trkpt>
      <trkpt lat="43.86813" lon="7.48434">
        <ele>511.7095642</ele>
        <time>2008-10-05T09:29:15Z</time>
      </trkpt>
      <trkpt lat="43.86813" lon="7.48429">
        <ele>513.1137695</ele>
        <time>2008-10-05T09:29:17Z</time>
      </trkpt>
      <trkpt lat="43.86813" lon="7.48427">
        <ele>513.9697876</ele>
        <time>2008-10-05T09:29:26Z</time>
      </trkpt>
      <trkpt lat="43.86813" lon="7.48428">
        <ele>513.4141846</ele>
        <time>2008-10-05T09:29:32Z</time>
      </trkpt>
      <trkpt lat="43.86832" lon="7.48439">
        <ele>507.5347595</ele>
        <time>2008-10-05T09:29:39Z</time>
      </trkpt>
      <trkpt lat="43.86852" lon="7.48443">
        <ele>500.609314</ele>
        <time>2008-10-05T09:29:46Z</time>
      </trkpt>
      <trkpt lat="43.86856" lon="7.48442">
        <ele>499.4734192</ele>
        <time>2008-10-05T09:29:48Z</time>
      </trkpt>
      <trkpt lat="43.8686" lon="7.48445">
        <ele>497.895752</ele>
        <time>2008-10-05T09:29:51Z</time>
      </trkpt>
      <trkpt lat="43.86881" lon="7.48443">
        <ele>491.7836609</ele>
        <time>2008-10-05T09:30:02Z</time>
      </trkpt>
      <trkpt lat="43.86891" lon="7.4844">
        <ele>488.8534851</ele>
        <time>2008-10-05T09:30:10Z</time>
      </trkpt>
      <trkpt lat="43.869" lon="7.48439">
        <ele>486.1098938</ele>
        <time>2008-10-05T09:30:15Z</time>
      </trkpt>
      <trkpt lat="43.86921" lon="7.48434">
        <ele>480.5229797</ele>
        <time>2008-10-05T09:30:24Z</time>
      </trkpt>
      <trkpt lat="43.86937" lon="7.48428">
        <ele>479.3111877</ele>
        <time>2008-10-05T09:30:33Z</time>
      </trkpt>
      <trkpt lat="43.86956" lon="7.48417">
        <ele>475.8572998</ele>
        <time>2008-10-05T09:30:41Z</time>
      </trkpt>
      <trkpt lat="43.86966" lon="7.48404">
        <ele>475.2223511</ele>
        <time>2008-10-05T09:30:49Z</time>
      </trkpt>
      <trkpt lat="43.86976" lon="7.48386">
        <ele>472.9212646</ele>
        <time>2008-10-05T09:30:59Z</time>
      </trkpt>
      <trkpt lat="43.8698" lon="7.48368">
        <ele>470.8147888</ele>
        <time>2008-10-05T09:31:06Z</time>
      </trkpt>
      <trkpt lat="43.86983" lon="7.48357">
        <ele>469.0687866</ele>
        <time>2008-10-05T09:31:26Z</time>
      </trkpt>
      <trkpt lat="43.86984" lon="7.48354">
        <ele>468.4466858</ele>
        <time>2008-10-05T09:31:29Z</time>
      </trkpt>
      <trkpt lat="43.86991" lon="7.48336">
        <ele>462.8030396</ele>
        <time>2008-10-05T09:31:36Z</time>
      </trkpt>
      <trkpt lat="43.86993" lon="7.48331">
        <ele>461.7404785</ele>
        <time>2008-10-05T09:31:38Z</time>
      </trkpt>
      <trkpt lat="43.87011" lon="7.48314">
        <ele>461.4768982</ele>
        <time>2008-10-05T09:31:48Z</time>
      </trkpt>
      <trkpt lat="43.87016" lon="7.48303">
        <ele>462.7071533</ele>
        <time>2008-10-05T09:31:52Z</time>
      </trkpt>
      <trkpt lat="43.87033" lon="7.48285">
        <ele>461.1682739</ele>
        <time>2008-10-05T09:32:01Z</time>
      </trkpt>
      <trkpt lat="43.87044" lon="7.48271">
        <ele>458.0171204</ele>
        <time>2008-10-05T09:32:08Z</time>
      </trkpt>
      <trkpt lat="43.87061" lon="7.48254">
        <ele>449.7740479</ele>
        <time>2008-10-05T09:32:17Z</time>
      </trkpt>
      <trkpt lat="43.87065" lon="7.4825">
        <ele>447.1476746</ele>
        <time>2008-10-05T09:32:19Z</time>
      </trkpt>
      <trkpt lat="43.87074" lon="7.48245">
        <ele>443.5078735</ele>
        <time>2008-10-05T09:32:23Z</time>
      </trkpt>
      <trkpt lat="43.87091" lon="7.48229">
        <ele>441.5426331</ele>
        <time>2008-10-05T09:32:31Z</time>
      </trkpt>
      <trkpt lat="43.87098" lon="7.48218">
        <ele>442.8681946</ele>
        <time>2008-10-05T09:32:39Z</time>
      </trkpt>
      <trkpt lat="43.87106" lon="7.48203">
        <ele>443.4085083</ele>
        <time>2008-10-05T09:32:46Z</time>
      </trkpt>
      <trkpt lat="43.87106" lon="7.48174">
        <ele>443.3912354</ele>
        <time>2008-10-05T09:32:59Z</time>
      </trkpt>
      <trkpt lat="43.87107" lon="7.48166">
        <ele>443.3213196</ele>
        <time>2008-10-05T09:33:02Z</time>
      </trkpt>
      <trkpt lat="43.87111" lon="7.48159">
        <ele>443.4839478</ele>
        <time>2008-10-05T09:33:05Z</time>
      </trkpt>
      <trkpt lat="43.87123" lon="7.48143">
        <ele>441.6711121</ele>
        <time>2008-10-05T09:33:13Z</time>
      </trkpt>
      <trkpt lat="43.87133" lon="7.48119">
        <ele>439.1940613</ele>
        <time>2008-10-05T09:33:25Z</time>
      </trkpt>
      <trkpt lat="43.87133" lon="7.48094">
        <ele>440.088623</ele>
        <time>2008-10-05T09:33:36Z</time>
      </trkpt>
      <trkpt lat="43.87133" lon="7.4809">
        <ele>440.2032166</ele>
        <time>2008-10-05T09:33:38Z</time>
      </trkpt>
      <trkpt lat="43.87134" lon="7.48082">
        <ele>439.935791</ele>
        <time>2008-10-05T09:33:43Z</time>
      </trkpt>
      <trkpt lat="43.87133" lon="7.48076">
        <ele>440.7772522</ele>
        <time>2008-10-05T09:33:46Z</time>
      </trkpt>
      <trkpt lat="43.87137" lon="7.48067">
        <ele>439.8822632</ele>
        <time>2008-10-05T09:33:52Z</time>
      </trkpt>
      <trkpt lat="43.87156" lon="7.48053">
        <ele>431.0441589</ele>
        <time>2008-10-05T09:34:01Z</time>
      </trkpt>
      <trkpt lat="43.87172" lon="7.48036">
        <ele>427.5664368</ele>
        <time>2008-10-05T09:34:07Z</time>
      </trkpt>
      <trkpt lat="43.87188" lon="7.48022">
        <ele>425.8356323</ele>
        <time>2008-10-05T09:34:11Z</time>
      </trkpt>
      <trkpt lat="43.872" lon="7.48011">
        <ele>423.4535522</ele>
        <time>2008-10-05T09:34:15Z</time>
      </trkpt>
      <trkpt lat="43.87216" lon="7.47989">
        <ele>422.4286194</ele>
        <time>2008-10-05T09:34:21Z</time>
      </trkpt>
      <trkpt lat="43.87229" lon="7.47972">
        <ele>423.5952148</ele>
        <time>2008-10-05T09:34:31Z</time>
      </trkpt>
      <trkpt lat="43.87242" lon="7.47963">
        <ele>421.7648621</ele>
        <time>2008-10-05T09:34:40Z</time>
      </trkpt>
      <trkpt lat="43.87245" lon="7.47958">
        <ele>422.3754272</ele>
        <time>2008-10-05T09:34:46Z</time>
      </trkpt>
      <trkpt lat="43.87243" lon="7.47962">
        <ele>421.786499</ele>
        <time>2008-10-05T09:34:48Z</time>
      </trkpt>
      <trkpt lat="43.87239" lon="7.47978">
        <ele>417.8388062</ele>
        <time>2008-10-05T09:34:56Z</time>
      </trkpt>
      <trkpt lat="43.87254" lon="7.47981">
        <ele>412.7816467</ele>
        <time>2008-10-05T09:35:01Z</time>
      </trkpt>
      <trkpt lat="43.8725" lon="7.47982">
        <ele>412.7037354</ele>
        <time>2008-10-05T09:35:04Z</time>
      </trkpt>
      <trkpt lat="43.8725" lon="7.47984">
        <ele>412.4298401</ele>
        <time>2008-10-05T09:35:06Z</time>
      </trkpt>
      <trkpt lat="43.87253" lon="7.47985">
        <ele>411.7363586</ele>
        <time>2008-10-05T09:35:11Z</time>
      </trkpt>
      <trkpt lat="43.87262" lon="7.47992">
        <ele>409.1759033</ele>
        <time>2008-10-05T09:35:22Z</time>
      </trkpt>
      <trkpt lat="43.87272" lon="7.4799">
        <ele>409.3704834</ele>
        <time>2008-10-05T09:35:34Z</time>
      </trkpt>
      <trkpt lat="43.87281" lon="7.47988">
        <ele>409.1781311</ele>
        <time>2008-10-05T09:35:43Z</time>
      </trkpt>
      <trkpt lat="43.87284" lon="7.47988">
        <ele>408.9827271</ele>
        <time>2008-10-05T09:35:47Z</time>
      </trkpt>
      <trkpt lat="43.87297" lon="7.47987">
        <ele>408.3434143</ele>
        <time>2008-10-05T09:36:03Z</time>
      </trkpt>
      <trkpt lat="43.87314" lon="7.47997">
        <ele>407.6508789</ele>
        <time>2008-10-05T09:36:19Z</time>
      </trkpt>
      <trkpt lat="43.87334" lon="7.47993">
        <ele>407.1847839</ele>
        <time>2008-10-05T09:36:31Z</time>
      </trkpt>
      <trkpt lat="43.8735" lon="7.47976">
        <ele>406.7895203</ele>
        <time>2008-10-05T09:36:39Z</time>
      </trkpt>
      <trkpt lat="43.87366" lon="7.47963">
        <ele>405.9698792</ele>
        <time>2008-10-05T09:36:46Z</time>
      </trkpt>
      <trkpt lat="43.87385" lon="7.47955">
        <ele>405.7727356</ele>
        <time>2008-10-05T09:36:53Z</time>
      </trkpt>
      <trkpt lat="43.87398" lon="7.47943">
        <ele>403.2503357</ele>
        <time>2008-10-05T09:37:00Z</time>
      </trkpt>
      <trkpt lat="43.87412" lon="7.47922">
        <ele>396.8955994</ele>
        <time>2008-10-05T09:37:09Z</time>
      </trkpt>
      <trkpt lat="43.87425" lon="7.47903">
        <ele>395.0766907</ele>
        <time>2008-10-05T09:37:17Z</time>
      </trkpt>
      <trkpt lat="43.87435" lon="7.47893">
        <ele>395.2380371</ele>
        <time>2008-10-05T09:37:22Z</time>
      </trkpt>
      <trkpt lat="43.87448" lon="7.47867">
        <ele>391.9713135</ele>
        <time>2008-10-05T09:37:31Z</time>
      </trkpt>
      <trkpt lat="43.87454" lon="7.47859">
        <ele>390.7305908</ele>
        <time>2008-10-05T09:37:34Z</time>
      </trkpt>
      <trkpt lat="43.87466" lon="7.47858">
        <ele>391.0288086</ele>
        <time>2008-10-05T09:37:39Z</time>
      </trkpt>
      <trkpt lat="43.87489" lon="7.47855">
        <ele>391.1743164</ele>
        <time>2008-10-05T09:37:48Z</time>
      </trkpt>
      <trkpt lat="43.87493" lon="7.47854">
        <ele>390.852356</ele>
        <time>2008-10-05T09:37:50Z</time>
      </trkpt>
      <trkpt lat="43.8751" lon="7.47835">
        <ele>385.7279358</ele>
        <time>2008-10-05T09:37:59Z</time>
      </trkpt>
      <trkpt lat="43.87531" lon="7.47819">
        <ele>384.6178589</ele>
        <time>2008-10-05T09:38:08Z</time>
      </trkpt>
      <trkpt lat="43.87542" lon="7.47808">
        <ele>383.0045471</ele>
        <time>2008-10-05T09:38:13Z</time>
      </trkpt>
      <trkpt lat="43.87558" lon="7.4779">
        <ele>379.8052979</ele>
        <time>2008-10-05T09:38:21Z</time>
      </trkpt>
      <trkpt lat="43.87576" lon="7.47778">
        <ele>377.2671509</ele>
        <time>2008-10-05T09:38:29Z</time>
      </trkpt>
      <trkpt lat="43.87587" lon="7.47774">
        <ele>376.7010498</ele>
        <time>2008-10-05T09:38:33Z</time>
      </trkpt>
      <trkpt lat="43.87606" lon="7.47755">
        <ele>372.8723145</ele>
        <time>2008-10-05T09:38:42Z</time>
      </trkpt>
      <trkpt lat="43.87623" lon="7.47741">
        <ele>371.9359741</ele>
        <time>2008-10-05T09:38:49Z</time>
      </trkpt>
      <trkpt lat="43.87638" lon="7.47723">
        <ele>370.256134</ele>
        <time>2008-10-05T09:38:56Z</time>
      </trkpt>
      <trkpt lat="43.87653" lon="7.47707">
        <ele>367.7584229</ele>
        <time>2008-10-05T09:39:03Z</time>
      </trkpt>
      <trkpt lat="43.87666" lon="7.47689">
        <ele>364.1654663</ele>
        <time>2008-10-05T09:39:10Z</time>
      </trkpt>
      <trkpt lat="43.87684" lon="7.47688">
        <ele>364.5378113</ele>
        <time>2008-10-05T09:39:17Z</time>
      </trkpt>
      <trkpt lat="43.87702" lon="7.47693">
        <ele>366.3718872</ele>
        <time>2008-10-05T09:39:24Z</time>
      </trkpt>
      <trkpt lat="43.87722" lon="7.47697">
        <ele>368.1732788</ele>
        <time>2008-10-05T09:39:32Z</time>
      </trkpt>
      <trkpt lat="43.87723" lon="7.47697">
        <ele>368.2912292</ele>
        <time>2008-10-05T09:39:33Z</time>
      </trkpt>
      <trkpt lat="43.87735" lon="7.47698">
        <ele>368.8785706</ele>
        <time>2008-10-05T09:39:39Z</time>
      </trkpt>
      <trkpt lat="43.87758" lon="7.47694">
        <ele>368.2336731</ele>
        <time>2008-10-05T09:39:49Z</time>
      </trkpt>
      <trkpt lat="43.87777" lon="7.47689">
        <ele>366.7989807</ele>
        <time>2008-10-05T09:39:57Z</time>
      </trkpt>
      <trkpt lat="43.87796" lon="7.47685">
        <ele>365.3930054</ele>
        <time>2008-10-05T09:40:05Z</time>
      </trkpt>
      <trkpt lat="43.87814" lon="7.47684">
        <ele>364.8235474</ele>
        <time>2008-10-05T09:40:12Z</time>
      </trkpt>
      <trkpt lat="43.87834" lon="7.47691">
        <ele>365.5782166</ele>
        <time>2008-10-05T09:40:20Z</time>
      </trkpt>
      <trkpt lat="43.87853" lon="7.477">
        <ele>364.1695862</ele>
        <time>2008-10-05T09:40:28Z</time>
      </trkpt>
      <trkpt lat="43.87867" lon="7.47718">
        <ele>364.5599365</ele>
        <time>2008-10-05T09:40:36Z</time>
      </trkpt>
      <trkpt lat="43.87878" lon="7.4774">
        <ele>365.3508301</ele>
        <time>2008-10-05T09:40:44Z</time>
      </trkpt>
      <trkpt lat="43.87888" lon="7.47761">
        <ele>365.4869385</ele>
        <time>2008-10-05T09:40:52Z</time>
      </trkpt>
      <trkpt lat="43.87899" lon="7.47781">
        <ele>364.7889099</ele>
        <time>2008-10-05T09:40:59Z</time>
      </trkpt>
      <trkpt lat="43.87903" lon="7.47793">
        <ele>365.0625305</ele>
        <time>2008-10-05T09:41:49Z</time>
      </trkpt>
      <trkpt lat="43.87903" lon="7.47804">
        <ele>365.9763794</ele>
        <time>2008-10-05T09:42:54Z</time>
      </trkpt>
      <trkpt lat="43.87896" lon="7.47818">
        <ele>369.1685791</ele>
        <time>2008-10-05T09:43:06Z</time>
      </trkpt>
      <trkpt lat="43.87891" lon="7.47827">
        <ele>371.3040466</ele>
        <time>2008-10-05T09:43:12Z</time>
      </trkpt>
      <trkpt lat="43.8789" lon="7.4784">
        <ele>372.6194153</ele>
        <time>2008-10-05T09:43:25Z</time>
      </trkpt>
      <trkpt lat="43.8789" lon="7.47849">
        <ele>373.572937</ele>
        <time>2008-10-05T09:43:31Z</time>
      </trkpt>
      <trkpt lat="43.87884" lon="7.47861">
        <ele>376.4925537</ele>
        <time>2008-10-05T09:43:41Z</time>
      </trkpt>
      <trkpt lat="43.8788" lon="7.47872">
        <ele>378.8973083</ele>
        <time>2008-10-05T09:43:51Z</time>
      </trkpt>
      <trkpt lat="43.87878" lon="7.47882">
        <ele>380.3999634</ele>
        <time>2008-10-05T09:43:59Z</time>
      </trkpt>
      <trkpt lat="43.87877" lon="7.47899">
        <ele>382.5934143</ele>
        <time>2008-10-05T09:44:14Z</time>
      </trkpt>
      <trkpt lat="43.87875" lon="7.47903">
        <ele>383.4162598</ele>
        <time>2008-10-05T09:44:18Z</time>
      </trkpt>
      <trkpt lat="43.87872" lon="7.47915">
        <ele>385.8147278</ele>
        <time>2008-10-05T09:44:26Z</time>
      </trkpt>
      <trkpt lat="43.87869" lon="7.47923">
        <ele>387.7243042</ele>
        <time>2008-10-05T09:44:34Z</time>
      </trkpt>
      <trkpt lat="43.87869" lon="7.47927">
        <ele>388.4515991</ele>
        <time>2008-10-05T09:44:37Z</time>
      </trkpt>
      <trkpt lat="43.87869" lon="7.47939">
        <ele>390.2263489</ele>
        <time>2008-10-05T09:44:46Z</time>
      </trkpt>
      <trkpt lat="43.87869" lon="7.47944">
        <ele>391.151062</ele>
        <time>2008-10-05T09:44:50Z</time>
      </trkpt>
      <trkpt lat="43.8787" lon="7.47957">
        <ele>392.8191528</ele>
        <time>2008-10-05T09:45:01Z</time>
      </trkpt>
      <trkpt lat="43.87871" lon="7.47964">
        <ele>393.6931152</ele>
        <time>2008-10-05T09:45:05Z</time>
      </trkpt>
      <trkpt lat="43.8787" lon="7.47967">
        <ele>394.2989807</ele>
        <time>2008-10-05T09:45:09Z</time>
      </trkpt>
      <trkpt lat="43.87862" lon="7.47965">
        <ele>396.9161987</ele>
        <time>2008-10-05T09:45:21Z</time>
      </trkpt>
      <trkpt lat="43.8786" lon="7.47982">
        <ele>400.2186584</ele>
        <time>2008-10-05T09:45:32Z</time>
      </trkpt>
      <trkpt lat="43.8786" lon="7.47987">
        <ele>401.0705261</ele>
        <time>2008-10-05T09:45:37Z</time>
      </trkpt>
      <trkpt lat="43.87861" lon="7.47995">
        <ele>402.3009644</ele>
        <time>2008-10-05T09:45:42Z</time>
      </trkpt>
      <trkpt lat="43.87858" lon="7.47998">
        <ele>403.8516235</ele>
        <time>2008-10-05T09:45:49Z</time>
      </trkpt>
      <trkpt lat="43.87852" lon="7.47997">
        <ele>405.5560608</ele>
        <time>2008-10-05T09:45:54Z</time>
      </trkpt>
      <trkpt lat="43.8785" lon="7.47991">
        <ele>405.3827209</ele>
        <time>2008-10-05T09:46:01Z</time>
      </trkpt>
      <trkpt lat="43.8785" lon="7.47987">
        <ele>404.696106</ele>
        <time>2008-10-05T09:46:06Z</time>
      </trkpt>
      <trkpt lat="43.87847" lon="7.47992">
        <ele>406.7488098</ele>
        <time>2008-10-05T09:46:10Z</time>
      </trkpt>
      <trkpt lat="43.87846" lon="7.47994">
        <ele>407.2196655</ele>
        <time>2008-10-05T09:46:13Z</time>
      </trkpt>
      <trkpt lat="43.87847" lon="7.47996">
        <ele>407.3595886</ele>
        <time>2008-10-05T09:46:15Z</time>
      </trkpt>
      <trkpt lat="43.87843" lon="7.48004">
        <ele>410.4215393</ele>
        <time>2008-10-05T09:46:24Z</time>
      </trkpt>
      <trkpt lat="43.87841" lon="7.48008">
        <ele>411.766571</ele>
        <time>2008-10-05T09:46:26Z</time>
      </trkpt>
      <trkpt lat="43.87841" lon="7.48014">
        <ele>413.3523865</ele>
        <time>2008-10-05T09:46:31Z</time>
      </trkpt>
      <trkpt lat="43.87845" lon="7.4803">
        <ele>415.4157104</ele>
        <time>2008-10-05T09:46:40Z</time>
      </trkpt>
      <trkpt lat="43.87845" lon="7.48034">
        <ele>416.2131958</ele>
        <time>2008-10-05T09:46:42Z</time>
      </trkpt>
      <trkpt lat="43.87843" lon="7.48048">
        <ele>420.3280334</ele>
        <time>2008-10-05T09:46:53Z</time>
      </trkpt>
      <trkpt lat="43.87837" lon="7.48055">
        <ele>424.0003662</ele>
        <time>2008-10-05T09:47:02Z</time>
      </trkpt>
      <trkpt lat="43.87837" lon="7.4806">
        <ele>425.2554932</ele>
        <time>2008-10-05T09:47:08Z</time>
      </trkpt>
      <trkpt lat="43.87836" lon="7.48068">
        <ele>427.2696838</ele>
        <time>2008-10-05T09:47:15Z</time>
      </trkpt>
      <trkpt lat="43.87836" lon="7.48071">
        <ele>428.2373962</ele>
        <time>2008-10-05T09:47:17Z</time>
      </trkpt>
      <trkpt lat="43.87835" lon="7.48077">
        <ele>429.7577515</ele>
        <time>2008-10-05T09:47:21Z</time>
      </trkpt>
      <trkpt lat="43.87837" lon="7.48083">
        <ele>430.3725281</ele>
        <time>2008-10-05T09:47:26Z</time>
      </trkpt>
      <trkpt lat="43.87837" lon="7.48085">
        <ele>430.8545227</ele>
        <time>2008-10-05T09:47:29Z</time>
      </trkpt>
      <trkpt lat="43.87843" lon="7.4809">
        <ele>429.3341064</ele>
        <time>2008-10-05T09:47:36Z</time>
      </trkpt>
      <trkpt lat="43.87844" lon="7.48094">
        <ele>429.3982849</ele>
        <time>2008-10-05T09:47:39Z</time>
      </trkpt>
      <trkpt lat="43.87848" lon="7.48109">
        <ele>431.0969238</ele>
        <time>2008-10-05T09:47:49Z</time>
      </trkpt>
      <trkpt lat="43.87852" lon="7.48116">
        <ele>430.9512024</ele>
        <time>2008-10-05T09:47:58Z</time>
      </trkpt>
      <trkpt lat="43.87856" lon="7.48119">
        <ele>430.3560486</ele>
        <time>2008-10-05T09:48:02Z</time>
      </trkpt>
      <trkpt lat="43.87857" lon="7.48123">
        <ele>430.4682922</ele>
        <time>2008-10-05T09:48:06Z</time>
      </trkpt>
      <trkpt lat="43.87862" lon="7.48133">
        <ele>430.6142578</ele>
        <time>2008-10-05T09:48:15Z</time>
      </trkpt>
      <trkpt lat="43.87869" lon="7.48153">
        <ele>432.5190125</ele>
        <time>2008-10-05T09:48:29Z</time>
      </trkpt>
      <trkpt lat="43.8787" lon="7.48157">
        <ele>433.040802</ele>
        <time>2008-10-05T09:48:31Z</time>
      </trkpt>
      <trkpt lat="43.87879" lon="7.4817">
        <ele>433.1141968</ele>
        <time>2008-10-05T09:48:43Z</time>
      </trkpt>
      <trkpt lat="43.87881" lon="7.48178">
        <ele>435.2098694</ele>
        <time>2008-10-05T09:48:48Z</time>
      </trkpt>
      <trkpt lat="43.87882" lon="7.48182">
        <ele>436.1420288</ele>
        <time>2008-10-05T09:48:52Z</time>
      </trkpt>
      <trkpt lat="43.87877" lon="7.48188">
        <ele>439.8184509</ele>
        <time>2008-10-05T09:49:11Z</time>
      </trkpt>
      <trkpt lat="43.87876" lon="7.482">
        <ele>444.2591858</ele>
        <time>2008-10-05T09:49:20Z</time>
      </trkpt>
      <trkpt lat="43.87877" lon="7.48203">
        <ele>444.708374</ele>
        <time>2008-10-05T09:49:22Z</time>
      </trkpt>
      <trkpt lat="43.87878" lon="7.48209">
        <ele>446.7982178</ele>
        <time>2008-10-05T09:49:27Z</time>
      </trkpt>
      <trkpt lat="43.87875" lon="7.48225">
        <ele>453.3710022</ele>
        <time>2008-10-05T09:49:41Z</time>
      </trkpt>
      <trkpt lat="43.87876" lon="7.48234">
        <ele>455.8935852</ele>
        <time>2008-10-05T09:49:47Z</time>
      </trkpt>
      <trkpt lat="43.87873" lon="7.48246">
        <ele>461.1003418</ele>
        <time>2008-10-05T09:49:56Z</time>
      </trkpt>
      <trkpt lat="43.87872" lon="7.4826">
        <ele>466.476593</ele>
        <time>2008-10-05T09:50:08Z</time>
      </trkpt>
      <trkpt lat="43.87872" lon="7.48262">
        <ele>466.8087158</ele>
        <time>2008-10-05T09:50:10Z</time>
      </trkpt>
      <trkpt lat="43.87874" lon="7.48267">
        <ele>467.8024902</ele>
        <time>2008-10-05T09:50:14Z</time>
      </trkpt>
      <trkpt lat="43.87874" lon="7.48279">
        <ele>471.6913147</ele>
        <time>2008-10-05T09:50:24Z</time>
      </trkpt>
      <trkpt lat="43.87875" lon="7.48282">
        <ele>472.1321716</ele>
        <time>2008-10-05T09:50:27Z</time>
      </trkpt>
      <trkpt lat="43.87877" lon="7.48286">
        <ele>472.7854919</ele>
        <time>2008-10-05T09:50:31Z</time>
      </trkpt>
      <trkpt lat="43.87876" lon="7.4829">
        <ele>474.3564758</ele>
        <time>2008-10-05T09:50:35Z</time>
      </trkpt>
      <trkpt lat="43.87877" lon="7.48317">
        <ele>483.2229919</ele>
        <time>2008-10-05T09:51:04Z</time>
      </trkpt>
      <trkpt lat="43.87877" lon="7.48321">
        <ele>484.1303406</ele>
        <time>2008-10-05T09:51:08Z</time>
      </trkpt>
      <trkpt lat="43.87876" lon="7.48324">
        <ele>486.0844421</ele>
        <time>2008-10-05T09:51:11Z</time>
      </trkpt>
      <trkpt lat="43.87873" lon="7.48324">
        <ele>486.9902649</ele>
        <time>2008-10-05T09:51:19Z</time>
      </trkpt>
      <trkpt lat="43.8787" lon="7.48342">
        <ele>494.9320679</ele>
        <time>2008-10-05T09:51:48Z</time>
      </trkpt>
      <trkpt lat="43.87869" lon="7.48351">
        <ele>498.836792</ele>
        <time>2008-10-05T09:51:54Z</time>
      </trkpt>
      <trkpt lat="43.87869" lon="7.48352">
        <ele>499.2516479</ele>
        <time>2008-10-05T09:51:56Z</time>
      </trkpt>
      <trkpt lat="43.87868" lon="7.48358">
        <ele>501.6554565</ele>
        <time>2008-10-05T09:52:02Z</time>
      </trkpt>
      <trkpt lat="43.87865" lon="7.48364">
        <ele>505.1573486</ele>
        <time>2008-10-05T09:52:09Z</time>
      </trkpt>
      <trkpt lat="43.87863" lon="7.48373">
        <ele>509.3253174</ele>
        <time>2008-10-05T09:52:17Z</time>
      </trkpt>
      <trkpt lat="43.87862" lon="7.48377">
        <ele>511.4922485</ele>
        <time>2008-10-05T09:52:22Z</time>
      </trkpt>
      <trkpt lat="43.87857" lon="7.48404">
        <ele>523.1469116</ele>
        <time>2008-10-05T09:52:50Z</time>
      </trkpt>
      <trkpt lat="43.87855" lon="7.48409">
        <ele>526.3500977</ele>
        <time>2008-10-05T09:53:01Z</time>
      </trkpt>
      <trkpt lat="43.87855" lon="7.48432">
        <ele>532.2868042</ele>
        <time>2008-10-05T09:53:35Z</time>
      </trkpt>
      <trkpt lat="43.8786" lon="7.48437">
        <ele>530.7679443</ele>
        <time>2008-10-05T09:53:41Z</time>
      </trkpt>
      <trkpt lat="43.87873" lon="7.48457">
        <ele>529.4262085</ele>
        <time>2008-10-05T09:53:52Z</time>
      </trkpt>
      <trkpt lat="43.87881" lon="7.48468">
        <ele>528.9053345</ele>
        <time>2008-10-05T09:53:58Z</time>
      </trkpt>
      <trkpt lat="43.87884" lon="7.4848">
        <ele>530.510437</ele>
        <time>2008-10-05T09:54:05Z</time>
      </trkpt>
      <trkpt lat="43.87885" lon="7.48483">
        <ele>530.8762817</ele>
        <time>2008-10-05T09:54:07Z</time>
      </trkpt>
      <trkpt lat="43.87886" lon="7.48489">
        <ele>531.9310913</ele>
        <time>2008-10-05T09:54:11Z</time>
      </trkpt>
      <trkpt lat="43.87891" lon="7.485">
        <ele>533.2245483</ele>
        <time>2008-10-05T09:54:22Z</time>
      </trkpt>
      <trkpt lat="43.87876" lon="7.4852">
        <ele>544.8303223</ele>
        <time>2008-10-05T09:54:59Z</time>
      </trkpt>
      <trkpt lat="43.87871" lon="7.48523">
        <ele>547.6257935</ele>
        <time>2008-10-05T09:55:06Z</time>
      </trkpt>
      <trkpt lat="43.87865" lon="7.4854">
        <ele>554.3446655</ele>
        <time>2008-10-05T09:55:38Z</time>
      </trkpt>
      <trkpt lat="43.87861" lon="7.48542">
        <ele>556.5476685</ele>
        <time>2008-10-05T09:55:43Z</time>
      </trkpt>
      <trkpt lat="43.87861" lon="7.48544">
        <ele>557.3161011</ele>
        <time>2008-10-05T09:55:46Z</time>
      </trkpt>
      <trkpt lat="43.87863" lon="7.48545">
        <ele>556.9512939</ele>
        <time>2008-10-05T09:55:48Z</time>
      </trkpt>
      <trkpt lat="43.87859" lon="7.48551">
        <ele>559.7858276</ele>
        <time>2008-10-05T09:55:53Z</time>
      </trkpt>
      <trkpt lat="43.87859" lon="7.48552">
        <ele>560.194519</ele>
        <time>2008-10-05T09:55:57Z</time>
      </trkpt>
      <trkpt lat="43.87868" lon="7.4856">
        <ele>559.1079102</ele>
        <time>2008-10-05T09:56:08Z</time>
      </trkpt>
      <trkpt lat="43.87875" lon="7.48564">
        <ele>558.0621948</ele>
        <time>2008-10-05T09:56:16Z</time>
      </trkpt>
      <trkpt lat="43.87879" lon="7.48568">
        <ele>557.8612061</ele>
        <time>2008-10-05T09:56:21Z</time>
      </trkpt>
      <trkpt lat="43.87884" lon="7.48573">
        <ele>557.598999</ele>
        <time>2008-10-05T09:56:29Z</time>
      </trkpt>
      <trkpt lat="43.87883" lon="7.48577">
        <ele>559.1318359</ele>
        <time>2008-10-05T09:56:37Z</time>
      </trkpt>
      <trkpt lat="43.87879" lon="7.4858">
        <ele>561.1115723</ele>
        <time>2008-10-05T09:56:40Z</time>
      </trkpt>
      <trkpt lat="43.87877" lon="7.48586">
        <ele>563.805603</ele>
        <time>2008-10-05T09:56:45Z</time>
      </trkpt>
      <trkpt lat="43.87881" lon="7.48593">
        <ele>565.4744263</ele>
        <time>2008-10-05T09:56:54Z</time>
      </trkpt>
      <trkpt lat="43.87892" lon="7.48602">
        <ele>566.1046753</ele>
        <time>2008-10-05T09:57:08Z</time>
      </trkpt>
      <trkpt lat="43.87894" lon="7.48614">
        <ele>570.2853394</ele>
        <time>2008-10-05T09:57:17Z</time>
      </trkpt>
      <trkpt lat="43.87896" lon="7.4862">
        <ele>572.5737305</ele>
        <time>2008-10-05T09:57:23Z</time>
      </trkpt>
      <trkpt lat="43.87909" lon="7.48638">
        <ele>577.4492798</ele>
        <time>2008-10-05T09:57:57Z</time>
      </trkpt>
      <trkpt lat="43.87909" lon="7.48653">
        <ele>584.2047119</ele>
        <time>2008-10-05T09:58:25Z</time>
      </trkpt>
      <trkpt lat="43.87913" lon="7.48654">
        <ele>583.8773193</ele>
        <time>2008-10-05T09:58:30Z</time>
      </trkpt>
      <trkpt lat="43.87913" lon="7.48667">
        <ele>589.8862915</ele>
        <time>2008-10-05T09:58:50Z</time>
      </trkpt>
      <trkpt lat="43.87915" lon="7.4867">
        <ele>590.8855591</ele>
        <time>2008-10-05T09:58:57Z</time>
      </trkpt>
      <trkpt lat="43.87916" lon="7.4867">
        <ele>590.6643677</ele>
        <time>2008-10-05T09:58:59Z</time>
      </trkpt>
      <trkpt lat="43.87916" lon="7.48671">
        <ele>591.1899414</ele>
        <time>2008-10-05T09:59:01Z</time>
      </trkpt>
      <trkpt lat="43.87916" lon="7.48687">
        <ele>599.0385742</ele>
        <time>2008-10-05T09:59:39Z</time>
      </trkpt>
      <trkpt lat="43.87909" lon="7.48703">
        <ele>607.4753418</ele>
        <time>2008-10-05T09:59:57Z</time>
      </trkpt>
      <trkpt lat="43.87908" lon="7.48709">
        <ele>610.1720581</ele>
        <time>2008-10-05T10:00:02Z</time>
      </trkpt>
      <trkpt lat="43.87905" lon="7.48715">
        <ele>613.3986206</ele>
        <time>2008-10-05T10:00:10Z</time>
      </trkpt>
      <trkpt lat="43.879" lon="7.48739">
        <ele>624.7834473</ele>
        <time>2008-10-05T10:00:38Z</time>
      </trkpt>
      <trkpt lat="43.87897" lon="7.4875">
        <ele>629.90448</ele>
        <time>2008-10-05T10:00:50Z</time>
      </trkpt>
      <trkpt lat="43.87895" lon="7.48754">
        <ele>632.0695801</ele>
        <time>2008-10-05T10:00:54Z</time>
      </trkpt>
      <trkpt lat="43.87893" lon="7.48759">
        <ele>634.4411011</ele>
        <time>2008-10-05T10:00:59Z</time>
      </trkpt>
      <trkpt lat="43.87891" lon="7.48763">
        <ele>636.0863647</ele>
        <time>2008-10-05T10:01:02Z</time>
      </trkpt>
      <trkpt lat="43.87888" lon="7.48766">
        <ele>637.635437</ele>
        <time>2008-10-05T10:01:06Z</time>
      </trkpt>
      <trkpt lat="43.87885" lon="7.48775">
        <ele>641.7602539</ele>
        <time>2008-10-05T10:01:12Z</time>
      </trkpt>
      <trkpt lat="43.87884" lon="7.48779">
        <ele>643.6520996</ele>
        <time>2008-10-05T10:01:15Z</time>
      </trkpt>
      <trkpt lat="43.87878" lon="7.48783">
        <ele>645.5078125</ele>
        <time>2008-10-05T10:01:20Z</time>
      </trkpt>
      <trkpt lat="43.87874" lon="7.48787">
        <ele>647.5179443</ele>
        <time>2008-10-05T10:01:24Z</time>
      </trkpt>
      <trkpt lat="43.87872" lon="7.48792">
        <ele>649.7529297</ele>
        <time>2008-10-05T10:01:29Z</time>
      </trkpt>
      <trkpt lat="43.87867" lon="7.48798">
        <ele>652.1583252</ele>
        <time>2008-10-05T10:01:34Z</time>
      </trkpt>
      <trkpt lat="43.8785" lon="7.48797">
        <ele>651.4135742</ele>
        <time>2008-10-05T10:02:01Z</time>
      </trkpt>
      <trkpt lat="43.87851" lon="7.48799">
        <ele>652.2008667</ele>
        <time>2008-10-05T10:02:03Z</time>
      </trkpt>
      <trkpt lat="43.87851" lon="7.48801">
        <ele>652.9022217</ele>
        <time>2008-10-05T10:02:05Z</time>
      </trkpt>
      <trkpt lat="43.87851" lon="7.48804">
        <ele>654.2509155</ele>
        <time>2008-10-05T10:02:08Z</time>
      </trkpt>
      <trkpt lat="43.8785" lon="7.48806">
        <ele>655.1193848</ele>
        <time>2008-10-05T10:02:11Z</time>
      </trkpt>
      <trkpt lat="43.87844" lon="7.48804">
        <ele>654.1385498</ele>
        <time>2008-10-05T10:02:19Z</time>
      </trkpt>
      <trkpt lat="43.87833" lon="7.48801">
        <ele>652.7662354</ele>
        <time>2008-10-05T10:02:29Z</time>
      </trkpt>
      <trkpt lat="43.87834" lon="7.48803">
        <ele>653.1980591</ele>
        <time>2008-10-05T10:02:36Z</time>
      </trkpt>
      <trkpt lat="43.87837" lon="7.48809">
        <ele>655.805542</ele>
        <time>2008-10-05T10:02:42Z</time>
      </trkpt>
      <trkpt lat="43.87838" lon="7.48817">
        <ele>658.7914429</ele>
        <time>2008-10-05T10:02:49Z</time>
      </trkpt>
      <trkpt lat="43.87845" lon="7.4883">
        <ele>664.2966919</ele>
        <time>2008-10-05T10:03:05Z</time>
      </trkpt>
      <trkpt lat="43.87844" lon="7.48842">
        <ele>669.1264038</ele>
        <time>2008-10-05T10:03:18Z</time>
      </trkpt>
      <trkpt lat="43.87838" lon="7.48849">
        <ele>671.2977905</ele>
        <time>2008-10-05T10:03:42Z</time>
      </trkpt>
      <trkpt lat="43.87842" lon="7.48859">
        <ele>675.2587891</ele>
        <time>2008-10-05T10:03:50Z</time>
      </trkpt>
      <trkpt lat="43.87844" lon="7.48873">
        <ele>680.3080444</ele>
        <time>2008-10-05T10:04:00Z</time>
      </trkpt>
      <trkpt lat="43.87845" lon="7.48881">
        <ele>683.4137573</ele>
        <time>2008-10-05T10:04:06Z</time>
      </trkpt>
      <trkpt lat="43.87847" lon="7.4889">
        <ele>686.8446045</ele>
        <time>2008-10-05T10:04:15Z</time>
      </trkpt>
      <trkpt lat="43.87848" lon="7.48894">
        <ele>688.5754395</ele>
        <time>2008-10-05T10:04:19Z</time>
      </trkpt>
      <trkpt lat="43.87854" lon="7.48907">
        <ele>693.6883545</ele>
        <time>2008-10-05T10:04:35Z</time>
      </trkpt>
      <trkpt lat="43.87856" lon="7.48913">
        <ele>696.0967407</ele>
        <time>2008-10-05T10:04:38Z</time>
      </trkpt>
      <trkpt lat="43.87858" lon="7.48923">
        <ele>698.8566284</ele>
        <time>2008-10-05T10:04:44Z</time>
      </trkpt>
      <trkpt lat="43.87863" lon="7.48933">
        <ele>701.4265137</ele>
        <time>2008-10-05T10:04:52Z</time>
      </trkpt>
      <trkpt lat="43.87864" lon="7.48939">
        <ele>702.8325806</ele>
        <time>2008-10-05T10:04:56Z</time>
      </trkpt>
      <trkpt lat="43.87865" lon="7.48948">
        <ele>705.0073853</ele>
        <time>2008-10-05T10:05:02Z</time>
      </trkpt>
      <trkpt lat="43.87867" lon="7.48953">
        <ele>706.0887451</ele>
        <time>2008-10-05T10:05:05Z</time>
      </trkpt>
      <trkpt lat="43.87869" lon="7.48964">
        <ele>708.5563965</ele>
        <time>2008-10-05T10:05:17Z</time>
      </trkpt>
      <trkpt lat="43.87866" lon="7.48972">
        <ele>710.3312378</ele>
        <time>2008-10-05T10:05:23Z</time>
      </trkpt>
      <trkpt lat="43.87867" lon="7.4898">
        <ele>712.0435791</ele>
        <time>2008-10-05T10:05:28Z</time>
      </trkpt>
      <trkpt lat="43.87868" lon="7.4899">
        <ele>714.302124</ele>
        <time>2008-10-05T10:05:35Z</time>
      </trkpt>
      <trkpt lat="43.87871" lon="7.48997">
        <ele>715.9762573</ele>
        <time>2008-10-05T10:05:40Z</time>
      </trkpt>
      <trkpt lat="43.87873" lon="7.49015">
        <ele>717.927002</ele>
        <time>2008-10-05T10:06:07Z</time>
      </trkpt>
      <trkpt lat="43.87878" lon="7.49022">
        <ele>718.1992188</ele>
        <time>2008-10-05T10:06:18Z</time>
      </trkpt>
      <trkpt lat="43.87876" lon="7.49035">
        <ele>719.559021</ele>
        <time>2008-10-05T10:06:25Z</time>
      </trkpt>
      <trkpt lat="43.8786" lon="7.4905">
        <ele>723.1960449</ele>
        <time>2008-10-05T10:06:48Z</time>
      </trkpt>
      <trkpt lat="43.8786" lon="7.49056">
        <ele>723.8886719</ele>
        <time>2008-10-05T10:06:52Z</time>
      </trkpt>
      <trkpt lat="43.87845" lon="7.49073">
        <ele>729.3847656</ele>
        <time>2008-10-05T10:07:08Z</time>
      </trkpt>
      <trkpt lat="43.87841" lon="7.49076">
        <ele>730.9441528</ele>
        <time>2008-10-05T10:07:12Z</time>
      </trkpt>
      <trkpt lat="43.87826" lon="7.49093">
        <ele>736.8535767</ele>
        <time>2008-10-05T10:07:30Z</time>
      </trkpt>
      <trkpt lat="43.87819" lon="7.49107">
        <ele>738.7634277</ele>
        <time>2008-10-05T10:07:38Z</time>
      </trkpt>
      <trkpt lat="43.87813" lon="7.49113">
        <ele>741.2769165</ele>
        <time>2008-10-05T10:07:42Z</time>
      </trkpt>
      <trkpt lat="43.87808" lon="7.49118">
        <ele>743.1589355</ele>
        <time>2008-10-05T10:07:45Z</time>
      </trkpt>
      <trkpt lat="43.87806" lon="7.49118">
        <ele>744.3727417</ele>
        <time>2008-10-05T10:07:47Z</time>
      </trkpt>
      <trkpt lat="43.87799" lon="7.49122">
        <ele>748.0074463</ele>
        <time>2008-10-05T10:07:53Z</time>
      </trkpt>
      <trkpt lat="43.87793" lon="7.49125">
        <ele>750.4896851</ele>
        <time>2008-10-05T10:07:59Z</time>
      </trkpt>
      <trkpt lat="43.8779" lon="7.49128">
        <ele>752.0571899</ele>
        <time>2008-10-05T10:08:07Z</time>
      </trkpt>
      <trkpt lat="43.87788" lon="7.49128">
        <ele>753.3496094</ele>
        <time>2008-10-05T10:08:09Z</time>
      </trkpt>
      <trkpt lat="43.87783" lon="7.49129">
        <ele>755.8118896</ele>
        <time>2008-10-05T10:08:19Z</time>
      </trkpt>
      <trkpt lat="43.87776" lon="7.49139">
        <ele>758.201355</ele>
        <time>2008-10-05T10:08:36Z</time>
      </trkpt>
      <trkpt lat="43.87772" lon="7.49145">
        <ele>759.1221313</ele>
        <time>2008-10-05T10:08:42Z</time>
      </trkpt>
      <trkpt lat="43.87769" lon="7.49149">
        <ele>760.5727539</ele>
        <time>2008-10-05T10:08:48Z</time>
      </trkpt>
      <trkpt lat="43.87768" lon="7.4915">
        <ele>760.8984375</ele>
        <time>2008-10-05T10:08:52Z</time>
      </trkpt>
      <trkpt lat="43.8776" lon="7.49151">
        <ele>765.12854</ele>
        <time>2008-10-05T10:09:00Z</time>
      </trkpt>
      <trkpt lat="43.87758" lon="7.49151">
        <ele>766.336853</ele>
        <time>2008-10-05T10:09:02Z</time>
      </trkpt>
      <trkpt lat="43.87756" lon="7.49152">
        <ele>767.2426758</ele>
        <time>2008-10-05T10:09:04Z</time>
      </trkpt>
      <trkpt lat="43.87745" lon="7.4916">
        <ele>772.2490845</ele>
        <time>2008-10-05T10:09:18Z</time>
      </trkpt>
      <trkpt lat="43.87743" lon="7.49162">
        <ele>772.6983032</ele>
        <time>2008-10-05T10:09:21Z</time>
      </trkpt>
      <trkpt lat="43.87736" lon="7.49169">
        <ele>775.7501831</ele>
        <time>2008-10-05T10:09:28Z</time>
      </trkpt>
      <trkpt lat="43.87725" lon="7.49181">
        <ele>778.2888184</ele>
        <time>2008-10-05T10:09:42Z</time>
      </trkpt>
      <trkpt lat="43.87724" lon="7.49184">
        <ele>778.4921875</ele>
        <time>2008-10-05T10:09:45Z</time>
      </trkpt>
      <trkpt lat="43.87719" lon="7.49187">
        <ele>780.8512573</ele>
        <time>2008-10-05T10:09:51Z</time>
      </trkpt>
      <trkpt lat="43.87716" lon="7.49192">
        <ele>781.2113647</ele>
        <time>2008-10-05T10:09:56Z</time>
      </trkpt>
      <trkpt lat="43.87698" lon="7.49206">
        <ele>788.1925659</ele>
        <time>2008-10-05T10:10:19Z</time>
      </trkpt>
      <trkpt lat="43.87691" lon="7.49213">
        <ele>790.3130493</ele>
        <time>2008-10-05T10:10:26Z</time>
      </trkpt>
      <trkpt lat="43.87688" lon="7.49216">
        <ele>791.4073486</ele>
        <time>2008-10-05T10:10:31Z</time>
      </trkpt>
      <trkpt lat="43.87677" lon="7.49223">
        <ele>796.144104</ele>
        <time>2008-10-05T10:10:47Z</time>
      </trkpt>
      <trkpt lat="43.87672" lon="7.49228">
        <ele>798.265686</ele>
        <time>2008-10-05T10:11:01Z</time>
      </trkpt>
      <trkpt lat="43.87667" lon="7.49236">
        <ele>799.4186401</ele>
        <time>2008-10-05T10:11:13Z</time>
      </trkpt>
      <trkpt lat="43.87651" lon="7.49251">
        <ele>803.0308228</ele>
        <time>2008-10-05T10:11:39Z</time>
      </trkpt>
      <trkpt lat="43.87649" lon="7.49263">
        <ele>802.7431641</ele>
        <time>2008-10-05T10:11:52Z</time>
      </trkpt>
      <trkpt lat="43.87646" lon="7.49268">
        <ele>803.1353149</ele>
        <time>2008-10-05T10:11:57Z</time>
      </trkpt>
      <trkpt lat="43.87636" lon="7.49284">
        <ele>806.6266479</ele>
        <time>2008-10-05T10:12:10Z</time>
      </trkpt>
      <trkpt lat="43.87631" lon="7.49298">
        <ele>807.5581055</ele>
        <time>2008-10-05T10:12:19Z</time>
      </trkpt>
      <trkpt lat="43.87626" lon="7.49305">
        <ele>809.5166626</ele>
        <time>2008-10-05T10:12:26Z</time>
      </trkpt>
      <trkpt lat="43.87625" lon="7.49313">
        <ele>809.6314087</ele>
        <time>2008-10-05T10:12:33Z</time>
      </trkpt>
      <trkpt lat="43.87621" lon="7.49318">
        <ele>811.0203247</ele>
        <time>2008-10-05T10:12:39Z</time>
      </trkpt>
      <trkpt lat="43.87618" lon="7.49324">
        <ele>812.6982422</ele>
        <time>2008-10-05T10:12:45Z</time>
      </trkpt>
      <trkpt lat="43.87616" lon="7.49334">
        <ele>812.4755249</ele>
        <time>2008-10-05T10:12:52Z</time>
      </trkpt>
      <trkpt lat="43.87613" lon="7.49345">
        <ele>813.1268921</ele>
        <time>2008-10-05T10:13:04Z</time>
      </trkpt>
      <trkpt lat="43.87613" lon="7.49364">
        <ele>809.9996948</ele>
        <time>2008-10-05T10:13:18Z</time>
      </trkpt>
      <trkpt lat="43.87612" lon="7.49366">
        <ele>810.2880249</ele>
        <time>2008-10-05T10:13:23Z</time>
      </trkpt>
      <trkpt lat="43.87601" lon="7.49371">
        <ele>816.06073</ele>
        <time>2008-10-05T10:13:40Z</time>
      </trkpt>
      <trkpt lat="43.87583" lon="7.49371">
        <ele>827.1383057</ele>
        <time>2008-10-05T10:13:58Z</time>
      </trkpt>
      <trkpt lat="43.8758" lon="7.49362">
        <ele>829.5892334</ele>
        <time>2008-10-05T10:14:03Z</time>
      </trkpt>
      <trkpt lat="43.87577" lon="7.49359">
        <ele>831.3334961</ele>
        <time>2008-10-05T10:14:06Z</time>
      </trkpt>
      <trkpt lat="43.87574" lon="7.49357">
        <ele>832.8270874</ele>
        <time>2008-10-05T10:14:08Z</time>
      </trkpt>
      <trkpt lat="43.87573" lon="7.49353">
        <ele>833.9577637</ele>
        <time>2008-10-05T10:14:11Z</time>
      </trkpt>
      <trkpt lat="43.87572" lon="7.49349">
        <ele>834.9225464</ele>
        <time>2008-10-05T10:14:15Z</time>
      </trkpt>
      <trkpt lat="43.87562" lon="7.4935">
        <ele>838.9927368</ele>
        <time>2008-10-05T10:14:28Z</time>
      </trkpt>
      <trkpt lat="43.87561" lon="7.49342">
        <ele>840.7623291</ele>
        <time>2008-10-05T10:14:34Z</time>
      </trkpt>
      <trkpt lat="43.87556" lon="7.49346">
        <ele>842.0058594</ele>
        <time>2008-10-05T10:14:46Z</time>
      </trkpt>
      <trkpt lat="43.87548" lon="7.49351">
        <ele>845.1735229</ele>
        <time>2008-10-05T10:14:58Z</time>
      </trkpt>
      <trkpt lat="43.87544" lon="7.49348">
        <ele>847.0908203</ele>
        <time>2008-10-05T10:15:01Z</time>
      </trkpt>
      <trkpt lat="43.87543" lon="7.49343">
        <ele>848.1693726</ele>
        <time>2008-10-05T10:15:04Z</time>
      </trkpt>
      <trkpt lat="43.87542" lon="7.49338">
        <ele>849.6704712</ele>
        <time>2008-10-05T10:15:08Z</time>
      </trkpt>
      <trkpt lat="43.87542" lon="7.49335">
        <ele>849.984375</ele>
        <time>2008-10-05T10:15:11Z</time>
      </trkpt>
      <trkpt lat="43.87545" lon="7.4933">
        <ele>848.2791748</ele>
        <time>2008-10-05T10:15:16Z</time>
      </trkpt>
      <trkpt lat="43.87546" lon="7.49324">
        <ele>846.524292</ele>
        <time>2008-10-05T10:15:21Z</time>
      </trkpt>
      <trkpt lat="43.87538" lon="7.49314">
        <ele>846.6501465</ele>
        <time>2008-10-05T10:15:57Z</time>
      </trkpt>
      <trkpt lat="43.87536" lon="7.49314">
        <ele>847.3622437</ele>
        <time>2008-10-05T10:15:59Z</time>
      </trkpt>
      <trkpt lat="43.87524" lon="7.49323">
        <ele>854.5692749</ele>
        <time>2008-10-05T10:16:14Z</time>
      </trkpt>
      <trkpt lat="43.8752" lon="7.49316">
        <ele>853.0412598</ele>
        <time>2008-10-05T10:16:23Z</time>
      </trkpt>
      <trkpt lat="43.87521" lon="7.49311">
        <ele>850.7520752</ele>
        <time>2008-10-05T10:16:28Z</time>
      </trkpt>
      <trkpt lat="43.87519" lon="7.49306">
        <ele>849.1067505</ele>
        <time>2008-10-05T10:16:34Z</time>
      </trkpt>
      <trkpt lat="43.87518" lon="7.49305">
        <ele>848.8460083</ele>
        <time>2008-10-05T10:16:53Z</time>
      </trkpt>
      <trkpt lat="43.87513" lon="7.49309">
        <ele>851.977356</ele>
        <time>2008-10-05T10:17:02Z</time>
      </trkpt>
      <trkpt lat="43.87506" lon="7.49307">
        <ele>852.7718506</ele>
        <time>2008-10-05T10:17:28Z</time>
      </trkpt>
      <trkpt lat="43.87492" lon="7.49314">
        <ele>860.7234497</ele>
        <time>2008-10-05T10:17:50Z</time>
      </trkpt>
      <trkpt lat="43.87487" lon="7.49315">
        <ele>863.2477417</ele>
        <time>2008-10-05T10:17:56Z</time>
      </trkpt>
      <trkpt lat="43.87486" lon="7.49315">
        <ele>863.4828491</ele>
        <time>2008-10-05T10:17:58Z</time>
      </trkpt>
      <trkpt lat="43.87481" lon="7.49318">
        <ele>867.1452637</ele>
        <time>2008-10-05T10:18:04Z</time>
      </trkpt>
      <trkpt lat="43.87468" lon="7.49322">
        <ele>873.8446655</ele>
        <time>2008-10-05T10:18:22Z</time>
      </trkpt>
      <trkpt lat="43.87456" lon="7.4931">
        <ele>870.253479</ele>
        <time>2008-10-05T10:18:53Z</time>
      </trkpt>
      <trkpt lat="43.87439" lon="7.49304">
        <ele>871.0551147</ele>
        <time>2008-10-05T10:19:25Z</time>
      </trkpt>
      <trkpt lat="43.8743" lon="7.49305">
        <ele>874.6664429</ele>
        <time>2008-10-05T10:19:37Z</time>
      </trkpt>
      <trkpt lat="43.87428" lon="7.49304">
        <ele>874.4327393</ele>
        <time>2008-10-05T10:19:41Z</time>
      </trkpt>
      <trkpt lat="43.87426" lon="7.493">
        <ele>871.9127197</ele>
        <time>2008-10-05T10:19:44Z</time>
      </trkpt>
      <trkpt lat="43.87426" lon="7.49294">
        <ele>867.5133667</ele>
        <time>2008-10-05T10:19:52Z</time>
      </trkpt>
      <trkpt lat="43.87428" lon="7.49292">
        <ele>865.6688232</ele>
        <time>2008-10-05T10:19:54Z</time>
      </trkpt>
      <trkpt lat="43.87421" lon="7.49295">
        <ele>869.5892944</ele>
        <time>2008-10-05T10:20:10Z</time>
      </trkpt>
      <trkpt lat="43.87404" lon="7.493">
        <ele>884.5281982</ele>
        <time>2008-10-05T10:20:38Z</time>
      </trkpt>
      <trkpt lat="43.874" lon="7.49297">
        <ele>884.9221802</ele>
        <time>2008-10-05T10:20:42Z</time>
      </trkpt>
      <trkpt lat="43.87398" lon="7.49296">
        <ele>886.1826172</ele>
        <time>2008-10-05T10:20:46Z</time>
      </trkpt>
      <trkpt lat="43.87393" lon="7.49296">
        <ele>889.6460571</ele>
        <time>2008-10-05T10:20:50Z</time>
      </trkpt>
      <trkpt lat="43.87392" lon="7.49298">
        <ele>891.4539185</ele>
        <time>2008-10-05T10:20:53Z</time>
      </trkpt>
      <trkpt lat="43.87387" lon="7.49303">
        <ele>898.1417847</ele>
        <time>2008-10-05T10:21:04Z</time>
      </trkpt>
      <trkpt lat="43.87377" lon="7.49299">
        <ele>903.9480591</ele>
        <time>2008-10-05T10:21:29Z</time>
      </trkpt>
      <trkpt lat="43.87375" lon="7.49298">
        <ele>904.8300781</ele>
        <time>2008-10-05T10:21:31Z</time>
      </trkpt>
      <trkpt lat="43.87374" lon="7.49297">
        <ele>904.4713745</ele>
        <time>2008-10-05T10:21:33Z</time>
      </trkpt>
      <trkpt lat="43.8737" lon="7.49275">
        <ele>894.9115601</ele>
        <time>2008-10-05T10:22:20Z</time>
      </trkpt>
      <trkpt lat="43.87357" lon="7.4928">
        <ele>909.1096191</ele>
        <time>2008-10-05T10:22:50Z</time>
      </trkpt>
      <trkpt lat="43.87338" lon="7.49277">
        <ele>922.87677</ele>
        <time>2008-10-05T10:23:33Z</time>
      </trkpt>
      <trkpt lat="43.87323" lon="7.4928">
        <ele>931.647644</ele>
        <time>2008-10-05T10:24:13Z</time>
      </trkpt>
      <trkpt lat="43.87308" lon="7.49284">
        <ele>939.2508545</ele>
        <time>2008-10-05T10:24:50Z</time>
      </trkpt>
      <trkpt lat="43.87294" lon="7.49283">
        <ele>943.6369019</ele>
        <time>2008-10-05T10:25:26Z</time>
      </trkpt>
      <trkpt lat="43.87279" lon="7.49279">
        <ele>946.7840576</ele>
        <time>2008-10-05T10:25:59Z</time>
      </trkpt>
      <trkpt lat="43.87264" lon="7.49274">
        <ele>949.0448608</ele>
        <time>2008-10-05T10:26:38Z</time>
      </trkpt>
      <trkpt lat="43.87255" lon="7.49274">
        <ele>952.3409424</ele>
        <time>2008-10-05T10:26:50Z</time>
      </trkpt>
      <trkpt lat="43.87248" lon="7.49278">
        <ele>957.027832</ele>
        <time>2008-10-05T10:26:59Z</time>
      </trkpt>
      <trkpt lat="43.87243" lon="7.49278">
        <ele>957.6130371</ele>
        <time>2008-10-05T10:27:20Z</time>
      </trkpt>
      <trkpt lat="43.8724" lon="7.49279">
        <ele>958.9364624</ele>
        <time>2008-10-05T10:27:24Z</time>
      </trkpt>
      <trkpt lat="43.8723" lon="7.49279">
        <ele>959.8093872</ele>
        <time>2008-10-05T10:27:44Z</time>
      </trkpt>
      <trkpt lat="43.8722" lon="7.49289">
        <ele>968.0540161</ele>
        <time>2008-10-05T10:28:20Z</time>
      </trkpt>
      <trkpt lat="43.87216" lon="7.49292">
        <ele>970.4614258</ele>
        <time>2008-10-05T10:28:27Z</time>
      </trkpt>
      <trkpt lat="43.87213" lon="7.49297">
        <ele>974.7053223</ele>
        <time>2008-10-05T10:28:33Z</time>
      </trkpt>
      <trkpt lat="43.87212" lon="7.49304">
        <ele>979.1403809</ele>
        <time>2008-10-05T10:28:38Z</time>
      </trkpt>
      <trkpt lat="43.87197" lon="7.49312">
        <ele>987.3363037</ele>
        <time>2008-10-05T10:29:08Z</time>
      </trkpt>
      <trkpt lat="43.87187" lon="7.49333">
        <ele>1004.4317017</ele>
        <time>2008-10-05T10:29:41Z</time>
      </trkpt>
      <trkpt lat="43.87176" lon="7.49353">
        <ele>1011.6783447</ele>
        <time>2008-10-05T10:30:06Z</time>
      </trkpt>
      <trkpt lat="43.87171" lon="7.49354">
        <ele>1013.1297607</ele>
        <time>2008-10-05T10:30:12Z</time>
      </trkpt>
      <trkpt lat="43.8716" lon="7.49373">
        <ele>1017.5472412</ele>
        <time>2008-10-05T10:30:48Z</time>
      </trkpt>
      <trkpt lat="43.87156" lon="7.49374">
        <ele>1016.6474609</ele>
        <time>2008-10-05T10:30:53Z</time>
      </trkpt>
      <trkpt lat="43.87151" lon="7.49377">
        <ele>1015.9468994</ele>
        <time>2008-10-05T10:30:59Z</time>
      </trkpt>
      <trkpt lat="43.87132" lon="7.49372">
        <ele>1009.6082764</ele>
        <time>2008-10-05T10:32:04Z</time>
      </trkpt>
      <trkpt lat="43.87132" lon="7.49383">
        <ele>1012.3353882</ele>
        <time>2008-10-05T10:33:24Z</time>
      </trkpt>
      <trkpt lat="43.87128" lon="7.49399">
        <ele>1015.5734253</ele>
        <time>2008-10-05T10:33:36Z</time>
      </trkpt>
      <trkpt lat="43.87125" lon="7.49403">
        <ele>1015.6824341</ele>
        <time>2008-10-05T10:33:41Z</time>
      </trkpt>
      <trkpt lat="43.87117" lon="7.49416">
        <ele>1016.9730835</ele>
        <time>2008-10-05T10:33:56Z</time>
      </trkpt>
      <trkpt lat="43.87117" lon="7.49421">
        <ele>1018.2209473</ele>
        <time>2008-10-05T10:34:00Z</time>
      </trkpt>
      <trkpt lat="43.87114" lon="7.49441">
        <ele>1021.8928223</ele>
        <time>2008-10-05T10:34:32Z</time>
      </trkpt>
      <trkpt lat="43.87117" lon="7.49447">
        <ele>1023.9750977</ele>
        <time>2008-10-05T10:34:38Z</time>
      </trkpt>
      <trkpt lat="43.87116" lon="7.49452">
        <ele>1024.7875977</ele>
        <time>2008-10-05T10:34:42Z</time>
      </trkpt>
      <trkpt lat="43.87122" lon="7.49466">
        <ele>1029.083252</ele>
        <time>2008-10-05T10:34:54Z</time>
      </trkpt>
      <trkpt lat="43.87121" lon="7.49473">
        <ele>1030.3040771</ele>
        <time>2008-10-05T10:34:59Z</time>
      </trkpt>
      <trkpt lat="43.87108" lon="7.49491">
        <ele>1032.5062256</ele>
        <time>2008-10-05T10:35:10Z</time>
      </trkpt>
      <trkpt lat="43.87103" lon="7.49495">
        <ele>1032.7720947</ele>
        <time>2008-10-05T10:35:14Z</time>
      </trkpt>
      <trkpt lat="43.87097" lon="7.49504">
        <ele>1034.3104248</ele>
        <time>2008-10-05T10:35:22Z</time>
      </trkpt>
      <trkpt lat="43.87093" lon="7.49516">
        <ele>1036.9599609</ele>
        <time>2008-10-05T10:35:29Z</time>
      </trkpt>
      <trkpt lat="43.87091" lon="7.49543">
        <ele>1043.8560791</ele>
        <time>2008-10-05T10:35:49Z</time>
      </trkpt>
      <trkpt lat="43.87086" lon="7.49555">
        <ele>1048.0621338</ele>
        <time>2008-10-05T10:35:59Z</time>
      </trkpt>
      <trkpt lat="43.87084" lon="7.4958">
        <ele>1055.7253418</ele>
        <time>2008-10-05T10:36:27Z</time>
      </trkpt>
      <trkpt lat="43.87085" lon="7.49582">
        <ele>1056.0095215</ele>
        <time>2008-10-05T10:36:29Z</time>
      </trkpt>
      <trkpt lat="43.87088" lon="7.4959">
        <ele>1056.6010742</ele>
        <time>2008-10-05T10:36:35Z</time>
      </trkpt>
      <trkpt lat="43.87089" lon="7.49594">
        <ele>1056.9401855</ele>
        <time>2008-10-05T10:36:38Z</time>
      </trkpt>
      <trkpt lat="43.87088" lon="7.49598">
        <ele>1057.8208008</ele>
        <time>2008-10-05T10:36:42Z</time>
      </trkpt>
      <trkpt lat="43.87087" lon="7.49602">
        <ele>1059.152832</ele>
        <time>2008-10-05T10:36:45Z</time>
      </trkpt>
      <trkpt lat="43.87082" lon="7.49607">
        <ele>1060.9730225</ele>
        <time>2008-10-05T10:36:50Z</time>
      </trkpt>
      <trkpt lat="43.87067" lon="7.49625">
        <ele>1058.7739258</ele>
        <time>2008-10-05T10:37:06Z</time>
      </trkpt>
      <trkpt lat="43.87072" lon="7.49631">
        <ele>1061.7617188</ele>
        <time>2008-10-05T10:37:12Z</time>
      </trkpt>
      <trkpt lat="43.87074" lon="7.49639">
        <ele>1064.1346436</ele>
        <time>2008-10-05T10:37:16Z</time>
      </trkpt>
      <trkpt lat="43.87075" lon="7.49649">
        <ele>1066.6962891</ele>
        <time>2008-10-05T10:37:20Z</time>
      </trkpt>
      <trkpt lat="43.8707" lon="7.49669">
        <ele>1069.1295166</ele>
        <time>2008-10-05T10:37:31Z</time>
      </trkpt>
      <trkpt lat="43.87072" lon="7.49685">
        <ele>1070.8310547</ele>
        <time>2008-10-05T10:37:38Z</time>
      </trkpt>
      <trkpt lat="43.87065" lon="7.49694">
        <ele>1069.947998</ele>
        <time>2008-10-05T10:37:44Z</time>
      </trkpt>
      <trkpt lat="43.87057" lon="7.49704">
        <ele>1069.3370361</ele>
        <time>2008-10-05T10:37:53Z</time>
      </trkpt>
      <trkpt lat="43.87057" lon="7.49707">
        <ele>1069.7602539</ele>
        <time>2008-10-05T10:37:55Z</time>
      </trkpt>
      <trkpt lat="43.87048" lon="7.49721">
        <ele>1070.3862305</ele>
        <time>2008-10-05T10:38:12Z</time>
      </trkpt>
      <trkpt lat="43.87046" lon="7.49727">
        <ele>1070.9104004</ele>
        <time>2008-10-05T10:38:16Z</time>
      </trkpt>
      <trkpt lat="43.8704" lon="7.49735">
        <ele>1071.6951904</ele>
        <time>2008-10-05T10:38:39Z</time>
      </trkpt>
      <trkpt lat="43.87028" lon="7.49749">
        <ele>1073.7874756</ele>
        <time>2008-10-05T10:38:56Z</time>
      </trkpt>
      <trkpt lat="43.87026" lon="7.49749">
        <ele>1073.8099365</ele>
        <time>2008-10-05T10:38:59Z</time>
      </trkpt>
      <trkpt lat="43.87024" lon="7.49751">
        <ele>1073.7138672</ele>
        <time>2008-10-05T10:39:11Z</time>
      </trkpt>
      <trkpt lat="43.8702" lon="7.49757">
        <ele>1073.064209</ele>
        <time>2008-10-05T10:39:16Z</time>
      </trkpt>
      <trkpt lat="43.87006" lon="7.49766">
        <ele>1071.7703857</ele>
        <time>2008-10-05T10:39:38Z</time>
      </trkpt>
      <trkpt lat="43.86995" lon="7.49781">
        <ele>1067.6114502</ele>
        <time>2008-10-05T10:40:03Z</time>
      </trkpt>
      <trkpt lat="43.86983" lon="7.49786">
        <ele>1061.7680664</ele>
        <time>2008-10-05T10:40:23Z</time>
      </trkpt>
      <trkpt lat="43.86979" lon="7.49783">
        <ele>1059.579834</ele>
        <time>2008-10-05T10:40:27Z</time>
      </trkpt>
      <trkpt lat="43.86966" lon="7.4979">
        <ele>1053.3112793</ele>
        <time>2008-10-05T10:41:19Z</time>
      </trkpt>
      <trkpt lat="43.86966" lon="7.49792">
        <ele>1052.9685059</ele>
        <time>2008-10-05T10:41:22Z</time>
      </trkpt>
      <trkpt lat="43.8696" lon="7.49795">
        <ele>1050.5166016</ele>
        <time>2008-10-05T10:41:30Z</time>
      </trkpt>
      <trkpt lat="43.86952" lon="7.49793">
        <ele>1046.6477051</ele>
        <time>2008-10-05T10:41:39Z</time>
      </trkpt>
      <trkpt lat="43.86951" lon="7.49795">
        <ele>1046.2069092</ele>
        <time>2008-10-05T10:41:42Z</time>
      </trkpt>
      <trkpt lat="43.86934" lon="7.4979">
        <ele>1037.5689697</ele>
        <time>2008-10-05T10:42:07Z</time>
      </trkpt>
      <trkpt lat="43.86933" lon="7.4979">
        <ele>1037.0133057</ele>
        <time>2008-10-05T10:42:08Z</time>
      </trkpt>
      <trkpt lat="43.8693" lon="7.49786">
        <ele>1035.4974365</ele>
        <time>2008-10-05T10:42:12Z</time>
      </trkpt>
      <trkpt lat="43.86925" lon="7.49784">
        <ele>1032.4996338</ele>
        <time>2008-10-05T10:42:25Z</time>
      </trkpt>
      <trkpt lat="43.86919" lon="7.49788">
        <ele>1029.9101563</ele>
        <time>2008-10-05T10:42:38Z</time>
      </trkpt>
      <trkpt lat="43.86918" lon="7.49785">
        <ele>1028.8143311</ele>
        <time>2008-10-05T10:42:41Z</time>
      </trkpt>
      <trkpt lat="43.86915" lon="7.4978">
        <ele>1026.9179688</ele>
        <time>2008-10-05T10:42:45Z</time>
      </trkpt>
      <trkpt lat="43.86914" lon="7.49778">
        <ele>1026.1671143</ele>
        <time>2008-10-05T10:42:47Z</time>
      </trkpt>
      <trkpt lat="43.86911" lon="7.49777">
        <ele>1023.8607788</ele>
        <time>2008-10-05T10:43:12Z</time>
      </trkpt>
      <trkpt lat="43.86908" lon="7.49782">
        <ele>1023.418335</ele>
        <time>2008-10-05T10:43:16Z</time>
      </trkpt>
      <trkpt lat="43.86899" lon="7.49785">
        <ele>1018.6760864</ele>
        <time>2008-10-05T10:43:40Z</time>
      </trkpt>
      <trkpt lat="43.86895" lon="7.49792">
        <ele>1017.6245117</ele>
        <time>2008-10-05T10:43:45Z</time>
      </trkpt>
      <trkpt lat="43.86893" lon="7.49795">
        <ele>1017.4168701</ele>
        <time>2008-10-05T10:43:47Z</time>
      </trkpt>
      <trkpt lat="43.86884" lon="7.49809">
        <ele>1015.6206055</ele>
        <time>2008-10-05T10:43:56Z</time>
      </trkpt>
      <trkpt lat="43.86885" lon="7.49822">
        <ele>1018.7485962</ele>
        <time>2008-10-05T10:44:00Z</time>
      </trkpt>
      <trkpt lat="43.86872" lon="7.4983">
        <ele>1013.8341675</ele>
        <time>2008-10-05T10:44:08Z</time>
      </trkpt>
      <trkpt lat="43.86852" lon="7.49839">
        <ele>1005.9866333</ele>
        <time>2008-10-05T10:44:18Z</time>
      </trkpt>
      <trkpt lat="43.86849" lon="7.4984">
        <ele>1005.1344604</ele>
        <time>2008-10-05T10:44:19Z</time>
      </trkpt>
      <trkpt lat="43.86842" lon="7.49839">
        <ele>1001.7145386</ele>
        <time>2008-10-05T10:44:24Z</time>
      </trkpt>
      <trkpt lat="43.86823" lon="7.49835">
        <ele>994.0858765</ele>
        <time>2008-10-05T10:44:37Z</time>
      </trkpt>
      <trkpt lat="43.86803" lon="7.49829">
        <ele>988.0710449</ele>
        <time>2008-10-05T10:44:48Z</time>
      </trkpt>
      <trkpt lat="43.86795" lon="7.49827">
        <ele>985.5019531</ele>
        <time>2008-10-05T10:44:54Z</time>
      </trkpt>
      <trkpt lat="43.86779" lon="7.49822">
        <ele>980.2824707</ele>
        <time>2008-10-05T10:45:11Z</time>
      </trkpt>
      <trkpt lat="43.86768" lon="7.49821">
        <ele>977.1068726</ele>
        <time>2008-10-05T10:45:19Z</time>
      </trkpt>
      <trkpt lat="43.86762" lon="7.49821">
        <ele>975.9754639</ele>
        <time>2008-10-05T10:45:49Z</time>
      </trkpt>
      <trkpt lat="43.86752" lon="7.49821">
        <ele>973.6323853</ele>
        <time>2008-10-05T10:45:56Z</time>
      </trkpt>
      <trkpt lat="43.86731" lon="7.49825">
        <ele>974.1626587</ele>
        <time>2008-10-05T10:46:09Z</time>
      </trkpt>
      <trkpt lat="43.86728" lon="7.49826">
        <ele>974.3136597</ele>
        <time>2008-10-05T10:46:11Z</time>
      </trkpt>
      <trkpt lat="43.86722" lon="7.49831">
        <ele>975.7571411</ele>
        <time>2008-10-05T10:46:19Z</time>
      </trkpt>
      <trkpt lat="43.8672" lon="7.49827">
        <ele>974.6863403</ele>
        <time>2008-10-05T10:46:26Z</time>
      </trkpt>
      <trkpt lat="43.86708" lon="7.4983">
        <ele>975.0656738</ele>
        <time>2008-10-05T10:46:33Z</time>
      </trkpt>
      <trkpt lat="43.86688" lon="7.49839">
        <ele>977.6225586</ele>
        <time>2008-10-05T10:46:46Z</time>
      </trkpt>
      <trkpt lat="43.8668" lon="7.49843">
        <ele>978.6585693</ele>
        <time>2008-10-05T10:46:52Z</time>
      </trkpt>
      <trkpt lat="43.86674" lon="7.49842">
        <ele>978.1146851</ele>
        <time>2008-10-05T10:46:57Z</time>
      </trkpt>
      <trkpt lat="43.86664" lon="7.4984">
        <ele>977.9249878</ele>
        <time>2008-10-05T10:47:03Z</time>
      </trkpt>
      <trkpt lat="43.86662" lon="7.49841">
        <ele>978.8884888</ele>
        <time>2008-10-05T10:47:05Z</time>
      </trkpt>
      <trkpt lat="43.86658" lon="7.49845">
        <ele>981.5835571</ele>
        <time>2008-10-05T10:47:10Z</time>
      </trkpt>
      <trkpt lat="43.86654" lon="7.49849">
        <ele>984.1826172</ele>
        <time>2008-10-05T10:47:16Z</time>
      </trkpt>
      <trkpt lat="43.86648" lon="7.49852">
        <ele>986.7167358</ele>
        <time>2008-10-05T10:47:24Z</time>
      </trkpt>
      <trkpt lat="43.86644" lon="7.49852">
        <ele>988.0469971</ele>
        <time>2008-10-05T10:47:29Z</time>
      </trkpt>
      <trkpt lat="43.86633" lon="7.49858">
        <ele>993.3734131</ele>
        <time>2008-10-05T10:47:48Z</time>
      </trkpt>
      <trkpt lat="43.86629" lon="7.49859">
        <ele>994.8991699</ele>
        <time>2008-10-05T10:47:52Z</time>
      </trkpt>
      <trkpt lat="43.86627" lon="7.49858">
        <ele>995.3225098</ele>
        <time>2008-10-05T10:47:55Z</time>
      </trkpt>
      <trkpt lat="43.86623" lon="7.49855">
        <ele>995.5923462</ele>
        <time>2008-10-05T10:48:00Z</time>
      </trkpt>
      <trkpt lat="43.86605" lon="7.49843">
        <ele>997.984436</ele>
        <time>2008-10-05T10:48:09Z</time>
      </trkpt>
      <trkpt lat="43.86602" lon="7.49842">
        <ele>998.3418579</ele>
        <time>2008-10-05T10:48:11Z</time>
      </trkpt>
      <trkpt lat="43.86586" lon="7.49832">
        <ele>1000.9401245</ele>
        <time>2008-10-05T10:48:25Z</time>
      </trkpt>
      <trkpt lat="43.86583" lon="7.49827">
        <ele>1001.1234131</ele>
        <time>2008-10-05T10:48:29Z</time>
      </trkpt>
      <trkpt lat="43.86566" lon="7.49805">
        <ele>1008.6368408</ele>
        <time>2008-10-05T10:48:47Z</time>
      </trkpt>
      <trkpt lat="43.86561" lon="7.498">
        <ele>1010.8977661</ele>
        <time>2008-10-05T10:48:51Z</time>
      </trkpt>
      <trkpt lat="43.86561" lon="7.49798">
        <ele>1010.7012939</ele>
        <time>2008-10-05T10:48:53Z</time>
      </trkpt>
      <trkpt lat="43.8656" lon="7.49796">
        <ele>1010.6697388</ele>
        <time>2008-10-05T10:48:55Z</time>
      </trkpt>
      <trkpt lat="43.86558" lon="7.49793">
        <ele>1011.6238403</ele>
        <time>2008-10-05T10:48:58Z</time>
      </trkpt>
      <trkpt lat="43.86554" lon="7.49789">
        <ele>1013.4197388</ele>
        <time>2008-10-05T10:49:03Z</time>
      </trkpt>
      <trkpt lat="43.86547" lon="7.49779">
        <ele>1016.4821167</ele>
        <time>2008-10-05T10:49:12Z</time>
      </trkpt>
      <trkpt lat="43.86544" lon="7.49773">
        <ele>1017.7627563</ele>
        <time>2008-10-05T10:49:16Z</time>
      </trkpt>
      <trkpt lat="43.86543" lon="7.49769">
        <ele>1017.8501587</ele>
        <time>2008-10-05T10:49:19Z</time>
      </trkpt>
      <trkpt lat="43.86541" lon="7.49765">
        <ele>1018.5874023</ele>
        <time>2008-10-05T10:49:22Z</time>
      </trkpt>
      <trkpt lat="43.8653" lon="7.49748">
        <ele>1022.8751831</ele>
        <time>2008-10-05T10:49:35Z</time>
      </trkpt>
      <trkpt lat="43.8653" lon="7.49739">
        <ele>1023.3319092</ele>
        <time>2008-10-05T10:49:41Z</time>
      </trkpt>
      <trkpt lat="43.86529" lon="7.49736">
        <ele>1023.8515625</ele>
        <time>2008-10-05T10:49:43Z</time>
      </trkpt>
      <trkpt lat="43.86527" lon="7.49734">
        <ele>1025.2559814</ele>
        <time>2008-10-05T10:49:45Z</time>
      </trkpt>
      <trkpt lat="43.86521" lon="7.49726">
        <ele>1028.8088379</ele>
        <time>2008-10-05T10:49:49Z</time>
      </trkpt>
      <trkpt lat="43.8652" lon="7.49714">
        <ele>1029.7436523</ele>
        <time>2008-10-05T10:49:55Z</time>
      </trkpt>
      <trkpt lat="43.86521" lon="7.49698">
        <ele>1029.6368408</ele>
        <time>2008-10-05T10:50:06Z</time>
      </trkpt>
      <trkpt lat="43.8652" lon="7.49694">
        <ele>1030.3815918</ele>
        <time>2008-10-05T10:50:09Z</time>
      </trkpt>
      <trkpt lat="43.86518" lon="7.49684">
        <ele>1031.6612549</ele>
        <time>2008-10-05T10:50:16Z</time>
      </trkpt>
      <trkpt lat="43.86517" lon="7.49679">
        <ele>1031.9833984</ele>
        <time>2008-10-05T10:50:20Z</time>
      </trkpt>
      <trkpt lat="43.86516" lon="7.49663">
        <ele>1032.9415283</ele>
        <time>2008-10-05T10:50:29Z</time>
      </trkpt>
      <trkpt lat="43.86509" lon="7.49636">
        <ele>1035.75354</ele>
        <time>2008-10-05T10:50:43Z</time>
      </trkpt>
      <trkpt lat="43.86506" lon="7.49628">
        <ele>1037.3189697</ele>
        <time>2008-10-05T10:50:46Z</time>
      </trkpt>
      <trkpt lat="43.86505" lon="7.49617">
        <ele>1037.9373779</ele>
        <time>2008-10-05T10:50:52Z</time>
      </trkpt>
      <trkpt lat="43.86506" lon="7.49615">
        <ele>1037.3991699</ele>
        <time>2008-10-05T10:50:54Z</time>
      </trkpt>
      <trkpt lat="43.86506" lon="7.49599">
        <ele>1036.4703369</ele>
        <time>2008-10-05T10:51:00Z</time>
      </trkpt>
      <trkpt lat="43.86505" lon="7.49586">
        <ele>1037.0450439</ele>
        <time>2008-10-05T10:51:04Z</time>
      </trkpt>
      <trkpt lat="43.86507" lon="7.49573">
        <ele>1032.5323486</ele>
        <time>2008-10-05T10:51:08Z</time>
      </trkpt>
      <trkpt lat="43.86512" lon="7.49555">
        <ele>1022.9663086</ele>
        <time>2008-10-05T10:51:17Z</time>
      </trkpt>
      <trkpt lat="43.86515" lon="7.49538">
        <ele>1015.2419434</ele>
        <time>2008-10-05T10:51:25Z</time>
      </trkpt>
      <trkpt lat="43.86514" lon="7.49535">
        <ele>1015.2431641</ele>
        <time>2008-10-05T10:51:27Z</time>
      </trkpt>
      <trkpt lat="43.86503" lon="7.49521">
        <ele>1017.8258057</ele>
        <time>2008-10-05T10:51:37Z</time>
      </trkpt>
      <trkpt lat="43.86486" lon="7.49503">
        <ele>1017.4766235</ele>
        <time>2008-10-05T10:51:50Z</time>
      </trkpt>
      <trkpt lat="43.86474" lon="7.49489">
        <ele>1015.0488281</ele>
        <time>2008-10-05T10:51:56Z</time>
      </trkpt>
      <trkpt lat="43.86468" lon="7.49479">
        <ele>1012.0801392</ele>
        <time>2008-10-05T10:52:00Z</time>
      </trkpt>
      <trkpt lat="43.86459" lon="7.49462">
        <ele>1006.4234619</ele>
        <time>2008-10-05T10:52:13Z</time>
      </trkpt>
      <trkpt lat="43.86451" lon="7.49461">
        <ele>1007.7757568</ele>
        <time>2008-10-05T10:52:19Z</time>
      </trkpt>
      <trkpt lat="43.86437" lon="7.49457">
        <ele>1008.8554688</ele>
        <time>2008-10-05T10:52:33Z</time>
      </trkpt>
      <trkpt lat="43.86434" lon="7.49457">
        <ele>1009.5512695</ele>
        <time>2008-10-05T10:52:35Z</time>
      </trkpt>
      <trkpt lat="43.86412" lon="7.49457">
        <ele>1012.2232666</ele>
        <time>2008-10-05T10:52:46Z</time>
      </trkpt>
      <trkpt lat="43.86396" lon="7.49463">
        <ele>1012.3702393</ele>
        <time>2008-10-05T10:52:59Z</time>
      </trkpt>
      <trkpt lat="43.86391" lon="7.49466">
        <ele>1012.9219971</ele>
        <time>2008-10-05T10:53:03Z</time>
      </trkpt>
      <trkpt lat="43.86375" lon="7.49482">
        <ele>1016.8668823</ele>
        <time>2008-10-05T10:53:15Z</time>
      </trkpt>
      <trkpt lat="43.86372" lon="7.49485">
        <ele>1017.3727417</ele>
        <time>2008-10-05T10:53:17Z</time>
      </trkpt>
      <trkpt lat="43.86362" lon="7.49491">
        <ele>1017.6759033</ele>
        <time>2008-10-05T10:53:25Z</time>
      </trkpt>
      <trkpt lat="43.86361" lon="7.49487">
        <ele>1015.7148438</ele>
        <time>2008-10-05T10:53:33Z</time>
      </trkpt>
      <trkpt lat="43.86357" lon="7.49485">
        <ele>1013.9761963</ele>
        <time>2008-10-05T10:53:37Z</time>
      </trkpt>
      <trkpt lat="43.86354" lon="7.49483">
        <ele>1012.8287354</ele>
        <time>2008-10-05T10:53:39Z</time>
      </trkpt>
      <trkpt lat="43.86342" lon="7.495">
        <ele>1015.9920654</ele>
        <time>2008-10-05T10:53:49Z</time>
      </trkpt>
      <trkpt lat="43.86329" lon="7.49522">
        <ele>1017.9489746</ele>
        <time>2008-10-05T10:53:58Z</time>
      </trkpt>
      <trkpt lat="43.86312" lon="7.4952">
        <ele>1016.6715698</ele>
        <time>2008-10-05T10:54:14Z</time>
      </trkpt>
      <trkpt lat="43.86307" lon="7.49517">
        <ele>1015.7071533</ele>
        <time>2008-10-05T10:54:18Z</time>
      </trkpt>
      <trkpt lat="43.86298" lon="7.49512">
        <ele>1013.9679565</ele>
        <time>2008-10-05T10:54:26Z</time>
      </trkpt>
      <trkpt lat="43.86291" lon="7.49506">
        <ele>1011.9099121</ele>
        <time>2008-10-05T10:54:31Z</time>
      </trkpt>
      <trkpt lat="43.86282" lon="7.49498">
        <ele>1009.0376587</ele>
        <time>2008-10-05T10:54:38Z</time>
      </trkpt>
      <trkpt lat="43.8628" lon="7.49493">
        <ele>1007.0020142</ele>
        <time>2008-10-05T10:54:40Z</time>
      </trkpt>
      <trkpt lat="43.86278" lon="7.49491">
        <ele>1005.9564209</ele>
        <time>2008-10-05T10:54:42Z</time>
      </trkpt>
      <trkpt lat="43.86264" lon="7.49472">
        <ele>997.1864624</ele>
        <time>2008-10-05T10:54:53Z</time>
      </trkpt>
      <trkpt lat="43.86246" lon="7.49456">
        <ele>990.0209351</ele>
        <time>2008-10-05T10:55:02Z</time>
      </trkpt>
      <trkpt lat="43.86235" lon="7.49448">
        <ele>987.5430908</ele>
        <time>2008-10-05T10:55:12Z</time>
      </trkpt>
      <trkpt lat="43.86232" lon="7.49449">
        <ele>988.1167603</ele>
        <time>2008-10-05T10:55:15Z</time>
      </trkpt>
      <trkpt lat="43.86221" lon="7.49439">
        <ele>984.59021</ele>
        <time>2008-10-05T10:55:22Z</time>
      </trkpt>
      <trkpt lat="43.86217" lon="7.49435">
        <ele>982.7001953</ele>
        <time>2008-10-05T10:55:26Z</time>
      </trkpt>
      <trkpt lat="43.86216" lon="7.49431">
        <ele>981.0203247</ele>
        <time>2008-10-05T10:55:28Z</time>
      </trkpt>
      <trkpt lat="43.86213" lon="7.49422">
        <ele>977.1848755</ele>
        <time>2008-10-05T10:55:33Z</time>
      </trkpt>
      <trkpt lat="43.86218" lon="7.49417">
        <ele>975.071106</ele>
        <time>2008-10-05T10:55:39Z</time>
      </trkpt>
      <trkpt lat="43.86217" lon="7.49413">
        <ele>972.8602905</ele>
        <time>2008-10-05T10:55:43Z</time>
      </trkpt>
      <trkpt lat="43.86212" lon="7.49408">
        <ele>970.0931396</ele>
        <time>2008-10-05T10:55:48Z</time>
      </trkpt>
      <trkpt lat="43.86225" lon="7.49402">
        <ele>966.7857666</ele>
        <time>2008-10-05T10:55:59Z</time>
      </trkpt>
      <trkpt lat="43.86225" lon="7.494">
        <ele>965.7946777</ele>
        <time>2008-10-05T10:56:01Z</time>
      </trkpt>
      <trkpt lat="43.86221" lon="7.49395">
        <ele>963.0092163</ele>
        <time>2008-10-05T10:56:06Z</time>
      </trkpt>
      <trkpt lat="43.86219" lon="7.49392">
        <ele>961.5695801</ele>
        <time>2008-10-05T10:56:08Z</time>
      </trkpt>
      <trkpt lat="43.86205" lon="7.49378">
        <ele>954.4970703</ele>
        <time>2008-10-05T10:56:21Z</time>
      </trkpt>
      <trkpt lat="43.86202" lon="7.49372">
        <ele>951.4140625</ele>
        <time>2008-10-05T10:56:26Z</time>
      </trkpt>
      <trkpt lat="43.86189" lon="7.49352">
        <ele>941.5378418</ele>
        <time>2008-10-05T10:56:38Z</time>
      </trkpt>
      <trkpt lat="43.86179" lon="7.49346">
        <ele>938.4868164</ele>
        <time>2008-10-05T10:56:44Z</time>
      </trkpt>
      <trkpt lat="43.86178" lon="7.49349">
        <ele>939.9562378</ele>
        <time>2008-10-05T10:57:02Z</time>
      </trkpt>
      <trkpt lat="43.86177" lon="7.4935">
        <ele>940.3956909</ele>
        <time>2008-10-05T10:57:04Z</time>
      </trkpt>
      <trkpt lat="43.86157" lon="7.49351">
        <ele>943.592041</ele>
        <time>2008-10-05T10:57:18Z</time>
      </trkpt>
      <trkpt lat="43.86148" lon="7.49353">
        <ele>946.5784302</ele>
        <time>2008-10-05T10:57:22Z</time>
      </trkpt>
      <trkpt lat="43.86134" lon="7.49344">
        <ele>945.3121948</ele>
        <time>2008-10-05T10:57:28Z</time>
      </trkpt>
      <trkpt lat="43.86117" lon="7.49341">
        <ele>947.5875244</ele>
        <time>2008-10-05T10:57:34Z</time>
      </trkpt>
      <trkpt lat="43.86111" lon="7.49342">
        <ele>949.2321167</ele>
        <time>2008-10-05T10:57:37Z</time>
      </trkpt>
      <trkpt lat="43.861" lon="7.49338">
        <ele>949.6608276</ele>
        <time>2008-10-05T10:57:45Z</time>
      </trkpt>
      <trkpt lat="43.86097" lon="7.49335">
        <ele>948.9489136</ele>
        <time>2008-10-05T10:57:48Z</time>
      </trkpt>
      <trkpt lat="43.86092" lon="7.49329">
        <ele>947.0975952</ele>
        <time>2008-10-05T10:57:55Z</time>
      </trkpt>
      <trkpt lat="43.86086" lon="7.49325">
        <ele>946.5493774</ele>
        <time>2008-10-05T10:58:00Z</time>
      </trkpt>
      <trkpt lat="43.86079" lon="7.4932">
        <ele>946.5297241</ele>
        <time>2008-10-05T10:58:04Z</time>
      </trkpt>
      <trkpt lat="43.86069" lon="7.493">
        <ele>942.168396</ele>
        <time>2008-10-05T10:58:17Z</time>
      </trkpt>
      <trkpt lat="43.86054" lon="7.49291">
        <ele>944.3630981</ele>
        <time>2008-10-05T10:58:27Z</time>
      </trkpt>
      <trkpt lat="43.86043" lon="7.49283">
        <ele>945.8045654</ele>
        <time>2008-10-05T10:58:35Z</time>
      </trkpt>
      <trkpt lat="43.86033" lon="7.49269">
        <ele>944.1158447</ele>
        <time>2008-10-05T10:58:44Z</time>
      </trkpt>
      <trkpt lat="43.86031" lon="7.49265">
        <ele>943.4110718</ele>
        <time>2008-10-05T10:58:46Z</time>
      </trkpt>
      <trkpt lat="43.86025" lon="7.49259">
        <ele>943.6015625</ele>
        <time>2008-10-05T10:58:50Z</time>
      </trkpt>
      <trkpt lat="43.86011" lon="7.4925">
        <ele>946.2764893</ele>
        <time>2008-10-05T10:58:58Z</time>
      </trkpt>
      <trkpt lat="43.86" lon="7.49245">
        <ele>949.7467041</ele>
        <time>2008-10-05T10:59:03Z</time>
      </trkpt>
      <trkpt lat="43.85998" lon="7.49246">
        <ele>950.0202637</ele>
        <time>2008-10-05T10:59:05Z</time>
      </trkpt>
      <trkpt lat="43.85993" lon="7.4924">
        <ele>949.0514526</ele>
        <time>2008-10-05T10:59:08Z</time>
      </trkpt>
      <trkpt lat="43.85976" lon="7.49239">
        <ele>950.2949219</ele>
        <time>2008-10-05T10:59:15Z</time>
      </trkpt>
      <trkpt lat="43.85971" lon="7.4924">
        <ele>951.0423584</ele>
        <time>2008-10-05T10:59:19Z</time>
      </trkpt>
      <trkpt lat="43.85965" lon="7.49233">
        <ele>949.4993896</ele>
        <time>2008-10-05T10:59:25Z</time>
      </trkpt>
      <trkpt lat="43.8596" lon="7.49231">
        <ele>949.3408813</ele>
        <time>2008-10-05T10:59:28Z</time>
      </trkpt>
      <trkpt lat="43.85956" lon="7.49231">
        <ele>949.619751</ele>
        <time>2008-10-05T10:59:33Z</time>
      </trkpt>
      <trkpt lat="43.85944" lon="7.49226">
        <ele>949.2523193</ele>
        <time>2008-10-05T10:59:40Z</time>
      </trkpt>
      <trkpt lat="43.85938" lon="7.49222">
        <ele>948.6120605</ele>
        <time>2008-10-05T10:59:43Z</time>
      </trkpt>
      <trkpt lat="43.8593" lon="7.49229">
        <ele>951.1636963</ele>
        <time>2008-10-05T10:59:49Z</time>
      </trkpt>
      <trkpt lat="43.85929" lon="7.49231">
        <ele>952.0734253</ele>
        <time>2008-10-05T10:59:53Z</time>
      </trkpt>
      <trkpt lat="43.85909" lon="7.49238">
        <ele>956.1775513</ele>
        <time>2008-10-05T11:00:13Z</time>
      </trkpt>
      <trkpt lat="43.85902" lon="7.4924">
        <ele>957.2384033</ele>
        <time>2008-10-05T11:00:17Z</time>
      </trkpt>
      <trkpt lat="43.85898" lon="7.49246">
        <ele>959.6577148</ele>
        <time>2008-10-05T11:00:21Z</time>
      </trkpt>
      <trkpt lat="43.85894" lon="7.49248">
        <ele>960.5526123</ele>
        <time>2008-10-05T11:00:24Z</time>
      </trkpt>
      <trkpt lat="43.85891" lon="7.49249">
        <ele>961.2014771</ele>
        <time>2008-10-05T11:00:26Z</time>
      </trkpt>
      <trkpt lat="43.85885" lon="7.49251">
        <ele>962.5522461</ele>
        <time>2008-10-05T11:00:32Z</time>
      </trkpt>
      <trkpt lat="43.85872" lon="7.49249">
        <ele>962.8848877</ele>
        <time>2008-10-05T11:00:40Z</time>
      </trkpt>
      <trkpt lat="43.85862" lon="7.4925">
        <ele>964.3719482</ele>
        <time>2008-10-05T11:00:49Z</time>
      </trkpt>
      <trkpt lat="43.85851" lon="7.49248">
        <ele>964.5855103</ele>
        <time>2008-10-05T11:00:57Z</time>
      </trkpt>
      <trkpt lat="43.85843" lon="7.4925">
        <ele>965.9061279</ele>
        <time>2008-10-05T11:01:03Z</time>
      </trkpt>
      <trkpt lat="43.85826" lon="7.49259">
        <ele>972.3360596</ele>
        <time>2008-10-05T11:01:33Z</time>
      </trkpt>
      <trkpt lat="43.85806" lon="7.49258">
        <ele>977.0438232</ele>
        <time>2008-10-05T11:01:56Z</time>
      </trkpt>
      <trkpt lat="43.85789" lon="7.49253">
        <ele>979.5142212</ele>
        <time>2008-10-05T11:02:08Z</time>
      </trkpt>
      <trkpt lat="43.85774" lon="7.49252">
        <ele>982.8463135</ele>
        <time>2008-10-05T11:02:26Z</time>
      </trkpt>
      <trkpt lat="43.85761" lon="7.49252">
        <ele>986.1043091</ele>
        <time>2008-10-05T11:02:36Z</time>
      </trkpt>
      <trkpt lat="43.85755" lon="7.49247">
        <ele>986.1929932</ele>
        <time>2008-10-05T11:02:41Z</time>
      </trkpt>
      <trkpt lat="43.85752" lon="7.49245">
        <ele>986.368103</ele>
        <time>2008-10-05T11:02:45Z</time>
      </trkpt>
      <trkpt lat="43.8575" lon="7.49245">
        <ele>986.7491455</ele>
        <time>2008-10-05T11:02:47Z</time>
      </trkpt>
      <trkpt lat="43.85749" lon="7.49246">
        <ele>987.5005493</ele>
        <time>2008-10-05T11:02:50Z</time>
      </trkpt>
      <trkpt lat="43.85745" lon="7.49239">
        <ele>987.2005615</ele>
        <time>2008-10-05T11:02:54Z</time>
      </trkpt>
      <trkpt lat="43.85733" lon="7.49221">
        <ele>987.4609375</ele>
        <time>2008-10-05T11:03:04Z</time>
      </trkpt>
      <trkpt lat="43.85727" lon="7.49215">
        <ele>987.8087769</ele>
        <time>2008-10-05T11:03:08Z</time>
      </trkpt>
      <trkpt lat="43.85715" lon="7.49192">
        <ele>986.7358398</ele>
        <time>2008-10-05T11:03:18Z</time>
      </trkpt>
      <trkpt lat="43.85708" lon="7.49188">
        <ele>987.9452515</ele>
        <time>2008-10-05T11:03:24Z</time>
      </trkpt>
      <trkpt lat="43.85703" lon="7.49176">
        <ele>987.1864624</ele>
        <time>2008-10-05T11:03:31Z</time>
      </trkpt>
      <trkpt lat="43.85691" lon="7.49163">
        <ele>988.020874</ele>
        <time>2008-10-05T11:03:39Z</time>
      </trkpt>
      <trkpt lat="43.85688" lon="7.49158">
        <ele>987.755188</ele>
        <time>2008-10-05T11:03:43Z</time>
      </trkpt>
      <trkpt lat="43.85675" lon="7.49151">
        <ele>990.276001</ele>
        <time>2008-10-05T11:03:52Z</time>
      </trkpt>
      <trkpt lat="43.85667" lon="7.49138">
        <ele>989.1374512</ele>
        <time>2008-10-05T11:03:59Z</time>
      </trkpt>
      <trkpt lat="43.8565" lon="7.49122">
        <ele>989.6226807</ele>
        <time>2008-10-05T11:04:08Z</time>
      </trkpt>
      <trkpt lat="43.8564" lon="7.49115">
        <ele>989.9714355</ele>
        <time>2008-10-05T11:04:16Z</time>
      </trkpt>
      <trkpt lat="43.85632" lon="7.49106">
        <ele>989.7468872</ele>
        <time>2008-10-05T11:04:22Z</time>
      </trkpt>
      <trkpt lat="43.85615" lon="7.491">
        <ele>992.178894</ele>
        <time>2008-10-05T11:04:30Z</time>
      </trkpt>
      <trkpt lat="43.85608" lon="7.49099">
        <ele>993.8168945</ele>
        <time>2008-10-05T11:04:34Z</time>
      </trkpt>
      <trkpt lat="43.856" lon="7.49095">
        <ele>994.4395142</ele>
        <time>2008-10-05T11:04:41Z</time>
      </trkpt>
      <trkpt lat="43.85599" lon="7.49096">
        <ele>995.1298828</ele>
        <time>2008-10-05T11:04:44Z</time>
      </trkpt>
      <trkpt lat="43.85592" lon="7.49093">
        <ele>995.8049927</ele>
        <time>2008-10-05T11:04:49Z</time>
      </trkpt>
      <trkpt lat="43.85581" lon="7.49081">
        <ele>994.6879883</ele>
        <time>2008-10-05T11:04:59Z</time>
      </trkpt>
      <trkpt lat="43.85571" lon="7.49079">
        <ele>996.828125</ele>
        <time>2008-10-05T11:05:07Z</time>
      </trkpt>
      <trkpt lat="43.85565" lon="7.4908">
        <ele>998.6904297</ele>
        <time>2008-10-05T11:05:12Z</time>
      </trkpt>
      <trkpt lat="43.85545" lon="7.49081">
        <ele>1003.9630737</ele>
        <time>2008-10-05T11:05:25Z</time>
      </trkpt>
      <trkpt lat="43.85534" lon="7.4907">
        <ele>1003.4035034</ele>
        <time>2008-10-05T11:05:34Z</time>
      </trkpt>
      <trkpt lat="43.85516" lon="7.4906">
        <ele>1005.0992432</ele>
        <time>2008-10-05T11:05:47Z</time>
      </trkpt>
      <trkpt lat="43.85503" lon="7.49055">
        <ele>1007.0403442</ele>
        <time>2008-10-05T11:05:56Z</time>
      </trkpt>
      <trkpt lat="43.85492" lon="7.49044">
        <ele>1005.0075073</ele>
        <time>2008-10-05T11:06:01Z</time>
      </trkpt>
      <trkpt lat="43.85476" lon="7.49045">
        <ele>1005.7833252</ele>
        <time>2008-10-05T11:06:08Z</time>
      </trkpt>
      <trkpt lat="43.8546" lon="7.49039">
        <ele>1004.1381836</ele>
        <time>2008-10-05T11:06:17Z</time>
      </trkpt>
      <trkpt lat="43.85458" lon="7.4904">
        <ele>1004.6454468</ele>
        <time>2008-10-05T11:06:19Z</time>
      </trkpt>
      <trkpt lat="43.85452" lon="7.49042">
        <ele>1005.6506348</ele>
        <time>2008-10-05T11:06:24Z</time>
      </trkpt>
      <trkpt lat="43.85445" lon="7.49046">
        <ele>1007.1724854</ele>
        <time>2008-10-05T11:06:29Z</time>
      </trkpt>
      <trkpt lat="43.85432" lon="7.49047">
        <ele>1008.00177</ele>
        <time>2008-10-05T11:06:37Z</time>
      </trkpt>
      <trkpt lat="43.85429" lon="7.49046">
        <ele>1007.7327881</ele>
        <time>2008-10-05T11:06:40Z</time>
      </trkpt>
      <trkpt lat="43.85413" lon="7.49042">
        <ele>1006.4619751</ele>
        <time>2008-10-05T11:06:48Z</time>
      </trkpt>
      <trkpt lat="43.85396" lon="7.49034">
        <ele>1003.5670776</ele>
        <time>2008-10-05T11:06:54Z</time>
      </trkpt>
      <trkpt lat="43.8539" lon="7.49028">
        <ele>1001.0967407</ele>
        <time>2008-10-05T11:06:59Z</time>
      </trkpt>
      <trkpt lat="43.85385" lon="7.49023">
        <ele>999.2214355</ele>
        <time>2008-10-05T11:07:03Z</time>
      </trkpt>
      <trkpt lat="43.85363" lon="7.49018">
        <ele>997.003479</ele>
        <time>2008-10-05T11:07:13Z</time>
      </trkpt>
      <trkpt lat="43.85361" lon="7.49018">
        <ele>997.0741577</ele>
        <time>2008-10-05T11:07:14Z</time>
      </trkpt>
      <trkpt lat="43.8534" lon="7.49026">
        <ele>1000.3036499</ele>
        <time>2008-10-05T11:07:24Z</time>
      </trkpt>
      <trkpt lat="43.85338" lon="7.49028">
        <ele>1001.1635742</ele>
        <time>2008-10-05T11:07:25Z</time>
      </trkpt>
      <trkpt lat="43.85331" lon="7.49036">
        <ele>1004.5071411</ele>
        <time>2008-10-05T11:07:40Z</time>
      </trkpt>
      <trkpt lat="43.85327" lon="7.49037">
        <ele>1004.3973389</ele>
        <time>2008-10-05T11:07:42Z</time>
      </trkpt>
      <trkpt lat="43.85307" lon="7.49028">
        <ele>998.7605591</ele>
        <time>2008-10-05T11:07:52Z</time>
      </trkpt>
      <trkpt lat="43.8529" lon="7.49038">
        <ele>1002.0563965</ele>
        <time>2008-10-05T11:08:01Z</time>
      </trkpt>
      <trkpt lat="43.85286" lon="7.49046">
        <ele>1005.0453491</ele>
        <time>2008-10-05T11:08:04Z</time>
      </trkpt>
      <trkpt lat="43.85275" lon="7.4905">
        <ele>1006.4749146</ele>
        <time>2008-10-05T11:08:08Z</time>
      </trkpt>
      <trkpt lat="43.85263" lon="7.49061">
        <ele>1010.2824097</ele>
        <time>2008-10-05T11:08:14Z</time>
      </trkpt>
      <trkpt lat="43.85259" lon="7.49064">
        <ele>1011.6098022</ele>
        <time>2008-10-05T11:08:18Z</time>
      </trkpt>
      <trkpt lat="43.85253" lon="7.49065">
        <ele>1011.7271118</ele>
        <time>2008-10-05T11:08:22Z</time>
      </trkpt>
      <trkpt lat="43.85233" lon="7.49072">
        <ele>1018.5841064</ele>
        <time>2008-10-05T11:08:34Z</time>
      </trkpt>
      <trkpt lat="43.85223" lon="7.49069">
        <ele>1019.835144</ele>
        <time>2008-10-05T11:08:39Z</time>
      </trkpt>
      <trkpt lat="43.85213" lon="7.49065">
        <ele>1020.550415</ele>
        <time>2008-10-05T11:08:43Z</time>
      </trkpt>
      <trkpt lat="43.85205" lon="7.49064">
        <ele>1021.9384155</ele>
        <time>2008-10-05T11:08:48Z</time>
      </trkpt>
      <trkpt lat="43.852" lon="7.49062">
        <ele>1022.7700195</ele>
        <time>2008-10-05T11:08:51Z</time>
      </trkpt>
      <trkpt lat="43.85183" lon="7.49074">
        <ele>1030.3594971</ele>
        <time>2008-10-05T11:09:02Z</time>
      </trkpt>
      <trkpt lat="43.85183" lon="7.49077">
        <ele>1031.1343994</ele>
        <time>2008-10-05T11:09:04Z</time>
      </trkpt>
      <trkpt lat="43.85182" lon="7.49078">
        <ele>1031.8056641</ele>
        <time>2008-10-05T11:09:06Z</time>
      </trkpt>
      <trkpt lat="43.85178" lon="7.49078">
        <ele>1032.407959</ele>
        <time>2008-10-05T11:09:08Z</time>
      </trkpt>
      <trkpt lat="43.85165" lon="7.49058">
        <ele>1031.9675293</ele>
        <time>2008-10-05T11:09:21Z</time>
      </trkpt>
      <trkpt lat="43.85164" lon="7.49054">
        <ele>1032.0168457</ele>
        <time>2008-10-05T11:09:23Z</time>
      </trkpt>
      <trkpt lat="43.85164" lon="7.4905">
        <ele>1031.0733643</ele>
        <time>2008-10-05T11:09:26Z</time>
      </trkpt>
      <trkpt lat="43.85163" lon="7.4904">
        <ele>1029.387207</ele>
        <time>2008-10-05T11:09:31Z</time>
      </trkpt>
      <trkpt lat="43.8515" lon="7.49016">
        <ele>1033.6894531</ele>
        <time>2008-10-05T11:09:40Z</time>
      </trkpt>
      <trkpt lat="43.85148" lon="7.4901">
        <ele>1033.5437012</ele>
        <time>2008-10-05T11:09:42Z</time>
      </trkpt>
      <trkpt lat="43.85157" lon="7.48988">
        <ele>1021.949707</ele>
        <time>2008-10-05T11:09:56Z</time>
      </trkpt>
      <trkpt lat="43.85156" lon="7.48986">
        <ele>1022.4024048</ele>
        <time>2008-10-05T11:09:57Z</time>
      </trkpt>
      <trkpt lat="43.8514" lon="7.4897">
        <ele>1030.6726074</ele>
        <time>2008-10-05T11:10:08Z</time>
      </trkpt>
      <trkpt lat="43.85127" lon="7.48949">
        <ele>1035.0194092</ele>
        <time>2008-10-05T11:10:16Z</time>
      </trkpt>
      <trkpt lat="43.85127" lon="7.48938">
        <ele>1032.6656494</ele>
        <time>2008-10-05T11:10:20Z</time>
      </trkpt>
      <trkpt lat="43.8512" lon="7.48909">
        <ele>1029.8736572</ele>
        <time>2008-10-05T11:10:31Z</time>
      </trkpt>
      <trkpt lat="43.85117" lon="7.4889">
        <ele>1026.4217529</ele>
        <time>2008-10-05T11:10:37Z</time>
      </trkpt>
      <trkpt lat="43.85114" lon="7.4888">
        <ele>1025.2243652</ele>
        <time>2008-10-05T11:10:41Z</time>
      </trkpt>
      <trkpt lat="43.85104" lon="7.48851">
        <ele>1022.9337158</ele>
        <time>2008-10-05T11:10:50Z</time>
      </trkpt>
      <trkpt lat="43.85101" lon="7.48844">
        <ele>1022.9208374</ele>
        <time>2008-10-05T11:10:53Z</time>
      </trkpt>
      <trkpt lat="43.85085" lon="7.48818">
        <ele>1024.8674316</ele>
        <time>2008-10-05T11:11:01Z</time>
      </trkpt>
      <trkpt lat="43.85076" lon="7.48794">
        <ele>1019.7681885</ele>
        <time>2008-10-05T11:11:09Z</time>
      </trkpt>
      <trkpt lat="43.85067" lon="7.48771">
        <ele>1014.6986084</ele>
        <time>2008-10-05T11:11:17Z</time>
      </trkpt>
      <trkpt lat="43.85055" lon="7.48751">
        <ele>1012.4246826</ele>
        <time>2008-10-05T11:11:24Z</time>
      </trkpt>
      <trkpt lat="43.85049" lon="7.48741">
        <ele>1014.5953369</ele>
        <time>2008-10-05T11:11:29Z</time>
      </trkpt>
      <trkpt lat="43.85035" lon="7.48717">
        <ele>1020.0839233</ele>
        <time>2008-10-05T11:11:38Z</time>
      </trkpt>
      <trkpt lat="43.85026" lon="7.48705">
        <ele>1024.2775879</ele>
        <time>2008-10-05T11:11:43Z</time>
      </trkpt>
      <trkpt lat="43.85017" lon="7.48689">
        <ele>1028.6574707</ele>
        <time>2008-10-05T11:11:48Z</time>
      </trkpt>
      <trkpt lat="43.8501" lon="7.48681">
        <ele>1032.3840332</ele>
        <time>2008-10-05T11:11:52Z</time>
      </trkpt>
      <trkpt lat="43.85003" lon="7.48679">
        <ele>1036.0113525</ele>
        <time>2008-10-05T11:11:57Z</time>
      </trkpt>
      <trkpt lat="43.84996" lon="7.48682">
        <ele>1036.8751221</ele>
        <time>2008-10-05T11:12:04Z</time>
      </trkpt>
      <trkpt lat="43.84993" lon="7.48696">
        <ele>1035.5626221</ele>
        <time>2008-10-05T11:12:12Z</time>
      </trkpt>
      <trkpt lat="43.84983" lon="7.48721">
        <ele>1031.2423096</ele>
        <time>2008-10-05T11:12:21Z</time>
      </trkpt>
      <trkpt lat="43.84982" lon="7.48724">
        <ele>1030.6074219</ele>
        <time>2008-10-05T11:12:22Z</time>
      </trkpt>
      <trkpt lat="43.84978" lon="7.48742">
        <ele>1027.5692139</ele>
        <time>2008-10-05T11:12:28Z</time>
      </trkpt>
      <trkpt lat="43.84971" lon="7.48752">
        <ele>1024.2972412</ele>
        <time>2008-10-05T11:12:34Z</time>
      </trkpt>
      <trkpt lat="43.84965" lon="7.48774">
        <ele>1026.2141113</ele>
        <time>2008-10-05T11:12:43Z</time>
      </trkpt>
      <trkpt lat="43.84962" lon="7.48781">
        <ele>1026.6584473</ele>
        <time>2008-10-05T11:12:46Z</time>
      </trkpt>
      <trkpt lat="43.84953" lon="7.48808">
        <ele>1027.7894287</ele>
        <time>2008-10-05T11:12:56Z</time>
      </trkpt>
      <trkpt lat="43.84951" lon="7.48813">
        <ele>1027.8391113</ele>
        <time>2008-10-05T11:12:58Z</time>
      </trkpt>
      <trkpt lat="43.84949" lon="7.48823">
        <ele>1028.5186768</ele>
        <time>2008-10-05T11:13:01Z</time>
      </trkpt>
      <trkpt lat="43.84932" lon="7.48842">
        <ele>1025.5625</ele>
        <time>2008-10-05T11:13:09Z</time>
      </trkpt>
      <trkpt lat="43.84926" lon="7.48848">
        <ele>1024.5142822</ele>
        <time>2008-10-05T11:13:12Z</time>
      </trkpt>
      <trkpt lat="43.84912" lon="7.48853">
        <ele>1019.6676025</ele>
        <time>2008-10-05T11:13:18Z</time>
      </trkpt>
      <trkpt lat="43.84908" lon="7.48854">
        <ele>1017.8446655</ele>
        <time>2008-10-05T11:13:20Z</time>
      </trkpt>
      <trkpt lat="43.84902" lon="7.48859">
        <ele>1017.0258179</ele>
        <time>2008-10-05T11:13:24Z</time>
      </trkpt>
      <trkpt lat="43.84897" lon="7.48864">
        <ele>1015.8945923</ele>
        <time>2008-10-05T11:13:27Z</time>
      </trkpt>
      <trkpt lat="43.84885" lon="7.4888">
        <ele>1015.7260742</ele>
        <time>2008-10-05T11:13:38Z</time>
      </trkpt>
      <trkpt lat="43.84879" lon="7.48889">
        <ele>1015.8446655</ele>
        <time>2008-10-05T11:13:46Z</time>
      </trkpt>
      <trkpt lat="43.84867" lon="7.48905">
        <ele>1016.5049438</ele>
        <time>2008-10-05T11:13:58Z</time>
      </trkpt>
      <trkpt lat="43.8486" lon="7.48917">
        <ele>1017.2263184</ele>
        <time>2008-10-05T11:14:07Z</time>
      </trkpt>
      <trkpt lat="43.8485" lon="7.48935">
        <ele>1018.3039551</ele>
        <time>2008-10-05T11:14:15Z</time>
      </trkpt>
      <trkpt lat="43.84843" lon="7.48949">
        <ele>1019.7144165</ele>
        <time>2008-10-05T11:14:22Z</time>
      </trkpt>
      <trkpt lat="43.84842" lon="7.48955">
        <ele>1021.3830566</ele>
        <time>2008-10-05T11:14:25Z</time>
      </trkpt>
      <trkpt lat="43.84832" lon="7.48969">
        <ele>1020.7701416</ele>
        <time>2008-10-05T11:14:35Z</time>
      </trkpt>
      <trkpt lat="43.84826" lon="7.48975">
        <ele>1020.1063843</ele>
        <time>2008-10-05T11:14:39Z</time>
      </trkpt>
      <trkpt lat="43.84819" lon="7.48981">
        <ele>1018.8658447</ele>
        <time>2008-10-05T11:14:43Z</time>
      </trkpt>
      <trkpt lat="43.84817" lon="7.48993">
        <ele>1021.4104614</ele>
        <time>2008-10-05T11:14:48Z</time>
      </trkpt>
      <trkpt lat="43.84817" lon="7.49008">
        <ele>1025.2231445</ele>
        <time>2008-10-05T11:14:52Z</time>
      </trkpt>
      <trkpt lat="43.84809" lon="7.49021">
        <ele>1025.2371826</ele>
        <time>2008-10-05T11:14:57Z</time>
      </trkpt>
      <trkpt lat="43.84802" lon="7.49038">
        <ele>1025.9018555</ele>
        <time>2008-10-05T11:15:03Z</time>
      </trkpt>
      <trkpt lat="43.84788" lon="7.49059">
        <ele>1024.7358398</ele>
        <time>2008-10-05T11:15:12Z</time>
      </trkpt>
      <trkpt lat="43.84783" lon="7.49064">
        <ele>1024.121582</ele>
        <time>2008-10-05T11:15:14Z</time>
      </trkpt>
      <trkpt lat="43.84781" lon="7.49067">
        <ele>1024.1168213</ele>
        <time>2008-10-05T11:15:16Z</time>
      </trkpt>
      <trkpt lat="43.84776" lon="7.49096">
        <ele>1027.052124</ele>
        <time>2008-10-05T11:15:25Z</time>
      </trkpt>
      <trkpt lat="43.84765" lon="7.49106">
        <ele>1023.5610962</ele>
        <time>2008-10-05T11:15:30Z</time>
      </trkpt>
      <trkpt lat="43.84748" lon="7.49126">
        <ele>1018.9874878</ele>
        <time>2008-10-05T11:15:39Z</time>
      </trkpt>
      <trkpt lat="43.84739" lon="7.49143">
        <ele>1017.1860352</ele>
        <time>2008-10-05T11:15:46Z</time>
      </trkpt>
      <trkpt lat="43.84732" lon="7.49151">
        <ele>1015.6547852</ele>
        <time>2008-10-05T11:15:50Z</time>
      </trkpt>
      <trkpt lat="43.84719" lon="7.49175">
        <ele>1013.6438599</ele>
        <time>2008-10-05T11:16:02Z</time>
      </trkpt>
      <trkpt lat="43.84719" lon="7.49181">
        <ele>1014.3971558</ele>
        <time>2008-10-05T11:16:04Z</time>
      </trkpt>
      <trkpt lat="43.84716" lon="7.49202">
        <ele>1016.4735718</ele>
        <time>2008-10-05T11:16:12Z</time>
      </trkpt>
      <trkpt lat="43.84725" lon="7.49228">
        <ele>1023.1098022</ele>
        <time>2008-10-05T11:16:22Z</time>
      </trkpt>
      <trkpt lat="43.84724" lon="7.49241">
        <ele>1024.9017334</ele>
        <time>2008-10-05T11:16:26Z</time>
      </trkpt>
      <trkpt lat="43.84716" lon="7.49259">
        <ele>1023.4691162</ele>
        <time>2008-10-05T11:16:32Z</time>
      </trkpt>
      <trkpt lat="43.8471" lon="7.49267">
        <ele>1021.9318848</ele>
        <time>2008-10-05T11:16:35Z</time>
      </trkpt>
      <trkpt lat="43.84702" lon="7.49288">
        <ele>1020.6226196</ele>
        <time>2008-10-05T11:16:43Z</time>
      </trkpt>
      <trkpt lat="43.84697" lon="7.49302">
        <ele>1019.7971802</ele>
        <time>2008-10-05T11:16:48Z</time>
      </trkpt>
      <trkpt lat="43.84679" lon="7.49321">
        <ele>1015.7789917</ele>
        <time>2008-10-05T11:16:57Z</time>
      </trkpt>
      <trkpt lat="43.84672" lon="7.49326">
        <ele>1013.8953857</ele>
        <time>2008-10-05T11:17:01Z</time>
      </trkpt>
      <trkpt lat="43.84663" lon="7.49333">
        <ele>1011.9974365</ele>
        <time>2008-10-05T11:17:04Z</time>
      </trkpt>
      <trkpt lat="43.84653" lon="7.49341">
        <ele>1010.5548096</ele>
        <time>2008-10-05T11:17:09Z</time>
      </trkpt>
      <trkpt lat="43.84632" lon="7.49351">
        <ele>1006.6578979</ele>
        <time>2008-10-05T11:17:19Z</time>
      </trkpt>
      <trkpt lat="43.8462" lon="7.49366">
        <ele>1005.6013184</ele>
        <time>2008-10-05T11:17:30Z</time>
      </trkpt>
      <trkpt lat="43.84616" lon="7.49369">
        <ele>1005.1184082</ele>
        <time>2008-10-05T11:17:32Z</time>
      </trkpt>
      <trkpt lat="43.8461" lon="7.4938">
        <ele>1005.0338745</ele>
        <time>2008-10-05T11:17:37Z</time>
      </trkpt>
      <trkpt lat="43.84605" lon="7.49408">
        <ele>1007.7618408</ele>
        <time>2008-10-05T11:17:50Z</time>
      </trkpt>
      <trkpt lat="43.84603" lon="7.49432">
        <ele>1012.0071411</ele>
        <time>2008-10-05T11:18:02Z</time>
      </trkpt>
      <trkpt lat="43.84599" lon="7.49444">
        <ele>1013.6870728</ele>
        <time>2008-10-05T11:18:08Z</time>
      </trkpt>
      <trkpt lat="43.84591" lon="7.4947">
        <ele>1016.133728</ele>
        <time>2008-10-05T11:18:20Z</time>
      </trkpt>
      <trkpt lat="43.84589" lon="7.49477">
        <ele>1017.0345459</ele>
        <time>2008-10-05T11:18:23Z</time>
      </trkpt>
      <trkpt lat="43.84586" lon="7.49509">
        <ele>1021.972229</ele>
        <time>2008-10-05T11:18:40Z</time>
      </trkpt>
      <trkpt lat="43.84583" lon="7.49514">
        <ele>1022.2263184</ele>
        <time>2008-10-05T11:18:42Z</time>
      </trkpt>
      <trkpt lat="43.84581" lon="7.49523">
        <ele>1023.0911255</ele>
        <time>2008-10-05T11:18:45Z</time>
      </trkpt>
      <trkpt lat="43.84576" lon="7.49538">
        <ele>1024.69104</ele>
        <time>2008-10-05T11:18:50Z</time>
      </trkpt>
      <trkpt lat="43.84569" lon="7.49565">
        <ele>1027.3571777</ele>
        <time>2008-10-05T11:19:01Z</time>
      </trkpt>
      <trkpt lat="43.84559" lon="7.49588">
        <ele>1027.6008301</ele>
        <time>2008-10-05T11:19:10Z</time>
      </trkpt>
      <trkpt lat="43.84548" lon="7.49607">
        <ele>1026.3900146</ele>
        <time>2008-10-05T11:19:20Z</time>
      </trkpt>
      <trkpt lat="43.84536" lon="7.49629">
        <ele>1025.2139893</ele>
        <time>2008-10-05T11:19:29Z</time>
      </trkpt>
      <trkpt lat="43.84534" lon="7.49631">
        <ele>1024.9326172</ele>
        <time>2008-10-05T11:19:30Z</time>
      </trkpt>
      <trkpt lat="43.84533" lon="7.49636">
        <ele>1025.3574219</ele>
        <time>2008-10-05T11:19:33Z</time>
      </trkpt>
      <trkpt lat="43.8453" lon="7.49642">
        <ele>1025.3292236</ele>
        <time>2008-10-05T11:19:37Z</time>
      </trkpt>
      <trkpt lat="43.84521" lon="7.49656">
        <ele>1024.2924805</ele>
        <time>2008-10-05T11:19:45Z</time>
      </trkpt>
      <trkpt lat="43.84512" lon="7.49668">
        <ele>1022.8911133</ele>
        <time>2008-10-05T11:19:51Z</time>
      </trkpt>
      <trkpt lat="43.84509" lon="7.49677">
        <ele>1023.4060669</ele>
        <time>2008-10-05T11:19:56Z</time>
      </trkpt>
      <trkpt lat="43.84504" lon="7.49689">
        <ele>1024.1682129</ele>
        <time>2008-10-05T11:20:02Z</time>
      </trkpt>
      <trkpt lat="43.84496" lon="7.49713">
        <ele>1027.2524414</ele>
        <time>2008-10-05T11:20:16Z</time>
      </trkpt>
      <trkpt lat="43.84494" lon="7.49722">
        <ele>1028.7320557</ele>
        <time>2008-10-05T11:20:21Z</time>
      </trkpt>
      <trkpt lat="43.84491" lon="7.49726">
        <ele>1029.3271484</ele>
        <time>2008-10-05T11:20:25Z</time>
      </trkpt>
      <trkpt lat="43.84483" lon="7.4974">
        <ele>1031.3204346</ele>
        <time>2008-10-05T11:20:35Z</time>
      </trkpt>
      <trkpt lat="43.84481" lon="7.49744">
        <ele>1032.0004883</ele>
        <time>2008-10-05T11:20:39Z</time>
      </trkpt>
      <trkpt lat="43.84477" lon="7.49752">
        <ele>1033.3790283</ele>
        <time>2008-10-05T11:20:45Z</time>
      </trkpt>
      <trkpt lat="43.84475" lon="7.49756">
        <ele>1034.362793</ele>
        <time>2008-10-05T11:20:49Z</time>
      </trkpt>
      <trkpt lat="43.8447" lon="7.49763">
        <ele>1035.75354</ele>
        <time>2008-10-05T11:20:54Z</time>
      </trkpt>
      <trkpt lat="43.84468" lon="7.49767">
        <ele>1036.8117676</ele>
        <time>2008-10-05T11:20:58Z</time>
      </trkpt>
      <trkpt lat="43.84455" lon="7.49789">
        <ele>1040.8754883</ele>
        <time>2008-10-05T11:21:14Z</time>
      </trkpt>
      <trkpt lat="43.84453" lon="7.49799">
        <ele>1043.6656494</ele>
        <time>2008-10-05T11:21:21Z</time>
      </trkpt>
      <trkpt lat="43.84449" lon="7.49821">
        <ele>1049.2348633</ele>
        <time>2008-10-05T11:21:38Z</time>
      </trkpt>
      <trkpt lat="43.84448" lon="7.49827">
        <ele>1051.1818848</ele>
        <time>2008-10-05T11:21:43Z</time>
      </trkpt>
      <trkpt lat="43.84448" lon="7.49832">
        <ele>1052.3156738</ele>
        <time>2008-10-05T11:21:46Z</time>
      </trkpt>
      <trkpt lat="43.84448" lon="7.49839">
        <ele>1054.3013916</ele>
        <time>2008-10-05T11:21:55Z</time>
      </trkpt>
      <trkpt lat="43.84447" lon="7.4984">
        <ele>1054.1433105</ele>
        <time>2008-10-05T11:21:57Z</time>
      </trkpt>
      <trkpt lat="43.84443" lon="7.49849">
        <ele>1055.0675049</ele>
        <time>2008-10-05T11:22:03Z</time>
      </trkpt>
      <trkpt lat="43.84438" lon="7.49866">
        <ele>1057.1290283</ele>
        <time>2008-10-05T11:22:11Z</time>
      </trkpt>
      <trkpt lat="43.84436" lon="7.49873">
        <ele>1057.8713379</ele>
        <time>2008-10-05T11:22:13Z</time>
      </trkpt>
      <trkpt lat="43.84433" lon="7.49881">
        <ele>1058.2532959</ele>
        <time>2008-10-05T11:22:16Z</time>
      </trkpt>
      <trkpt lat="43.8443" lon="7.49901">
        <ele>1061.1240234</ele>
        <time>2008-10-05T11:22:22Z</time>
      </trkpt>
      <trkpt lat="43.84428" lon="7.49911">
        <ele>1061.9189453</ele>
        <time>2008-10-05T11:22:26Z</time>
      </trkpt>
      <trkpt lat="43.84429" lon="7.49921">
        <ele>1064.1486816</ele>
        <time>2008-10-05T11:22:31Z</time>
      </trkpt>
      <trkpt lat="43.84424" lon="7.49936">
        <ele>1063.637207</ele>
        <time>2008-10-05T11:22:36Z</time>
      </trkpt>
      <trkpt lat="43.84422" lon="7.49936">
        <ele>1062.8878174</ele>
        <time>2008-10-05T11:22:38Z</time>
      </trkpt>
      <trkpt lat="43.84421" lon="7.49941">
        <ele>1063.0473633</ele>
        <time>2008-10-05T11:22:42Z</time>
      </trkpt>
      <trkpt lat="43.84418" lon="7.49949">
        <ele>1063.019043</ele>
        <time>2008-10-05T11:22:47Z</time>
      </trkpt>
      <trkpt lat="43.84419" lon="7.49952">
        <ele>1063.5670166</ele>
        <time>2008-10-05T11:22:49Z</time>
      </trkpt>
      <trkpt lat="43.8441" lon="7.49962">
        <ele>1066.7331543</ele>
        <time>2008-10-05T11:23:00Z</time>
      </trkpt>
      <trkpt lat="43.84404" lon="7.49966">
        <ele>1069.8551025</ele>
        <time>2008-10-05T11:23:09Z</time>
      </trkpt>
      <trkpt lat="43.84395" lon="7.49969">
        <ele>1074.2032471</ele>
        <time>2008-10-05T11:23:20Z</time>
      </trkpt>
      <trkpt lat="43.84392" lon="7.49972">
        <ele>1075.6173096</ele>
        <time>2008-10-05T11:23:24Z</time>
      </trkpt>
      <trkpt lat="43.84383" lon="7.49986">
        <ele>1080.460083</ele>
        <time>2008-10-05T11:23:31Z</time>
      </trkpt>
      <trkpt lat="43.84376" lon="7.49999">
        <ele>1084.1811523</ele>
        <time>2008-10-05T11:23:37Z</time>
      </trkpt>
      <trkpt lat="43.84372" lon="7.50007">
        <ele>1085.7921143</ele>
        <time>2008-10-05T11:23:42Z</time>
      </trkpt>
      <trkpt lat="43.84369" lon="7.50015">
        <ele>1087.4204102</ele>
        <time>2008-10-05T11:23:49Z</time>
      </trkpt>
      <trkpt lat="43.84362" lon="7.50025">
        <ele>1089.744873</ele>
        <time>2008-10-05T11:23:59Z</time>
      </trkpt>
      <trkpt lat="43.84361" lon="7.50025">
        <ele>1090.3588867</ele>
        <time>2008-10-05T11:24:01Z</time>
      </trkpt>
      <trkpt lat="43.84359" lon="7.50025">
        <ele>1090.9750977</ele>
        <time>2008-10-05T11:24:03Z</time>
      </trkpt>
      <trkpt lat="43.84342" lon="7.50032">
        <ele>1096.1253662</ele>
        <time>2008-10-05T11:24:27Z</time>
      </trkpt>
      <trkpt lat="43.84327" lon="7.50042">
        <ele>1101.631958</ele>
        <time>2008-10-05T11:24:46Z</time>
      </trkpt>
      <trkpt lat="43.8432" lon="7.50051">
        <ele>1104.005127</ele>
        <time>2008-10-05T11:24:54Z</time>
      </trkpt>
      <trkpt lat="43.84308" lon="7.5006">
        <ele>1108.609375</ele>
        <time>2008-10-05T11:25:06Z</time>
      </trkpt>
      <trkpt lat="43.84304" lon="7.50069">
        <ele>1109.3459473</ele>
        <time>2008-10-05T11:25:11Z</time>
      </trkpt>
      <trkpt lat="43.84301" lon="7.50075">
        <ele>1110.0804443</ele>
        <time>2008-10-05T11:25:16Z</time>
      </trkpt>
      <trkpt lat="43.84287" lon="7.50088">
        <ele>1114.0076904</ele>
        <time>2008-10-05T11:25:28Z</time>
      </trkpt>
      <trkpt lat="43.84281" lon="7.50091">
        <ele>1115.5672607</ele>
        <time>2008-10-05T11:25:32Z</time>
      </trkpt>
      <trkpt lat="43.84277" lon="7.50098">
        <ele>1116.2653809</ele>
        <time>2008-10-05T11:25:38Z</time>
      </trkpt>
      <trkpt lat="43.84274" lon="7.50105">
        <ele>1116.350708</ele>
        <time>2008-10-05T11:25:43Z</time>
      </trkpt>
      <trkpt lat="43.84271" lon="7.50114">
        <ele>1116.0167236</ele>
        <time>2008-10-05T11:25:47Z</time>
      </trkpt>
      <trkpt lat="43.84268" lon="7.50117">
        <ele>1116.5361328</ele>
        <time>2008-10-05T11:25:50Z</time>
      </trkpt>
      <trkpt lat="43.84263" lon="7.50128">
        <ele>1116.1591797</ele>
        <time>2008-10-05T11:25:57Z</time>
      </trkpt>
      <trkpt lat="43.84262" lon="7.50132">
        <ele>1115.7789307</ele>
        <time>2008-10-05T11:26:01Z</time>
      </trkpt>
      <trkpt lat="43.84266" lon="7.50158">
        <ele>1111.0506592</ele>
        <time>2008-10-05T11:26:17Z</time>
      </trkpt>
      <trkpt lat="43.84266" lon="7.50161">
        <ele>1110.5761719</ele>
        <time>2008-10-05T11:26:19Z</time>
      </trkpt>
      <trkpt lat="43.84267" lon="7.50164">
        <ele>1109.894043</ele>
        <time>2008-10-05T11:26:25Z</time>
      </trkpt>
      <trkpt lat="43.84277" lon="7.50187">
        <ele>1109.6688232</ele>
        <time>2008-10-05T11:26:36Z</time>
      </trkpt>
      <trkpt lat="43.84289" lon="7.50199">
        <ele>1109.5561523</ele>
        <time>2008-10-05T11:26:52Z</time>
      </trkpt>
      <trkpt lat="43.84303" lon="7.50198">
        <ele>1108.1639404</ele>
        <time>2008-10-05T11:28:06Z</time>
      </trkpt>
      <trkpt lat="43.84312" lon="7.50202">
        <ele>1107.8251953</ele>
        <time>2008-10-05T11:28:40Z</time>
      </trkpt>
      <trkpt lat="43.84314" lon="7.50202">
        <ele>1107.6459961</ele>
        <time>2008-10-05T11:28:43Z</time>
      </trkpt>
      <trkpt lat="43.84306" lon="7.50203">
        <ele>1108.4067383</ele>
        <time>2008-10-05T11:28:50Z</time>
      </trkpt>
      <trkpt lat="43.8432" lon="7.50202">
        <ele>1107.0739746</ele>
        <time>2008-10-05T11:28:57Z</time>
      </trkpt>
      <trkpt lat="43.84333" lon="7.50204">
        <ele>1106.3435059</ele>
        <time>2008-10-05T11:29:04Z</time>
      </trkpt>
      <trkpt lat="43.84342" lon="7.50213">
        <ele>1108.1275635</ele>
        <time>2008-10-05T11:29:13Z</time>
      </trkpt>
      <trkpt lat="43.84344" lon="7.50215">
        <ele>1108.5931396</ele>
        <time>2008-10-05T11:29:17Z</time>
      </trkpt>
      <trkpt lat="43.84363" lon="7.50221">
        <ele>1110.5325928</ele>
        <time>2008-10-05T11:29:41Z</time>
      </trkpt>
      <trkpt lat="43.84369" lon="7.5022">
        <ele>1110.6257324</ele>
        <time>2008-10-05T11:29:46Z</time>
      </trkpt>
      <trkpt lat="43.84389" lon="7.50222">
        <ele>1112.3032227</ele>
        <time>2008-10-05T11:30:04Z</time>
      </trkpt>
      <trkpt lat="43.84401" lon="7.50227">
        <ele>1114.2348633</ele>
        <time>2008-10-05T11:30:14Z</time>
      </trkpt>
      <trkpt lat="43.84404" lon="7.50232">
        <ele>1115.6446533</ele>
        <time>2008-10-05T11:30:18Z</time>
      </trkpt>
      <trkpt lat="43.84405" lon="7.50236">
        <ele>1117.0509033</ele>
        <time>2008-10-05T11:30:22Z</time>
      </trkpt>
      <trkpt lat="43.84404" lon="7.50239">
        <ele>1117.5812988</ele>
        <time>2008-10-05T11:30:24Z</time>
      </trkpt>
      <trkpt lat="43.84399" lon="7.50242">
        <ele>1118.1551514</ele>
        <time>2008-10-05T11:30:31Z</time>
      </trkpt>
      <trkpt lat="43.84395" lon="7.50245">
        <ele>1118.6655273</ele>
        <time>2008-10-05T11:30:36Z</time>
      </trkpt>
      <trkpt lat="43.84379" lon="7.50262">
        <ele>1123.2509766</ele>
        <time>2008-10-05T11:30:54Z</time>
      </trkpt>
      <trkpt lat="43.84366" lon="7.50281">
        <ele>1128.2866211</ele>
        <time>2008-10-05T11:31:11Z</time>
      </trkpt>
      <trkpt lat="43.84351" lon="7.50296">
        <ele>1130.3569336</ele>
        <time>2008-10-05T11:31:27Z</time>
      </trkpt>
      <trkpt lat="43.84338" lon="7.50313">
        <ele>1131.963501</ele>
        <time>2008-10-05T11:31:44Z</time>
      </trkpt>
      <trkpt lat="43.84337" lon="7.50314">
        <ele>1131.9929199</ele>
        <time>2008-10-05T11:31:45Z</time>
      </trkpt>
      <trkpt lat="43.84325" lon="7.50335">
        <ele>1135.855835</ele>
        <time>2008-10-05T11:32:10Z</time>
      </trkpt>
      <trkpt lat="43.84322" lon="7.50341">
        <ele>1137.6951904</ele>
        <time>2008-10-05T11:32:16Z</time>
      </trkpt>
      <trkpt lat="43.84317" lon="7.50348">
        <ele>1139.6499023</ele>
        <time>2008-10-05T11:32:23Z</time>
      </trkpt>
      <trkpt lat="43.84311" lon="7.50373">
        <ele>1148.1126709</ele>
        <time>2008-10-05T11:32:42Z</time>
      </trkpt>
      <trkpt lat="43.84312" lon="7.50399">
        <ele>1157.3945313</ele>
        <time>2008-10-05T11:32:59Z</time>
      </trkpt>
      <trkpt lat="43.84309" lon="7.5042">
        <ele>1164.4178467</ele>
        <time>2008-10-05T11:33:16Z</time>
      </trkpt>
      <trkpt lat="43.84306" lon="7.50429">
        <ele>1166.2137451</ele>
        <time>2008-10-05T11:33:23Z</time>
      </trkpt>
      <trkpt lat="43.84306" lon="7.50432">
        <ele>1167.0743408</ele>
        <time>2008-10-05T11:33:26Z</time>
      </trkpt>
      <trkpt lat="43.84314" lon="7.50429">
        <ele>1167.2095947</ele>
        <time>2008-10-05T11:33:38Z</time>
      </trkpt>
      <trkpt lat="43.84329" lon="7.5042">
        <ele>1166.9598389</ele>
        <time>2008-10-05T11:33:48Z</time>
      </trkpt>
      <trkpt lat="43.84332" lon="7.50425">
        <ele>1168.3560791</ele>
        <time>2008-10-05T11:33:53Z</time>
      </trkpt>
      <trkpt lat="43.84333" lon="7.50428">
        <ele>1169.0334473</ele>
        <time>2008-10-05T11:33:56Z</time>
      </trkpt>
      <trkpt lat="43.84335" lon="7.50433">
        <ele>1170.3481445</ele>
        <time>2008-10-05T11:34:02Z</time>
      </trkpt>
      <trkpt lat="43.84335" lon="7.50449">
        <ele>1173.3253174</ele>
        <time>2008-10-05T11:34:18Z</time>
      </trkpt>
      <trkpt lat="43.84336" lon="7.50454">
        <ele>1174.2591553</ele>
        <time>2008-10-05T11:34:21Z</time>
      </trkpt>
      <trkpt lat="43.8433" lon="7.50473">
        <ele>1177.7824707</ele>
        <time>2008-10-05T11:34:34Z</time>
      </trkpt>
      <trkpt lat="43.84332" lon="7.50481">
        <ele>1179.2980957</ele>
        <time>2008-10-05T11:34:38Z</time>
      </trkpt>
      <trkpt lat="43.84336" lon="7.50489">
        <ele>1180.725708</ele>
        <time>2008-10-05T11:34:42Z</time>
      </trkpt>
      <trkpt lat="43.84346" lon="7.50503">
        <ele>1182.2736816</ele>
        <time>2008-10-05T11:34:50Z</time>
      </trkpt>
      <trkpt lat="43.84352" lon="7.50509">
        <ele>1182.7004395</ele>
        <time>2008-10-05T11:34:54Z</time>
      </trkpt>
      <trkpt lat="43.84357" lon="7.50516">
        <ele>1183.1699219</ele>
        <time>2008-10-05T11:34:59Z</time>
      </trkpt>
      <trkpt lat="43.84364" lon="7.50541">
        <ele>1185.6937256</ele>
        <time>2008-10-05T11:35:10Z</time>
      </trkpt>
      <trkpt lat="43.84364" lon="7.50566">
        <ele>1189.2680664</ele>
        <time>2008-10-05T11:35:19Z</time>
      </trkpt>
      <trkpt lat="43.84364" lon="7.50571">
        <ele>1189.9626465</ele>
        <time>2008-10-05T11:35:21Z</time>
      </trkpt>
      <trkpt lat="43.84362" lon="7.50579">
        <ele>1191.4265137</ele>
        <time>2008-10-05T11:35:25Z</time>
      </trkpt>
      <trkpt lat="43.84355" lon="7.50597">
        <ele>1196.9301758</ele>
        <time>2008-10-05T11:35:38Z</time>
      </trkpt>
      <trkpt lat="43.84354" lon="7.50602">
        <ele>1198.2219238</ele>
        <time>2008-10-05T11:35:42Z</time>
      </trkpt>
      <trkpt lat="43.84352" lon="7.5061">
        <ele>1200.2009277</ele>
        <time>2008-10-05T11:35:46Z</time>
      </trkpt>
      <trkpt lat="43.84352" lon="7.50615">
        <ele>1201.3830566</ele>
        <time>2008-10-05T11:35:50Z</time>
      </trkpt>
      <trkpt lat="43.84353" lon="7.5062">
        <ele>1202.2108154</ele>
        <time>2008-10-05T11:35:55Z</time>
      </trkpt>
      <trkpt lat="43.84352" lon="7.50637">
        <ele>1206.1746826</ele>
        <time>2008-10-05T11:36:03Z</time>
      </trkpt>
      <trkpt lat="43.84353" lon="7.50659">
        <ele>1210.3061523</ele>
        <time>2008-10-05T11:36:14Z</time>
      </trkpt>
      <trkpt lat="43.84358" lon="7.50678">
        <ele>1212.9622803</ele>
        <time>2008-10-05T11:36:26Z</time>
      </trkpt>
      <trkpt lat="43.84361" lon="7.50691">
        <ele>1215.1888428</ele>
        <time>2008-10-05T11:36:37Z</time>
      </trkpt>
      <trkpt lat="43.84366" lon="7.50704">
        <ele>1216.4022217</ele>
        <time>2008-10-05T11:36:45Z</time>
      </trkpt>
      <trkpt lat="43.84367" lon="7.50721">
        <ele>1220.1274414</ele>
        <time>2008-10-05T11:36:56Z</time>
      </trkpt>
      <trkpt lat="43.84371" lon="7.50739">
        <ele>1223.1799316</ele>
        <time>2008-10-05T11:37:09Z</time>
      </trkpt>
      <trkpt lat="43.84376" lon="7.50755">
        <ele>1224.5668945</ele>
        <time>2008-10-05T11:37:22Z</time>
      </trkpt>
      <trkpt lat="43.84377" lon="7.50757">
        <ele>1224.5938721</ele>
        <time>2008-10-05T11:37:24Z</time>
      </trkpt>
      <trkpt lat="43.84382" lon="7.50776">
        <ele>1226.3470459</ele>
        <time>2008-10-05T11:37:38Z</time>
      </trkpt>
      <trkpt lat="43.84388" lon="7.50788">
        <ele>1226.4588623</ele>
        <time>2008-10-05T11:37:46Z</time>
      </trkpt>
      <trkpt lat="43.84389" lon="7.50796">
        <ele>1227.4018555</ele>
        <time>2008-10-05T11:37:51Z</time>
      </trkpt>
      <trkpt lat="43.8439" lon="7.50805">
        <ele>1229.1281738</ele>
        <time>2008-10-05T11:37:57Z</time>
      </trkpt>
      <trkpt lat="43.84391" lon="7.50826">
        <ele>1232.9700928</ele>
        <time>2008-10-05T11:38:11Z</time>
      </trkpt>
      <trkpt lat="43.84397" lon="7.50843">
        <ele>1233.5334473</ele>
        <time>2008-10-05T11:38:22Z</time>
      </trkpt>
      <trkpt lat="43.84406" lon="7.50866">
        <ele>1234.2437744</ele>
        <time>2008-10-05T11:38:40Z</time>
      </trkpt>
      <trkpt lat="43.84409" lon="7.50876">
        <ele>1234.8952637</ele>
        <time>2008-10-05T11:38:47Z</time>
      </trkpt>
      <trkpt lat="43.8441" lon="7.50896">
        <ele>1239.0458984</ele>
        <time>2008-10-05T11:38:58Z</time>
      </trkpt>
      <trkpt lat="43.84411" lon="7.50899">
        <ele>1239.1040039</ele>
        <time>2008-10-05T11:39:00Z</time>
      </trkpt>
      <trkpt lat="43.84409" lon="7.50907">
        <ele>1242.0463867</ele>
        <time>2008-10-05T11:39:05Z</time>
      </trkpt>
      <trkpt lat="43.84415" lon="7.50919">
        <ele>1241.4187012</ele>
        <time>2008-10-05T11:39:12Z</time>
      </trkpt>
      <trkpt lat="43.84421" lon="7.50925">
        <ele>1241.0424805</ele>
        <time>2008-10-05T11:39:20Z</time>
      </trkpt>
      <trkpt lat="43.8443" lon="7.50932">
        <ele>1240.6955566</ele>
        <time>2008-10-05T11:39:29Z</time>
      </trkpt>
      <trkpt lat="43.84438" lon="7.50939">
        <ele>1240.2966309</ele>
        <time>2008-10-05T11:39:39Z</time>
      </trkpt>
      <trkpt lat="43.84441" lon="7.50945">
        <ele>1241.2575684</ele>
        <time>2008-10-05T11:39:44Z</time>
      </trkpt>
      <trkpt lat="43.84442" lon="7.50951">
        <ele>1242.4836426</ele>
        <time>2008-10-05T11:39:50Z</time>
      </trkpt>
      <trkpt lat="43.84449" lon="7.50965">
        <ele>1244.2180176</ele>
        <time>2008-10-05T11:40:01Z</time>
      </trkpt>
      <trkpt lat="43.84455" lon="7.50974">
        <ele>1244.7415771</ele>
        <time>2008-10-05T11:40:09Z</time>
      </trkpt>
      <trkpt lat="43.8446" lon="7.51">
        <ele>1249.6043701</ele>
        <time>2008-10-05T11:40:27Z</time>
      </trkpt>
      <trkpt lat="43.84449" lon="7.5102">
        <ele>1253.9813232</ele>
        <time>2008-10-05T11:40:43Z</time>
      </trkpt>
      <trkpt lat="43.84438" lon="7.5104">
        <ele>1259.1036377</ele>
        <time>2008-10-05T11:41:04Z</time>
      </trkpt>
      <trkpt lat="43.84427" lon="7.51062">
        <ele>1265.2984619</ele>
        <time>2008-10-05T11:41:20Z</time>
      </trkpt>
      <trkpt lat="43.84423" lon="7.51069">
        <ele>1267.4954834</ele>
        <time>2008-10-05T11:41:24Z</time>
      </trkpt>
      <trkpt lat="43.84407" lon="7.51083">
        <ele>1275.8261719</ele>
        <time>2008-10-05T11:41:47Z</time>
      </trkpt>
      <trkpt lat="43.84394" lon="7.51089">
        <ele>1279.9788818</ele>
        <time>2008-10-05T11:42:01Z</time>
      </trkpt>
      <trkpt lat="43.84374" lon="7.51086">
        <ele>1287.977417</ele>
        <time>2008-10-05T11:42:13Z</time>
      </trkpt>
      <trkpt lat="43.84365" lon="7.51082">
        <ele>1291.6191406</ele>
        <time>2008-10-05T11:42:18Z</time>
      </trkpt>
      <trkpt lat="43.84358" lon="7.51083">
        <ele>1294.5749512</ele>
        <time>2008-10-05T11:42:23Z</time>
      </trkpt>
      <trkpt lat="43.84346" lon="7.5109">
        <ele>1298.3514404</ele>
        <time>2008-10-05T11:42:30Z</time>
      </trkpt>
      <trkpt lat="43.84334" lon="7.51099">
        <ele>1301.4471436</ele>
        <time>2008-10-05T11:42:38Z</time>
      </trkpt>
      <trkpt lat="43.84317" lon="7.51111">
        <ele>1308.8320313</ele>
        <time>2008-10-05T11:42:51Z</time>
      </trkpt>
      <trkpt lat="43.84315" lon="7.51112">
        <ele>1309.708252</ele>
        <time>2008-10-05T11:42:53Z</time>
      </trkpt>
      <trkpt lat="43.8431" lon="7.51115">
        <ele>1311.5961914</ele>
        <time>2008-10-05T11:42:57Z</time>
      </trkpt>
      <trkpt lat="43.84293" lon="7.51127">
        <ele>1317.6625977</ele>
        <time>2008-10-05T11:43:10Z</time>
      </trkpt>
      <trkpt lat="43.84289" lon="7.5113">
        <ele>1318.5999756</ele>
        <time>2008-10-05T11:43:13Z</time>
      </trkpt>
      <trkpt lat="43.84272" lon="7.51144">
        <ele>1322.9240723</ele>
        <time>2008-10-05T11:43:28Z</time>
      </trkpt>
      <trkpt lat="43.84253" lon="7.51144">
        <ele>1331.6658936</ele>
        <time>2008-10-05T11:43:42Z</time>
      </trkpt>
      <trkpt lat="43.84235" lon="7.51148">
        <ele>1334.3757324</ele>
        <time>2008-10-05T11:43:54Z</time>
      </trkpt>
      <trkpt lat="43.84218" lon="7.51158">
        <ele>1334.284668</ele>
        <time>2008-10-05T11:44:05Z</time>
      </trkpt>
      <trkpt lat="43.84203" lon="7.51172">
        <ele>1332.4643555</ele>
        <time>2008-10-05T11:44:18Z</time>
      </trkpt>
      <trkpt lat="43.84196" lon="7.51177">
        <ele>1332.0391846</ele>
        <time>2008-10-05T11:44:23Z</time>
      </trkpt>
      <trkpt lat="43.84193" lon="7.5118">
        <ele>1331.5592041</ele>
        <time>2008-10-05T11:44:27Z</time>
      </trkpt>
      <trkpt lat="43.8418" lon="7.51201">
        <ele>1327.4918213</ele>
        <time>2008-10-05T11:44:41Z</time>
      </trkpt>
      <trkpt lat="43.84171" lon="7.51223">
        <ele>1322.5841064</ele>
        <time>2008-10-05T11:44:54Z</time>
      </trkpt>
      <trkpt lat="43.84163" lon="7.51247">
        <ele>1315.0317383</ele>
        <time>2008-10-05T11:45:04Z</time>
      </trkpt>
      <trkpt lat="43.84158" lon="7.51271">
        <ele>1308.923584</ele>
        <time>2008-10-05T11:45:15Z</time>
      </trkpt>
      <trkpt lat="43.84152" lon="7.51296">
        <ele>1303.1448975</ele>
        <time>2008-10-05T11:45:25Z</time>
      </trkpt>
      <trkpt lat="43.84153" lon="7.51316">
        <ele>1300.0706787</ele>
        <time>2008-10-05T11:45:31Z</time>
      </trkpt>
      <trkpt lat="43.84151" lon="7.51335">
        <ele>1296.5738525</ele>
        <time>2008-10-05T11:45:38Z</time>
      </trkpt>
      <trkpt lat="43.84153" lon="7.51348">
        <ele>1295.2990723</ele>
        <time>2008-10-05T11:45:45Z</time>
      </trkpt>
      <trkpt lat="43.8415" lon="7.51366">
        <ele>1292.4162598</ele>
        <time>2008-10-05T11:45:53Z</time>
      </trkpt>
      <trkpt lat="43.8415" lon="7.51376">
        <ele>1291.3942871</ele>
        <time>2008-10-05T11:45:56Z</time>
      </trkpt>
      <trkpt lat="43.84145" lon="7.51392">
        <ele>1288.0743408</ele>
        <time>2008-10-05T11:46:02Z</time>
      </trkpt>
      <trkpt lat="43.84135" lon="7.51404">
        <ele>1283.8778076</ele>
        <time>2008-10-05T11:46:09Z</time>
      </trkpt>
      <trkpt lat="43.84128" lon="7.51391">
        <ele>1283.4108887</ele>
        <time>2008-10-05T11:46:17Z</time>
      </trkpt>
      <trkpt lat="43.8412" lon="7.51365">
        <ele>1284.3641357</ele>
        <time>2008-10-05T11:46:26Z</time>
      </trkpt>
      <trkpt lat="43.84116" lon="7.51351">
        <ele>1284.8540039</ele>
        <time>2008-10-05T11:46:30Z</time>
      </trkpt>
      <trkpt lat="43.84103" lon="7.51326">
        <ele>1284.6505127</ele>
        <time>2008-10-05T11:46:39Z</time>
      </trkpt>
      <trkpt lat="43.84092" lon="7.51305">
        <ele>1284.9012451</ele>
        <time>2008-10-05T11:46:47Z</time>
      </trkpt>
      <trkpt lat="43.84085" lon="7.5128">
        <ele>1286.6451416</ele>
        <time>2008-10-05T11:46:55Z</time>
      </trkpt>
      <trkpt lat="43.84074" lon="7.51257">
        <ele>1284.5786133</ele>
        <time>2008-10-05T11:47:03Z</time>
      </trkpt>
      <trkpt lat="43.84064" lon="7.51233">
        <ele>1282.6387939</ele>
        <time>2008-10-05T11:47:11Z</time>
      </trkpt>
      <trkpt lat="43.84058" lon="7.51207">
        <ele>1284.0678711</ele>
        <time>2008-10-05T11:47:20Z</time>
      </trkpt>
      <trkpt lat="43.84053" lon="7.51182">
        <ele>1285.241333</ele>
        <time>2008-10-05T11:47:28Z</time>
      </trkpt>
      <trkpt lat="43.84045" lon="7.51158">
        <ele>1285.2607422</ele>
        <time>2008-10-05T11:47:36Z</time>
      </trkpt>
      <trkpt lat="43.84044" lon="7.51155">
        <ele>1285.1977539</ele>
        <time>2008-10-05T11:47:37Z</time>
      </trkpt>
      <trkpt lat="43.84037" lon="7.51146">
        <ele>1283.364624</ele>
        <time>2008-10-05T11:47:41Z</time>
      </trkpt>
      <trkpt lat="43.84027" lon="7.51121">
        <ele>1282.1700439</ele>
        <time>2008-10-05T11:47:53Z</time>
      </trkpt>
      <trkpt lat="43.84017" lon="7.51097">
        <ele>1281.1672363</ele>
        <time>2008-10-05T11:48:01Z</time>
      </trkpt>
      <trkpt lat="43.84002" lon="7.51078">
        <ele>1276.5081787</ele>
        <time>2008-10-05T11:48:09Z</time>
      </trkpt>
      <trkpt lat="43.83993" lon="7.51057">
        <ele>1275.4196777</ele>
        <time>2008-10-05T11:48:16Z</time>
      </trkpt>
      <trkpt lat="43.83985" lon="7.51034">
        <ele>1275.918457</ele>
        <time>2008-10-05T11:48:24Z</time>
      </trkpt>
      <trkpt lat="43.83975" lon="7.51013">
        <ele>1275.3747559</ele>
        <time>2008-10-05T11:48:32Z</time>
      </trkpt>
      <trkpt lat="43.83963" lon="7.5099">
        <ele>1275.5059814</ele>
        <time>2008-10-05T11:48:40Z</time>
      </trkpt>
      <trkpt lat="43.83952" lon="7.50969">
        <ele>1275.6914063</ele>
        <time>2008-10-05T11:48:48Z</time>
      </trkpt>
      <trkpt lat="43.83947" lon="7.50962">
        <ele>1275.4713135</ele>
        <time>2008-10-05T11:48:51Z</time>
      </trkpt>
      <trkpt lat="43.83932" lon="7.50942">
        <ele>1274.8604736</ele>
        <time>2008-10-05T11:49:00Z</time>
      </trkpt>
      <trkpt lat="43.83931" lon="7.5094">
        <ele>1274.8361816</ele>
        <time>2008-10-05T11:49:01Z</time>
      </trkpt>
      <trkpt lat="43.83916" lon="7.50918">
        <ele>1275.4674072</ele>
        <time>2008-10-05T11:49:10Z</time>
      </trkpt>
      <trkpt lat="43.83903" lon="7.50897">
        <ele>1274.0952148</ele>
        <time>2008-10-05T11:49:18Z</time>
      </trkpt>
      <trkpt lat="43.839" lon="7.50892">
        <ele>1273.7907715</ele>
        <time>2008-10-05T11:49:20Z</time>
      </trkpt>
      <trkpt lat="43.83888" lon="7.50871">
        <ele>1274.1560059</ele>
        <time>2008-10-05T11:49:28Z</time>
      </trkpt>
      <trkpt lat="43.83884" lon="7.50863">
        <ele>1274.8282471</ele>
        <time>2008-10-05T11:49:31Z</time>
      </trkpt>
      <trkpt lat="43.83867" lon="7.50846">
        <ele>1271.5146484</ele>
        <time>2008-10-05T11:49:40Z</time>
      </trkpt>
      <trkpt lat="43.83862" lon="7.50839">
        <ele>1271.8449707</ele>
        <time>2008-10-05T11:49:44Z</time>
      </trkpt>
      <trkpt lat="43.83844" lon="7.50818">
        <ele>1266.5917969</ele>
        <time>2008-10-05T11:49:54Z</time>
      </trkpt>
      <trkpt lat="43.83828" lon="7.50799">
        <ele>1260.9595947</ele>
        <time>2008-10-05T11:50:04Z</time>
      </trkpt>
      <trkpt lat="43.83822" lon="7.50792">
        <ele>1259.4769287</ele>
        <time>2008-10-05T11:50:08Z</time>
      </trkpt>
      <trkpt lat="43.83805" lon="7.5078">
        <ele>1253.9630127</ele>
        <time>2008-10-05T11:50:18Z</time>
      </trkpt>
      <trkpt lat="43.83802" lon="7.50773">
        <ele>1253.1887207</ele>
        <time>2008-10-05T11:50:21Z</time>
      </trkpt>
      <trkpt lat="43.83795" lon="7.50767">
        <ele>1251.0526123</ele>
        <time>2008-10-05T11:50:26Z</time>
      </trkpt>
      <trkpt lat="43.83786" lon="7.50761">
        <ele>1248.1063232</ele>
        <time>2008-10-05T11:50:31Z</time>
      </trkpt>
      <trkpt lat="43.83778" lon="7.50762">
        <ele>1244.871582</ele>
        <time>2008-10-05T11:50:35Z</time>
      </trkpt>
      <trkpt lat="43.83768" lon="7.50765">
        <ele>1240.7674561</ele>
        <time>2008-10-05T11:50:39Z</time>
      </trkpt>
      <trkpt lat="43.83748" lon="7.50774">
        <ele>1231.9884033</ele>
        <time>2008-10-05T11:50:48Z</time>
      </trkpt>
      <trkpt lat="43.83732" lon="7.50781">
        <ele>1228.6289063</ele>
        <time>2008-10-05T11:50:56Z</time>
      </trkpt>
      <trkpt lat="43.83727" lon="7.50783">
        <ele>1227.8549805</ele>
        <time>2008-10-05T11:51:00Z</time>
      </trkpt>
      <trkpt lat="43.83726" lon="7.50785">
        <ele>1227.6087646</ele>
        <time>2008-10-05T11:51:03Z</time>
      </trkpt>
      <trkpt lat="43.83717" lon="7.50793">
        <ele>1226.5203857</ele>
        <time>2008-10-05T11:51:10Z</time>
      </trkpt>
      <trkpt lat="43.83699" lon="7.50809">
        <ele>1226.2805176</ele>
        <time>2008-10-05T11:51:19Z</time>
      </trkpt>
      <trkpt lat="43.83684" lon="7.50822">
        <ele>1227.9246826</ele>
        <time>2008-10-05T11:51:27Z</time>
      </trkpt>
      <trkpt lat="43.83667" lon="7.50834">
        <ele>1230.590332</ele>
        <time>2008-10-05T11:51:35Z</time>
      </trkpt>
      <trkpt lat="43.83655" lon="7.50842">
        <ele>1228.9185791</ele>
        <time>2008-10-05T11:51:42Z</time>
      </trkpt>
      <trkpt lat="43.83653" lon="7.50847">
        <ele>1227.2626953</ele>
        <time>2008-10-05T11:51:45Z</time>
      </trkpt>
      <trkpt lat="43.83633" lon="7.50858">
        <ele>1226.7518311</ele>
        <time>2008-10-05T11:51:59Z</time>
      </trkpt>
      <trkpt lat="43.8362" lon="7.5087">
        <ele>1225.2503662</ele>
        <time>2008-10-05T11:52:06Z</time>
      </trkpt>
      <trkpt lat="43.83614" lon="7.50874">
        <ele>1225.4257813</ele>
        <time>2008-10-05T11:52:09Z</time>
      </trkpt>
      <trkpt lat="43.83595" lon="7.50882">
        <ele>1227.7783203</ele>
        <time>2008-10-05T11:52:19Z</time>
      </trkpt>
      <trkpt lat="43.83586" lon="7.50892">
        <ele>1227.6622314</ele>
        <time>2008-10-05T11:52:24Z</time>
      </trkpt>
      <trkpt lat="43.83576" lon="7.509">
        <ele>1227.4467773</ele>
        <time>2008-10-05T11:52:31Z</time>
      </trkpt>
      <trkpt lat="43.83569" lon="7.50912">
        <ele>1226.7120361</ele>
        <time>2008-10-05T11:52:36Z</time>
      </trkpt>
      <trkpt lat="43.83554" lon="7.50935">
        <ele>1221.4714355</ele>
        <time>2008-10-05T11:52:45Z</time>
      </trkpt>
      <trkpt lat="43.83538" lon="7.50948">
        <ele>1220.5645752</ele>
        <time>2008-10-05T11:52:54Z</time>
      </trkpt>
      <trkpt lat="43.83532" lon="7.50952">
        <ele>1220.848877</ele>
        <time>2008-10-05T11:52:58Z</time>
      </trkpt>
      <trkpt lat="43.83514" lon="7.50967">
        <ele>1220.0234375</ele>
        <time>2008-10-05T11:53:08Z</time>
      </trkpt>
      <trkpt lat="43.83503" lon="7.50989">
        <ele>1215.3345947</ele>
        <time>2008-10-05T11:53:16Z</time>
      </trkpt>
      <trkpt lat="43.83498" lon="7.51">
        <ele>1211.7034912</ele>
        <time>2008-10-05T11:53:20Z</time>
      </trkpt>
      <trkpt lat="43.83491" lon="7.51026">
        <ele>1202.6806641</ele>
        <time>2008-10-05T11:53:28Z</time>
      </trkpt>
      <trkpt lat="43.83487" lon="7.51036">
        <ele>1199.4981689</ele>
        <time>2008-10-05T11:53:35Z</time>
      </trkpt>
      <trkpt lat="43.8347" lon="7.51052">
        <ele>1195.494873</ele>
        <time>2008-10-05T11:53:47Z</time>
      </trkpt>
      <trkpt lat="43.83449" lon="7.51059">
        <ele>1195.3536377</ele>
        <time>2008-10-05T11:53:57Z</time>
      </trkpt>
      <trkpt lat="43.83444" lon="7.51059">
        <ele>1195.6945801</ele>
        <time>2008-10-05T11:53:59Z</time>
      </trkpt>
      <trkpt lat="43.83423" lon="7.51066">
        <ele>1196.6392822</ele>
        <time>2008-10-05T11:54:08Z</time>
      </trkpt>
      <trkpt lat="43.83413" lon="7.51066">
        <ele>1196.6411133</ele>
        <time>2008-10-05T11:54:13Z</time>
      </trkpt>
      <trkpt lat="43.834" lon="7.51072">
        <ele>1194.1962891</ele>
        <time>2008-10-05T11:54:22Z</time>
      </trkpt>
      <trkpt lat="43.8338" lon="7.51073">
        <ele>1190.9827881</ele>
        <time>2008-10-05T11:54:31Z</time>
      </trkpt>
      <trkpt lat="43.83363" lon="7.51081">
        <ele>1188.237793</ele>
        <time>2008-10-05T11:54:38Z</time>
      </trkpt>
      <trkpt lat="43.83344" lon="7.51086">
        <ele>1184.7131348</ele>
        <time>2008-10-05T11:54:46Z</time>
      </trkpt>
      <trkpt lat="43.83329" lon="7.51092">
        <ele>1180.5783691</ele>
        <time>2008-10-05T11:54:53Z</time>
      </trkpt>
      <trkpt lat="43.83308" lon="7.51094">
        <ele>1174.9522705</ele>
        <time>2008-10-05T11:55:03Z</time>
      </trkpt>
      <trkpt lat="43.83298" lon="7.51094">
        <ele>1172.2572021</ele>
        <time>2008-10-05T11:55:10Z</time>
      </trkpt>
      <trkpt lat="43.83287" lon="7.51093">
        <ele>1169.9689941</ele>
        <time>2008-10-05T11:55:16Z</time>
      </trkpt>
      <trkpt lat="43.83266" lon="7.51089">
        <ele>1166.2650146</ele>
        <time>2008-10-05T11:55:25Z</time>
      </trkpt>
      <trkpt lat="43.8325" lon="7.51079">
        <ele>1163.8400879</ele>
        <time>2008-10-05T11:55:34Z</time>
      </trkpt>
      <trkpt lat="43.83239" lon="7.51077">
        <ele>1161.9763184</ele>
        <time>2008-10-05T11:55:41Z</time>
      </trkpt>
      <trkpt lat="43.8322" lon="7.51082">
        <ele>1158.93396</ele>
        <time>2008-10-05T11:55:55Z</time>
      </trkpt>
      <trkpt lat="43.83206" lon="7.51085">
        <ele>1156.2404785</ele>
        <time>2008-10-05T11:56:03Z</time>
      </trkpt>
      <trkpt lat="43.83186" lon="7.51097">
        <ele>1149.9724121</ele>
        <time>2008-10-05T11:56:12Z</time>
      </trkpt>
      <trkpt lat="43.83169" lon="7.51099">
        <ele>1146.9108887</ele>
        <time>2008-10-05T11:56:22Z</time>
      </trkpt>
      <trkpt lat="43.83152" lon="7.51091">
        <ele>1146.8631592</ele>
        <time>2008-10-05T11:56:39Z</time>
      </trkpt>
      <trkpt lat="43.83142" lon="7.51089">
        <ele>1146.121582</ele>
        <time>2008-10-05T11:56:43Z</time>
      </trkpt>
      <trkpt lat="43.83138" lon="7.5109">
        <ele>1145.4932861</ele>
        <time>2008-10-05T11:56:45Z</time>
      </trkpt>
      <trkpt lat="43.83117" lon="7.51085">
        <ele>1144.2366943</ele>
        <time>2008-10-05T11:56:56Z</time>
      </trkpt>
      <trkpt lat="43.83115" lon="7.51082">
        <ele>1144.2026367</ele>
        <time>2008-10-05T11:56:58Z</time>
      </trkpt>
      <trkpt lat="43.83113" lon="7.51077">
        <ele>1143.3897705</ele>
        <time>2008-10-05T11:57:00Z</time>
      </trkpt>
      <trkpt lat="43.83103" lon="7.51067">
        <ele>1141.0582275</ele>
        <time>2008-10-05T11:57:06Z</time>
      </trkpt>
      <trkpt lat="43.83081" lon="7.51067">
        <ele>1138.5253906</ele>
        <time>2008-10-05T11:57:15Z</time>
      </trkpt>
      <trkpt lat="43.83079" lon="7.51067">
        <ele>1138.3131104</ele>
        <time>2008-10-05T11:57:16Z</time>
      </trkpt>
      <trkpt lat="43.83064" lon="7.5108">
        <ele>1138.4202881</ele>
        <time>2008-10-05T11:57:24Z</time>
      </trkpt>
      <trkpt lat="43.83053" lon="7.51091">
        <ele>1136.1987305</ele>
        <time>2008-10-05T11:57:31Z</time>
      </trkpt>
      <trkpt lat="43.83045" lon="7.51104">
        <ele>1133.0943604</ele>
        <time>2008-10-05T11:57:55Z</time>
      </trkpt>
      <trkpt lat="43.83033" lon="7.51124">
        <ele>1128.4705811</ele>
        <time>2008-10-05T11:58:05Z</time>
      </trkpt>
      <trkpt lat="43.8303" lon="7.5113">
        <ele>1127.3371582</ele>
        <time>2008-10-05T11:58:07Z</time>
      </trkpt>
      <trkpt lat="43.83012" lon="7.51146">
        <ele>1123.6489258</ele>
        <time>2008-10-05T11:58:15Z</time>
      </trkpt>
      <trkpt lat="43.83005" lon="7.51152">
        <ele>1122.3096924</ele>
        <time>2008-10-05T11:58:19Z</time>
      </trkpt>
      <trkpt lat="43.82993" lon="7.51175">
        <ele>1115.9992676</ele>
        <time>2008-10-05T11:58:29Z</time>
      </trkpt>
      <trkpt lat="43.82977" lon="7.51183">
        <ele>1112.288208</ele>
        <time>2008-10-05T11:58:36Z</time>
      </trkpt>
      <trkpt lat="43.8297" lon="7.51183">
        <ele>1112.0793457</ele>
        <time>2008-10-05T11:58:40Z</time>
      </trkpt>
      <trkpt lat="43.82964" lon="7.51178">
        <ele>1114.3491211</ele>
        <time>2008-10-05T11:58:44Z</time>
      </trkpt>
      <trkpt lat="43.82962" lon="7.5117">
        <ele>1117.3336182</ele>
        <time>2008-10-05T11:58:48Z</time>
      </trkpt>
      <trkpt lat="43.8295" lon="7.51175">
        <ele>1115.2182617</ele>
        <time>2008-10-05T11:58:54Z</time>
      </trkpt>
      <trkpt lat="43.82938" lon="7.5117">
        <ele>1116.3994141</ele>
        <time>2008-10-05T11:59:01Z</time>
      </trkpt>
      <trkpt lat="43.82918" lon="7.51164">
        <ele>1117.0957031</ele>
        <time>2008-10-05T11:59:11Z</time>
      </trkpt>
      <trkpt lat="43.82906" lon="7.5116">
        <ele>1115.7062988</ele>
        <time>2008-10-05T11:59:17Z</time>
      </trkpt>
      <trkpt lat="43.82893" lon="7.51153">
        <ele>1114.1851807</ele>
        <time>2008-10-05T11:59:23Z</time>
      </trkpt>
      <trkpt lat="43.8289" lon="7.5115">
        <ele>1113.7369385</ele>
        <time>2008-10-05T11:59:25Z</time>
      </trkpt>
      <trkpt lat="43.82882" lon="7.51149">
        <ele>1112.6376953</ele>
        <time>2008-10-05T11:59:29Z</time>
      </trkpt>
      <trkpt lat="43.82874" lon="7.51148">
        <ele>1111.6395264</ele>
        <time>2008-10-05T11:59:33Z</time>
      </trkpt>
      <trkpt lat="43.8286" lon="7.51147">
        <ele>1109.7598877</ele>
        <time>2008-10-05T11:59:40Z</time>
      </trkpt>
      <trkpt lat="43.82854" lon="7.51145">
        <ele>1108.9577637</ele>
        <time>2008-10-05T11:59:43Z</time>
      </trkpt>
      <trkpt lat="43.82835" lon="7.51137">
        <ele>1106.1993408</ele>
        <time>2008-10-05T11:59:56Z</time>
      </trkpt>
      <trkpt lat="43.82833" lon="7.51127">
        <ele>1105.5830078</ele>
        <time>2008-10-05T12:00:02Z</time>
      </trkpt>
      <trkpt lat="43.82832" lon="7.51122">
        <ele>1105.0264893</ele>
        <time>2008-10-05T12:00:04Z</time>
      </trkpt>
      <trkpt lat="43.82822" lon="7.51109">
        <ele>1102.2971191</ele>
        <time>2008-10-05T12:00:11Z</time>
      </trkpt>
      <trkpt lat="43.82817" lon="7.51101">
        <ele>1100.8123779</ele>
        <time>2008-10-05T12:00:14Z</time>
      </trkpt>
      <trkpt lat="43.82813" lon="7.51107">
        <ele>1099.9805908</ele>
        <time>2008-10-05T12:00:19Z</time>
      </trkpt>
      <trkpt lat="43.82809" lon="7.51115">
        <ele>1099.807373</ele>
        <time>2008-10-05T12:00:22Z</time>
      </trkpt>
      <trkpt lat="43.82806" lon="7.51133">
        <ele>1100.3081055</ele>
        <time>2008-10-05T12:00:31Z</time>
      </trkpt>
      <trkpt lat="43.82796" lon="7.51153">
        <ele>1100.0892334</ele>
        <time>2008-10-05T12:00:42Z</time>
      </trkpt>
      <trkpt lat="43.82796" lon="7.51159">
        <ele>1100.5020752</ele>
        <time>2008-10-05T12:00:44Z</time>
      </trkpt>
      <trkpt lat="43.82788" lon="7.51179">
        <ele>1096.4810791</ele>
        <time>2008-10-05T12:00:54Z</time>
      </trkpt>
      <trkpt lat="43.82771" lon="7.51193">
        <ele>1089.6585693</ele>
        <time>2008-10-05T12:01:07Z</time>
      </trkpt>
      <trkpt lat="43.82755" lon="7.51193">
        <ele>1086.8651123</ele>
        <time>2008-10-05T12:01:16Z</time>
      </trkpt>
      <trkpt lat="43.82749" lon="7.51191">
        <ele>1086.3343506</ele>
        <time>2008-10-05T12:01:19Z</time>
      </trkpt>
      <trkpt lat="43.82742" lon="7.51191">
        <ele>1085.5373535</ele>
        <time>2008-10-05T12:01:24Z</time>
      </trkpt>
      <trkpt lat="43.82726" lon="7.51174">
        <ele>1088.8393555</ele>
        <time>2008-10-05T12:01:33Z</time>
      </trkpt>
      <trkpt lat="43.82724" lon="7.51171">
        <ele>1089.5053711</ele>
        <time>2008-10-05T12:01:35Z</time>
      </trkpt>
      <trkpt lat="43.82722" lon="7.51147">
        <ele>1087.0062256</ele>
        <time>2008-10-05T12:01:46Z</time>
      </trkpt>
      <trkpt lat="43.82713" lon="7.51135">
        <ele>1083.5383301</ele>
        <time>2008-10-05T12:01:53Z</time>
      </trkpt>
      <trkpt lat="43.82712" lon="7.51134">
        <ele>1083.0961914</ele>
        <time>2008-10-05T12:01:55Z</time>
      </trkpt>
      <trkpt lat="43.82706" lon="7.51132">
        <ele>1081.7075195</ele>
        <time>2008-10-05T12:02:00Z</time>
      </trkpt>
      <trkpt lat="43.82695" lon="7.51127">
        <ele>1078.8115234</ele>
        <time>2008-10-05T12:02:09Z</time>
      </trkpt>
      <trkpt lat="43.82676" lon="7.51114">
        <ele>1072.5184326</ele>
        <time>2008-10-05T12:02:21Z</time>
      </trkpt>
      <trkpt lat="43.82658" lon="7.51104">
        <ele>1066.7104492</ele>
        <time>2008-10-05T12:02:30Z</time>
      </trkpt>
      <trkpt lat="43.82657" lon="7.51102">
        <ele>1065.9659424</ele>
        <time>2008-10-05T12:02:31Z</time>
      </trkpt>
      <trkpt lat="43.82656" lon="7.51094">
        <ele>1063.5484619</ele>
        <time>2008-10-05T12:02:34Z</time>
      </trkpt>
      <trkpt lat="43.82651" lon="7.51087">
        <ele>1060.6051025</ele>
        <time>2008-10-05T12:02:38Z</time>
      </trkpt>
      <trkpt lat="43.8263" lon="7.51085">
        <ele>1055.1169434</ele>
        <time>2008-10-05T12:02:48Z</time>
      </trkpt>
      <trkpt lat="43.82611" lon="7.51088">
        <ele>1052.15979</ele>
        <time>2008-10-05T12:02:56Z</time>
      </trkpt>
      <trkpt lat="43.82593" lon="7.51093">
        <ele>1049.8100586</ele>
        <time>2008-10-05T12:03:04Z</time>
      </trkpt>
      <trkpt lat="43.82581" lon="7.51098">
        <ele>1049.0170898</ele>
        <time>2008-10-05T12:03:10Z</time>
      </trkpt>
      <trkpt lat="43.82574" lon="7.51108">
        <ele>1050.9715576</ele>
        <time>2008-10-05T12:03:16Z</time>
      </trkpt>
      <trkpt lat="43.82571" lon="7.51112">
        <ele>1051.5305176</ele>
        <time>2008-10-05T12:03:19Z</time>
      </trkpt>
      <trkpt lat="43.82553" lon="7.51122">
        <ele>1051.5897217</ele>
        <time>2008-10-05T12:03:30Z</time>
      </trkpt>
      <trkpt lat="43.82535" lon="7.51129">
        <ele>1050.6456299</ele>
        <time>2008-10-05T12:03:38Z</time>
      </trkpt>
      <trkpt lat="43.82519" lon="7.51139">
        <ele>1052.6469727</ele>
        <time>2008-10-05T12:03:46Z</time>
      </trkpt>
      <trkpt lat="43.82503" lon="7.51152">
        <ele>1056.7486572</ele>
        <time>2008-10-05T12:03:54Z</time>
      </trkpt>
      <trkpt lat="43.82489" lon="7.51154">
        <ele>1055.6715088</ele>
        <time>2008-10-05T12:04:01Z</time>
      </trkpt>
      <trkpt lat="43.82479" lon="7.51158">
        <ele>1056.4412842</ele>
        <time>2008-10-05T12:04:06Z</time>
      </trkpt>
      <trkpt lat="43.8246" lon="7.5117">
        <ele>1058.2581787</ele>
        <time>2008-10-05T12:04:15Z</time>
      </trkpt>
      <trkpt lat="43.82445" lon="7.51185">
        <ele>1059.0765381</ele>
        <time>2008-10-05T12:04:24Z</time>
      </trkpt>
      <trkpt lat="43.82441" lon="7.51191">
        <ele>1060.1402588</ele>
        <time>2008-10-05T12:04:28Z</time>
      </trkpt>
      <trkpt lat="43.82424" lon="7.51204">
        <ele>1064.1124268</ele>
        <time>2008-10-05T12:04:48Z</time>
      </trkpt>
      <trkpt lat="43.82411" lon="7.51208">
        <ele>1064.994873</ele>
        <time>2008-10-05T12:04:59Z</time>
      </trkpt>
      <trkpt lat="43.8241" lon="7.51209">
        <ele>1065.0991211</ele>
        <time>2008-10-05T12:05:01Z</time>
      </trkpt>
      <trkpt lat="43.82399" lon="7.51203">
        <ele>1060.40625</ele>
        <time>2008-10-05T12:05:20Z</time>
      </trkpt>
      <trkpt lat="43.82399" lon="7.512">
        <ele>1059.1108398</ele>
        <time>2008-10-05T12:05:22Z</time>
      </trkpt>
      <trkpt lat="43.82397" lon="7.51196">
        <ele>1056.9069824</ele>
        <time>2008-10-05T12:05:27Z</time>
      </trkpt>
      <trkpt lat="43.82399" lon="7.51191">
        <ele>1055.1202393</ele>
        <time>2008-10-05T12:05:31Z</time>
      </trkpt>
      <trkpt lat="43.82401" lon="7.51179">
        <ele>1050.5322266</ele>
        <time>2008-10-05T12:05:41Z</time>
      </trkpt>
      <trkpt lat="43.82402" lon="7.51154">
        <ele>1038.2557373</ele>
        <time>2008-10-05T12:06:05Z</time>
      </trkpt>
      <trkpt lat="43.82404" lon="7.51142">
        <ele>1031.6258545</ele>
        <time>2008-10-05T12:06:13Z</time>
      </trkpt>
      <trkpt lat="43.82406" lon="7.51135">
        <ele>1028.2431641</ele>
        <time>2008-10-05T12:09:08Z</time>
      </trkpt>
      <trkpt lat="43.82406" lon="7.51124">
        <ele>1021.4346313</ele>
        <time>2008-10-05T12:09:21Z</time>
      </trkpt>
      <trkpt lat="43.82385" lon="7.51132">
        <ele>1021.9666748</ele>
        <time>2008-10-05T12:09:30Z</time>
      </trkpt>
      <trkpt lat="43.82364" lon="7.51137">
        <ele>1019.6002197</ele>
        <time>2008-10-05T12:09:37Z</time>
      </trkpt>
      <trkpt lat="43.82344" lon="7.51134">
        <ele>1013.7245483</ele>
        <time>2008-10-05T12:09:44Z</time>
      </trkpt>
      <trkpt lat="43.82324" lon="7.51138">
        <ele>1011.8691406</ele>
        <time>2008-10-05T12:09:50Z</time>
      </trkpt>
      <trkpt lat="43.82306" lon="7.5114">
        <ele>1010.8236084</ele>
        <time>2008-10-05T12:09:56Z</time>
      </trkpt>
      <trkpt lat="43.82304" lon="7.51139">
        <ele>1010.1367798</ele>
        <time>2008-10-05T12:09:57Z</time>
      </trkpt>
      <trkpt lat="43.82285" lon="7.51125">
        <ele>1002.6591187</ele>
        <time>2008-10-05T12:10:06Z</time>
      </trkpt>
      <trkpt lat="43.82267" lon="7.51123">
        <ele>1000.2883911</ele>
        <time>2008-10-05T12:10:12Z</time>
      </trkpt>
      <trkpt lat="43.82249" lon="7.51114">
        <ele>995.2929688</ele>
        <time>2008-10-05T12:10:20Z</time>
      </trkpt>
      <trkpt lat="43.82232" lon="7.51104">
        <ele>991.2719116</ele>
        <time>2008-10-05T12:10:28Z</time>
      </trkpt>
      <trkpt lat="43.82226" lon="7.51099">
        <ele>989.4882813</ele>
        <time>2008-10-05T12:10:32Z</time>
      </trkpt>
      <trkpt lat="43.82245" lon="7.51085">
        <ele>984.4185181</ele>
        <time>2008-10-05T12:10:39Z</time>
      </trkpt>
      <trkpt lat="43.82269" lon="7.51079">
        <ele>982.9490967</ele>
        <time>2008-10-05T12:10:47Z</time>
      </trkpt>
      <trkpt lat="43.82277" lon="7.51079">
        <ele>983.2218018</ele>
        <time>2008-10-05T12:10:50Z</time>
      </trkpt>
      <trkpt lat="43.82264" lon="7.51064">
        <ele>974.9696655</ele>
        <time>2008-10-05T12:10:58Z</time>
      </trkpt>
      <trkpt lat="43.8226" lon="7.5106">
        <ele>973.1655273</ele>
        <time>2008-10-05T12:11:00Z</time>
      </trkpt>
      <trkpt lat="43.82251" lon="7.51053">
        <ele>969.3145142</ele>
        <time>2008-10-05T12:11:04Z</time>
      </trkpt>
      <trkpt lat="43.82228" lon="7.51052">
        <ele>968.5707397</ele>
        <time>2008-10-05T12:11:12Z</time>
      </trkpt>
      <trkpt lat="43.82209" lon="7.51055">
        <ele>970.1838989</ele>
        <time>2008-10-05T12:11:18Z</time>
      </trkpt>
      <trkpt lat="43.8219" lon="7.51053">
        <ele>968.9415894</ele>
        <time>2008-10-05T12:11:24Z</time>
      </trkpt>
      <trkpt lat="43.82169" lon="7.51054">
        <ele>969.6884766</ele>
        <time>2008-10-05T12:11:31Z</time>
      </trkpt>
      <trkpt lat="43.8215" lon="7.51057">
        <ele>968.8831787</ele>
        <time>2008-10-05T12:11:36Z</time>
      </trkpt>
      <trkpt lat="43.82129" lon="7.51054">
        <ele>965.0449829</ele>
        <time>2008-10-05T12:11:43Z</time>
      </trkpt>
      <trkpt lat="43.8211" lon="7.51047">
        <ele>958.8672485</ele>
        <time>2008-10-05T12:11:50Z</time>
      </trkpt>
      <trkpt lat="43.8209" lon="7.51037">
        <ele>951.6810303</ele>
        <time>2008-10-05T12:11:57Z</time>
      </trkpt>
      <trkpt lat="43.82072" lon="7.51031">
        <ele>945.4950562</ele>
        <time>2008-10-05T12:12:03Z</time>
      </trkpt>
      <trkpt lat="43.82053" lon="7.51024">
        <ele>938.2091675</ele>
        <time>2008-10-05T12:12:10Z</time>
      </trkpt>
      <trkpt lat="43.82035" lon="7.51017">
        <ele>931.6118164</ele>
        <time>2008-10-05T12:12:17Z</time>
      </trkpt>
      <trkpt lat="43.82016" lon="7.51009">
        <ele>923.7613525</ele>
        <time>2008-10-05T12:12:25Z</time>
      </trkpt>
      <trkpt lat="43.81997" lon="7.51005">
        <ele>918.4272461</ele>
        <time>2008-10-05T12:12:32Z</time>
      </trkpt>
      <trkpt lat="43.81979" lon="7.51">
        <ele>915.0076294</ele>
        <time>2008-10-05T12:12:39Z</time>
      </trkpt>
      <trkpt lat="43.81958" lon="7.51001">
        <ele>914.3690796</ele>
        <time>2008-10-05T12:12:46Z</time>
      </trkpt>
      <trkpt lat="43.8194" lon="7.51004">
        <ele>914.680542</ele>
        <time>2008-10-05T12:12:52Z</time>
      </trkpt>
      <trkpt lat="43.81923" lon="7.50994">
        <ele>910.7767334</ele>
        <time>2008-10-05T12:12:58Z</time>
      </trkpt>
      <trkpt lat="43.81906" lon="7.50988">
        <ele>909.1409912</ele>
        <time>2008-10-05T12:13:04Z</time>
      </trkpt>
      <trkpt lat="43.81889" lon="7.50978">
        <ele>907.401123</ele>
        <time>2008-10-05T12:13:11Z</time>
      </trkpt>
      <trkpt lat="43.81877" lon="7.50957">
        <ele>902.5452881</ele>
        <time>2008-10-05T12:13:18Z</time>
      </trkpt>
      <trkpt lat="43.81864" lon="7.50949">
        <ele>901.1647949</ele>
        <time>2008-10-05T12:13:25Z</time>
      </trkpt>
      <trkpt lat="43.81858" lon="7.50952">
        <ele>902.4394531</ele>
        <time>2008-10-05T12:13:29Z</time>
      </trkpt>
      <trkpt lat="43.81858" lon="7.50957">
        <ele>903.760376</ele>
        <time>2008-10-05T12:13:33Z</time>
      </trkpt>
      <trkpt lat="43.81852" lon="7.50976">
        <ele>908.8408203</ele>
        <time>2008-10-05T12:13:46Z</time>
      </trkpt>
      <trkpt lat="43.81842" lon="7.50986">
        <ele>912.036499</ele>
        <time>2008-10-05T12:13:57Z</time>
      </trkpt>
      <trkpt lat="43.81836" lon="7.50988">
        <ele>912.7592773</ele>
        <time>2008-10-05T12:14:02Z</time>
      </trkpt>
      <trkpt lat="43.81822" lon="7.50998">
        <ele>918.6619873</ele>
        <time>2008-10-05T12:14:17Z</time>
      </trkpt>
      <trkpt lat="43.81802" lon="7.51004">
        <ele>925.9563599</ele>
        <time>2008-10-05T12:14:30Z</time>
      </trkpt>
      <trkpt lat="43.81796" lon="7.51006">
        <ele>928.0359497</ele>
        <time>2008-10-05T12:14:33Z</time>
      </trkpt>
      <trkpt lat="43.81792" lon="7.51009">
        <ele>929.7348633</ele>
        <time>2008-10-05T12:14:36Z</time>
      </trkpt>
      <trkpt lat="43.81787" lon="7.51013">
        <ele>932.2886963</ele>
        <time>2008-10-05T12:14:44Z</time>
      </trkpt>
      <trkpt lat="43.81783" lon="7.51024">
        <ele>936.2368774</ele>
        <time>2008-10-05T12:14:58Z</time>
      </trkpt>
      <trkpt lat="43.81799" lon="7.51031">
        <ele>934.5419312</ele>
        <time>2008-10-05T12:15:24Z</time>
      </trkpt>
      <trkpt lat="43.818" lon="7.51031">
        <ele>934.4248657</ele>
        <time>2008-10-05T12:15:25Z</time>
      </trkpt>
      <trkpt lat="43.8181" lon="7.5105">
        <ele>938.0355225</ele>
        <time>2008-10-05T12:15:51Z</time>
      </trkpt>
      <trkpt lat="43.81811" lon="7.51056">
        <ele>939.5410767</ele>
        <time>2008-10-05T12:15:55Z</time>
      </trkpt>
      <trkpt lat="43.81812" lon="7.51058">
        <ele>940.2363892</ele>
        <time>2008-10-05T12:15:58Z</time>
      </trkpt>
      <trkpt lat="43.81815" lon="7.51064">
        <ele>941.592041</ele>
        <time>2008-10-05T12:16:04Z</time>
      </trkpt>
      <trkpt lat="43.81819" lon="7.5107">
        <ele>942.8027954</ele>
        <time>2008-10-05T12:16:12Z</time>
      </trkpt>
      <trkpt lat="43.81821" lon="7.51074">
        <ele>943.6923218</ele>
        <time>2008-10-05T12:16:16Z</time>
      </trkpt>
      <trkpt lat="43.81827" lon="7.51083">
        <ele>945.763916</ele>
        <time>2008-10-05T12:16:24Z</time>
      </trkpt>
      <trkpt lat="43.8183" lon="7.51087">
        <ele>946.8312378</ele>
        <time>2008-10-05T12:16:28Z</time>
      </trkpt>
      <trkpt lat="43.81833" lon="7.51094">
        <ele>948.7073364</ele>
        <time>2008-10-05T12:16:33Z</time>
      </trkpt>
      <trkpt lat="43.81834" lon="7.51101">
        <ele>950.9968262</ele>
        <time>2008-10-05T12:16:39Z</time>
      </trkpt>
      <trkpt lat="43.81845" lon="7.51118">
        <ele>956.9927979</ele>
        <time>2008-10-05T12:16:58Z</time>
      </trkpt>
      <trkpt lat="43.81844" lon="7.51127">
        <ele>959.9351807</ele>
        <time>2008-10-05T12:17:07Z</time>
      </trkpt>
      <trkpt lat="43.81848" lon="7.51129">
        <ele>960.9302979</ele>
        <time>2008-10-05T12:17:11Z</time>
      </trkpt>
      <trkpt lat="43.81858" lon="7.5114">
        <ele>965.1680908</ele>
        <time>2008-10-05T12:17:24Z</time>
      </trkpt>
      <trkpt lat="43.81867" lon="7.51148">
        <ele>968.4575195</ele>
        <time>2008-10-05T12:17:36Z</time>
      </trkpt>
      <trkpt lat="43.81868" lon="7.5115">
        <ele>969.1272583</ele>
        <time>2008-10-05T12:17:39Z</time>
      </trkpt>
      <trkpt lat="43.81862" lon="7.51168">
        <ele>975.3781128</ele>
        <time>2008-10-05T12:18:06Z</time>
      </trkpt>
      <trkpt lat="43.81858" lon="7.51188">
        <ele>982.2165527</ele>
        <time>2008-10-05T12:18:42Z</time>
      </trkpt>
      <trkpt lat="43.81853" lon="7.51194">
        <ele>984.3543091</ele>
        <time>2008-10-05T12:18:50Z</time>
      </trkpt>
      <trkpt lat="43.81847" lon="7.51198">
        <ele>985.5261841</ele>
        <time>2008-10-05T12:18:57Z</time>
      </trkpt>
      <trkpt lat="43.8183" lon="7.5121">
        <ele>989.1205444</ele>
        <time>2008-10-05T12:19:14Z</time>
      </trkpt>
      <trkpt lat="43.81812" lon="7.51219">
        <ele>992.862915</ele>
        <time>2008-10-05T12:19:29Z</time>
      </trkpt>
      <trkpt lat="43.81806" lon="7.51224">
        <ele>994.6472778</ele>
        <time>2008-10-05T12:19:35Z</time>
      </trkpt>
      <trkpt lat="43.81799" lon="7.51228">
        <ele>996.289856</ele>
        <time>2008-10-05T12:19:43Z</time>
      </trkpt>
      <trkpt lat="43.81794" lon="7.5123">
        <ele>996.8684692</ele>
        <time>2008-10-05T12:19:48Z</time>
      </trkpt>
      <trkpt lat="43.81787" lon="7.51229">
        <ele>996.5942383</ele>
        <time>2008-10-05T12:19:53Z</time>
      </trkpt>
      <trkpt lat="43.81768" lon="7.51224">
        <ele>995.4471436</ele>
        <time>2008-10-05T12:20:03Z</time>
      </trkpt>
      <trkpt lat="43.81764" lon="7.51226">
        <ele>995.9943848</ele>
        <time>2008-10-05T12:20:06Z</time>
      </trkpt>
      <trkpt lat="43.81756" lon="7.51231">
        <ele>997.8237915</ele>
        <time>2008-10-05T12:20:15Z</time>
      </trkpt>
      <trkpt lat="43.81744" lon="7.5125">
        <ele>1004.5180664</ele>
        <time>2008-10-05T12:20:46Z</time>
      </trkpt>
      <trkpt lat="43.81732" lon="7.51258">
        <ele>1009.2191772</ele>
        <time>2008-10-05T12:21:08Z</time>
      </trkpt>
      <trkpt lat="43.81713" lon="7.51258">
        <ele>1010.7889404</ele>
        <time>2008-10-05T12:21:21Z</time>
      </trkpt>
      <trkpt lat="43.81694" lon="7.51263">
        <ele>1014.7635498</ele>
        <time>2008-10-05T12:21:35Z</time>
      </trkpt>
      <trkpt lat="43.81676" lon="7.51269">
        <ele>1019.057312</ele>
        <time>2008-10-05T12:21:50Z</time>
      </trkpt>
      <trkpt lat="43.81669" lon="7.51274">
        <ele>1021.5247192</ele>
        <time>2008-10-05T12:21:58Z</time>
      </trkpt>
      <trkpt lat="43.81665" lon="7.51275">
        <ele>1022.6797485</ele>
        <time>2008-10-05T12:22:02Z</time>
      </trkpt>
      <trkpt lat="43.81659" lon="7.51276">
        <ele>1024.6798096</ele>
        <time>2008-10-05T12:22:07Z</time>
      </trkpt>
      <trkpt lat="43.81639" lon="7.51266">
        <ele>1027.0999756</ele>
        <time>2008-10-05T12:22:18Z</time>
      </trkpt>
      <trkpt lat="43.81629" lon="7.51263">
        <ele>1029.3212891</ele>
        <time>2008-10-05T12:22:23Z</time>
      </trkpt>
      <trkpt lat="43.81625" lon="7.51265">
        <ele>1031.0596924</ele>
        <time>2008-10-05T12:22:28Z</time>
      </trkpt>
      <trkpt lat="43.81623" lon="7.51266">
        <ele>1032.0333252</ele>
        <time>2008-10-05T12:22:32Z</time>
      </trkpt>
      <trkpt lat="43.81617" lon="7.51266">
        <ele>1033.8388672</ele>
        <time>2008-10-05T12:22:37Z</time>
      </trkpt>
      <trkpt lat="43.81614" lon="7.51264">
        <ele>1034.3599854</ele>
        <time>2008-10-05T12:22:39Z</time>
      </trkpt>
      <trkpt lat="43.81611" lon="7.51264">
        <ele>1035.1561279</ele>
        <time>2008-10-05T12:22:41Z</time>
      </trkpt>
      <trkpt lat="43.81602" lon="7.51272">
        <ele>1039.1657715</ele>
        <time>2008-10-05T12:22:59Z</time>
      </trkpt>
      <trkpt lat="43.81598" lon="7.51278">
        <ele>1041.109375</ele>
        <time>2008-10-05T12:23:09Z</time>
      </trkpt>
      <trkpt lat="43.81593" lon="7.5128">
        <ele>1042.4221191</ele>
        <time>2008-10-05T12:23:13Z</time>
      </trkpt>
      <trkpt lat="43.81591" lon="7.51279">
        <ele>1042.918457</ele>
        <time>2008-10-05T12:23:16Z</time>
      </trkpt>
      <trkpt lat="43.81577" lon="7.51264">
        <ele>1048.5164795</ele>
        <time>2008-10-05T12:23:40Z</time>
      </trkpt>
      <trkpt lat="43.81573" lon="7.51265">
        <ele>1051.3658447</ele>
        <time>2008-10-05T12:23:51Z</time>
      </trkpt>
      <trkpt lat="43.81561" lon="7.51273">
        <ele>1060.5430908</ele>
        <time>2008-10-05T12:24:17Z</time>
      </trkpt>
      <trkpt lat="43.81559" lon="7.51272">
        <ele>1061.8972168</ele>
        <time>2008-10-05T12:24:19Z</time>
      </trkpt>
      <trkpt lat="43.81551" lon="7.5128">
        <ele>1066.8581543</ele>
        <time>2008-10-05T12:24:40Z</time>
      </trkpt>
      <trkpt lat="43.81546" lon="7.51282">
        <ele>1070.2158203</ele>
        <time>2008-10-05T12:24:49Z</time>
      </trkpt>
      <trkpt lat="43.81543" lon="7.51287">
        <ele>1072.3665771</ele>
        <time>2008-10-05T12:24:55Z</time>
      </trkpt>
      <trkpt lat="43.81537" lon="7.51299">
        <ele>1075.7285156</ele>
        <time>2008-10-05T12:25:10Z</time>
      </trkpt>
      <trkpt lat="43.81527" lon="7.51298">
        <ele>1081.9361572</ele>
        <time>2008-10-05T12:25:24Z</time>
      </trkpt>
      <trkpt lat="43.81518" lon="7.51297">
        <ele>1087.9771729</ele>
        <time>2008-10-05T12:25:31Z</time>
      </trkpt>
      <trkpt lat="43.81499" lon="7.51296">
        <ele>1099.7712402</ele>
        <time>2008-10-05T12:25:46Z</time>
      </trkpt>
      <trkpt lat="43.81494" lon="7.51296">
        <ele>1099.03479</ele>
        <time>2008-10-05T12:25:51Z</time>
      </trkpt>
      <trkpt lat="43.81475" lon="7.51286">
        <ele>1098.3459473</ele>
        <time>2008-10-05T12:26:01Z</time>
      </trkpt>
      <trkpt lat="43.81469" lon="7.5128">
        <ele>1098.269165</ele>
        <time>2008-10-05T12:26:04Z</time>
      </trkpt>
      <trkpt lat="43.81467" lon="7.51278">
        <ele>1098.3845215</ele>
        <time>2008-10-05T12:26:06Z</time>
      </trkpt>
      <trkpt lat="43.81459" lon="7.51278">
        <ele>1097.4299316</ele>
        <time>2008-10-05T12:26:12Z</time>
      </trkpt>
      <trkpt lat="43.81455" lon="7.51276">
        <ele>1097.2220459</ele>
        <time>2008-10-05T12:26:19Z</time>
      </trkpt>
      <trkpt lat="43.81451" lon="7.51274">
        <ele>1096.9313965</ele>
        <time>2008-10-05T12:26:24Z</time>
      </trkpt>
      <trkpt lat="43.81443" lon="7.51277">
        <ele>1095.4996338</ele>
        <time>2008-10-05T12:26:35Z</time>
      </trkpt>
      <trkpt lat="43.81436" lon="7.51274">
        <ele>1095.0053711</ele>
        <time>2008-10-05T12:26:40Z</time>
      </trkpt>
      <trkpt lat="43.81424" lon="7.51272">
        <ele>1093.8110352</ele>
        <time>2008-10-05T12:26:56Z</time>
      </trkpt>
      <trkpt lat="43.81421" lon="7.5127">
        <ele>1093.7214355</ele>
        <time>2008-10-05T12:27:03Z</time>
      </trkpt>
      <trkpt lat="43.8142" lon="7.51272">
        <ele>1093.1730957</ele>
        <time>2008-10-05T12:27:06Z</time>
      </trkpt>
      <trkpt lat="43.8141" lon="7.51269">
        <ele>1086.4537354</ele>
        <time>2008-10-05T12:27:42Z</time>
      </trkpt>
      <trkpt lat="43.81406" lon="7.51269">
        <ele>1082.651123</ele>
        <time>2008-10-05T12:27:46Z</time>
      </trkpt>
      <trkpt lat="43.81402" lon="7.51268">
        <ele>1078.9599609</ele>
        <time>2008-10-05T12:27:49Z</time>
      </trkpt>
      <trkpt lat="43.81386" lon="7.51267">
        <ele>1062.5595703</ele>
        <time>2008-10-05T12:28:04Z</time>
      </trkpt>
      <trkpt lat="43.81374" lon="7.51273">
        <ele>1050.3969727</ele>
        <time>2008-10-05T12:28:34Z</time>
      </trkpt>
      <trkpt lat="43.81376" lon="7.51294">
        <ele>1052.8306885</ele>
        <time>2008-10-05T12:28:46Z</time>
      </trkpt>
      <trkpt lat="43.81376" lon="7.51294">
        <ele>1053.1750488</ele>
        <time>2008-10-05T12:28:48Z</time>
      </trkpt>
      <trkpt lat="43.81378" lon="7.51319">
        <ele>1054.5894775</ele>
        <time>2008-10-05T12:29:24Z</time>
      </trkpt>
      <trkpt lat="43.81379" lon="7.5134">
        <ele>1054.5965576</ele>
        <time>2008-10-05T12:29:31Z</time>
      </trkpt>
      <trkpt lat="43.81371" lon="7.51363">
        <ele>1047.097168</ele>
        <time>2008-10-05T12:29:38Z</time>
      </trkpt>
      <trkpt lat="43.81357" lon="7.51388">
        <ele>1034.8131104</ele>
        <time>2008-10-05T12:29:46Z</time>
      </trkpt>
      <trkpt lat="43.81355" lon="7.51393">
        <ele>1032.7696533</ele>
        <time>2008-10-05T12:29:48Z</time>
      </trkpt>
      <trkpt lat="43.81338" lon="7.51407">
        <ele>1019.9291382</ele>
        <time>2008-10-05T12:29:59Z</time>
      </trkpt>
      <trkpt lat="43.81329" lon="7.51416">
        <ele>1013.65802</ele>
        <time>2008-10-05T12:30:05Z</time>
      </trkpt>
      <trkpt lat="43.81321" lon="7.51418">
        <ele>1008.4240112</ele>
        <time>2008-10-05T12:30:12Z</time>
      </trkpt>
      <trkpt lat="43.81319" lon="7.51406">
        <ele>1007.7327881</ele>
        <time>2008-10-05T12:30:16Z</time>
      </trkpt>
      <trkpt lat="43.81306" lon="7.51409">
        <ele>999.4189453</ele>
        <time>2008-10-05T12:30:27Z</time>
      </trkpt>
      <trkpt lat="43.81298" lon="7.51416">
        <ele>994.6056519</ele>
        <time>2008-10-05T12:30:32Z</time>
      </trkpt>
      <trkpt lat="43.81284" lon="7.51428">
        <ele>987.5517578</ele>
        <time>2008-10-05T12:30:41Z</time>
      </trkpt>
      <trkpt lat="43.81281" lon="7.51431">
        <ele>986.0522461</ele>
        <time>2008-10-05T12:30:44Z</time>
      </trkpt>
      <trkpt lat="43.81268" lon="7.51413">
        <ele>976.7191162</ele>
        <time>2008-10-05T12:31:00Z</time>
      </trkpt>
      <trkpt lat="43.81267" lon="7.51401">
        <ele>974.7623901</ele>
        <time>2008-10-05T12:31:08Z</time>
      </trkpt>
      <trkpt lat="43.81263" lon="7.51406">
        <ele>973.0125732</ele>
        <time>2008-10-05T12:31:11Z</time>
      </trkpt>
      <trkpt lat="43.81261" lon="7.51399">
        <ele>970.7001953</ele>
        <time>2008-10-05T12:31:17Z</time>
      </trkpt>
      <trkpt lat="43.81255" lon="7.51401">
        <ele>967.2315063</ele>
        <time>2008-10-05T12:31:22Z</time>
      </trkpt>
      <trkpt lat="43.81249" lon="7.51393">
        <ele>962.4742432</ele>
        <time>2008-10-05T12:31:33Z</time>
      </trkpt>
      <trkpt lat="43.81234" lon="7.51408">
        <ele>956.6350708</ele>
        <time>2008-10-05T12:31:40Z</time>
      </trkpt>
      <trkpt lat="43.81223" lon="7.51419">
        <ele>952.5856934</ele>
        <time>2008-10-05T12:31:47Z</time>
      </trkpt>
      <trkpt lat="43.8122" lon="7.51421">
        <ele>951.2845459</ele>
        <time>2008-10-05T12:31:50Z</time>
      </trkpt>
      <trkpt lat="43.8122" lon="7.51411">
        <ele>949.5336304</ele>
        <time>2008-10-05T12:31:56Z</time>
      </trkpt>
      <trkpt lat="43.81212" lon="7.51419">
        <ele>946.6762695</ele>
        <time>2008-10-05T12:32:03Z</time>
      </trkpt>
      <trkpt lat="43.81208" lon="7.51424">
        <ele>945.5353394</ele>
        <time>2008-10-05T12:32:07Z</time>
      </trkpt>
      <trkpt lat="43.81208" lon="7.5142">
        <ele>945.019043</ele>
        <time>2008-10-05T12:32:11Z</time>
      </trkpt>
      <trkpt lat="43.812" lon="7.51424">
        <ele>940.897522</ele>
        <time>2008-10-05T12:32:22Z</time>
      </trkpt>
      <trkpt lat="43.81199" lon="7.51423">
        <ele>940.2301025</ele>
        <time>2008-10-05T12:32:27Z</time>
      </trkpt>
      <trkpt lat="43.81197" lon="7.5142">
        <ele>939.1081543</ele>
        <time>2008-10-05T12:32:29Z</time>
      </trkpt>
      <trkpt lat="43.81195" lon="7.51421">
        <ele>938.3709717</ele>
        <time>2008-10-05T12:32:31Z</time>
      </trkpt>
      <trkpt lat="43.81189" lon="7.51428">
        <ele>935.7086792</ele>
        <time>2008-10-05T12:32:38Z</time>
      </trkpt>
      <trkpt lat="43.81181" lon="7.51435">
        <ele>932.7088013</ele>
        <time>2008-10-05T12:32:43Z</time>
      </trkpt>
      <trkpt lat="43.81171" lon="7.5144">
        <ele>927.5786743</ele>
        <time>2008-10-05T12:32:51Z</time>
      </trkpt>
      <trkpt lat="43.81168" lon="7.51443">
        <ele>926.7208862</ele>
        <time>2008-10-05T12:32:54Z</time>
      </trkpt>
      <trkpt lat="43.81156" lon="7.51429">
        <ele>918.8433838</ele>
        <time>2008-10-05T12:33:14Z</time>
      </trkpt>
      <trkpt lat="43.81147" lon="7.51434">
        <ele>915.0812378</ele>
        <time>2008-10-05T12:33:19Z</time>
      </trkpt>
      <trkpt lat="43.81143" lon="7.51437">
        <ele>913.2637939</ele>
        <time>2008-10-05T12:33:24Z</time>
      </trkpt>
      <trkpt lat="43.81141" lon="7.51417">
        <ele>909.9772339</ele>
        <time>2008-10-05T12:33:34Z</time>
      </trkpt>
      <trkpt lat="43.8114" lon="7.51413">
        <ele>908.4433594</ele>
        <time>2008-10-05T12:33:37Z</time>
      </trkpt>
      <trkpt lat="43.81138" lon="7.51415">
        <ele>908.163269</ele>
        <time>2008-10-05T12:33:41Z</time>
      </trkpt>
      <trkpt lat="43.81137" lon="7.51416">
        <ele>908.0534058</ele>
        <time>2008-10-05T12:33:43Z</time>
      </trkpt>
      <trkpt lat="43.81127" lon="7.51422">
        <ele>903.3800049</ele>
        <time>2008-10-05T12:33:59Z</time>
      </trkpt>
      <trkpt lat="43.8111" lon="7.51437">
        <ele>896.0965576</ele>
        <time>2008-10-05T12:34:12Z</time>
      </trkpt>
      <trkpt lat="43.81109" lon="7.51432">
        <ele>895.3024902</ele>
        <time>2008-10-05T12:34:20Z</time>
      </trkpt>
      <trkpt lat="43.81105" lon="7.51425">
        <ele>892.725647</ele>
        <time>2008-10-05T12:34:25Z</time>
      </trkpt>
      <trkpt lat="43.81104" lon="7.51422">
        <ele>891.6187744</ele>
        <time>2008-10-05T12:34:31Z</time>
      </trkpt>
      <trkpt lat="43.81099" lon="7.51424">
        <ele>889.7218018</ele>
        <time>2008-10-05T12:34:36Z</time>
      </trkpt>
      <trkpt lat="43.81093" lon="7.51424">
        <ele>886.4310913</ele>
        <time>2008-10-05T12:34:44Z</time>
      </trkpt>
      <trkpt lat="43.81091" lon="7.51418">
        <ele>884.7841797</ele>
        <time>2008-10-05T12:34:55Z</time>
      </trkpt>
      <trkpt lat="43.81087" lon="7.51422">
        <ele>883.1595459</ele>
        <time>2008-10-05T12:34:59Z</time>
      </trkpt>
      <trkpt lat="43.81075" lon="7.51431">
        <ele>876.7114868</ele>
        <time>2008-10-05T12:35:10Z</time>
      </trkpt>
      <trkpt lat="43.81069" lon="7.51438">
        <ele>873.0502319</ele>
        <time>2008-10-05T12:35:15Z</time>
      </trkpt>
      <trkpt lat="43.81065" lon="7.51442">
        <ele>871.2352295</ele>
        <time>2008-10-05T12:35:17Z</time>
      </trkpt>
      <trkpt lat="43.81059" lon="7.51444">
        <ele>867.1568604</ele>
        <time>2008-10-05T12:35:23Z</time>
      </trkpt>
      <trkpt lat="43.81054" lon="7.51445">
        <ele>863.9398804</ele>
        <time>2008-10-05T12:35:28Z</time>
      </trkpt>
      <trkpt lat="43.81052" lon="7.51446">
        <ele>863.1105957</ele>
        <time>2008-10-05T12:35:31Z</time>
      </trkpt>
      <trkpt lat="43.81047" lon="7.51448">
        <ele>859.5651245</ele>
        <time>2008-10-05T12:35:36Z</time>
      </trkpt>
      <trkpt lat="43.81035" lon="7.5144">
        <ele>850.8737183</ele>
        <time>2008-10-05T12:35:55Z</time>
      </trkpt>
      <trkpt lat="43.81034" lon="7.51441">
        <ele>850.0903931</ele>
        <time>2008-10-05T12:35:57Z</time>
      </trkpt>
      <trkpt lat="43.81031" lon="7.51442">
        <ele>848.208374</ele>
        <time>2008-10-05T12:36:00Z</time>
      </trkpt>
      <trkpt lat="43.81028" lon="7.51443">
        <ele>846.274353</ele>
        <time>2008-10-05T12:36:04Z</time>
      </trkpt>
      <trkpt lat="43.81024" lon="7.51447">
        <ele>844.6364136</ele>
        <time>2008-10-05T12:36:13Z</time>
      </trkpt>
      <trkpt lat="43.81021" lon="7.51448">
        <ele>842.5455322</ele>
        <time>2008-10-05T12:36:18Z</time>
      </trkpt>
      <trkpt lat="43.81004" lon="7.51449">
        <ele>831.8399658</ele>
        <time>2008-10-05T12:36:33Z</time>
      </trkpt>
      <trkpt lat="43.80994" lon="7.51454">
        <ele>826.2174072</ele>
        <time>2008-10-05T12:36:42Z</time>
      </trkpt>
      <trkpt lat="43.80991" lon="7.51455">
        <ele>824.8878174</ele>
        <time>2008-10-05T12:36:46Z</time>
      </trkpt>
      <trkpt lat="43.80988" lon="7.51458">
        <ele>823.8324585</ele>
        <time>2008-10-05T12:36:50Z</time>
      </trkpt>
      <trkpt lat="43.80984" lon="7.51458">
        <ele>821.1537476</ele>
        <time>2008-10-05T12:36:57Z</time>
      </trkpt>
      <trkpt lat="43.8098" lon="7.5146">
        <ele>818.7910767</ele>
        <time>2008-10-05T12:37:00Z</time>
      </trkpt>
      <trkpt lat="43.80963" lon="7.51472">
        <ele>811.4257813</ele>
        <time>2008-10-05T12:37:18Z</time>
      </trkpt>
      <trkpt lat="43.8096" lon="7.51472">
        <ele>810.0725098</ele>
        <time>2008-10-05T12:37:20Z</time>
      </trkpt>
      <trkpt lat="43.80943" lon="7.51488">
        <ele>803.4839478</ele>
        <time>2008-10-05T12:37:29Z</time>
      </trkpt>
      <trkpt lat="43.80942" lon="7.51488">
        <ele>803.1171875</ele>
        <time>2008-10-05T12:37:30Z</time>
      </trkpt>
      <trkpt lat="43.80934" lon="7.51491">
        <ele>799.4135132</ele>
        <time>2008-10-05T12:37:35Z</time>
      </trkpt>
      <trkpt lat="43.80927" lon="7.51494">
        <ele>796.0397949</ele>
        <time>2008-10-05T12:37:39Z</time>
      </trkpt>
      <trkpt lat="43.80915" lon="7.515">
        <ele>791.4007568</ele>
        <time>2008-10-05T12:37:45Z</time>
      </trkpt>
      <trkpt lat="43.80903" lon="7.5151">
        <ele>788.572937</ele>
        <time>2008-10-05T12:37:52Z</time>
      </trkpt>
      <trkpt lat="43.80897" lon="7.51518">
        <ele>788.0341797</ele>
        <time>2008-10-05T12:37:56Z</time>
      </trkpt>
      <trkpt lat="43.8089" lon="7.51511">
        <ele>783.1129761</ele>
        <time>2008-10-05T12:38:03Z</time>
      </trkpt>
      <trkpt lat="43.80886" lon="7.51509">
        <ele>780.7162476</ele>
        <time>2008-10-05T12:38:08Z</time>
      </trkpt>
      <trkpt lat="43.80882" lon="7.51506">
        <ele>778.4269409</ele>
        <time>2008-10-05T12:38:15Z</time>
      </trkpt>
      <trkpt lat="43.80873" lon="7.51505">
        <ele>774.1383667</ele>
        <time>2008-10-05T12:38:24Z</time>
      </trkpt>
      <trkpt lat="43.80868" lon="7.51505">
        <ele>771.8499756</ele>
        <time>2008-10-05T12:38:29Z</time>
      </trkpt>
      <trkpt lat="43.8086" lon="7.51506">
        <ele>768.4807739</ele>
        <time>2008-10-05T12:38:34Z</time>
      </trkpt>
      <trkpt lat="43.80854" lon="7.51508">
        <ele>766.6608276</ele>
        <time>2008-10-05T12:38:39Z</time>
      </trkpt>
      <trkpt lat="43.80838" lon="7.51503">
        <ele>758.1490479</ele>
        <time>2008-10-05T12:38:56Z</time>
      </trkpt>
      <trkpt lat="43.80838" lon="7.51502">
        <ele>757.4954834</ele>
        <time>2008-10-05T12:38:57Z</time>
      </trkpt>
      <trkpt lat="43.80838" lon="7.51501">
        <ele>757.1146851</ele>
        <time>2008-10-05T12:38:59Z</time>
      </trkpt>
      <trkpt lat="43.80833" lon="7.51497">
        <ele>753.8737183</ele>
        <time>2008-10-05T12:39:08Z</time>
      </trkpt>
      <trkpt lat="43.80831" lon="7.51496">
        <ele>753.1539307</ele>
        <time>2008-10-05T12:39:10Z</time>
      </trkpt>
      <trkpt lat="43.80824" lon="7.51497">
        <ele>751.5532227</ele>
        <time>2008-10-05T12:39:17Z</time>
      </trkpt>
      <trkpt lat="43.80805" lon="7.51493">
        <ele>745.5059204</ele>
        <time>2008-10-05T12:39:33Z</time>
      </trkpt>
      <trkpt lat="43.808" lon="7.51491">
        <ele>743.6089478</ele>
        <time>2008-10-05T12:39:36Z</time>
      </trkpt>
      <trkpt lat="43.8078" lon="7.51492">
        <ele>738.5153809</ele>
        <time>2008-10-05T12:39:45Z</time>
      </trkpt>
      <trkpt lat="43.80779" lon="7.5149">
        <ele>737.7886963</ele>
        <time>2008-10-05T12:39:47Z</time>
      </trkpt>
      <trkpt lat="43.80791" lon="7.51468">
        <ele>734.5050659</ele>
        <time>2008-10-05T12:39:59Z</time>
      </trkpt>
      <trkpt lat="43.80792" lon="7.51454">
        <ele>730.7340088</ele>
        <time>2008-10-05T12:40:04Z</time>
      </trkpt>
      <trkpt lat="43.80795" lon="7.51438">
        <ele>726.5996704</ele>
        <time>2008-10-05T12:40:11Z</time>
      </trkpt>
      <trkpt lat="43.80796" lon="7.51427">
        <ele>723.7365112</ele>
        <time>2008-10-05T12:40:17Z</time>
      </trkpt>
      <trkpt lat="43.80795" lon="7.51424">
        <ele>722.4705811</ele>
        <time>2008-10-05T12:40:19Z</time>
      </trkpt>
      <trkpt lat="43.80794" lon="7.51413">
        <ele>719.208374</ele>
        <time>2008-10-05T12:40:26Z</time>
      </trkpt>
      <trkpt lat="43.80793" lon="7.51412">
        <ele>718.5136719</ele>
        <time>2008-10-05T12:40:28Z</time>
      </trkpt>
      <trkpt lat="43.80786" lon="7.51412">
        <ele>716.5787354</ele>
        <time>2008-10-05T12:40:35Z</time>
      </trkpt>
      <trkpt lat="43.80783" lon="7.51412">
        <ele>715.987854</ele>
        <time>2008-10-05T12:40:38Z</time>
      </trkpt>
      <trkpt lat="43.80771" lon="7.51413">
        <ele>712.6693726</ele>
        <time>2008-10-05T12:40:50Z</time>
      </trkpt>
      <trkpt lat="43.80752" lon="7.51428">
        <ele>711.9082031</ele>
        <time>2008-10-05T12:41:01Z</time>
      </trkpt>
      <trkpt lat="43.80744" lon="7.51423">
        <ele>709.2977295</ele>
        <time>2008-10-05T12:41:06Z</time>
      </trkpt>
      <trkpt lat="43.80749" lon="7.51412">
        <ele>706.4644165</ele>
        <time>2008-10-05T12:41:13Z</time>
      </trkpt>
      <trkpt lat="43.80746" lon="7.51413">
        <ele>706.4881592</ele>
        <time>2008-10-05T12:41:16Z</time>
      </trkpt>
      <trkpt lat="43.80736" lon="7.514">
        <ele>701.4767456</ele>
        <time>2008-10-05T12:41:32Z</time>
      </trkpt>
      <trkpt lat="43.80737" lon="7.51386">
        <ele>697.291748</ele>
        <time>2008-10-05T12:41:44Z</time>
      </trkpt>
      <trkpt lat="43.80738" lon="7.51384">
        <ele>696.7897339</ele>
        <time>2008-10-05T12:41:47Z</time>
      </trkpt>
      <trkpt lat="43.80732" lon="7.51383">
        <ele>695.5900269</ele>
        <time>2008-10-05T12:41:54Z</time>
      </trkpt>
      <trkpt lat="43.80737" lon="7.51376">
        <ele>693.9815674</ele>
        <time>2008-10-05T12:41:59Z</time>
      </trkpt>
      <trkpt lat="43.80727" lon="7.51371">
        <ele>691.397522</ele>
        <time>2008-10-05T12:42:06Z</time>
      </trkpt>
      <trkpt lat="43.80721" lon="7.5137">
        <ele>690.2454224</ele>
        <time>2008-10-05T12:42:09Z</time>
      </trkpt>
      <trkpt lat="43.80708" lon="7.51362">
        <ele>686.0599365</ele>
        <time>2008-10-05T12:42:17Z</time>
      </trkpt>
      <trkpt lat="43.80705" lon="7.51358">
        <ele>684.2566528</ele>
        <time>2008-10-05T12:42:21Z</time>
      </trkpt>
      <trkpt lat="43.80723" lon="7.51342">
        <ele>681.9916382</ele>
        <time>2008-10-05T12:42:32Z</time>
      </trkpt>
      <trkpt lat="43.80732" lon="7.51332">
        <ele>680.1020508</ele>
        <time>2008-10-05T12:42:38Z</time>
      </trkpt>
      <trkpt lat="43.80731" lon="7.51329">
        <ele>678.9193115</ele>
        <time>2008-10-05T12:42:41Z</time>
      </trkpt>
      <trkpt lat="43.80725" lon="7.51328">
        <ele>677.8401489</ele>
        <time>2008-10-05T12:42:46Z</time>
      </trkpt>
      <trkpt lat="43.80724" lon="7.51327">
        <ele>677.2055664</ele>
        <time>2008-10-05T12:42:48Z</time>
      </trkpt>
      <trkpt lat="43.80726" lon="7.51321">
        <ele>675.7183838</ele>
        <time>2008-10-05T12:42:52Z</time>
      </trkpt>
      <trkpt lat="43.80723" lon="7.51307">
        <ele>671.1876831</ele>
        <time>2008-10-05T12:43:02Z</time>
      </trkpt>
      <trkpt lat="43.80736" lon="7.51286">
        <ele>666.9447632</ele>
        <time>2008-10-05T12:43:22Z</time>
      </trkpt>
      <trkpt lat="43.80738" lon="7.51285">
        <ele>666.7353516</ele>
        <time>2008-10-05T12:43:24Z</time>
      </trkpt>
      <trkpt lat="43.80746" lon="7.51262">
        <ele>661.0036011</ele>
        <time>2008-10-05T12:43:38Z</time>
      </trkpt>
      <trkpt lat="43.80756" lon="7.51255">
        <ele>660.9354248</ele>
        <time>2008-10-05T12:43:42Z</time>
      </trkpt>
      <trkpt lat="43.80757" lon="7.51252">
        <ele>660.6062012</ele>
        <time>2008-10-05T12:43:45Z</time>
      </trkpt>
      <trkpt lat="43.80747" lon="7.51251">
        <ele>657.9234009</ele>
        <time>2008-10-05T12:43:50Z</time>
      </trkpt>
      <trkpt lat="43.80747" lon="7.51242">
        <ele>654.3081665</ele>
        <time>2008-10-05T12:43:55Z</time>
      </trkpt>
      <trkpt lat="43.80746" lon="7.51241">
        <ele>653.6445923</ele>
        <time>2008-10-05T12:43:58Z</time>
      </trkpt>
      <trkpt lat="43.8074" lon="7.51242">
        <ele>653.2683105</ele>
        <time>2008-10-05T12:44:02Z</time>
      </trkpt>
      <trkpt lat="43.80744" lon="7.51232">
        <ele>649.4367676</ele>
        <time>2008-10-05T12:44:09Z</time>
      </trkpt>
      <trkpt lat="43.80745" lon="7.51228">
        <ele>647.8915405</ele>
        <time>2008-10-05T12:44:12Z</time>
      </trkpt>
      <trkpt lat="43.8074" lon="7.51223">
        <ele>645.1871338</ele>
        <time>2008-10-05T12:44:20Z</time>
      </trkpt>
      <trkpt lat="43.80735" lon="7.51221">
        <ele>643.6691895</ele>
        <time>2008-10-05T12:44:25Z</time>
      </trkpt>
      <trkpt lat="43.80732" lon="7.51217">
        <ele>641.2944946</ele>
        <time>2008-10-05T12:44:29Z</time>
      </trkpt>
      <trkpt lat="43.80728" lon="7.51212">
        <ele>638.9061279</ele>
        <time>2008-10-05T12:44:33Z</time>
      </trkpt>
      <trkpt lat="43.80715" lon="7.51198">
        <ele>631.6021729</ele>
        <time>2008-10-05T12:44:42Z</time>
      </trkpt>
      <trkpt lat="43.80712" lon="7.51194">
        <ele>629.4552612</ele>
        <time>2008-10-05T12:44:46Z</time>
      </trkpt>
      <trkpt lat="43.80706" lon="7.51187">
        <ele>626.1016846</ele>
        <time>2008-10-05T12:44:51Z</time>
      </trkpt>
      <trkpt lat="43.80713" lon="7.5118">
        <ele>624.0422974</ele>
        <time>2008-10-05T12:45:03Z</time>
      </trkpt>
      <trkpt lat="43.80709" lon="7.51168">
        <ele>618.5256958</ele>
        <time>2008-10-05T12:45:12Z</time>
      </trkpt>
      <trkpt lat="43.80703" lon="7.5116">
        <ele>615.1646729</ele>
        <time>2008-10-05T12:45:22Z</time>
      </trkpt>
      <trkpt lat="43.80703" lon="7.51159">
        <ele>614.6518555</ele>
        <time>2008-10-05T12:45:24Z</time>
      </trkpt>
      <trkpt lat="43.80706" lon="7.51158">
        <ele>614.5280151</ele>
        <time>2008-10-05T12:45:29Z</time>
      </trkpt>
      <trkpt lat="43.80705" lon="7.51151">
        <ele>611.8862305</ele>
        <time>2008-10-05T12:45:35Z</time>
      </trkpt>
      <trkpt lat="43.80709" lon="7.51149">
        <ele>611.6515503</ele>
        <time>2008-10-05T12:45:39Z</time>
      </trkpt>
      <trkpt lat="43.80717" lon="7.51152">
        <ele>613.5023193</ele>
        <time>2008-10-05T12:45:45Z</time>
      </trkpt>
      <trkpt lat="43.80722" lon="7.5114">
        <ele>609.5498047</ele>
        <time>2008-10-05T12:45:57Z</time>
      </trkpt>
      <trkpt lat="43.80724" lon="7.51137">
        <ele>608.5550537</ele>
        <time>2008-10-05T12:46:00Z</time>
      </trkpt>
      <trkpt lat="43.80727" lon="7.51134">
        <ele>608.0344238</ele>
        <time>2008-10-05T12:46:04Z</time>
      </trkpt>
      <trkpt lat="43.80735" lon="7.51125">
        <ele>605.3091431</ele>
        <time>2008-10-05T12:46:14Z</time>
      </trkpt>
      <trkpt lat="43.80737" lon="7.51119">
        <ele>603.0631714</ele>
        <time>2008-10-05T12:46:18Z</time>
      </trkpt>
      <trkpt lat="43.80742" lon="7.51108">
        <ele>599.6796265</ele>
        <time>2008-10-05T12:46:24Z</time>
      </trkpt>
      <trkpt lat="43.80755" lon="7.51086">
        <ele>593.0266113</ele>
        <time>2008-10-05T12:46:36Z</time>
      </trkpt>
      <trkpt lat="43.8076" lon="7.51078">
        <ele>591.5327759</ele>
        <time>2008-10-05T12:46:41Z</time>
      </trkpt>
      <trkpt lat="43.80762" lon="7.51076">
        <ele>591.4832153</ele>
        <time>2008-10-05T12:46:43Z</time>
      </trkpt>
      <trkpt lat="43.80764" lon="7.51075">
        <ele>591.5973511</ele>
        <time>2008-10-05T12:46:45Z</time>
      </trkpt>
      <trkpt lat="43.80768" lon="7.51071">
        <ele>591.2272339</ele>
        <time>2008-10-05T12:46:50Z</time>
      </trkpt>
      <trkpt lat="43.80769" lon="7.51066">
        <ele>590.2522583</ele>
        <time>2008-10-05T12:46:55Z</time>
      </trkpt>
      <trkpt lat="43.80776" lon="7.51063">
        <ele>590.9388428</ele>
        <time>2008-10-05T12:47:00Z</time>
      </trkpt>
      <trkpt lat="43.80776" lon="7.51063">
        <ele>590.8190918</ele>
        <time>2008-10-05T12:47:02Z</time>
      </trkpt>
      <trkpt lat="43.80771" lon="7.5106">
        <ele>588.8729858</ele>
        <time>2008-10-05T12:47:07Z</time>
      </trkpt>
      <trkpt lat="43.80777" lon="7.51041">
        <ele>585.0150146</ele>
        <time>2008-10-05T12:47:22Z</time>
      </trkpt>
      <trkpt lat="43.80764" lon="7.5104">
        <ele>581.5021362</ele>
        <time>2008-10-05T12:47:31Z</time>
      </trkpt>
      <trkpt lat="43.8076" lon="7.51029">
        <ele>577.5249023</ele>
        <time>2008-10-05T12:47:36Z</time>
      </trkpt>
      <trkpt lat="43.80759" lon="7.51027">
        <ele>576.8244019</ele>
        <time>2008-10-05T12:47:39Z</time>
      </trkpt>
      <trkpt lat="43.80759" lon="7.51014">
        <ele>573.057312</ele>
        <time>2008-10-05T12:47:45Z</time>
      </trkpt>
      <trkpt lat="43.8076" lon="7.50997">
        <ele>568.5332642</ele>
        <time>2008-10-05T12:47:53Z</time>
      </trkpt>
      <trkpt lat="43.80763" lon="7.50987">
        <ele>566.550293</ele>
        <time>2008-10-05T12:47:59Z</time>
      </trkpt>
      <trkpt lat="43.80768" lon="7.50978">
        <ele>565.465332</ele>
        <time>2008-10-05T12:48:04Z</time>
      </trkpt>
      <trkpt lat="43.80769" lon="7.50974">
        <ele>564.5957031</ele>
        <time>2008-10-05T12:48:06Z</time>
      </trkpt>
      <trkpt lat="43.8077" lon="7.50965">
        <ele>562.3400269</ele>
        <time>2008-10-05T12:48:11Z</time>
      </trkpt>
      <trkpt lat="43.80772" lon="7.50962">
        <ele>562.276062</ele>
        <time>2008-10-05T12:48:16Z</time>
      </trkpt>
      <trkpt lat="43.80777" lon="7.50961">
        <ele>563.2235107</ele>
        <time>2008-10-05T12:48:21Z</time>
      </trkpt>
      <trkpt lat="43.80786" lon="7.50937">
        <ele>559.2246704</ele>
        <time>2008-10-05T12:48:34Z</time>
      </trkpt>
      <trkpt lat="43.80799" lon="7.50922">
        <ele>558.7214966</ele>
        <time>2008-10-05T12:48:42Z</time>
      </trkpt>
      <trkpt lat="43.80812" lon="7.50906">
        <ele>557.7582397</ele>
        <time>2008-10-05T12:48:51Z</time>
      </trkpt>
      <trkpt lat="43.8082" lon="7.50896">
        <ele>557.3141479</ele>
        <time>2008-10-05T12:48:57Z</time>
      </trkpt>
      <trkpt lat="43.80833" lon="7.50882">
        <ele>557.2734985</ele>
        <time>2008-10-05T12:49:05Z</time>
      </trkpt>
      <trkpt lat="43.80836" lon="7.50876">
        <ele>556.6054077</ele>
        <time>2008-10-05T12:49:09Z</time>
      </trkpt>
      <trkpt lat="43.80839" lon="7.50857">
        <ele>552.5397949</ele>
        <time>2008-10-05T12:49:18Z</time>
      </trkpt>
      <trkpt lat="43.80845" lon="7.50829">
        <ele>547.8411865</ele>
        <time>2008-10-05T12:49:28Z</time>
      </trkpt>
      <trkpt lat="43.80849" lon="7.50816">
        <ele>546.7200317</ele>
        <time>2008-10-05T12:49:34Z</time>
      </trkpt>
      <trkpt lat="43.80848" lon="7.50791">
        <ele>541.3242188</ele>
        <time>2008-10-05T12:49:44Z</time>
      </trkpt>
      <trkpt lat="43.8085" lon="7.50765">
        <ele>537.3868408</ele>
        <time>2008-10-05T12:49:52Z</time>
      </trkpt>
      <trkpt lat="43.80854" lon="7.50739">
        <ele>535.5214233</ele>
        <time>2008-10-05T12:50:00Z</time>
      </trkpt>
      <trkpt lat="43.80862" lon="7.50713">
        <ele>537.2672729</ele>
        <time>2008-10-05T12:50:08Z</time>
      </trkpt>
      <trkpt lat="43.80866" lon="7.50687">
        <ele>537.5770264</ele>
        <time>2008-10-05T12:50:16Z</time>
      </trkpt>
      <trkpt lat="43.80871" lon="7.50661">
        <ele>539.0818481</ele>
        <time>2008-10-05T12:50:24Z</time>
      </trkpt>
      <trkpt lat="43.80873" lon="7.50651">
        <ele>540.8016357</ele>
        <time>2008-10-05T12:50:27Z</time>
      </trkpt>
      <trkpt lat="43.80873" lon="7.5064">
        <ele>541.1011353</ele>
        <time>2008-10-05T12:50:30Z</time>
      </trkpt>
      <trkpt lat="43.8086" lon="7.50618">
        <ele>536.6060181</ele>
        <time>2008-10-05T12:50:38Z</time>
      </trkpt>
      <trkpt lat="43.80848" lon="7.50596">
        <ele>532.4470825</ele>
        <time>2008-10-05T12:50:45Z</time>
      </trkpt>
      <trkpt lat="43.80846" lon="7.50569">
        <ele>533.242981</ele>
        <time>2008-10-05T12:50:53Z</time>
      </trkpt>
      <trkpt lat="43.80839" lon="7.50543">
        <ele>532.348938</ele>
        <time>2008-10-05T12:51:00Z</time>
      </trkpt>
      <trkpt lat="43.80832" lon="7.5052">
        <ele>531.3605957</ele>
        <time>2008-10-05T12:51:07Z</time>
      </trkpt>
      <trkpt lat="43.80825" lon="7.50496">
        <ele>530.0059814</ele>
        <time>2008-10-05T12:51:21Z</time>
      </trkpt>
      <trkpt lat="43.80822" lon="7.50484">
        <ele>528.8864136</ele>
        <time>2008-10-05T12:51:25Z</time>
      </trkpt>
      <trkpt lat="43.80812" lon="7.5046">
        <ele>525.6356812</ele>
        <time>2008-10-05T12:51:32Z</time>
      </trkpt>
      <trkpt lat="43.808" lon="7.50434">
        <ele>522.3809814</ele>
        <time>2008-10-05T12:51:40Z</time>
      </trkpt>
      <trkpt lat="43.80791" lon="7.50411">
        <ele>519.4799194</ele>
        <time>2008-10-05T12:51:47Z</time>
      </trkpt>
      <trkpt lat="43.8078" lon="7.50389">
        <ele>512.6508789</ele>
        <time>2008-10-05T12:51:54Z</time>
      </trkpt>
      <trkpt lat="43.8077" lon="7.50367">
        <ele>506.283783</ele>
        <time>2008-10-05T12:52:01Z</time>
      </trkpt>
      <trkpt lat="43.80759" lon="7.50344">
        <ele>499.6238098</ele>
        <time>2008-10-05T12:52:08Z</time>
      </trkpt>
      <trkpt lat="43.80749" lon="7.50321">
        <ele>492.2868958</ele>
        <time>2008-10-05T12:52:16Z</time>
      </trkpt>
      <trkpt lat="43.80734" lon="7.50305">
        <ele>480.5995483</ele>
        <time>2008-10-05T12:52:24Z</time>
      </trkpt>
      <trkpt lat="43.80717" lon="7.50289">
        <ele>468.4918823</ele>
        <time>2008-10-05T12:52:32Z</time>
      </trkpt>
      <trkpt lat="43.80709" lon="7.50279">
        <ele>462.9515686</ele>
        <time>2008-10-05T12:52:36Z</time>
      </trkpt>
      <trkpt lat="43.80706" lon="7.50249">
        <ele>457.0512695</ele>
        <time>2008-10-05T12:52:45Z</time>
      </trkpt>
      <trkpt lat="43.80706" lon="7.50222">
        <ele>451.6448059</ele>
        <time>2008-10-05T12:52:53Z</time>
      </trkpt>
      <trkpt lat="43.80711" lon="7.50208">
        <ele>451.2823181</ele>
        <time>2008-10-05T12:52:58Z</time>
      </trkpt>
      <trkpt lat="43.80718" lon="7.50192">
        <ele>450.9326782</ele>
        <time>2008-10-05T12:53:05Z</time>
      </trkpt>
      <trkpt lat="43.80732" lon="7.50169">
        <ele>451.4951477</ele>
        <time>2008-10-05T12:53:13Z</time>
      </trkpt>
      <trkpt lat="43.80745" lon="7.50149">
        <ele>447.8303528</ele>
        <time>2008-10-05T12:53:20Z</time>
      </trkpt>
      <trkpt lat="43.80758" lon="7.50132">
        <ele>443.1313477</ele>
        <time>2008-10-05T12:53:27Z</time>
      </trkpt>
      <trkpt lat="43.80775" lon="7.50121">
        <ele>440.5314941</ele>
        <time>2008-10-05T12:53:34Z</time>
      </trkpt>
      <trkpt lat="43.80791" lon="7.50105">
        <ele>435.0684204</ele>
        <time>2008-10-05T12:53:42Z</time>
      </trkpt>
      <trkpt lat="43.80803" lon="7.50083">
        <ele>426.7868652</ele>
        <time>2008-10-05T12:53:50Z</time>
      </trkpt>
      <trkpt lat="43.80818" lon="7.50066">
        <ele>421.9208374</ele>
        <time>2008-10-05T12:53:58Z</time>
      </trkpt>
      <trkpt lat="43.80823" lon="7.5006">
        <ele>420.0628662</ele>
        <time>2008-10-05T12:54:01Z</time>
      </trkpt>
      <trkpt lat="43.80841" lon="7.50047">
        <ele>415.6030579</ele>
        <time>2008-10-05T12:54:09Z</time>
      </trkpt>
      <trkpt lat="43.80859" lon="7.50037">
        <ele>411.2452698</ele>
        <time>2008-10-05T12:54:17Z</time>
      </trkpt>
      <trkpt lat="43.80877" lon="7.50026">
        <ele>407.1209106</ele>
        <time>2008-10-05T12:54:25Z</time>
      </trkpt>
      <trkpt lat="43.80897" lon="7.50018">
        <ele>403.8391113</ele>
        <time>2008-10-05T12:54:33Z</time>
      </trkpt>
      <trkpt lat="43.80915" lon="7.50016">
        <ele>403.2156982</ele>
        <time>2008-10-05T12:54:40Z</time>
      </trkpt>
      <trkpt lat="43.80931" lon="7.50023">
        <ele>410.8839111</ele>
        <time>2008-10-05T12:54:47Z</time>
      </trkpt>
      <trkpt lat="43.80951" lon="7.50029">
        <ele>419.3495483</ele>
        <time>2008-10-05T12:54:56Z</time>
      </trkpt>
      <trkpt lat="43.80965" lon="7.50036">
        <ele>426.5310059</ele>
        <time>2008-10-05T12:55:02Z</time>
      </trkpt>
      <trkpt lat="43.80984" lon="7.50048">
        <ele>436.270813</ele>
        <time>2008-10-05T12:55:09Z</time>
      </trkpt>
      <trkpt lat="43.80993" lon="7.50054">
        <ele>440.9876099</ele>
        <time>2008-10-05T12:55:13Z</time>
      </trkpt>
      <trkpt lat="43.80997" lon="7.50056">
        <ele>442.6788635</ele>
        <time>2008-10-05T12:55:15Z</time>
      </trkpt>
      <trkpt lat="43.81001" lon="7.50053">
        <ele>443.1314087</ele>
        <time>2008-10-05T12:55:17Z</time>
      </trkpt>
      <trkpt lat="43.80993" lon="7.50039">
        <ele>436.5480652</ele>
        <time>2008-10-05T12:55:23Z</time>
      </trkpt>
      <trkpt lat="43.80977" lon="7.5002">
        <ele>425.7129517</ele>
        <time>2008-10-05T12:55:32Z</time>
      </trkpt>
      <trkpt lat="43.80965" lon="7.50001">
        <ele>415.4282227</ele>
        <time>2008-10-05T12:55:40Z</time>
      </trkpt>
      <trkpt lat="43.8095" lon="7.49982">
        <ele>408.3042908</ele>
        <time>2008-10-05T12:55:47Z</time>
      </trkpt>
      <trkpt lat="43.80937" lon="7.49964">
        <ele>401.8951416</ele>
        <time>2008-10-05T12:55:53Z</time>
      </trkpt>
      <trkpt lat="43.80927" lon="7.49953">
        <ele>397.2737427</ele>
        <time>2008-10-05T12:55:58Z</time>
      </trkpt>
      <trkpt lat="43.80907" lon="7.49945">
        <ele>391.1645813</ele>
        <time>2008-10-05T12:56:07Z</time>
      </trkpt>
      <trkpt lat="43.80902" lon="7.49945">
        <ele>390.5346069</ele>
        <time>2008-10-05T12:56:09Z</time>
      </trkpt>
      <trkpt lat="43.8088" lon="7.49944">
        <ele>387.7789612</ele>
        <time>2008-10-05T12:56:16Z</time>
      </trkpt>
      <trkpt lat="43.80861" lon="7.4994">
        <ele>384.5162048</ele>
        <time>2008-10-05T12:56:23Z</time>
      </trkpt>
      <trkpt lat="43.80839" lon="7.49936">
        <ele>380.5266113</ele>
        <time>2008-10-05T12:56:32Z</time>
      </trkpt>
      <trkpt lat="43.80822" lon="7.49924">
        <ele>375.4213867</ele>
        <time>2008-10-05T12:56:39Z</time>
      </trkpt>
      <trkpt lat="43.80805" lon="7.49912">
        <ele>371.0924683</ele>
        <time>2008-10-05T12:56:46Z</time>
      </trkpt>
      <trkpt lat="43.80788" lon="7.49901">
        <ele>368.5326233</ele>
        <time>2008-10-05T12:56:53Z</time>
      </trkpt>
      <trkpt lat="43.80769" lon="7.49898">
        <ele>365.9879761</ele>
        <time>2008-10-05T12:57:00Z</time>
      </trkpt>
      <trkpt lat="43.80762" lon="7.49897">
        <ele>365.1010132</ele>
        <time>2008-10-05T12:57:03Z</time>
      </trkpt>
      <trkpt lat="43.80742" lon="7.49903">
        <ele>362.0510254</ele>
        <time>2008-10-05T12:57:11Z</time>
      </trkpt>
      <trkpt lat="43.80725" lon="7.49913">
        <ele>358.9236145</ele>
        <time>2008-10-05T12:57:17Z</time>
      </trkpt>
      <trkpt lat="43.80724" lon="7.49891">
        <ele>358.8129272</ele>
        <time>2008-10-05T12:57:26Z</time>
      </trkpt>
      <trkpt lat="43.8073" lon="7.49887">
        <ele>359.7511902</ele>
        <time>2008-10-05T12:57:28Z</time>
      </trkpt>
      <trkpt lat="43.80749" lon="7.49881">
        <ele>362.9300537</ele>
        <time>2008-10-05T12:57:35Z</time>
      </trkpt>
      <trkpt lat="43.80734" lon="7.49866">
        <ele>360.3720398</ele>
        <time>2008-10-05T12:57:42Z</time>
      </trkpt>
      <trkpt lat="43.80715" lon="7.4986">
        <ele>357.5292664</ele>
        <time>2008-10-05T12:57:48Z</time>
      </trkpt>
      <trkpt lat="43.80704" lon="7.49859">
        <ele>355.921875</ele>
        <time>2008-10-05T12:57:52Z</time>
      </trkpt>
      <trkpt lat="43.80683" lon="7.49853">
        <ele>353.1087036</ele>
        <time>2008-10-05T12:57:59Z</time>
      </trkpt>
      <trkpt lat="43.8068" lon="7.49853">
        <ele>352.7009277</ele>
        <time>2008-10-05T12:58:00Z</time>
      </trkpt>
      <trkpt lat="43.80664" lon="7.49832">
        <ele>351.1248169</ele>
        <time>2008-10-05T12:58:08Z</time>
      </trkpt>
      <trkpt lat="43.80659" lon="7.49823">
        <ele>349.3095703</ele>
        <time>2008-10-05T12:58:11Z</time>
      </trkpt>
      <trkpt lat="43.80653" lon="7.49839">
        <ele>347.3069153</ele>
        <time>2008-10-05T12:58:18Z</time>
      </trkpt>
      <trkpt lat="43.80645" lon="7.49869">
        <ele>343.5345154</ele>
        <time>2008-10-05T12:58:26Z</time>
      </trkpt>
      <trkpt lat="43.80632" lon="7.49891">
        <ele>338.8790894</ele>
        <time>2008-10-05T12:58:33Z</time>
      </trkpt>
      <trkpt lat="43.80613" lon="7.49901">
        <ele>333.1657104</ele>
        <time>2008-10-05T12:58:40Z</time>
      </trkpt>
      <trkpt lat="43.806" lon="7.49922">
        <ele>330.2550049</ele>
        <time>2008-10-05T12:58:47Z</time>
      </trkpt>
      <trkpt lat="43.80598" lon="7.4993">
        <ele>330.9977417</ele>
        <time>2008-10-05T12:58:49Z</time>
      </trkpt>
      <trkpt lat="43.80593" lon="7.49947">
        <ele>332.2876587</ele>
        <time>2008-10-05T12:58:54Z</time>
      </trkpt>
      <trkpt lat="43.80583" lon="7.49974">
        <ele>333.185791</ele>
        <time>2008-10-05T12:59:04Z</time>
      </trkpt>
      <trkpt lat="43.80582" lon="7.49976">
        <ele>333.0707703</ele>
        <time>2008-10-05T12:59:05Z</time>
      </trkpt>
      <trkpt lat="43.80577" lon="7.50005">
        <ele>336.1599426</ele>
        <time>2008-10-05T12:59:14Z</time>
      </trkpt>
      <trkpt lat="43.80573" lon="7.50029">
        <ele>340.2146912</ele>
        <time>2008-10-05T12:59:21Z</time>
      </trkpt>
      <trkpt lat="43.80565" lon="7.50038">
        <ele>339.8045044</ele>
        <time>2008-10-05T12:59:25Z</time>
      </trkpt>
      <trkpt lat="43.80545" lon="7.50049">
        <ele>335.4536438</ele>
        <time>2008-10-05T12:59:38Z</time>
      </trkpt>
      <trkpt lat="43.80544" lon="7.5005">
        <ele>335.1230164</ele>
        <time>2008-10-05T12:59:39Z</time>
      </trkpt>
      <trkpt lat="43.80541" lon="7.5005">
        <ele>334.2323303</ele>
        <time>2008-10-05T12:59:45Z</time>
      </trkpt>
      <trkpt lat="43.80531" lon="7.50051">
        <ele>330.881134</ele>
        <time>2008-10-05T12:59:50Z</time>
      </trkpt>
      <trkpt lat="43.80512" lon="7.50059">
        <ele>325.6488647</ele>
        <time>2008-10-05T12:59:58Z</time>
      </trkpt>
      <trkpt lat="43.80496" lon="7.50076">
        <ele>323.2522278</ele>
        <time>2008-10-05T13:00:05Z</time>
      </trkpt>
      <trkpt lat="43.80478" lon="7.50082">
        <ele>318.8110352</ele>
        <time>2008-10-05T13:00:11Z</time>
      </trkpt>
      <trkpt lat="43.80475" lon="7.50083">
        <ele>317.889679</ele>
        <time>2008-10-05T13:00:12Z</time>
      </trkpt>
      <trkpt lat="43.80455" lon="7.50101">
        <ele>315.3840332</ele>
        <time>2008-10-05T13:00:20Z</time>
      </trkpt>
      <trkpt lat="43.80445" lon="7.50123">
        <ele>316.8543396</ele>
        <time>2008-10-05T13:00:27Z</time>
      </trkpt>
      <trkpt lat="43.80436" lon="7.50147">
        <ele>318.9708252</ele>
        <time>2008-10-05T13:00:34Z</time>
      </trkpt>
      <trkpt lat="43.8043" lon="7.50168">
        <ele>321.1040344</ele>
        <time>2008-10-05T13:00:39Z</time>
      </trkpt>
      <trkpt lat="43.80421" lon="7.50173">
        <ele>318.6125793</ele>
        <time>2008-10-05T13:00:43Z</time>
      </trkpt>
      <trkpt lat="43.80402" lon="7.50183">
        <ele>315.4608459</ele>
        <time>2008-10-05T13:00:52Z</time>
      </trkpt>
      <trkpt lat="43.80392" lon="7.50204">
        <ele>316.7217407</ele>
        <time>2008-10-05T13:00:59Z</time>
      </trkpt>
      <trkpt lat="43.8038" lon="7.50226">
        <ele>316.9521484</ele>
        <time>2008-10-05T13:01:07Z</time>
      </trkpt>
      <trkpt lat="43.80367" lon="7.50246">
        <ele>316.3238831</ele>
        <time>2008-10-05T13:01:16Z</time>
      </trkpt>
      <trkpt lat="43.80359" lon="7.50254">
        <ele>315.0971069</ele>
        <time>2008-10-05T13:01:20Z</time>
      </trkpt>
      <trkpt lat="43.80351" lon="7.50285">
        <ele>316.8582153</ele>
        <time>2008-10-05T13:01:29Z</time>
      </trkpt>
      <trkpt lat="43.80351" lon="7.50289">
        <ele>317.3198242</ele>
        <time>2008-10-05T13:01:30Z</time>
      </trkpt>
      <trkpt lat="43.80345" lon="7.50318">
        <ele>319.3508301</ele>
        <time>2008-10-05T13:01:38Z</time>
      </trkpt>
      <trkpt lat="43.80339" lon="7.50326">
        <ele>318.7488403</ele>
        <time>2008-10-05T13:01:43Z</time>
      </trkpt>
      <trkpt lat="43.80322" lon="7.50313">
        <ele>313.5561218</ele>
        <time>2008-10-05T13:01:53Z</time>
      </trkpt>
      <trkpt lat="43.80304" lon="7.5032">
        <ele>312.1930847</ele>
        <time>2008-10-05T13:02:03Z</time>
      </trkpt>
      <trkpt lat="43.80283" lon="7.5032">
        <ele>309.4670105</ele>
        <time>2008-10-05T13:02:12Z</time>
      </trkpt>
      <trkpt lat="43.80278" lon="7.50323">
        <ele>309.2758484</ele>
        <time>2008-10-05T13:02:15Z</time>
      </trkpt>
      <trkpt lat="43.80271" lon="7.50325">
        <ele>308.7939148</ele>
        <time>2008-10-05T13:02:19Z</time>
      </trkpt>
      <trkpt lat="43.80257" lon="7.50328">
        <ele>307.73349</ele>
        <time>2008-10-05T13:02:26Z</time>
      </trkpt>
      <trkpt lat="43.80249" lon="7.50325">
        <ele>306.1271057</ele>
        <time>2008-10-05T13:02:30Z</time>
      </trkpt>
      <trkpt lat="43.80229" lon="7.50316">
        <ele>303.2879333</ele>
        <time>2008-10-05T13:02:37Z</time>
      </trkpt>
      <trkpt lat="43.80212" lon="7.50307">
        <ele>300.0096436</ele>
        <time>2008-10-05T13:02:45Z</time>
      </trkpt>
      <trkpt lat="43.80197" lon="7.50291">
        <ele>294.8158264</ele>
        <time>2008-10-05T13:02:52Z</time>
      </trkpt>
      <trkpt lat="43.80192" lon="7.50288">
        <ele>293.5423279</ele>
        <time>2008-10-05T13:02:54Z</time>
      </trkpt>
      <trkpt lat="43.80184" lon="7.50285">
        <ele>292.068634</ele>
        <time>2008-10-05T13:02:57Z</time>
      </trkpt>
      <trkpt lat="43.80171" lon="7.50278">
        <ele>289.1690369</ele>
        <time>2008-10-05T13:03:01Z</time>
      </trkpt>
      <trkpt lat="43.80149" lon="7.50283">
        <ele>289.7643127</ele>
        <time>2008-10-05T13:03:09Z</time>
      </trkpt>
      <trkpt lat="43.80146" lon="7.50284">
        <ele>289.8809204</ele>
        <time>2008-10-05T13:03:10Z</time>
      </trkpt>
      <trkpt lat="43.80127" lon="7.50278">
        <ele>287.3589783</ele>
        <time>2008-10-05T13:03:21Z</time>
      </trkpt>
      <trkpt lat="43.80124" lon="7.50275">
        <ele>286.5752869</ele>
        <time>2008-10-05T13:03:23Z</time>
      </trkpt>
      <trkpt lat="43.80108" lon="7.5026">
        <ele>281.5211792</ele>
        <time>2008-10-05T13:03:30Z</time>
      </trkpt>
      <trkpt lat="43.80085" lon="7.50262">
        <ele>281.5733948</ele>
        <time>2008-10-05T13:03:39Z</time>
      </trkpt>
      <trkpt lat="43.80077" lon="7.50265">
        <ele>281.7102661</ele>
        <time>2008-10-05T13:03:42Z</time>
      </trkpt>
      <trkpt lat="43.80054" lon="7.50275">
        <ele>282.1847229</ele>
        <time>2008-10-05T13:03:52Z</time>
      </trkpt>
      <trkpt lat="43.80037" lon="7.50285">
        <ele>283.3204956</ele>
        <time>2008-10-05T13:03:58Z</time>
      </trkpt>
      <trkpt lat="43.80018" lon="7.50296">
        <ele>284.71521</ele>
        <time>2008-10-05T13:04:03Z</time>
      </trkpt>
      <trkpt lat="43.80009" lon="7.50287">
        <ele>281.177063</ele>
        <time>2008-10-05T13:04:08Z</time>
      </trkpt>
      <trkpt lat="43.80008" lon="7.50278">
        <ele>278.2838745</ele>
        <time>2008-10-05T13:04:11Z</time>
      </trkpt>
      <trkpt lat="43.79994" lon="7.50254">
        <ele>269.2116089</ele>
        <time>2008-10-05T13:04:20Z</time>
      </trkpt>
      <trkpt lat="43.79973" lon="7.50245">
        <ele>262.9845276</ele>
        <time>2008-10-05T13:04:28Z</time>
      </trkpt>
      <trkpt lat="43.79958" lon="7.50258">
        <ele>264.308075</ele>
        <time>2008-10-05T13:04:34Z</time>
      </trkpt>
      <trkpt lat="43.79951" lon="7.50278">
        <ele>268.9298401</ele>
        <time>2008-10-05T13:04:40Z</time>
      </trkpt>
      <trkpt lat="43.79944" lon="7.50291">
        <ele>271.535614</ele>
        <time>2008-10-05T13:04:44Z</time>
      </trkpt>
      <trkpt lat="43.79927" lon="7.50307">
        <ele>273.3668213</ele>
        <time>2008-10-05T13:04:51Z</time>
      </trkpt>
      <trkpt lat="43.79924" lon="7.50315">
        <ele>274.8981934</ele>
        <time>2008-10-05T13:04:54Z</time>
      </trkpt>
      <trkpt lat="43.79904" lon="7.50328">
        <ele>275.3693542</ele>
        <time>2008-10-05T13:05:02Z</time>
      </trkpt>
      <trkpt lat="43.79899" lon="7.5033">
        <ele>274.9112854</ele>
        <time>2008-10-05T13:05:04Z</time>
      </trkpt>
      <trkpt lat="43.79888" lon="7.50344">
        <ele>277.3999634</ele>
        <time>2008-10-05T13:05:09Z</time>
      </trkpt>
      <trkpt lat="43.79868" lon="7.50338">
        <ele>272.1219482</ele>
        <time>2008-10-05T13:05:17Z</time>
      </trkpt>
      <trkpt lat="43.79854" lon="7.5032">
        <ele>264.2177734</ele>
        <time>2008-10-05T13:05:24Z</time>
      </trkpt>
      <trkpt lat="43.79836" lon="7.50313">
        <ele>258.8725586</ele>
        <time>2008-10-05T13:05:32Z</time>
      </trkpt>
      <trkpt lat="43.79814" lon="7.5031">
        <ele>254.877121</ele>
        <time>2008-10-05T13:05:40Z</time>
      </trkpt>
      <trkpt lat="43.79801" lon="7.50311">
        <ele>253.5514679</ele>
        <time>2008-10-05T13:05:45Z</time>
      </trkpt>
      <trkpt lat="43.79779" lon="7.50316">
        <ele>252.1770172</ele>
        <time>2008-10-05T13:05:53Z</time>
      </trkpt>
      <trkpt lat="43.79769" lon="7.50327">
        <ele>254.8740692</ele>
        <time>2008-10-05T13:06:00Z</time>
      </trkpt>
      <trkpt lat="43.79762" lon="7.5033">
        <ele>255.0319519</ele>
        <time>2008-10-05T13:06:03Z</time>
      </trkpt>
      <trkpt lat="43.79741" lon="7.50338">
        <ele>254.6053772</ele>
        <time>2008-10-05T13:06:12Z</time>
      </trkpt>
      <trkpt lat="43.79722" lon="7.50348">
        <ele>254.4348602</ele>
        <time>2008-10-05T13:06:21Z</time>
      </trkpt>
      <trkpt lat="43.79714" lon="7.50353">
        <ele>254.5315552</ele>
        <time>2008-10-05T13:06:25Z</time>
      </trkpt>
      <trkpt lat="43.79694" lon="7.50361">
        <ele>253.1685638</ele>
        <time>2008-10-05T13:06:34Z</time>
      </trkpt>
      <trkpt lat="43.79675" lon="7.50373">
        <ele>253.430069</ele>
        <time>2008-10-05T13:06:42Z</time>
      </trkpt>
      <trkpt lat="43.79652" lon="7.50372">
        <ele>246.3908539</ele>
        <time>2008-10-05T13:06:47Z</time>
      </trkpt>
      <trkpt lat="43.79649" lon="7.50373">
        <ele>245.6490479</ele>
        <time>2008-10-05T13:06:48Z</time>
      </trkpt>
      <trkpt lat="43.79644" lon="7.50381">
        <ele>246.3770294</ele>
        <time>2008-10-05T13:06:52Z</time>
      </trkpt>
      <trkpt lat="43.79639" lon="7.50396">
        <ele>249.6821747</ele>
        <time>2008-10-05T13:06:59Z</time>
      </trkpt>
      <trkpt lat="43.79633" lon="7.50406">
        <ele>250.0641479</ele>
        <time>2008-10-05T13:07:04Z</time>
      </trkpt>
      <trkpt lat="43.79618" lon="7.50427">
        <ele>249.2814636</ele>
        <time>2008-10-05T13:07:15Z</time>
      </trkpt>
      <trkpt lat="43.79615" lon="7.50432">
        <ele>249.2831573</ele>
        <time>2008-10-05T13:07:18Z</time>
      </trkpt>
      <trkpt lat="43.79607" lon="7.50461">
        <ele>252.2189331</ele>
        <time>2008-10-05T13:07:28Z</time>
      </trkpt>
      <trkpt lat="43.79606" lon="7.50467">
        <ele>252.8010406</ele>
        <time>2008-10-05T13:07:30Z</time>
      </trkpt>
      <trkpt lat="43.79605" lon="7.50478">
        <ele>254.8750458</ele>
        <time>2008-10-05T13:07:33Z</time>
      </trkpt>
      <trkpt lat="43.79607" lon="7.50508">
        <ele>261.7735596</ele>
        <time>2008-10-05T13:07:41Z</time>
      </trkpt>
      <trkpt lat="43.79602" lon="7.50539">
        <ele>263.0759277</ele>
        <time>2008-10-05T13:07:51Z</time>
      </trkpt>
      <trkpt lat="43.79601" lon="7.50565">
        <ele>265.7420654</ele>
        <time>2008-10-05T13:07:59Z</time>
      </trkpt>
      <trkpt lat="43.79606" lon="7.50578">
        <ele>269.9572144</ele>
        <time>2008-10-05T13:08:06Z</time>
      </trkpt>
      <trkpt lat="43.79606" lon="7.5058">
        <ele>270.2479553</ele>
        <time>2008-10-05T13:08:09Z</time>
      </trkpt>
      <trkpt lat="43.79611" lon="7.50584">
        <ele>273.6913147</ele>
        <time>2008-10-05T13:08:16Z</time>
      </trkpt>
      <trkpt lat="43.79613" lon="7.50583">
        <ele>274.7428284</ele>
        <time>2008-10-05T13:08:18Z</time>
      </trkpt>
      <trkpt lat="43.79634" lon="7.50586">
        <ele>286.6819458</ele>
        <time>2008-10-05T13:08:34Z</time>
      </trkpt>
      <trkpt lat="43.79642" lon="7.50587">
        <ele>290.9259338</ele>
        <time>2008-10-05T13:08:40Z</time>
      </trkpt>
      <trkpt lat="43.79646" lon="7.50589">
        <ele>292.9572754</ele>
        <time>2008-10-05T13:08:43Z</time>
      </trkpt>
      <trkpt lat="43.79666" lon="7.50601">
        <ele>303.2176514</ele>
        <time>2008-10-05T13:08:52Z</time>
      </trkpt>
      <trkpt lat="43.79678" lon="7.5062">
        <ele>305.7338257</ele>
        <time>2008-10-05T13:08:59Z</time>
      </trkpt>
      <trkpt lat="43.79685" lon="7.50636">
        <ele>306.8265686</ele>
        <time>2008-10-05T13:09:06Z</time>
      </trkpt>
      <trkpt lat="43.79696" lon="7.50663">
        <ele>308.3761597</ele>
        <time>2008-10-05T13:09:17Z</time>
      </trkpt>
      <trkpt lat="43.7969" lon="7.50676">
        <ele>304.3977356</ele>
        <time>2008-10-05T13:09:26Z</time>
      </trkpt>
      <trkpt lat="43.79692" lon="7.50675">
        <ele>305.2466736</ele>
        <time>2008-10-05T13:09:31Z</time>
      </trkpt>
      <trkpt lat="43.79693" lon="7.50678">
        <ele>304.9000244</ele>
        <time>2008-10-05T13:09:36Z</time>
      </trkpt>
      <trkpt lat="43.79681" lon="7.5068">
        <ele>300.8695374</ele>
        <time>2008-10-05T13:09:43Z</time>
      </trkpt>
      <trkpt lat="43.7967" lon="7.50687">
        <ele>295.6773376</ele>
        <time>2008-10-05T13:09:51Z</time>
      </trkpt>
      <trkpt lat="43.79662" lon="7.50694">
        <ele>290.6029358</ele>
        <time>2008-10-05T13:09:56Z</time>
      </trkpt>
      <trkpt lat="43.79656" lon="7.50715">
        <ele>283.4402466</ele>
        <time>2008-10-05T13:10:07Z</time>
      </trkpt>
      <trkpt lat="43.79651" lon="7.50723">
        <ele>279.9102173</ele>
        <time>2008-10-05T13:10:10Z</time>
      </trkpt>
      <trkpt lat="43.79638" lon="7.50734">
        <ele>271.5376282</ele>
        <time>2008-10-05T13:10:16Z</time>
      </trkpt>
      <trkpt lat="43.7962" lon="7.50747">
        <ele>261.8263245</ele>
        <time>2008-10-05T13:10:26Z</time>
      </trkpt>
      <trkpt lat="43.79618" lon="7.50747">
        <ele>261.0037231</ele>
        <time>2008-10-05T13:10:27Z</time>
      </trkpt>
      <trkpt lat="43.79613" lon="7.50748">
        <ele>258.9809265</ele>
        <time>2008-10-05T13:10:29Z</time>
      </trkpt>
      <trkpt lat="43.79597" lon="7.50757">
        <ele>251.1649017</ele>
        <time>2008-10-05T13:10:38Z</time>
      </trkpt>
      <trkpt lat="43.79587" lon="7.50752">
        <ele>247.5072784</ele>
        <time>2008-10-05T13:10:44Z</time>
      </trkpt>
      <trkpt lat="43.79572" lon="7.50767">
        <ele>241.6468964</ele>
        <time>2008-10-05T13:10:56Z</time>
      </trkpt>
      <trkpt lat="43.79553" lon="7.50775">
        <ele>236.0182495</ele>
        <time>2008-10-05T13:11:05Z</time>
      </trkpt>
      <trkpt lat="43.79546" lon="7.50774">
        <ele>234.1466064</ele>
        <time>2008-10-05T13:11:08Z</time>
      </trkpt>
      <trkpt lat="43.79525" lon="7.50771">
        <ele>227.8695831</ele>
        <time>2008-10-05T13:11:18Z</time>
      </trkpt>
      <trkpt lat="43.79506" lon="7.50767">
        <ele>222.0270691</ele>
        <time>2008-10-05T13:11:24Z</time>
      </trkpt>
      <trkpt lat="43.79486" lon="7.50771">
        <ele>216.1573639</ele>
        <time>2008-10-05T13:11:31Z</time>
      </trkpt>
      <trkpt lat="43.79467" lon="7.50778">
        <ele>211.3671112</ele>
        <time>2008-10-05T13:11:38Z</time>
      </trkpt>
      <trkpt lat="43.79449" lon="7.50779">
        <ele>205.9615784</ele>
        <time>2008-10-05T13:11:46Z</time>
      </trkpt>
      <trkpt lat="43.79439" lon="7.5078">
        <ele>203.1715088</ele>
        <time>2008-10-05T13:11:52Z</time>
      </trkpt>
      <trkpt lat="43.79432" lon="7.50782">
        <ele>201.5270538</ele>
        <time>2008-10-05T13:11:56Z</time>
      </trkpt>
      <trkpt lat="43.79424" lon="7.50784">
        <ele>199.5067444</ele>
        <time>2008-10-05T13:12:00Z</time>
      </trkpt>
      <trkpt lat="43.79406" lon="7.50784">
        <ele>195.1384735</ele>
        <time>2008-10-05T13:12:07Z</time>
      </trkpt>
      <trkpt lat="43.79392" lon="7.50786">
        <ele>192.6421509</ele>
        <time>2008-10-05T13:12:13Z</time>
      </trkpt>
      <trkpt lat="43.79382" lon="7.50809">
        <ele>194.8486786</ele>
        <time>2008-10-05T13:12:22Z</time>
      </trkpt>
      <trkpt lat="43.79379" lon="7.50836">
        <ele>199.1452179</ele>
        <time>2008-10-05T13:12:29Z</time>
      </trkpt>
      <trkpt lat="43.79375" lon="7.5084">
        <ele>199.1904144</ele>
        <time>2008-10-05T13:12:53Z</time>
      </trkpt>
      <trkpt lat="43.79374" lon="7.50835">
        <ele>198.0717621</ele>
        <time>2008-10-05T13:12:56Z</time>
      </trkpt>
      <trkpt lat="43.79365" lon="7.50846">
        <ele>198.5461121</ele>
        <time>2008-10-05T13:13:05Z</time>
      </trkpt>
      <trkpt lat="43.79362" lon="7.50848">
        <ele>198.4791718</ele>
        <time>2008-10-05T13:13:07Z</time>
      </trkpt>
      <trkpt lat="43.79364" lon="7.50854">
        <ele>199.855896</ele>
        <time>2008-10-05T13:13:11Z</time>
      </trkpt>
      <trkpt lat="43.79362" lon="7.50859">
        <ele>200.461853</ele>
        <time>2008-10-05T13:13:13Z</time>
      </trkpt>
      <trkpt lat="43.79344" lon="7.50876">
        <ele>200.4372559</ele>
        <time>2008-10-05T13:13:21Z</time>
      </trkpt>
      <trkpt lat="43.79338" lon="7.50885">
        <ele>201.1067352</ele>
        <time>2008-10-05T13:13:24Z</time>
      </trkpt>
      <trkpt lat="43.79342" lon="7.50892">
        <ele>202.9835663</ele>
        <time>2008-10-05T13:13:28Z</time>
      </trkpt>
      <trkpt lat="43.79349" lon="7.50891">
        <ele>204.0255432</ele>
        <time>2008-10-05T13:13:33Z</time>
      </trkpt>
      <trkpt lat="43.79306" lon="7.50887">
        <ele>195.8643951</ele>
        <time>2008-10-05T13:13:48Z</time>
      </trkpt>
      <trkpt lat="43.79293" lon="7.50896">
        <ele>195.0708771</ele>
        <time>2008-10-05T13:13:52Z</time>
      </trkpt>
      <trkpt lat="43.79285" lon="7.50898">
        <ele>194.0075378</ele>
        <time>2008-10-05T13:13:54Z</time>
      </trkpt>
      <trkpt lat="43.79273" lon="7.50903">
        <ele>192.8771362</ele>
        <time>2008-10-05T13:13:58Z</time>
      </trkpt>
      <trkpt lat="43.79256" lon="7.5092">
        <ele>192.0053558</ele>
        <time>2008-10-05T13:14:05Z</time>
      </trkpt>
      <trkpt lat="43.79239" lon="7.50929">
        <ele>189.4406891</ele>
        <time>2008-10-05T13:14:10Z</time>
      </trkpt>
      <trkpt lat="43.79233" lon="7.50929">
        <ele>188.6655884</ele>
        <time>2008-10-05T13:14:13Z</time>
      </trkpt>
      <trkpt lat="43.79219" lon="7.5091">
        <ele>186.2937317</ele>
        <time>2008-10-05T13:14:20Z</time>
      </trkpt>
      <trkpt lat="43.79207" lon="7.50896">
        <ele>183.0746155</ele>
        <time>2008-10-05T13:14:26Z</time>
      </trkpt>
      <trkpt lat="43.7919" lon="7.50879">
        <ele>179.0817413</ele>
        <time>2008-10-05T13:14:34Z</time>
      </trkpt>
      <trkpt lat="43.79178" lon="7.5086">
        <ele>175.7548065</ele>
        <time>2008-10-05T13:14:41Z</time>
      </trkpt>
      <trkpt lat="43.79165" lon="7.50843">
        <ele>173.0700226</ele>
        <time>2008-10-05T13:14:48Z</time>
      </trkpt>
      <trkpt lat="43.79146" lon="7.50833">
        <ele>172.7072754</ele>
        <time>2008-10-05T13:14:56Z</time>
      </trkpt>
      <trkpt lat="43.79129" lon="7.50824">
        <ele>170.700058</ele>
        <time>2008-10-05T13:15:06Z</time>
      </trkpt>
      <trkpt lat="43.79111" lon="7.50815">
        <ele>168.4241943</ele>
        <time>2008-10-05T13:15:21Z</time>
      </trkpt>
      <trkpt lat="43.79094" lon="7.50803">
        <ele>165.1008301</ele>
        <time>2008-10-05T13:15:30Z</time>
      </trkpt>
      <trkpt lat="43.79091" lon="7.50801">
        <ele>164.5568848</ele>
        <time>2008-10-05T13:15:31Z</time>
      </trkpt>
      <trkpt lat="43.79079" lon="7.50794">
        <ele>162.3564301</ele>
        <time>2008-10-05T13:15:39Z</time>
      </trkpt>
      <trkpt lat="43.7906" lon="7.50791">
        <ele>161.5464478</ele>
        <time>2008-10-05T13:15:56Z</time>
      </trkpt>
      <trkpt lat="43.79058" lon="7.5079">
        <ele>161.4505615</ele>
        <time>2008-10-05T13:15:58Z</time>
      </trkpt>
      <trkpt lat="43.79052" lon="7.50789">
        <ele>161.2806702</ele>
        <time>2008-10-05T13:16:04Z</time>
      </trkpt>
      <trkpt lat="43.79042" lon="7.50789">
        <ele>161.3040161</ele>
        <time>2008-10-05T13:16:09Z</time>
      </trkpt>
      <trkpt lat="43.7902" lon="7.50788">
        <ele>161.4112701</ele>
        <time>2008-10-05T13:16:18Z</time>
      </trkpt>
      <trkpt lat="43.79001" lon="7.50785">
        <ele>160.7976837</ele>
        <time>2008-10-05T13:16:26Z</time>
      </trkpt>
      <trkpt lat="43.78989" lon="7.50791">
        <ele>161.4965057</ele>
        <time>2008-10-05T13:16:31Z</time>
      </trkpt>
      <trkpt lat="43.78973" lon="7.50801">
        <ele>163.1122131</ele>
        <time>2008-10-05T13:16:40Z</time>
      </trkpt>
      <trkpt lat="43.78955" lon="7.50813">
        <ele>165.1524658</ele>
        <time>2008-10-05T13:16:50Z</time>
      </trkpt>
      <trkpt lat="43.78935" lon="7.50821">
        <ele>165.5628357</ele>
        <time>2008-10-05T13:16:57Z</time>
      </trkpt>
      <trkpt lat="43.78915" lon="7.50823">
        <ele>164.3820343</ele>
        <time>2008-10-05T13:17:04Z</time>
      </trkpt>
      <trkpt lat="43.78897" lon="7.50823">
        <ele>163.239212</ele>
        <time>2008-10-05T13:17:11Z</time>
      </trkpt>
      <trkpt lat="43.78878" lon="7.50829">
        <ele>163.8382416</ele>
        <time>2008-10-05T13:17:18Z</time>
      </trkpt>
      <trkpt lat="43.78875" lon="7.50829">
        <ele>163.5102234</ele>
        <time>2008-10-05T13:17:19Z</time>
      </trkpt>
      <trkpt lat="43.78852" lon="7.50825">
        <ele>160.7015228</ele>
        <time>2008-10-05T13:17:26Z</time>
      </trkpt>
      <trkpt lat="43.78845" lon="7.50824">
        <ele>159.9314728</ele>
        <time>2008-10-05T13:17:28Z</time>
      </trkpt>
      <trkpt lat="43.78823" lon="7.50824">
        <ele>160.5979462</ele>
        <time>2008-10-05T13:17:35Z</time>
      </trkpt>
      <trkpt lat="43.78802" lon="7.50823">
        <ele>163.0310669</ele>
        <time>2008-10-05T13:17:42Z</time>
      </trkpt>
      <trkpt lat="43.78784" lon="7.50824">
        <ele>165.6633301</ele>
        <time>2008-10-05T13:17:49Z</time>
      </trkpt>
      <trkpt lat="43.78767" lon="7.50817">
        <ele>165.7419281</ele>
        <time>2008-10-05T13:17:56Z</time>
      </trkpt>
      <trkpt lat="43.78748" lon="7.50809">
        <ele>164.6961823</ele>
        <time>2008-10-05T13:18:04Z</time>
      </trkpt>
      <trkpt lat="43.78729" lon="7.50804">
        <ele>161.1094513</ele>
        <time>2008-10-05T13:18:12Z</time>
      </trkpt>
      <trkpt lat="43.78711" lon="7.50801">
        <ele>158.5888519</ele>
        <time>2008-10-05T13:18:19Z</time>
      </trkpt>
      <trkpt lat="43.78693" lon="7.50805">
        <ele>158.3238373</ele>
        <time>2008-10-05T13:18:26Z</time>
      </trkpt>
      <trkpt lat="43.78685" lon="7.50809">
        <ele>158.5426636</ele>
        <time>2008-10-05T13:18:30Z</time>
      </trkpt>
      <trkpt lat="43.78664" lon="7.50815">
        <ele>157.9386902</ele>
        <time>2008-10-05T13:18:40Z</time>
      </trkpt>
      <trkpt lat="43.78659" lon="7.50816">
        <ele>157.4934692</ele>
        <time>2008-10-05T13:18:42Z</time>
      </trkpt>
      <trkpt lat="43.78637" lon="7.50806">
        <ele>152.8523712</ele>
        <time>2008-10-05T13:18:51Z</time>
      </trkpt>
      <trkpt lat="43.7862" lon="7.50794">
        <ele>148.6818695</ele>
        <time>2008-10-05T13:18:58Z</time>
      </trkpt>
      <trkpt lat="43.78603" lon="7.50782">
        <ele>145.2872925</ele>
        <time>2008-10-05T13:19:05Z</time>
      </trkpt>
      <trkpt lat="43.78584" lon="7.50773">
        <ele>142.8004456</ele>
        <time>2008-10-05T13:19:12Z</time>
      </trkpt>
      <trkpt lat="43.78567" lon="7.50759">
        <ele>140.9741211</ele>
        <time>2008-10-05T13:19:18Z</time>
      </trkpt>
      <trkpt lat="43.78564" lon="7.50751">
        <ele>140.3329773</ele>
        <time>2008-10-05T13:19:20Z</time>
      </trkpt>
      <trkpt lat="43.7856" lon="7.5073">
        <ele>134.8177948</ele>
        <time>2008-10-05T13:19:25Z</time>
      </trkpt>
      <trkpt lat="43.78556" lon="7.50698">
        <ele>126.4475861</ele>
        <time>2008-10-05T13:19:34Z</time>
      </trkpt>
      <trkpt lat="43.78549" lon="7.50673">
        <ele>120.2168961</ele>
        <time>2008-10-05T13:19:42Z</time>
      </trkpt>
      <trkpt lat="43.78534" lon="7.50655">
        <ele>114.7900848</ele>
        <time>2008-10-05T13:19:51Z</time>
      </trkpt>
      <trkpt lat="43.78516" lon="7.50649">
        <ele>113.484642</ele>
        <time>2008-10-05T13:19:58Z</time>
      </trkpt>
      <trkpt lat="43.78496" lon="7.50645">
        <ele>113.0812759</ele>
        <time>2008-10-05T13:20:05Z</time>
      </trkpt>
      <trkpt lat="43.78476" lon="7.50641">
        <ele>112.5879593</ele>
        <time>2008-10-05T13:20:14Z</time>
      </trkpt>
      <trkpt lat="43.78458" lon="7.50642">
        <ele>113.6733704</ele>
        <time>2008-10-05T13:20:21Z</time>
      </trkpt>
      <trkpt lat="43.78437" lon="7.50643">
        <ele>115.0322495</ele>
        <time>2008-10-05T13:20:29Z</time>
      </trkpt>
      <trkpt lat="43.7842" lon="7.50644">
        <ele>116.5294113</ele>
        <time>2008-10-05T13:20:36Z</time>
      </trkpt>
      <trkpt lat="43.78401" lon="7.50645">
        <ele>116.985733</ele>
        <time>2008-10-05T13:20:43Z</time>
      </trkpt>
      <trkpt lat="43.78381" lon="7.50649">
        <ele>118.504364</ele>
        <time>2008-10-05T13:20:50Z</time>
      </trkpt>
      <trkpt lat="43.78361" lon="7.50651">
        <ele>119.1967316</ele>
        <time>2008-10-05T13:20:57Z</time>
      </trkpt>
      <trkpt lat="43.78342" lon="7.50655">
        <ele>120.6638641</ele>
        <time>2008-10-05T13:21:03Z</time>
      </trkpt>
      <trkpt lat="43.78323" lon="7.50651">
        <ele>118.4683228</ele>
        <time>2008-10-05T13:21:09Z</time>
      </trkpt>
      <trkpt lat="43.78311" lon="7.50648">
        <ele>116.4204178</ele>
        <time>2008-10-05T13:21:14Z</time>
      </trkpt>
      <trkpt lat="43.78299" lon="7.5064">
        <ele>112.6409607</ele>
        <time>2008-10-05T13:21:19Z</time>
      </trkpt>
      <trkpt lat="43.78279" lon="7.50626">
        <ele>106.0554428</ele>
        <time>2008-10-05T13:21:27Z</time>
      </trkpt>
      <trkpt lat="43.78263" lon="7.50613">
        <ele>100.6680756</ele>
        <time>2008-10-05T13:21:33Z</time>
      </trkpt>
      <trkpt lat="43.78246" lon="7.50602">
        <ele>95.501442</ele>
        <time>2008-10-05T13:21:39Z</time>
      </trkpt>
      <trkpt lat="43.78229" lon="7.50585">
        <ele>87.6945343</ele>
        <time>2008-10-05T13:21:45Z</time>
      </trkpt>
      <trkpt lat="43.78212" lon="7.50573">
        <ele>80.5476151</ele>
        <time>2008-10-05T13:21:51Z</time>
      </trkpt>
      <trkpt lat="43.78194" lon="7.50565">
        <ele>74.9712372</ele>
        <time>2008-10-05T13:21:58Z</time>
      </trkpt>
      <trkpt lat="43.78174" lon="7.50562">
        <ele>72.0910339</ele>
        <time>2008-10-05T13:22:05Z</time>
      </trkpt>
      <trkpt lat="43.78153" lon="7.50557">
        <ele>65.443306</ele>
        <time>2008-10-05T13:22:13Z</time>
      </trkpt>
      <trkpt lat="43.78135" lon="7.50552">
        <ele>59.0239563</ele>
        <time>2008-10-05T13:22:20Z</time>
      </trkpt>
      <trkpt lat="43.78115" lon="7.5055">
        <ele>53.6538773</ele>
        <time>2008-10-05T13:22:28Z</time>
      </trkpt>
      <trkpt lat="43.78107" lon="7.50554">
        <ele>52.9913597</ele>
        <time>2008-10-05T13:22:32Z</time>
      </trkpt>
      <trkpt lat="43.78103" lon="7.50559">
        <ele>53.2919235</ele>
        <time>2008-10-05T13:22:35Z</time>
      </trkpt>
      <trkpt lat="43.78096" lon="7.5056">
        <ele>51.6598244</ele>
        <time>2008-10-05T13:22:39Z</time>
      </trkpt>
      <trkpt lat="43.78074" lon="7.50561">
        <ele>46.6140289</ele>
        <time>2008-10-05T13:22:49Z</time>
      </trkpt>
      <trkpt lat="43.78061" lon="7.50563">
        <ele>44.0560989</ele>
        <time>2008-10-05T13:22:55Z</time>
      </trkpt>
      <trkpt lat="43.78049" lon="7.50564">
        <ele>41.6996346</ele>
        <time>2008-10-05T13:22:59Z</time>
      </trkpt>
      <trkpt lat="43.78042" lon="7.50563">
        <ele>39.9946671</ele>
        <time>2008-10-05T13:23:02Z</time>
      </trkpt>
      <trkpt lat="43.78022" lon="7.50566">
        <ele>35.4698639</ele>
        <time>2008-10-05T13:23:10Z</time>
      </trkpt>
      <trkpt lat="43.78003" lon="7.50564">
        <ele>30.826498</ele>
        <time>2008-10-05T13:23:17Z</time>
      </trkpt>
      <trkpt lat="43.77983" lon="7.50561">
        <ele>28.0511742</ele>
        <time>2008-10-05T13:23:24Z</time>
      </trkpt>
      <trkpt lat="43.77966" lon="7.50561">
        <ele>25.6487541</ele>
        <time>2008-10-05T13:23:30Z</time>
      </trkpt>
      <trkpt lat="43.77946" lon="7.50561">
        <ele>23.0240879</ele>
        <time>2008-10-05T13:23:37Z</time>
      </trkpt>
      <trkpt lat="43.77926" lon="7.50564">
        <ele>20.153841</ele>
        <time>2008-10-05T13:23:44Z</time>
      </trkpt>
      <trkpt lat="43.77907" lon="7.50567">
        <ele>18.1130619</ele>
        <time>2008-10-05T13:23:51Z</time>
      </trkpt>
      <trkpt lat="43.77888" lon="7.50569">
        <ele>17.0060539</ele>
        <time>2008-10-05T13:23:58Z</time>
      </trkpt>
      <trkpt lat="43.77867" lon="7.50576">
        <ele>15.6894617</ele>
        <time>2008-10-05T13:24:06Z</time>
      </trkpt>
      <trkpt lat="43.7785" lon="7.50583">
        <ele>14.6175594</ele>
        <time>2008-10-05T13:24:12Z</time>
      </trkpt>
      <trkpt lat="43.77833" lon="7.50596">
        <ele>13.3873444</ele>
        <time>2008-10-05T13:24:19Z</time>
      </trkpt>
      <trkpt lat="43.77814" lon="7.50603">
        <ele>12.4196224</ele>
        <time>2008-10-05T13:24:26Z</time>
      </trkpt>
      <trkpt lat="43.77797" lon="7.50613">
        <ele>11.4244404</ele>
        <time>2008-10-05T13:24:32Z</time>
      </trkpt>
      <trkpt lat="43.7778" lon="7.50627">
        <ele>10.2935877</ele>
        <time>2008-10-05T13:24:40Z</time>
      </trkpt>
      <trkpt lat="43.77773" lon="7.50636">
        <ele>9.7748337</ele>
        <time>2008-10-05T13:24:44Z</time>
      </trkpt>
      <trkpt lat="43.77761" lon="7.50653">
        <ele>8.7812252</ele>
        <time>2008-10-05T13:24:54Z</time>
      </trkpt>
      <trkpt lat="43.77755" lon="7.5066">
        <ele>8.3724756</ele>
        <time>2008-10-05T13:24:58Z</time>
      </trkpt>
      <trkpt lat="43.77749" lon="7.50662">
        <ele>8.1250114</ele>
        <time>2008-10-05T13:25:01Z</time>
      </trkpt>
      <trkpt lat="43.77746" lon="7.50663">
        <ele>8.0431528</ele>
        <time>2008-10-05T13:25:05Z</time>
      </trkpt>
      <trkpt lat="43.7775" lon="7.50657">
        <ele>8.3499737</ele>
        <time>2008-10-05T13:25:10Z</time>
      </trkpt>
      <trkpt lat="43.77754" lon="7.50658">
        <ele>8.4205294</ele>
        <time>2008-10-05T13:25:13Z</time>
      </trkpt>
      <trkpt lat="43.77754" lon="7.50661">
        <ele>8.3123064</ele>
        <time>2008-10-05T13:25:15Z</time>
      </trkpt>
      <trkpt lat="43.77753" lon="7.50669">
        <ele>8.0006495</ele>
        <time>2008-10-05T13:25:17Z</time>
      </trkpt>
      <trkpt lat="43.77742" lon="7.50679">
        <ele>7.4045286</ele>
        <time>2008-10-05T13:25:22Z</time>
      </trkpt>
      <trkpt lat="43.77729" lon="7.5069">
        <ele>6.7073841</ele>
        <time>2008-10-05T13:25:27Z</time>
      </trkpt>
      <trkpt lat="43.77723" lon="7.50674">
        <ele>7.0982351</ele>
        <time>2008-10-05T13:25:35Z</time>
      </trkpt>
      <trkpt lat="43.77721" lon="7.50673">
        <ele>7.1090817</ele>
        <time>2008-10-05T13:25:37Z</time>
      </trkpt>
      <trkpt lat="43.77723" lon="7.5069">
        <ele>6.5970097</ele>
        <time>2008-10-05T13:25:45Z</time>
      </trkpt>
      <trkpt lat="43.77724" lon="7.50694">
        <ele>6.5023632</ele>
        <time>2008-10-05T13:25:47Z</time>
      </trkpt>
      <trkpt lat="43.77726" lon="7.50718">
        <ele>5.7463236</ele>
        <time>2008-10-05T13:25:54Z</time>
      </trkpt>
      <trkpt lat="43.77732" lon="7.50722">
        <ele>5.7055669</ele>
        <time>2008-10-05T13:25:58Z</time>
      </trkpt>
      <trkpt lat="43.77739" lon="7.50723">
        <ele>5.8037133</ele>
        <time>2008-10-05T13:26:03Z</time>
      </trkpt>
      <trkpt lat="43.77728" lon="7.50743">
        <ele>4.9832106</ele>
        <time>2008-10-05T13:26:10Z</time>
      </trkpt>
      <trkpt lat="43.77728" lon="7.50739">
        <ele>5.0850925</ele>
        <time>2008-10-05T13:26:16Z</time>
      </trkpt>
      <trkpt lat="43.77727" lon="7.50751">
        <ele>4.6797361</ele>
        <time>2008-10-05T13:26:26Z</time>
      </trkpt>
      <trkpt lat="43.7773" lon="7.50752">
        <ele>4.6809707</ele>
        <time>2008-10-05T13:26:28Z</time>
      </trkpt>
      <trkpt lat="43.7774" lon="7.50755">
        <ele>4.6982269</ele>
        <time>2008-10-05T13:26:32Z</time>
      </trkpt>
      <trkpt lat="43.77744" lon="7.50765">
        <ele>4.4117436</ele>
        <time>2008-10-05T13:26:35Z</time>
      </trkpt>
      <trkpt lat="43.77739" lon="7.50756">
        <ele>4.6715908</ele>
        <time>2008-10-05T13:26:44Z</time>
      </trkpt>
      <trkpt lat="43.77744" lon="7.50783">
        <ele>3.7550373</ele>
        <time>2008-10-05T13:26:53Z</time>
      </trkpt>
      <trkpt lat="43.77747" lon="7.50786">
        <ele>3.6724753</ele>
        <time>2008-10-05T13:26:55Z</time>
      </trkpt>
      <trkpt lat="43.77766" lon="7.50778">
        <ele>4.1085348</ele>
        <time>2008-10-05T13:27:01Z</time>
      </trkpt>
      <trkpt lat="43.77789" lon="7.50768">
        <ele>4.7148714</ele>
        <time>2008-10-05T13:27:09Z</time>
      </trkpt>
      <trkpt lat="43.77809" lon="7.50761">
        <ele>5.2355866</ele>
        <time>2008-10-05T13:27:16Z</time>
      </trkpt>
      <trkpt lat="43.7783" lon="7.50755">
        <ele>5.7135916</ele>
        <time>2008-10-05T13:27:22Z</time>
      </trkpt>
      <trkpt lat="43.77851" lon="7.5075">
        <ele>6.4309406</ele>
        <time>2008-10-05T13:27:29Z</time>
      </trkpt>
      <trkpt lat="43.77854" lon="7.50748">
        <ele>6.5893226</ele>
        <time>2008-10-05T13:27:30Z</time>
      </trkpt>
      <trkpt lat="43.77855" lon="7.50765">
        <ele>5.7871094</ele>
        <time>2008-10-05T13:27:41Z</time>
      </trkpt>
      <trkpt lat="43.77855" lon="7.50776">
        <ele>5.2675476</ele>
        <time>2008-10-05T13:27:44Z</time>
      </trkpt>
      <trkpt lat="43.77848" lon="7.50801">
        <ele>3.9263</ele>
        <time>2008-10-05T13:27:50Z</time>
      </trkpt>
      <trkpt lat="43.77858" lon="7.5081">
        <ele>3.7225952</ele>
        <time>2008-10-05T13:27:55Z</time>
      </trkpt>
      <trkpt lat="43.7788" lon="7.50816">
        <ele>3.9354553</ele>
        <time>2008-10-05T13:28:02Z</time>
      </trkpt>
    </trkseg>
  </trk>
</gpx>